<?xml version="1.0" encoding="UTF-8"?>
<gpx version="1.1" creator="https://www.youtrack.es" xsi:schemaLocation="http://www.topografix.com/GPX/1/1 http://www.topografix.com/GPX/1/1/gpx.xsd http://www.garmin.com/xmlschemas/GpxExtensions/v3 http://www.garmin.com/xmlschemas/GpxExtensionsv3.xsd http://www.garmin.com/xmlschemas/TrackPointExtension/v1 http://www.garmin.com/xmlschemas/TrackPointExtensionv1.xsd" xmlns:gpxtpx="http://www.garmin.com/xmlschemas/TrackPointExtension/v1" xmlns:gpxx="http://www.garmin.com/xmlschemas/GpxExtensions/v3" xmlns:xsi="http://www.w3.org/2001/XMLSchema-instance">
  <metadata>
    <link href="https://www.youtrack.es">
      <text>YouTrack.es</text>
    </link>
    <time>2026-05-11T01:12:45Z</time>
  </metadata>
  <trk>
    <src>https://www.youtrack.es</src>
    <link href="https://www.youtrack.es/ruta/24133-pt--navalmoral">
      <text>YouTrack.es</text>
    </link>
    <trkseg>
      <trkpt lat="40.4995200" lon="-4.7350400">
        <ele>1496.2</ele>
        <time>2021-07-22T16:58:08Z</time>
      </trkpt>
      <trkpt lat="40.4994830" lon="-4.7350020">
        <ele>1496.4</ele>
        <time>2021-07-22T16:58:09Z</time>
      </trkpt>
      <trkpt lat="40.4994870" lon="-4.7349970">
        <ele>1496.4</ele>
        <time>2021-07-22T16:58:11Z</time>
      </trkpt>
      <trkpt lat="40.4994980" lon="-4.7350030">
        <ele>1496.4</ele>
        <time>2021-07-22T16:58:13Z</time>
      </trkpt>
      <trkpt lat="40.4995090" lon="-4.7350090">
        <ele>1496.4</ele>
        <time>2021-07-22T16:58:14Z</time>
      </trkpt>
      <trkpt lat="40.4995200" lon="-4.7350160">
        <ele>1496.5</ele>
        <time>2021-07-22T16:58:16Z</time>
      </trkpt>
      <trkpt lat="40.4995310" lon="-4.7350220">
        <ele>1496.5</ele>
        <time>2021-07-22T16:58:17Z</time>
      </trkpt>
      <trkpt lat="40.4995420" lon="-4.7350280">
        <ele>1496.5</ele>
        <time>2021-07-22T16:58:18Z</time>
      </trkpt>
      <trkpt lat="40.4995220" lon="-4.7350880">
        <ele>1496.7</ele>
        <time>2021-07-22T16:58:20Z</time>
      </trkpt>
      <trkpt lat="40.4994830" lon="-4.7351240">
        <ele>1496.8</ele>
        <time>2021-07-22T16:58:21Z</time>
      </trkpt>
      <trkpt lat="40.4994630" lon="-4.7351360">
        <ele>1496.9</ele>
        <time>2021-07-22T16:58:22Z</time>
      </trkpt>
      <trkpt lat="40.4994260" lon="-4.7351510">
        <ele>1497.0</ele>
        <time>2021-07-22T16:58:24Z</time>
      </trkpt>
      <trkpt lat="40.4993880" lon="-4.7351680">
        <ele>1497.1</ele>
        <time>2021-07-22T16:58:25Z</time>
      </trkpt>
      <trkpt lat="40.4993180" lon="-4.7351960">
        <ele>1497.3</ele>
        <time>2021-07-22T16:58:27Z</time>
      </trkpt>
      <trkpt lat="40.4992550" lon="-4.7352270">
        <ele>1497.5</ele>
        <time>2021-07-22T16:58:29Z</time>
      </trkpt>
      <trkpt lat="40.4992220" lon="-4.7352470">
        <ele>1497.6</ele>
        <time>2021-07-22T16:58:30Z</time>
      </trkpt>
      <trkpt lat="40.4991820" lon="-4.7352810">
        <ele>1497.7</ele>
        <time>2021-07-22T16:58:31Z</time>
      </trkpt>
      <trkpt lat="40.4991310" lon="-4.7353280">
        <ele>1497.8</ele>
        <time>2021-07-22T16:58:33Z</time>
      </trkpt>
      <trkpt lat="40.4990970" lon="-4.7353470">
        <ele>1497.9</ele>
        <time>2021-07-22T16:58:34Z</time>
      </trkpt>
      <trkpt lat="40.4990250" lon="-4.7353840">
        <ele>1498.1</ele>
        <time>2021-07-22T16:58:36Z</time>
      </trkpt>
      <trkpt lat="40.4989860" lon="-4.7354090">
        <ele>1498.2</ele>
        <time>2021-07-22T16:58:37Z</time>
      </trkpt>
      <trkpt lat="40.4989410" lon="-4.7354370">
        <ele>1498.4</ele>
        <time>2021-07-22T16:58:38Z</time>
      </trkpt>
      <trkpt lat="40.4988890" lon="-4.7354650">
        <ele>1498.5</ele>
        <time>2021-07-22T16:58:40Z</time>
      </trkpt>
      <trkpt lat="40.4988490" lon="-4.7354890">
        <ele>1498.6</ele>
        <time>2021-07-22T16:58:41Z</time>
      </trkpt>
      <trkpt lat="40.4987960" lon="-4.7355170">
        <ele>1498.8</ele>
        <time>2021-07-22T16:58:42Z</time>
      </trkpt>
      <trkpt lat="40.4987430" lon="-4.7355400">
        <ele>1498.9</ele>
        <time>2021-07-22T16:58:44Z</time>
      </trkpt>
      <trkpt lat="40.4987060" lon="-4.7355570">
        <ele>1499.0</ele>
        <time>2021-07-22T16:58:45Z</time>
      </trkpt>
      <trkpt lat="40.4986670" lon="-4.7355800">
        <ele>1499.2</ele>
        <time>2021-07-22T16:58:46Z</time>
      </trkpt>
      <trkpt lat="40.4986350" lon="-4.7355990">
        <ele>1499.3</ele>
        <time>2021-07-22T16:58:47Z</time>
      </trkpt>
      <trkpt lat="40.4985660" lon="-4.7356300">
        <ele>1499.5</ele>
        <time>2021-07-22T16:58:49Z</time>
      </trkpt>
      <trkpt lat="40.4985180" lon="-4.7356530">
        <ele>1499.6</ele>
        <time>2021-07-22T16:58:50Z</time>
      </trkpt>
      <trkpt lat="40.4984660" lon="-4.7356820">
        <ele>1499.8</ele>
        <time>2021-07-22T16:58:52Z</time>
      </trkpt>
      <trkpt lat="40.4983990" lon="-4.7357220">
        <ele>1500.0</ele>
        <time>2021-07-22T16:58:54Z</time>
      </trkpt>
      <trkpt lat="40.4983320" lon="-4.7357580">
        <ele>1500.2</ele>
        <time>2021-07-22T16:58:56Z</time>
      </trkpt>
      <trkpt lat="40.4982910" lon="-4.7357780">
        <ele>1500.3</ele>
        <time>2021-07-22T16:58:57Z</time>
      </trkpt>
      <trkpt lat="40.4982550" lon="-4.7357950">
        <ele>1500.4</ele>
        <time>2021-07-22T16:58:58Z</time>
      </trkpt>
      <trkpt lat="40.4982060" lon="-4.7358220">
        <ele>1500.6</ele>
        <time>2021-07-22T16:58:59Z</time>
      </trkpt>
      <trkpt lat="40.4981510" lon="-4.7358520">
        <ele>1500.7</ele>
        <time>2021-07-22T16:59:01Z</time>
      </trkpt>
      <trkpt lat="40.4980870" lon="-4.7359040">
        <ele>1500.9</ele>
        <time>2021-07-22T16:59:03Z</time>
      </trkpt>
      <trkpt lat="40.4980520" lon="-4.7359330">
        <ele>1501.0</ele>
        <time>2021-07-22T16:59:04Z</time>
      </trkpt>
      <trkpt lat="40.4979940" lon="-4.7359740">
        <ele>1501.0</ele>
        <time>2021-07-22T16:59:06Z</time>
      </trkpt>
      <trkpt lat="40.4979490" lon="-4.7360090">
        <ele>1501.0</ele>
        <time>2021-07-22T16:59:07Z</time>
      </trkpt>
      <trkpt lat="40.4979140" lon="-4.7360430">
        <ele>1500.9</ele>
        <time>2021-07-22T16:59:08Z</time>
      </trkpt>
      <trkpt lat="40.4978600" lon="-4.7360930">
        <ele>1500.9</ele>
        <time>2021-07-22T16:59:10Z</time>
      </trkpt>
      <trkpt lat="40.4978090" lon="-4.7361380">
        <ele>1500.8</ele>
        <time>2021-07-22T16:59:11Z</time>
      </trkpt>
      <trkpt lat="40.4977800" lon="-4.7361670">
        <ele>1500.8</ele>
        <time>2021-07-22T16:59:12Z</time>
      </trkpt>
      <trkpt lat="40.4977380" lon="-4.7362170">
        <ele>1500.7</ele>
        <time>2021-07-22T16:59:13Z</time>
      </trkpt>
      <trkpt lat="40.4977030" lon="-4.7362510">
        <ele>1500.7</ele>
        <time>2021-07-22T16:59:14Z</time>
      </trkpt>
      <trkpt lat="40.4976690" lon="-4.7362900">
        <ele>1500.7</ele>
        <time>2021-07-22T16:59:16Z</time>
      </trkpt>
      <trkpt lat="40.4976370" lon="-4.7363270">
        <ele>1500.7</ele>
        <time>2021-07-22T16:59:17Z</time>
      </trkpt>
      <trkpt lat="40.4975950" lon="-4.7363770">
        <ele>1500.6</ele>
        <time>2021-07-22T16:59:18Z</time>
      </trkpt>
      <trkpt lat="40.4975600" lon="-4.7364120">
        <ele>1500.6</ele>
        <time>2021-07-22T16:59:19Z</time>
      </trkpt>
      <trkpt lat="40.4975050" lon="-4.7364680">
        <ele>1500.5</ele>
        <time>2021-07-22T16:59:21Z</time>
      </trkpt>
      <trkpt lat="40.4974610" lon="-4.7365090">
        <ele>1500.4</ele>
        <time>2021-07-22T16:59:22Z</time>
      </trkpt>
      <trkpt lat="40.4974170" lon="-4.7365480">
        <ele>1500.3</ele>
        <time>2021-07-22T16:59:23Z</time>
      </trkpt>
      <trkpt lat="40.4973650" lon="-4.7365790">
        <ele>1500.2</ele>
        <time>2021-07-22T16:59:25Z</time>
      </trkpt>
      <trkpt lat="40.4973130" lon="-4.7366140">
        <ele>1500.1</ele>
        <time>2021-07-22T16:59:26Z</time>
      </trkpt>
      <trkpt lat="40.4972260" lon="-4.7366730">
        <ele>1499.6</ele>
        <time>2021-07-22T16:59:28Z</time>
      </trkpt>
      <trkpt lat="40.4971810" lon="-4.7366910">
        <ele>1499.4</ele>
        <time>2021-07-22T16:59:29Z</time>
      </trkpt>
      <trkpt lat="40.4971280" lon="-4.7367000">
        <ele>1499.1</ele>
        <time>2021-07-22T16:59:30Z</time>
      </trkpt>
      <trkpt lat="40.4970730" lon="-4.7367070">
        <ele>1498.7</ele>
        <time>2021-07-22T16:59:31Z</time>
      </trkpt>
      <trkpt lat="40.4969600" lon="-4.7367040">
        <ele>1498.0</ele>
        <time>2021-07-22T16:59:33Z</time>
      </trkpt>
      <trkpt lat="40.4968410" lon="-4.7366800">
        <ele>1497.2</ele>
        <time>2021-07-22T16:59:35Z</time>
      </trkpt>
      <trkpt lat="40.4967410" lon="-4.7366230">
        <ele>1496.3</ele>
        <time>2021-07-22T16:59:37Z</time>
      </trkpt>
      <trkpt lat="40.4966940" lon="-4.7365930">
        <ele>1495.9</ele>
        <time>2021-07-22T16:59:38Z</time>
      </trkpt>
      <trkpt lat="40.4965980" lon="-4.7365080">
        <ele>1494.8</ele>
        <time>2021-07-22T16:59:40Z</time>
      </trkpt>
      <trkpt lat="40.4965510" lon="-4.7364540">
        <ele>1494.2</ele>
        <time>2021-07-22T16:59:41Z</time>
      </trkpt>
      <trkpt lat="40.4964670" lon="-4.7363200">
        <ele>1492.9</ele>
        <time>2021-07-22T16:59:43Z</time>
      </trkpt>
      <trkpt lat="40.4963910" lon="-4.7361430">
        <ele>1491.5</ele>
        <time>2021-07-22T16:59:45Z</time>
      </trkpt>
      <trkpt lat="40.4963650" lon="-4.7360370">
        <ele>1490.7</ele>
        <time>2021-07-22T16:59:46Z</time>
      </trkpt>
      <trkpt lat="40.4963140" lon="-4.7358050">
        <ele>1489.1</ele>
        <time>2021-07-22T16:59:48Z</time>
      </trkpt>
      <trkpt lat="40.4962730" lon="-4.7355440">
        <ele>1487.5</ele>
        <time>2021-07-22T16:59:50Z</time>
      </trkpt>
      <trkpt lat="40.4962510" lon="-4.7354030">
        <ele>1486.6</ele>
        <time>2021-07-22T16:59:51Z</time>
      </trkpt>
      <trkpt lat="40.4962140" lon="-4.7351190">
        <ele>1485.1</ele>
        <time>2021-07-22T16:59:53Z</time>
      </trkpt>
      <trkpt lat="40.4962030" lon="-4.7349820">
        <ele>1484.4</ele>
        <time>2021-07-22T16:59:54Z</time>
      </trkpt>
      <trkpt lat="40.4961960" lon="-4.7348410">
        <ele>1483.6</ele>
        <time>2021-07-22T16:59:55Z</time>
      </trkpt>
      <trkpt lat="40.4961630" lon="-4.7345600">
        <ele>1482.2</ele>
        <time>2021-07-22T16:59:57Z</time>
      </trkpt>
      <trkpt lat="40.4961380" lon="-4.7344150">
        <ele>1481.5</ele>
        <time>2021-07-22T16:59:58Z</time>
      </trkpt>
      <trkpt lat="40.4960700" lon="-4.7341240">
        <ele>1480.3</ele>
        <time>2021-07-22T17:00:00Z</time>
      </trkpt>
      <trkpt lat="40.4960230" lon="-4.7339800">
        <ele>1479.7</ele>
        <time>2021-07-22T17:00:01Z</time>
      </trkpt>
      <trkpt lat="40.4959690" lon="-4.7338420">
        <ele>1479.1</ele>
        <time>2021-07-22T17:00:02Z</time>
      </trkpt>
      <trkpt lat="40.4958390" lon="-4.7336130">
        <ele>1478.0</ele>
        <time>2021-07-22T17:00:04Z</time>
      </trkpt>
      <trkpt lat="40.4956990" lon="-4.7334310">
        <ele>1476.9</ele>
        <time>2021-07-22T17:00:06Z</time>
      </trkpt>
      <trkpt lat="40.4955370" lon="-4.7332790">
        <ele>1475.6</ele>
        <time>2021-07-22T17:00:08Z</time>
      </trkpt>
      <trkpt lat="40.4953650" lon="-4.7331380">
        <ele>1474.2</ele>
        <time>2021-07-22T17:00:10Z</time>
      </trkpt>
      <trkpt lat="40.4952740" lon="-4.7330690">
        <ele>1473.5</ele>
        <time>2021-07-22T17:00:11Z</time>
      </trkpt>
      <trkpt lat="40.4951820" lon="-4.7330030">
        <ele>1472.8</ele>
        <time>2021-07-22T17:00:12Z</time>
      </trkpt>
      <trkpt lat="40.4949980" lon="-4.7328670">
        <ele>1471.4</ele>
        <time>2021-07-22T17:00:14Z</time>
      </trkpt>
      <trkpt lat="40.4949050" lon="-4.7327940">
        <ele>1470.6</ele>
        <time>2021-07-22T17:00:15Z</time>
      </trkpt>
      <trkpt lat="40.4947190" lon="-4.7326510">
        <ele>1469.2</ele>
        <time>2021-07-22T17:00:17Z</time>
      </trkpt>
      <trkpt lat="40.4945360" lon="-4.7325140">
        <ele>1467.9</ele>
        <time>2021-07-22T17:00:19Z</time>
      </trkpt>
      <trkpt lat="40.4943530" lon="-4.7323800">
        <ele>1466.5</ele>
        <time>2021-07-22T17:00:21Z</time>
      </trkpt>
      <trkpt lat="40.4942620" lon="-4.7323160">
        <ele>1465.8</ele>
        <time>2021-07-22T17:00:22Z</time>
      </trkpt>
      <trkpt lat="40.4940810" lon="-4.7321820">
        <ele>1464.5</ele>
        <time>2021-07-22T17:00:24Z</time>
      </trkpt>
      <trkpt lat="40.4939960" lon="-4.7321180">
        <ele>1463.9</ele>
        <time>2021-07-22T17:00:25Z</time>
      </trkpt>
      <trkpt lat="40.4938270" lon="-4.7320310">
        <ele>1462.8</ele>
        <time>2021-07-22T17:00:27Z</time>
      </trkpt>
      <trkpt lat="40.4937410" lon="-4.7320060">
        <ele>1462.2</ele>
        <time>2021-07-22T17:00:28Z</time>
      </trkpt>
      <trkpt lat="40.4935720" lon="-4.7320060">
        <ele>1461.2</ele>
        <time>2021-07-22T17:00:30Z</time>
      </trkpt>
      <trkpt lat="40.4934920" lon="-4.7320290">
        <ele>1460.6</ele>
        <time>2021-07-22T17:00:31Z</time>
      </trkpt>
      <trkpt lat="40.4934160" lon="-4.7320690">
        <ele>1460.1</ele>
        <time>2021-07-22T17:00:32Z</time>
      </trkpt>
      <trkpt lat="40.4932840" lon="-4.7322000">
        <ele>1459.1</ele>
        <time>2021-07-22T17:00:34Z</time>
      </trkpt>
      <trkpt lat="40.4932330" lon="-4.7322850">
        <ele>1458.6</ele>
        <time>2021-07-22T17:00:35Z</time>
      </trkpt>
      <trkpt lat="40.4931600" lon="-4.7324900">
        <ele>1457.5</ele>
        <time>2021-07-22T17:00:37Z</time>
      </trkpt>
      <trkpt lat="40.4931440" lon="-4.7326080">
        <ele>1456.9</ele>
        <time>2021-07-22T17:00:38Z</time>
      </trkpt>
      <trkpt lat="40.4931400" lon="-4.7327280">
        <ele>1456.3</ele>
        <time>2021-07-22T17:00:39Z</time>
      </trkpt>
      <trkpt lat="40.4931900" lon="-4.7329580">
        <ele>1455.2</ele>
        <time>2021-07-22T17:00:41Z</time>
      </trkpt>
      <trkpt lat="40.4933100" lon="-4.7331520">
        <ele>1453.9</ele>
        <time>2021-07-22T17:00:43Z</time>
      </trkpt>
      <trkpt lat="40.4933870" lon="-4.7332290">
        <ele>1453.2</ele>
        <time>2021-07-22T17:00:44Z</time>
      </trkpt>
      <trkpt lat="40.4935800" lon="-4.7333320">
        <ele>1451.7</ele>
        <time>2021-07-22T17:00:46Z</time>
      </trkpt>
      <trkpt lat="40.4937950" lon="-4.7333690">
        <ele>1450.1</ele>
        <time>2021-07-22T17:00:48Z</time>
      </trkpt>
      <trkpt lat="40.4940050" lon="-4.7334060">
        <ele>1448.6</ele>
        <time>2021-07-22T17:00:50Z</time>
      </trkpt>
      <trkpt lat="40.4941040" lon="-4.7334370">
        <ele>1447.9</ele>
        <time>2021-07-22T17:00:51Z</time>
      </trkpt>
      <trkpt lat="40.4941960" lon="-4.7334790">
        <ele>1447.2</ele>
        <time>2021-07-22T17:00:52Z</time>
      </trkpt>
      <trkpt lat="40.4943530" lon="-4.7336220">
        <ele>1445.9</ele>
        <time>2021-07-22T17:00:54Z</time>
      </trkpt>
      <trkpt lat="40.4944180" lon="-4.7337160">
        <ele>1445.2</ele>
        <time>2021-07-22T17:00:55Z</time>
      </trkpt>
      <trkpt lat="40.4944680" lon="-4.7338220">
        <ele>1444.6</ele>
        <time>2021-07-22T17:00:56Z</time>
      </trkpt>
      <trkpt lat="40.4945370" lon="-4.7340620">
        <ele>1443.3</ele>
        <time>2021-07-22T17:00:58Z</time>
      </trkpt>
      <trkpt lat="40.4945500" lon="-4.7343330">
        <ele>1441.9</ele>
        <time>2021-07-22T17:01:00Z</time>
      </trkpt>
      <trkpt lat="40.4944970" lon="-4.7346020">
        <ele>1440.5</ele>
        <time>2021-07-22T17:01:02Z</time>
      </trkpt>
      <trkpt lat="40.4944450" lon="-4.7347340">
        <ele>1439.7</ele>
        <time>2021-07-22T17:01:03Z</time>
      </trkpt>
      <trkpt lat="40.4943880" lon="-4.7348600">
        <ele>1439.0</ele>
        <time>2021-07-22T17:01:04Z</time>
      </trkpt>
      <trkpt lat="40.4942610" lon="-4.7351140">
        <ele>1437.5</ele>
        <time>2021-07-22T17:01:06Z</time>
      </trkpt>
      <trkpt lat="40.4941330" lon="-4.7353640">
        <ele>1435.9</ele>
        <time>2021-07-22T17:01:08Z</time>
      </trkpt>
      <trkpt lat="40.4940160" lon="-4.7356240">
        <ele>1434.2</ele>
        <time>2021-07-22T17:01:10Z</time>
      </trkpt>
      <trkpt lat="40.4939550" lon="-4.7357550">
        <ele>1433.3</ele>
        <time>2021-07-22T17:01:11Z</time>
      </trkpt>
      <trkpt lat="40.4938440" lon="-4.7360240">
        <ele>1431.4</ele>
        <time>2021-07-22T17:01:13Z</time>
      </trkpt>
      <trkpt lat="40.4937960" lon="-4.7361640">
        <ele>1430.5</ele>
        <time>2021-07-22T17:01:14Z</time>
      </trkpt>
      <trkpt lat="40.4936900" lon="-4.7364400">
        <ele>1428.6</ele>
        <time>2021-07-22T17:01:16Z</time>
      </trkpt>
      <trkpt lat="40.4936360" lon="-4.7365830">
        <ele>1427.6</ele>
        <time>2021-07-22T17:01:17Z</time>
      </trkpt>
      <trkpt lat="40.4935830" lon="-4.7367280">
        <ele>1426.7</ele>
        <time>2021-07-22T17:01:18Z</time>
      </trkpt>
      <trkpt lat="40.4935290" lon="-4.7368730">
        <ele>1425.7</ele>
        <time>2021-07-22T17:01:19Z</time>
      </trkpt>
      <trkpt lat="40.4934730" lon="-4.7370220">
        <ele>1424.8</ele>
        <time>2021-07-22T17:01:20Z</time>
      </trkpt>
      <trkpt lat="40.4933640" lon="-4.7373290">
        <ele>1422.9</ele>
        <time>2021-07-22T17:01:22Z</time>
      </trkpt>
      <trkpt lat="40.4932520" lon="-4.7376390">
        <ele>1421.4</ele>
        <time>2021-07-22T17:01:24Z</time>
      </trkpt>
      <trkpt lat="40.4931940" lon="-4.7377930">
        <ele>1420.7</ele>
        <time>2021-07-22T17:01:25Z</time>
      </trkpt>
      <trkpt lat="40.4931340" lon="-4.7379440">
        <ele>1420.0</ele>
        <time>2021-07-22T17:01:26Z</time>
      </trkpt>
      <trkpt lat="40.4930630" lon="-4.7380830">
        <ele>1419.3</ele>
        <time>2021-07-22T17:01:27Z</time>
      </trkpt>
      <trkpt lat="40.4929100" lon="-4.7383280">
        <ele>1417.7</ele>
        <time>2021-07-22T17:01:29Z</time>
      </trkpt>
      <trkpt lat="40.4927380" lon="-4.7385520">
        <ele>1415.9</ele>
        <time>2021-07-22T17:01:31Z</time>
      </trkpt>
      <trkpt lat="40.4925700" lon="-4.7387920">
        <ele>1414.2</ele>
        <time>2021-07-22T17:01:33Z</time>
      </trkpt>
      <trkpt lat="40.4924890" lon="-4.7389190">
        <ele>1413.4</ele>
        <time>2021-07-22T17:01:34Z</time>
      </trkpt>
      <trkpt lat="40.4923340" lon="-4.7391730">
        <ele>1412.2</ele>
        <time>2021-07-22T17:01:36Z</time>
      </trkpt>
      <trkpt lat="40.4922000" lon="-4.7394380">
        <ele>1411.2</ele>
        <time>2021-07-22T17:01:38Z</time>
      </trkpt>
      <trkpt lat="40.4920760" lon="-4.7396990">
        <ele>1410.3</ele>
        <time>2021-07-22T17:01:40Z</time>
      </trkpt>
      <trkpt lat="40.4920140" lon="-4.7398210">
        <ele>1409.9</ele>
        <time>2021-07-22T17:01:41Z</time>
      </trkpt>
      <trkpt lat="40.4918970" lon="-4.7400560">
        <ele>1409.3</ele>
        <time>2021-07-22T17:01:43Z</time>
      </trkpt>
      <trkpt lat="40.4918430" lon="-4.7401740">
        <ele>1409.0</ele>
        <time>2021-07-22T17:01:44Z</time>
      </trkpt>
      <trkpt lat="40.4917870" lon="-4.7402830">
        <ele>1408.7</ele>
        <time>2021-07-22T17:01:45Z</time>
      </trkpt>
      <trkpt lat="40.4917300" lon="-4.7403920">
        <ele>1408.3</ele>
        <time>2021-07-22T17:01:46Z</time>
      </trkpt>
      <trkpt lat="40.4916200" lon="-4.7405940">
        <ele>1407.7</ele>
        <time>2021-07-22T17:01:48Z</time>
      </trkpt>
      <trkpt lat="40.4914960" lon="-4.7407710">
        <ele>1407.2</ele>
        <time>2021-07-22T17:01:50Z</time>
      </trkpt>
      <trkpt lat="40.4913650" lon="-4.7409300">
        <ele>1406.5</ele>
        <time>2021-07-22T17:01:52Z</time>
      </trkpt>
      <trkpt lat="40.4912960" lon="-4.7410060">
        <ele>1406.1</ele>
        <time>2021-07-22T17:01:53Z</time>
      </trkpt>
      <trkpt lat="40.4911580" lon="-4.7411580">
        <ele>1405.4</ele>
        <time>2021-07-22T17:01:55Z</time>
      </trkpt>
      <trkpt lat="40.4910240" lon="-4.7413050">
        <ele>1404.7</ele>
        <time>2021-07-22T17:01:57Z</time>
      </trkpt>
      <trkpt lat="40.4909550" lon="-4.7413780">
        <ele>1404.3</ele>
        <time>2021-07-22T17:01:58Z</time>
      </trkpt>
      <trkpt lat="40.4908260" lon="-4.7415350">
        <ele>1403.7</ele>
        <time>2021-07-22T17:02:00Z</time>
      </trkpt>
      <trkpt lat="40.4906920" lon="-4.7416860">
        <ele>1403.1</ele>
        <time>2021-07-22T17:02:02Z</time>
      </trkpt>
      <trkpt lat="40.4905390" lon="-4.7418140">
        <ele>1402.5</ele>
        <time>2021-07-22T17:02:04Z</time>
      </trkpt>
      <trkpt lat="40.4904550" lon="-4.7418620">
        <ele>1402.2</ele>
        <time>2021-07-22T17:02:05Z</time>
      </trkpt>
      <trkpt lat="40.4903700" lon="-4.7418970">
        <ele>1401.9</ele>
        <time>2021-07-22T17:02:06Z</time>
      </trkpt>
      <trkpt lat="40.4901990" lon="-4.7419250">
        <ele>1401.3</ele>
        <time>2021-07-22T17:02:08Z</time>
      </trkpt>
      <trkpt lat="40.4900320" lon="-4.7419700">
        <ele>1400.7</ele>
        <time>2021-07-22T17:02:10Z</time>
      </trkpt>
      <trkpt lat="40.4898840" lon="-4.7420730">
        <ele>1399.9</ele>
        <time>2021-07-22T17:02:12Z</time>
      </trkpt>
      <trkpt lat="40.4897590" lon="-4.7422200">
        <ele>1398.9</ele>
        <time>2021-07-22T17:02:14Z</time>
      </trkpt>
      <trkpt lat="40.4897030" lon="-4.7423040">
        <ele>1398.4</ele>
        <time>2021-07-22T17:02:15Z</time>
      </trkpt>
      <trkpt lat="40.4896500" lon="-4.7423920">
        <ele>1397.8</ele>
        <time>2021-07-22T17:02:16Z</time>
      </trkpt>
      <trkpt lat="40.4895440" lon="-4.7425790">
        <ele>1396.6</ele>
        <time>2021-07-22T17:02:18Z</time>
      </trkpt>
      <trkpt lat="40.4894870" lon="-4.7426760">
        <ele>1395.9</ele>
        <time>2021-07-22T17:02:19Z</time>
      </trkpt>
      <trkpt lat="40.4894300" lon="-4.7427740">
        <ele>1395.2</ele>
        <time>2021-07-22T17:02:20Z</time>
      </trkpt>
      <trkpt lat="40.4893080" lon="-4.7429660">
        <ele>1393.8</ele>
        <time>2021-07-22T17:02:22Z</time>
      </trkpt>
      <trkpt lat="40.4892460" lon="-4.7430670">
        <ele>1393.1</ele>
        <time>2021-07-22T17:02:23Z</time>
      </trkpt>
      <trkpt lat="40.4891850" lon="-4.7431680">
        <ele>1392.4</ele>
        <time>2021-07-22T17:02:24Z</time>
      </trkpt>
      <trkpt lat="40.4890610" lon="-4.7433730">
        <ele>1391.0</ele>
        <time>2021-07-22T17:02:26Z</time>
      </trkpt>
      <trkpt lat="40.4889980" lon="-4.7434830">
        <ele>1390.3</ele>
        <time>2021-07-22T17:02:27Z</time>
      </trkpt>
      <trkpt lat="40.4888780" lon="-4.7437160">
        <ele>1389.1</ele>
        <time>2021-07-22T17:02:29Z</time>
      </trkpt>
      <trkpt lat="40.4887780" lon="-4.7439750">
        <ele>1388.1</ele>
        <time>2021-07-22T17:02:31Z</time>
      </trkpt>
      <trkpt lat="40.4887130" lon="-4.7442510">
        <ele>1387.3</ele>
        <time>2021-07-22T17:02:33Z</time>
      </trkpt>
      <trkpt lat="40.4886960" lon="-4.7443910">
        <ele>1387.0</ele>
        <time>2021-07-22T17:02:34Z</time>
      </trkpt>
      <trkpt lat="40.4886850" lon="-4.7445270">
        <ele>1386.6</ele>
        <time>2021-07-22T17:02:35Z</time>
      </trkpt>
      <trkpt lat="40.4886450" lon="-4.7447810">
        <ele>1385.9</ele>
        <time>2021-07-22T17:02:37Z</time>
      </trkpt>
      <trkpt lat="40.4885560" lon="-4.7449990">
        <ele>1385.0</ele>
        <time>2021-07-22T17:02:39Z</time>
      </trkpt>
      <trkpt lat="40.4884310" lon="-4.7451880">
        <ele>1383.8</ele>
        <time>2021-07-22T17:02:41Z</time>
      </trkpt>
      <trkpt lat="40.4883500" lon="-4.7452590">
        <ele>1383.2</ele>
        <time>2021-07-22T17:02:42Z</time>
      </trkpt>
      <trkpt lat="40.4881820" lon="-4.7453780">
        <ele>1381.8</ele>
        <time>2021-07-22T17:02:44Z</time>
      </trkpt>
      <trkpt lat="40.4879910" lon="-4.7454610">
        <ele>1380.3</ele>
        <time>2021-07-22T17:02:46Z</time>
      </trkpt>
      <trkpt lat="40.4878100" lon="-4.7455670">
        <ele>1378.8</ele>
        <time>2021-07-22T17:02:48Z</time>
      </trkpt>
      <trkpt lat="40.4876450" lon="-4.7457240">
        <ele>1377.3</ele>
        <time>2021-07-22T17:02:50Z</time>
      </trkpt>
      <trkpt lat="40.4875700" lon="-4.7458150">
        <ele>1376.5</ele>
        <time>2021-07-22T17:02:51Z</time>
      </trkpt>
      <trkpt lat="40.4874290" lon="-4.7460060">
        <ele>1375.0</ele>
        <time>2021-07-22T17:02:53Z</time>
      </trkpt>
      <trkpt lat="40.4873580" lon="-4.7461070">
        <ele>1374.2</ele>
        <time>2021-07-22T17:02:54Z</time>
      </trkpt>
      <trkpt lat="40.4872080" lon="-4.7463010">
        <ele>1372.7</ele>
        <time>2021-07-22T17:02:56Z</time>
      </trkpt>
      <trkpt lat="40.4871340" lon="-4.7464080">
        <ele>1371.9</ele>
        <time>2021-07-22T17:02:57Z</time>
      </trkpt>
      <trkpt lat="40.4870610" lon="-4.7465170">
        <ele>1371.1</ele>
        <time>2021-07-22T17:02:58Z</time>
      </trkpt>
      <trkpt lat="40.4869850" lon="-4.7466190">
        <ele>1370.4</ele>
        <time>2021-07-22T17:02:59Z</time>
      </trkpt>
      <trkpt lat="40.4868310" lon="-4.7468200">
        <ele>1369.2</ele>
        <time>2021-07-22T17:03:01Z</time>
      </trkpt>
      <trkpt lat="40.4866670" lon="-4.7470190">
        <ele>1368.3</ele>
        <time>2021-07-22T17:03:03Z</time>
      </trkpt>
      <trkpt lat="40.4865820" lon="-4.7471120">
        <ele>1368.0</ele>
        <time>2021-07-22T17:03:04Z</time>
      </trkpt>
      <trkpt lat="40.4864140" lon="-4.7472790">
        <ele>1367.5</ele>
        <time>2021-07-22T17:03:06Z</time>
      </trkpt>
      <trkpt lat="40.4862510" lon="-4.7474190">
        <ele>1367.1</ele>
        <time>2021-07-22T17:03:08Z</time>
      </trkpt>
      <trkpt lat="40.4861730" lon="-4.7474850">
        <ele>1366.8</ele>
        <time>2021-07-22T17:03:09Z</time>
      </trkpt>
      <trkpt lat="40.4860130" lon="-4.7475940">
        <ele>1366.2</ele>
        <time>2021-07-22T17:03:11Z</time>
      </trkpt>
      <trkpt lat="40.4859340" lon="-4.7476510">
        <ele>1365.8</ele>
        <time>2021-07-22T17:03:12Z</time>
      </trkpt>
      <trkpt lat="40.4857740" lon="-4.7477640">
        <ele>1365.0</ele>
        <time>2021-07-22T17:03:14Z</time>
      </trkpt>
      <trkpt lat="40.4856190" lon="-4.7478730">
        <ele>1364.2</ele>
        <time>2021-07-22T17:03:16Z</time>
      </trkpt>
      <trkpt lat="40.4854790" lon="-4.7479970">
        <ele>1363.4</ele>
        <time>2021-07-22T17:03:18Z</time>
      </trkpt>
      <trkpt lat="40.4853440" lon="-4.7481270">
        <ele>1362.5</ele>
        <time>2021-07-22T17:03:20Z</time>
      </trkpt>
      <trkpt lat="40.4852770" lon="-4.7481960">
        <ele>1361.9</ele>
        <time>2021-07-22T17:03:21Z</time>
      </trkpt>
      <trkpt lat="40.4851410" lon="-4.7483370">
        <ele>1360.8</ele>
        <time>2021-07-22T17:03:23Z</time>
      </trkpt>
      <trkpt lat="40.4850730" lon="-4.7484100">
        <ele>1360.2</ele>
        <time>2021-07-22T17:03:24Z</time>
      </trkpt>
      <trkpt lat="40.4850040" lon="-4.7484860">
        <ele>1359.6</ele>
        <time>2021-07-22T17:03:25Z</time>
      </trkpt>
      <trkpt lat="40.4849320" lon="-4.7485660">
        <ele>1359.0</ele>
        <time>2021-07-22T17:03:26Z</time>
      </trkpt>
      <trkpt lat="40.4847880" lon="-4.7487190">
        <ele>1357.7</ele>
        <time>2021-07-22T17:03:28Z</time>
      </trkpt>
      <trkpt lat="40.4846390" lon="-4.7488840">
        <ele>1356.4</ele>
        <time>2021-07-22T17:03:30Z</time>
      </trkpt>
      <trkpt lat="40.4845670" lon="-4.7489700">
        <ele>1355.8</ele>
        <time>2021-07-22T17:03:31Z</time>
      </trkpt>
      <trkpt lat="40.4844260" lon="-4.7491520">
        <ele>1354.8</ele>
        <time>2021-07-22T17:03:33Z</time>
      </trkpt>
      <trkpt lat="40.4843060" lon="-4.7493590">
        <ele>1353.8</ele>
        <time>2021-07-22T17:03:35Z</time>
      </trkpt>
      <trkpt lat="40.4842510" lon="-4.7494680">
        <ele>1353.4</ele>
        <time>2021-07-22T17:03:36Z</time>
      </trkpt>
      <trkpt lat="40.4842040" lon="-4.7495790">
        <ele>1353.0</ele>
        <time>2021-07-22T17:03:37Z</time>
      </trkpt>
      <trkpt lat="40.4841640" lon="-4.7496960">
        <ele>1352.6</ele>
        <time>2021-07-22T17:03:38Z</time>
      </trkpt>
      <trkpt lat="40.4841040" lon="-4.7499220">
        <ele>1351.8</ele>
        <time>2021-07-22T17:03:40Z</time>
      </trkpt>
      <trkpt lat="40.4840840" lon="-4.7500390">
        <ele>1351.3</ele>
        <time>2021-07-22T17:03:41Z</time>
      </trkpt>
      <trkpt lat="40.4840730" lon="-4.7501540">
        <ele>1350.9</ele>
        <time>2021-07-22T17:03:42Z</time>
      </trkpt>
      <trkpt lat="40.4840650" lon="-4.7503870">
        <ele>1350.0</ele>
        <time>2021-07-22T17:03:44Z</time>
      </trkpt>
      <trkpt lat="40.4840780" lon="-4.7506240">
        <ele>1349.1</ele>
        <time>2021-07-22T17:03:46Z</time>
      </trkpt>
      <trkpt lat="40.4841180" lon="-4.7508550">
        <ele>1348.2</ele>
        <time>2021-07-22T17:03:48Z</time>
      </trkpt>
      <trkpt lat="40.4841750" lon="-4.7510700">
        <ele>1347.2</ele>
        <time>2021-07-22T17:03:50Z</time>
      </trkpt>
      <trkpt lat="40.4842260" lon="-4.7512680">
        <ele>1346.2</ele>
        <time>2021-07-22T17:03:52Z</time>
      </trkpt>
      <trkpt lat="40.4842320" lon="-4.7514530">
        <ele>1345.5</ele>
        <time>2021-07-22T17:03:54Z</time>
      </trkpt>
      <trkpt lat="40.4841730" lon="-4.7516140">
        <ele>1344.8</ele>
        <time>2021-07-22T17:03:56Z</time>
      </trkpt>
      <trkpt lat="40.4841190" lon="-4.7516690">
        <ele>1344.4</ele>
        <time>2021-07-22T17:03:57Z</time>
      </trkpt>
      <trkpt lat="40.4839820" lon="-4.7517100">
        <ele>1343.6</ele>
        <time>2021-07-22T17:03:59Z</time>
      </trkpt>
      <trkpt lat="40.4838410" lon="-4.7516510">
        <ele>1342.7</ele>
        <time>2021-07-22T17:04:01Z</time>
      </trkpt>
      <trkpt lat="40.4837950" lon="-4.7515690">
        <ele>1342.3</ele>
        <time>2021-07-22T17:04:02Z</time>
      </trkpt>
      <trkpt lat="40.4837390" lon="-4.7513500">
        <ele>1341.2</ele>
        <time>2021-07-22T17:04:04Z</time>
      </trkpt>
      <trkpt lat="40.4837260" lon="-4.7511140">
        <ele>1340.1</ele>
        <time>2021-07-22T17:04:06Z</time>
      </trkpt>
      <trkpt lat="40.4837300" lon="-4.7508710">
        <ele>1339.0</ele>
        <time>2021-07-22T17:04:08Z</time>
      </trkpt>
      <trkpt lat="40.4837100" lon="-4.7506120">
        <ele>1337.8</ele>
        <time>2021-07-22T17:04:10Z</time>
      </trkpt>
      <trkpt lat="40.4836910" lon="-4.7504780">
        <ele>1337.2</ele>
        <time>2021-07-22T17:04:11Z</time>
      </trkpt>
      <trkpt lat="40.4836650" lon="-4.7503470">
        <ele>1336.7</ele>
        <time>2021-07-22T17:04:12Z</time>
      </trkpt>
      <trkpt lat="40.4836030" lon="-4.7500790">
        <ele>1335.6</ele>
        <time>2021-07-22T17:04:14Z</time>
      </trkpt>
      <trkpt lat="40.4835290" lon="-4.7498200">
        <ele>1334.6</ele>
        <time>2021-07-22T17:04:16Z</time>
      </trkpt>
      <trkpt lat="40.4834980" lon="-4.7496970">
        <ele>1334.1</ele>
        <time>2021-07-22T17:04:17Z</time>
      </trkpt>
      <trkpt lat="40.4834580" lon="-4.7494540">
        <ele>1333.3</ele>
        <time>2021-07-22T17:04:19Z</time>
      </trkpt>
      <trkpt lat="40.4834490" lon="-4.7493300">
        <ele>1332.8</ele>
        <time>2021-07-22T17:04:20Z</time>
      </trkpt>
      <trkpt lat="40.4834500" lon="-4.7492040">
        <ele>1332.4</ele>
        <time>2021-07-22T17:04:21Z</time>
      </trkpt>
      <trkpt lat="40.4834950" lon="-4.7489530">
        <ele>1331.5</ele>
        <time>2021-07-22T17:04:23Z</time>
      </trkpt>
      <trkpt lat="40.4835380" lon="-4.7488300">
        <ele>1331.1</ele>
        <time>2021-07-22T17:04:24Z</time>
      </trkpt>
      <trkpt lat="40.4836410" lon="-4.7485950">
        <ele>1330.2</ele>
        <time>2021-07-22T17:04:26Z</time>
      </trkpt>
      <trkpt lat="40.4837520" lon="-4.7483530">
        <ele>1329.2</ele>
        <time>2021-07-22T17:04:28Z</time>
      </trkpt>
      <trkpt lat="40.4838070" lon="-4.7482290">
        <ele>1328.7</ele>
        <time>2021-07-22T17:04:29Z</time>
      </trkpt>
      <trkpt lat="40.4838670" lon="-4.7481090">
        <ele>1328.2</ele>
        <time>2021-07-22T17:04:30Z</time>
      </trkpt>
      <trkpt lat="40.4839290" lon="-4.7479870">
        <ele>1327.6</ele>
        <time>2021-07-22T17:04:31Z</time>
      </trkpt>
      <trkpt lat="40.4839870" lon="-4.7478620">
        <ele>1326.9</ele>
        <time>2021-07-22T17:04:32Z</time>
      </trkpt>
      <trkpt lat="40.4840960" lon="-4.7476110">
        <ele>1325.4</ele>
        <time>2021-07-22T17:04:34Z</time>
      </trkpt>
      <trkpt lat="40.4841450" lon="-4.7474830">
        <ele>1324.6</ele>
        <time>2021-07-22T17:04:35Z</time>
      </trkpt>
      <trkpt lat="40.4842450" lon="-4.7472400">
        <ele>1323.2</ele>
        <time>2021-07-22T17:04:37Z</time>
      </trkpt>
      <trkpt lat="40.4842950" lon="-4.7471250">
        <ele>1322.5</ele>
        <time>2021-07-22T17:04:38Z</time>
      </trkpt>
      <trkpt lat="40.4843420" lon="-4.7470170">
        <ele>1322.0</ele>
        <time>2021-07-22T17:04:39Z</time>
      </trkpt>
      <trkpt lat="40.4844320" lon="-4.7468240">
        <ele>1321.0</ele>
        <time>2021-07-22T17:04:41Z</time>
      </trkpt>
      <trkpt lat="40.4845340" lon="-4.7466490">
        <ele>1320.0</ele>
        <time>2021-07-22T17:04:43Z</time>
      </trkpt>
      <trkpt lat="40.4845860" lon="-4.7465660">
        <ele>1319.5</ele>
        <time>2021-07-22T17:04:44Z</time>
      </trkpt>
      <trkpt lat="40.4846760" lon="-4.7463980">
        <ele>1318.6</ele>
        <time>2021-07-22T17:04:46Z</time>
      </trkpt>
      <trkpt lat="40.4847030" lon="-4.7463080">
        <ele>1318.1</ele>
        <time>2021-07-22T17:04:47Z</time>
      </trkpt>
      <trkpt lat="40.4847190" lon="-4.7462160">
        <ele>1317.6</ele>
        <time>2021-07-22T17:04:48Z</time>
      </trkpt>
      <trkpt lat="40.4847000" lon="-4.7460420">
        <ele>1316.8</ele>
        <time>2021-07-22T17:04:50Z</time>
      </trkpt>
      <trkpt lat="40.4846220" lon="-4.7459030">
        <ele>1315.8</ele>
        <time>2021-07-22T17:04:52Z</time>
      </trkpt>
      <trkpt lat="40.4845050" lon="-4.7458180">
        <ele>1314.8</ele>
        <time>2021-07-22T17:04:54Z</time>
      </trkpt>
      <trkpt lat="40.4844310" lon="-4.7458050">
        <ele>1314.3</ele>
        <time>2021-07-22T17:04:55Z</time>
      </trkpt>
      <trkpt lat="40.4843520" lon="-4.7458170">
        <ele>1313.7</ele>
        <time>2021-07-22T17:04:56Z</time>
      </trkpt>
      <trkpt lat="40.4841940" lon="-4.7458930">
        <ele>1312.6</ele>
        <time>2021-07-22T17:04:58Z</time>
      </trkpt>
      <trkpt lat="40.4841180" lon="-4.7459420">
        <ele>1312.0</ele>
        <time>2021-07-22T17:04:59Z</time>
      </trkpt>
      <trkpt lat="40.4839600" lon="-4.7460410">
        <ele>1310.8</ele>
        <time>2021-07-22T17:05:01Z</time>
      </trkpt>
      <trkpt lat="40.4838780" lon="-4.7460860">
        <ele>1310.3</ele>
        <time>2021-07-22T17:05:02Z</time>
      </trkpt>
      <trkpt lat="40.4837170" lon="-4.7461920">
        <ele>1309.2</ele>
        <time>2021-07-22T17:05:04Z</time>
      </trkpt>
      <trkpt lat="40.4836340" lon="-4.7462380">
        <ele>1308.6</ele>
        <time>2021-07-22T17:05:05Z</time>
      </trkpt>
      <trkpt lat="40.4835560" lon="-4.7462930">
        <ele>1308.0</ele>
        <time>2021-07-22T17:05:06Z</time>
      </trkpt>
      <trkpt lat="40.4833990" lon="-4.7464200">
        <ele>1306.8</ele>
        <time>2021-07-22T17:05:08Z</time>
      </trkpt>
      <trkpt lat="40.4833130" lon="-4.7464800">
        <ele>1306.2</ele>
        <time>2021-07-22T17:05:09Z</time>
      </trkpt>
      <trkpt lat="40.4831420" lon="-4.7465970">
        <ele>1305.0</ele>
        <time>2021-07-22T17:05:11Z</time>
      </trkpt>
      <trkpt lat="40.4830570" lon="-4.7466530">
        <ele>1304.4</ele>
        <time>2021-07-22T17:05:12Z</time>
      </trkpt>
      <trkpt lat="40.4829710" lon="-4.7467080">
        <ele>1303.8</ele>
        <time>2021-07-22T17:05:13Z</time>
      </trkpt>
      <trkpt lat="40.4827990" lon="-4.7468200">
        <ele>1302.8</ele>
        <time>2021-07-22T17:05:15Z</time>
      </trkpt>
      <trkpt lat="40.4827150" lon="-4.7468800">
        <ele>1302.3</ele>
        <time>2021-07-22T17:05:16Z</time>
      </trkpt>
      <trkpt lat="40.4825440" lon="-4.7470030">
        <ele>1301.2</ele>
        <time>2021-07-22T17:05:18Z</time>
      </trkpt>
      <trkpt lat="40.4823740" lon="-4.7471260">
        <ele>1300.3</ele>
        <time>2021-07-22T17:05:20Z</time>
      </trkpt>
      <trkpt lat="40.4822090" lon="-4.7472480">
        <ele>1299.3</ele>
        <time>2021-07-22T17:05:22Z</time>
      </trkpt>
      <trkpt lat="40.4821290" lon="-4.7473100">
        <ele>1298.8</ele>
        <time>2021-07-22T17:05:23Z</time>
      </trkpt>
      <trkpt lat="40.4819710" lon="-4.7474190">
        <ele>1297.8</ele>
        <time>2021-07-22T17:05:25Z</time>
      </trkpt>
      <trkpt lat="40.4818330" lon="-4.7475350">
        <ele>1296.8</ele>
        <time>2021-07-22T17:05:27Z</time>
      </trkpt>
      <trkpt lat="40.4817670" lon="-4.7476000">
        <ele>1296.2</ele>
        <time>2021-07-22T17:05:28Z</time>
      </trkpt>
      <trkpt lat="40.4816400" lon="-4.7477430">
        <ele>1295.1</ele>
        <time>2021-07-22T17:05:30Z</time>
      </trkpt>
      <trkpt lat="40.4815820" lon="-4.7478270">
        <ele>1294.5</ele>
        <time>2021-07-22T17:05:31Z</time>
      </trkpt>
      <trkpt lat="40.4815310" lon="-4.7479210">
        <ele>1293.9</ele>
        <time>2021-07-22T17:05:32Z</time>
      </trkpt>
      <trkpt lat="40.4814550" lon="-4.7481200">
        <ele>1292.7</ele>
        <time>2021-07-22T17:05:34Z</time>
      </trkpt>
      <trkpt lat="40.4814000" lon="-4.7483260">
        <ele>1291.6</ele>
        <time>2021-07-22T17:05:36Z</time>
      </trkpt>
      <trkpt lat="40.4813790" lon="-4.7484350">
        <ele>1291.0</ele>
        <time>2021-07-22T17:05:37Z</time>
      </trkpt>
      <trkpt lat="40.4813420" lon="-4.7486520">
        <ele>1290.0</ele>
        <time>2021-07-22T17:05:39Z</time>
      </trkpt>
      <trkpt lat="40.4813310" lon="-4.7487660">
        <ele>1289.4</ele>
        <time>2021-07-22T17:05:40Z</time>
      </trkpt>
      <trkpt lat="40.4813200" lon="-4.7489920">
        <ele>1288.4</ele>
        <time>2021-07-22T17:05:42Z</time>
      </trkpt>
      <trkpt lat="40.4813090" lon="-4.7492170">
        <ele>1287.4</ele>
        <time>2021-07-22T17:05:44Z</time>
      </trkpt>
      <trkpt lat="40.4813010" lon="-4.7494470">
        <ele>1286.5</ele>
        <time>2021-07-22T17:05:46Z</time>
      </trkpt>
      <trkpt lat="40.4812990" lon="-4.7496750">
        <ele>1285.5</ele>
        <time>2021-07-22T17:05:48Z</time>
      </trkpt>
      <trkpt lat="40.4812960" lon="-4.7497910">
        <ele>1285.0</ele>
        <time>2021-07-22T17:05:49Z</time>
      </trkpt>
      <trkpt lat="40.4812910" lon="-4.7500180">
        <ele>1284.1</ele>
        <time>2021-07-22T17:05:51Z</time>
      </trkpt>
      <trkpt lat="40.4812890" lon="-4.7501270">
        <ele>1283.7</ele>
        <time>2021-07-22T17:05:52Z</time>
      </trkpt>
      <trkpt lat="40.4813000" lon="-4.7503390">
        <ele>1282.8</ele>
        <time>2021-07-22T17:05:54Z</time>
      </trkpt>
      <trkpt lat="40.4813110" lon="-4.7504420">
        <ele>1282.4</ele>
        <time>2021-07-22T17:05:55Z</time>
      </trkpt>
      <trkpt lat="40.4813530" lon="-4.7506450">
        <ele>1281.5</ele>
        <time>2021-07-22T17:05:57Z</time>
      </trkpt>
      <trkpt lat="40.4814380" lon="-4.7508340">
        <ele>1280.4</ele>
        <time>2021-07-22T17:05:59Z</time>
      </trkpt>
      <trkpt lat="40.4814920" lon="-4.7509200">
        <ele>1279.9</ele>
        <time>2021-07-22T17:06:00Z</time>
      </trkpt>
      <trkpt lat="40.4816290" lon="-4.7510610">
        <ele>1278.6</ele>
        <time>2021-07-22T17:06:02Z</time>
      </trkpt>
      <trkpt lat="40.4817080" lon="-4.7511170">
        <ele>1277.9</ele>
        <time>2021-07-22T17:06:03Z</time>
      </trkpt>
      <trkpt lat="40.4817870" lon="-4.7511700">
        <ele>1277.2</ele>
        <time>2021-07-22T17:06:04Z</time>
      </trkpt>
      <trkpt lat="40.4819300" lon="-4.7513010">
        <ele>1275.9</ele>
        <time>2021-07-22T17:06:06Z</time>
      </trkpt>
      <trkpt lat="40.4819930" lon="-4.7513860">
        <ele>1275.2</ele>
        <time>2021-07-22T17:06:07Z</time>
      </trkpt>
      <trkpt lat="40.4820910" lon="-4.7515930">
        <ele>1273.8</ele>
        <time>2021-07-22T17:06:09Z</time>
      </trkpt>
      <trkpt lat="40.4821350" lon="-4.7517070">
        <ele>1273.0</ele>
        <time>2021-07-22T17:06:10Z</time>
      </trkpt>
      <trkpt lat="40.4822180" lon="-4.7519310">
        <ele>1271.6</ele>
        <time>2021-07-22T17:06:12Z</time>
      </trkpt>
      <trkpt lat="40.4822880" lon="-4.7521540">
        <ele>1270.3</ele>
        <time>2021-07-22T17:06:14Z</time>
      </trkpt>
      <trkpt lat="40.4823310" lon="-4.7524020">
        <ele>1269.1</ele>
        <time>2021-07-22T17:06:16Z</time>
      </trkpt>
      <trkpt lat="40.4823500" lon="-4.7526640">
        <ele>1268.2</ele>
        <time>2021-07-22T17:06:18Z</time>
      </trkpt>
      <trkpt lat="40.4823690" lon="-4.7529230">
        <ele>1267.4</ele>
        <time>2021-07-22T17:06:20Z</time>
      </trkpt>
      <trkpt lat="40.4823830" lon="-4.7530560">
        <ele>1267.1</ele>
        <time>2021-07-22T17:06:21Z</time>
      </trkpt>
      <trkpt lat="40.4824290" lon="-4.7533120">
        <ele>1266.6</ele>
        <time>2021-07-22T17:06:23Z</time>
      </trkpt>
      <trkpt lat="40.4824480" lon="-4.7534410">
        <ele>1266.4</ele>
        <time>2021-07-22T17:06:24Z</time>
      </trkpt>
      <trkpt lat="40.4824700" lon="-4.7535700">
        <ele>1266.2</ele>
        <time>2021-07-22T17:06:25Z</time>
      </trkpt>
      <trkpt lat="40.4825240" lon="-4.7538060">
        <ele>1266.1</ele>
        <time>2021-07-22T17:06:27Z</time>
      </trkpt>
      <trkpt lat="40.4825810" lon="-4.7540290">
        <ele>1266.1</ele>
        <time>2021-07-22T17:06:29Z</time>
      </trkpt>
      <trkpt lat="40.4826080" lon="-4.7541350">
        <ele>1266.0</ele>
        <time>2021-07-22T17:06:30Z</time>
      </trkpt>
      <trkpt lat="40.4826350" lon="-4.7542400">
        <ele>1266.0</ele>
        <time>2021-07-22T17:06:31Z</time>
      </trkpt>
      <trkpt lat="40.4826970" lon="-4.7544380">
        <ele>1265.8</ele>
        <time>2021-07-22T17:06:33Z</time>
      </trkpt>
      <trkpt lat="40.4827370" lon="-4.7545290">
        <ele>1265.8</ele>
        <time>2021-07-22T17:06:34Z</time>
      </trkpt>
      <trkpt lat="40.4828610" lon="-4.7546670">
        <ele>1265.6</ele>
        <time>2021-07-22T17:06:36Z</time>
      </trkpt>
      <trkpt lat="40.4830060" lon="-4.7547520">
        <ele>1265.3</ele>
        <time>2021-07-22T17:06:38Z</time>
      </trkpt>
      <trkpt lat="40.4830820" lon="-4.7547720">
        <ele>1265.2</ele>
        <time>2021-07-22T17:06:39Z</time>
      </trkpt>
      <trkpt lat="40.4832290" lon="-4.7548040">
        <ele>1264.9</ele>
        <time>2021-07-22T17:06:41Z</time>
      </trkpt>
      <trkpt lat="40.4832930" lon="-4.7548400">
        <ele>1264.7</ele>
        <time>2021-07-22T17:06:42Z</time>
      </trkpt>
      <trkpt lat="40.4834060" lon="-4.7549580">
        <ele>1264.3</ele>
        <time>2021-07-22T17:06:44Z</time>
      </trkpt>
      <trkpt lat="40.4834540" lon="-4.7550330">
        <ele>1264.0</ele>
        <time>2021-07-22T17:06:45Z</time>
      </trkpt>
      <trkpt lat="40.4834910" lon="-4.7551150">
        <ele>1263.7</ele>
        <time>2021-07-22T17:06:46Z</time>
      </trkpt>
      <trkpt lat="40.4835150" lon="-4.7552060">
        <ele>1263.3</ele>
        <time>2021-07-22T17:06:47Z</time>
      </trkpt>
      <trkpt lat="40.4835300" lon="-4.7553030">
        <ele>1262.9</ele>
        <time>2021-07-22T17:06:48Z</time>
      </trkpt>
      <trkpt lat="40.4835440" lon="-4.7555050">
        <ele>1261.9</ele>
        <time>2021-07-22T17:06:50Z</time>
      </trkpt>
      <trkpt lat="40.4835520" lon="-4.7557220">
        <ele>1260.7</ele>
        <time>2021-07-22T17:06:52Z</time>
      </trkpt>
      <trkpt lat="40.4835480" lon="-4.7559580">
        <ele>1259.3</ele>
        <time>2021-07-22T17:06:54Z</time>
      </trkpt>
      <trkpt lat="40.4835200" lon="-4.7562020">
        <ele>1257.9</ele>
        <time>2021-07-22T17:06:56Z</time>
      </trkpt>
      <trkpt lat="40.4834690" lon="-4.7564520">
        <ele>1256.4</ele>
        <time>2021-07-22T17:06:58Z</time>
      </trkpt>
      <trkpt lat="40.4834240" lon="-4.7567230">
        <ele>1254.7</ele>
        <time>2021-07-22T17:07:00Z</time>
      </trkpt>
      <trkpt lat="40.4833750" lon="-4.7570080">
        <ele>1253.0</ele>
        <time>2021-07-22T17:07:02Z</time>
      </trkpt>
      <trkpt lat="40.4833480" lon="-4.7571510">
        <ele>1252.2</ele>
        <time>2021-07-22T17:07:03Z</time>
      </trkpt>
      <trkpt lat="40.4832980" lon="-4.7574360">
        <ele>1250.8</ele>
        <time>2021-07-22T17:07:05Z</time>
      </trkpt>
      <trkpt lat="40.4832750" lon="-4.7575790">
        <ele>1250.1</ele>
        <time>2021-07-22T17:07:06Z</time>
      </trkpt>
      <trkpt lat="40.4832560" lon="-4.7577210">
        <ele>1249.4</ele>
        <time>2021-07-22T17:07:07Z</time>
      </trkpt>
      <trkpt lat="40.4832260" lon="-4.7579990">
        <ele>1248.4</ele>
        <time>2021-07-22T17:07:09Z</time>
      </trkpt>
      <trkpt lat="40.4832180" lon="-4.7581380">
        <ele>1247.9</ele>
        <time>2021-07-22T17:07:10Z</time>
      </trkpt>
      <trkpt lat="40.4832160" lon="-4.7582780">
        <ele>1247.4</ele>
        <time>2021-07-22T17:07:11Z</time>
      </trkpt>
      <trkpt lat="40.4832240" lon="-4.7584210">
        <ele>1246.9</ele>
        <time>2021-07-22T17:07:12Z</time>
      </trkpt>
      <trkpt lat="40.4832620" lon="-4.7587020">
        <ele>1245.8</ele>
        <time>2021-07-22T17:07:14Z</time>
      </trkpt>
      <trkpt lat="40.4832920" lon="-4.7588440">
        <ele>1245.2</ele>
        <time>2021-07-22T17:07:15Z</time>
      </trkpt>
      <trkpt lat="40.4833640" lon="-4.7591200">
        <ele>1244.0</ele>
        <time>2021-07-22T17:07:17Z</time>
      </trkpt>
      <trkpt lat="40.4834010" lon="-4.7592560">
        <ele>1243.4</ele>
        <time>2021-07-22T17:07:18Z</time>
      </trkpt>
      <trkpt lat="40.4834740" lon="-4.7595300">
        <ele>1242.2</ele>
        <time>2021-07-22T17:07:20Z</time>
      </trkpt>
      <trkpt lat="40.4835130" lon="-4.7596680">
        <ele>1241.7</ele>
        <time>2021-07-22T17:07:21Z</time>
      </trkpt>
      <trkpt lat="40.4835510" lon="-4.7598050">
        <ele>1241.1</ele>
        <time>2021-07-22T17:07:22Z</time>
      </trkpt>
      <trkpt lat="40.4835910" lon="-4.7599410">
        <ele>1240.5</ele>
        <time>2021-07-22T17:07:23Z</time>
      </trkpt>
      <trkpt lat="40.4836680" lon="-4.7602090">
        <ele>1239.4</ele>
        <time>2021-07-22T17:07:25Z</time>
      </trkpt>
      <trkpt lat="40.4837480" lon="-4.7604920">
        <ele>1238.1</ele>
        <time>2021-07-22T17:07:27Z</time>
      </trkpt>
      <trkpt lat="40.4838300" lon="-4.7607700">
        <ele>1236.8</ele>
        <time>2021-07-22T17:07:29Z</time>
      </trkpt>
      <trkpt lat="40.4839100" lon="-4.7610480">
        <ele>1235.7</ele>
        <time>2021-07-22T17:07:31Z</time>
      </trkpt>
      <trkpt lat="40.4839870" lon="-4.7613130">
        <ele>1234.8</ele>
        <time>2021-07-22T17:07:33Z</time>
      </trkpt>
      <trkpt lat="40.4840220" lon="-4.7614420">
        <ele>1234.4</ele>
        <time>2021-07-22T17:07:34Z</time>
      </trkpt>
      <trkpt lat="40.4840420" lon="-4.7616990">
        <ele>1233.9</ele>
        <time>2021-07-22T17:07:36Z</time>
      </trkpt>
      <trkpt lat="40.4840000" lon="-4.7619520">
        <ele>1233.4</ele>
        <time>2021-07-22T17:07:38Z</time>
      </trkpt>
      <trkpt lat="40.4839100" lon="-4.7621780">
        <ele>1232.7</ele>
        <time>2021-07-22T17:07:40Z</time>
      </trkpt>
      <trkpt lat="40.4838650" lon="-4.7622900">
        <ele>1232.4</ele>
        <time>2021-07-22T17:07:41Z</time>
      </trkpt>
      <trkpt lat="40.4837810" lon="-4.7625190">
        <ele>1231.8</ele>
        <time>2021-07-22T17:07:43Z</time>
      </trkpt>
      <trkpt lat="40.4836890" lon="-4.7627420">
        <ele>1231.3</ele>
        <time>2021-07-22T17:07:45Z</time>
      </trkpt>
      <trkpt lat="40.4835970" lon="-4.7629600">
        <ele>1230.7</ele>
        <time>2021-07-22T17:07:47Z</time>
      </trkpt>
      <trkpt lat="40.4835520" lon="-4.7630720">
        <ele>1230.4</ele>
        <time>2021-07-22T17:07:48Z</time>
      </trkpt>
      <trkpt lat="40.4834580" lon="-4.7632840">
        <ele>1229.6</ele>
        <time>2021-07-22T17:07:50Z</time>
      </trkpt>
      <trkpt lat="40.4834060" lon="-4.7633790">
        <ele>1229.3</ele>
        <time>2021-07-22T17:07:51Z</time>
      </trkpt>
      <trkpt lat="40.4832790" lon="-4.7635530">
        <ele>1228.6</ele>
        <time>2021-07-22T17:07:53Z</time>
      </trkpt>
      <trkpt lat="40.4832010" lon="-4.7636220">
        <ele>1228.2</ele>
        <time>2021-07-22T17:07:54Z</time>
      </trkpt>
      <trkpt lat="40.4831230" lon="-4.7636810">
        <ele>1227.9</ele>
        <time>2021-07-22T17:07:55Z</time>
      </trkpt>
      <trkpt lat="40.4830360" lon="-4.7637170">
        <ele>1227.6</ele>
        <time>2021-07-22T17:07:56Z</time>
      </trkpt>
      <trkpt lat="40.4829500" lon="-4.7637380">
        <ele>1227.3</ele>
        <time>2021-07-22T17:07:57Z</time>
      </trkpt>
      <trkpt lat="40.4827710" lon="-4.7637370">
        <ele>1226.6</ele>
        <time>2021-07-22T17:07:59Z</time>
      </trkpt>
      <trkpt lat="40.4826760" lon="-4.7637350">
        <ele>1226.2</ele>
        <time>2021-07-22T17:08:00Z</time>
      </trkpt>
      <trkpt lat="40.4825810" lon="-4.7637410">
        <ele>1225.8</ele>
        <time>2021-07-22T17:08:01Z</time>
      </trkpt>
      <trkpt lat="40.4823900" lon="-4.7637440">
        <ele>1224.8</ele>
        <time>2021-07-22T17:08:03Z</time>
      </trkpt>
      <trkpt lat="40.4822040" lon="-4.7637580">
        <ele>1223.6</ele>
        <time>2021-07-22T17:08:05Z</time>
      </trkpt>
      <trkpt lat="40.4821150" lon="-4.7637780">
        <ele>1223.0</ele>
        <time>2021-07-22T17:08:06Z</time>
      </trkpt>
      <trkpt lat="40.4819490" lon="-4.7638600">
        <ele>1221.6</ele>
        <time>2021-07-22T17:08:08Z</time>
      </trkpt>
      <trkpt lat="40.4818730" lon="-4.7639250">
        <ele>1220.9</ele>
        <time>2021-07-22T17:08:09Z</time>
      </trkpt>
      <trkpt lat="40.4817280" lon="-4.7640790">
        <ele>1219.5</ele>
        <time>2021-07-22T17:08:11Z</time>
      </trkpt>
      <trkpt lat="40.4816530" lon="-4.7641650">
        <ele>1218.8</ele>
        <time>2021-07-22T17:08:12Z</time>
      </trkpt>
      <trkpt lat="40.4815780" lon="-4.7642570">
        <ele>1218.1</ele>
        <time>2021-07-22T17:08:13Z</time>
      </trkpt>
      <trkpt lat="40.4815060" lon="-4.7643450">
        <ele>1217.5</ele>
        <time>2021-07-22T17:08:14Z</time>
      </trkpt>
      <trkpt lat="40.4813590" lon="-4.7645250">
        <ele>1216.2</ele>
        <time>2021-07-22T17:08:16Z</time>
      </trkpt>
      <trkpt lat="40.4812120" lon="-4.7647080">
        <ele>1214.8</ele>
        <time>2021-07-22T17:08:18Z</time>
      </trkpt>
      <trkpt lat="40.4811350" lon="-4.7648000">
        <ele>1214.0</ele>
        <time>2021-07-22T17:08:19Z</time>
      </trkpt>
      <trkpt lat="40.4810600" lon="-4.7648900">
        <ele>1213.3</ele>
        <time>2021-07-22T17:08:20Z</time>
      </trkpt>
      <trkpt lat="40.4809160" lon="-4.7650600">
        <ele>1211.9</ele>
        <time>2021-07-22T17:08:22Z</time>
      </trkpt>
      <trkpt lat="40.4807620" lon="-4.7651790">
        <ele>1210.5</ele>
        <time>2021-07-22T17:08:24Z</time>
      </trkpt>
      <trkpt lat="40.4806690" lon="-4.7652120">
        <ele>1209.7</ele>
        <time>2021-07-22T17:08:25Z</time>
      </trkpt>
      <trkpt lat="40.4804690" lon="-4.7652390">
        <ele>1208.2</ele>
        <time>2021-07-22T17:08:27Z</time>
      </trkpt>
      <trkpt lat="40.4803620" lon="-4.7652470">
        <ele>1207.3</ele>
        <time>2021-07-22T17:08:28Z</time>
      </trkpt>
      <trkpt lat="40.4801400" lon="-4.7652640">
        <ele>1205.7</ele>
        <time>2021-07-22T17:08:30Z</time>
      </trkpt>
      <trkpt lat="40.4800260" lon="-4.7652910">
        <ele>1204.9</ele>
        <time>2021-07-22T17:08:31Z</time>
      </trkpt>
      <trkpt lat="40.4799140" lon="-4.7653380">
        <ele>1204.3</ele>
        <time>2021-07-22T17:08:32Z</time>
      </trkpt>
      <trkpt lat="40.4797060" lon="-4.7654690">
        <ele>1203.2</ele>
        <time>2021-07-22T17:08:34Z</time>
      </trkpt>
      <trkpt lat="40.4796090" lon="-4.7655430">
        <ele>1202.8</ele>
        <time>2021-07-22T17:08:35Z</time>
      </trkpt>
      <trkpt lat="40.4794240" lon="-4.7656670">
        <ele>1202.1</ele>
        <time>2021-07-22T17:08:37Z</time>
      </trkpt>
      <trkpt lat="40.4793340" lon="-4.7657060">
        <ele>1201.9</ele>
        <time>2021-07-22T17:08:38Z</time>
      </trkpt>
      <trkpt lat="40.4791560" lon="-4.7657400">
        <ele>1201.3</ele>
        <time>2021-07-22T17:08:40Z</time>
      </trkpt>
      <trkpt lat="40.4789720" lon="-4.7657050">
        <ele>1200.6</ele>
        <time>2021-07-22T17:08:42Z</time>
      </trkpt>
      <trkpt lat="40.4788850" lon="-4.7656620">
        <ele>1200.2</ele>
        <time>2021-07-22T17:08:43Z</time>
      </trkpt>
      <trkpt lat="40.4787290" lon="-4.7655220">
        <ele>1199.2</ele>
        <time>2021-07-22T17:08:45Z</time>
      </trkpt>
      <trkpt lat="40.4786130" lon="-4.7653220">
        <ele>1198.0</ele>
        <time>2021-07-22T17:08:47Z</time>
      </trkpt>
      <trkpt lat="40.4785700" lon="-4.7652010">
        <ele>1197.4</ele>
        <time>2021-07-22T17:08:48Z</time>
      </trkpt>
      <trkpt lat="40.4785090" lon="-4.7649340">
        <ele>1195.8</ele>
        <time>2021-07-22T17:08:50Z</time>
      </trkpt>
      <trkpt lat="40.4784560" lon="-4.7646620">
        <ele>1194.2</ele>
        <time>2021-07-22T17:08:52Z</time>
      </trkpt>
      <trkpt lat="40.4784080" lon="-4.7644070">
        <ele>1192.7</ele>
        <time>2021-07-22T17:08:54Z</time>
      </trkpt>
      <trkpt lat="40.4783830" lon="-4.7642800">
        <ele>1191.9</ele>
        <time>2021-07-22T17:08:55Z</time>
      </trkpt>
      <trkpt lat="40.4783080" lon="-4.7640290">
        <ele>1190.4</ele>
        <time>2021-07-22T17:08:57Z</time>
      </trkpt>
      <trkpt lat="40.4782520" lon="-4.7639080">
        <ele>1189.6</ele>
        <time>2021-07-22T17:08:58Z</time>
      </trkpt>
      <trkpt lat="40.4781120" lon="-4.7636990">
        <ele>1187.9</ele>
        <time>2021-07-22T17:09:00Z</time>
      </trkpt>
      <trkpt lat="40.4780460" lon="-4.7636030">
        <ele>1187.1</ele>
        <time>2021-07-22T17:09:01Z</time>
      </trkpt>
      <trkpt lat="40.4779340" lon="-4.7634180">
        <ele>1186.6</ele>
        <time>2021-07-22T17:09:03Z</time>
      </trkpt>
      <trkpt lat="40.4778210" lon="-4.7632430">
        <ele>1185.1</ele>
        <time>2021-07-22T17:09:05Z</time>
      </trkpt>
      <trkpt lat="40.4776810" lon="-4.7630970">
        <ele>1183.5</ele>
        <time>2021-07-22T17:09:07Z</time>
      </trkpt>
      <trkpt lat="40.4776010" lon="-4.7630450">
        <ele>1182.7</ele>
        <time>2021-07-22T17:09:08Z</time>
      </trkpt>
      <trkpt lat="40.4775150" lon="-4.7630070">
        <ele>1181.9</ele>
        <time>2021-07-22T17:09:09Z</time>
      </trkpt>
      <trkpt lat="40.4774260" lon="-4.7629850">
        <ele>1181.1</ele>
        <time>2021-07-22T17:09:10Z</time>
      </trkpt>
      <trkpt lat="40.4772350" lon="-4.7630140">
        <ele>1179.6</ele>
        <time>2021-07-22T17:09:12Z</time>
      </trkpt>
      <trkpt lat="40.4770520" lon="-4.7631160">
        <ele>1178.2</ele>
        <time>2021-07-22T17:09:14Z</time>
      </trkpt>
      <trkpt lat="40.4768660" lon="-4.7632180">
        <ele>1177.0</ele>
        <time>2021-07-22T17:09:16Z</time>
      </trkpt>
      <trkpt lat="40.4766890" lon="-4.7632990">
        <ele>1176.1</ele>
        <time>2021-07-22T17:09:18Z</time>
      </trkpt>
      <trkpt lat="40.4765220" lon="-4.7634050">
        <ele>1175.2</ele>
        <time>2021-07-22T17:09:20Z</time>
      </trkpt>
      <trkpt lat="40.4764430" lon="-4.7634660">
        <ele>1174.7</ele>
        <time>2021-07-22T17:09:21Z</time>
      </trkpt>
      <trkpt lat="40.4762850" lon="-4.7635920">
        <ele>1174.0</ele>
        <time>2021-07-22T17:09:23Z</time>
      </trkpt>
      <trkpt lat="40.4761400" lon="-4.7637340">
        <ele>1173.3</ele>
        <time>2021-07-22T17:09:25Z</time>
      </trkpt>
      <trkpt lat="40.4760710" lon="-4.7638090">
        <ele>1172.9</ele>
        <time>2021-07-22T17:09:26Z</time>
      </trkpt>
      <trkpt lat="40.4760040" lon="-4.7638810">
        <ele>1172.6</ele>
        <time>2021-07-22T17:09:27Z</time>
      </trkpt>
      <trkpt lat="40.4758720" lon="-4.7640370">
        <ele>1172.1</ele>
        <time>2021-07-22T17:09:29Z</time>
      </trkpt>
      <trkpt lat="40.4757490" lon="-4.7642030">
        <ele>1171.6</ele>
        <time>2021-07-22T17:09:31Z</time>
      </trkpt>
      <trkpt lat="40.4756950" lon="-4.7642930">
        <ele>1171.4</ele>
        <time>2021-07-22T17:09:32Z</time>
      </trkpt>
      <trkpt lat="40.4755810" lon="-4.7644600">
        <ele>1170.9</ele>
        <time>2021-07-22T17:09:34Z</time>
      </trkpt>
      <trkpt lat="40.4755230" lon="-4.7645410">
        <ele>1170.7</ele>
        <time>2021-07-22T17:09:35Z</time>
      </trkpt>
      <trkpt lat="40.4754620" lon="-4.7646150">
        <ele>1170.4</ele>
        <time>2021-07-22T17:09:36Z</time>
      </trkpt>
      <trkpt lat="40.4753250" lon="-4.7647270">
        <ele>1169.7</ele>
        <time>2021-07-22T17:09:38Z</time>
      </trkpt>
      <trkpt lat="40.4752490" lon="-4.7647750">
        <ele>1169.3</ele>
        <time>2021-07-22T17:09:39Z</time>
      </trkpt>
      <trkpt lat="40.4750910" lon="-4.7648310">
        <ele>1168.3</ele>
        <time>2021-07-22T17:09:41Z</time>
      </trkpt>
      <trkpt lat="40.4750060" lon="-4.7648350">
        <ele>1167.7</ele>
        <time>2021-07-22T17:09:42Z</time>
      </trkpt>
      <trkpt lat="40.4748270" lon="-4.7648100">
        <ele>1166.6</ele>
        <time>2021-07-22T17:09:44Z</time>
      </trkpt>
      <trkpt lat="40.4746380" lon="-4.7647850">
        <ele>1165.3</ele>
        <time>2021-07-22T17:09:46Z</time>
      </trkpt>
      <trkpt lat="40.4745430" lon="-4.7647650">
        <ele>1164.7</ele>
        <time>2021-07-22T17:09:47Z</time>
      </trkpt>
      <trkpt lat="40.4744460" lon="-4.7647520">
        <ele>1164.1</ele>
        <time>2021-07-22T17:09:48Z</time>
      </trkpt>
      <trkpt lat="40.4742570" lon="-4.7647160">
        <ele>1162.9</ele>
        <time>2021-07-22T17:09:50Z</time>
      </trkpt>
      <trkpt lat="40.4741690" lon="-4.7646730">
        <ele>1162.4</ele>
        <time>2021-07-22T17:09:51Z</time>
      </trkpt>
      <trkpt lat="40.4740050" lon="-4.7645400">
        <ele>1161.1</ele>
        <time>2021-07-22T17:09:53Z</time>
      </trkpt>
      <trkpt lat="40.4739180" lon="-4.7644760">
        <ele>1160.4</ele>
        <time>2021-07-22T17:09:54Z</time>
      </trkpt>
      <trkpt lat="40.4738260" lon="-4.7644210">
        <ele>1159.7</ele>
        <time>2021-07-22T17:09:55Z</time>
      </trkpt>
      <trkpt lat="40.4736330" lon="-4.7643430">
        <ele>1158.2</ele>
        <time>2021-07-22T17:09:57Z</time>
      </trkpt>
      <trkpt lat="40.4734300" lon="-4.7643290">
        <ele>1156.6</ele>
        <time>2021-07-22T17:09:59Z</time>
      </trkpt>
      <trkpt lat="40.4733290" lon="-4.7643400">
        <ele>1155.8</ele>
        <time>2021-07-22T17:10:00Z</time>
      </trkpt>
      <trkpt lat="40.4732250" lon="-4.7643600">
        <ele>1155.0</ele>
        <time>2021-07-22T17:10:01Z</time>
      </trkpt>
      <trkpt lat="40.4730160" lon="-4.7644210">
        <ele>1153.3</ele>
        <time>2021-07-22T17:10:03Z</time>
      </trkpt>
      <trkpt lat="40.4729090" lon="-4.7644620">
        <ele>1152.4</ele>
        <time>2021-07-22T17:10:04Z</time>
      </trkpt>
      <trkpt lat="40.4728030" lon="-4.7645040">
        <ele>1151.5</ele>
        <time>2021-07-22T17:10:05Z</time>
      </trkpt>
      <trkpt lat="40.4725840" lon="-4.7645950">
        <ele>1149.7</ele>
        <time>2021-07-22T17:10:07Z</time>
      </trkpt>
      <trkpt lat="40.4723560" lon="-4.7646710">
        <ele>1148.1</ele>
        <time>2021-07-22T17:10:09Z</time>
      </trkpt>
      <trkpt lat="40.4721260" lon="-4.7646980">
        <ele>1146.4</ele>
        <time>2021-07-22T17:10:11Z</time>
      </trkpt>
      <trkpt lat="40.4718970" lon="-4.7647070">
        <ele>1144.6</ele>
        <time>2021-07-22T17:10:13Z</time>
      </trkpt>
      <trkpt lat="40.4717830" lon="-4.7647300">
        <ele>1143.7</ele>
        <time>2021-07-22T17:10:14Z</time>
      </trkpt>
      <trkpt lat="40.4715670" lon="-4.7648180">
        <ele>1141.8</ele>
        <time>2021-07-22T17:10:16Z</time>
      </trkpt>
      <trkpt lat="40.4714570" lon="-4.7648590">
        <ele>1140.9</ele>
        <time>2021-07-22T17:10:17Z</time>
      </trkpt>
      <trkpt lat="40.4712380" lon="-4.7649650">
        <ele>1139.3</ele>
        <time>2021-07-22T17:10:19Z</time>
      </trkpt>
      <trkpt lat="40.4710270" lon="-4.7650990">
        <ele>1138.1</ele>
        <time>2021-07-22T17:10:21Z</time>
      </trkpt>
      <trkpt lat="40.4708240" lon="-4.7652270">
        <ele>1137.4</ele>
        <time>2021-07-22T17:10:23Z</time>
      </trkpt>
      <trkpt lat="40.4707260" lon="-4.7652890">
        <ele>1137.1</ele>
        <time>2021-07-22T17:10:24Z</time>
      </trkpt>
      <trkpt lat="40.4705440" lon="-4.7654090">
        <ele>1136.4</ele>
        <time>2021-07-22T17:10:26Z</time>
      </trkpt>
      <trkpt lat="40.4703710" lon="-4.7655110">
        <ele>1135.4</ele>
        <time>2021-07-22T17:10:28Z</time>
      </trkpt>
      <trkpt lat="40.4701920" lon="-4.7656100">
        <ele>1134.1</ele>
        <time>2021-07-22T17:10:30Z</time>
      </trkpt>
      <trkpt lat="40.4701010" lon="-4.7656620">
        <ele>1133.4</ele>
        <time>2021-07-22T17:10:31Z</time>
      </trkpt>
      <trkpt lat="40.4700080" lon="-4.7657120">
        <ele>1132.6</ele>
        <time>2021-07-22T17:10:32Z</time>
      </trkpt>
      <trkpt lat="40.4698230" lon="-4.7658180">
        <ele>1131.3</ele>
        <time>2021-07-22T17:10:34Z</time>
      </trkpt>
      <trkpt lat="40.4697250" lon="-4.7658620">
        <ele>1130.6</ele>
        <time>2021-07-22T17:10:35Z</time>
      </trkpt>
      <trkpt lat="40.4696250" lon="-4.7659020">
        <ele>1129.9</ele>
        <time>2021-07-22T17:10:36Z</time>
      </trkpt>
      <trkpt lat="40.4694110" lon="-4.7659530">
        <ele>1128.5</ele>
        <time>2021-07-22T17:10:38Z</time>
      </trkpt>
      <trkpt lat="40.4693020" lon="-4.7659730">
        <ele>1127.7</ele>
        <time>2021-07-22T17:10:39Z</time>
      </trkpt>
      <trkpt lat="40.4691940" lon="-4.7659940">
        <ele>1127.0</ele>
        <time>2021-07-22T17:10:40Z</time>
      </trkpt>
      <trkpt lat="40.4690860" lon="-4.7660120">
        <ele>1126.3</ele>
        <time>2021-07-22T17:10:41Z</time>
      </trkpt>
      <trkpt lat="40.4689780" lon="-4.7660260">
        <ele>1125.5</ele>
        <time>2021-07-22T17:10:42Z</time>
      </trkpt>
      <trkpt lat="40.4688640" lon="-4.7660330">
        <ele>1124.8</ele>
        <time>2021-07-22T17:10:43Z</time>
      </trkpt>
      <trkpt lat="40.4686410" lon="-4.7660430">
        <ele>1123.2</ele>
        <time>2021-07-22T17:10:45Z</time>
      </trkpt>
      <trkpt lat="40.4684150" lon="-4.7660400">
        <ele>1121.6</ele>
        <time>2021-07-22T17:10:47Z</time>
      </trkpt>
      <trkpt lat="40.4681900" lon="-4.7660320">
        <ele>1119.9</ele>
        <time>2021-07-22T17:10:49Z</time>
      </trkpt>
      <trkpt lat="40.4680780" lon="-4.7660330">
        <ele>1119.1</ele>
        <time>2021-07-22T17:10:50Z</time>
      </trkpt>
      <trkpt lat="40.4678500" lon="-4.7660230">
        <ele>1117.5</ele>
        <time>2021-07-22T17:10:52Z</time>
      </trkpt>
      <trkpt lat="40.4677330" lon="-4.7660210">
        <ele>1116.6</ele>
        <time>2021-07-22T17:10:53Z</time>
      </trkpt>
      <trkpt lat="40.4676130" lon="-4.7660250">
        <ele>1115.7</ele>
        <time>2021-07-22T17:10:54Z</time>
      </trkpt>
      <trkpt lat="40.4673860" lon="-4.7660490">
        <ele>1114.0</ele>
        <time>2021-07-22T17:10:56Z</time>
      </trkpt>
      <trkpt lat="40.4671610" lon="-4.7661090">
        <ele>1112.2</ele>
        <time>2021-07-22T17:10:58Z</time>
      </trkpt>
      <trkpt lat="40.4669330" lon="-4.7661840">
        <ele>1110.5</ele>
        <time>2021-07-22T17:11:00Z</time>
      </trkpt>
      <trkpt lat="40.4666910" lon="-4.7662160">
        <ele>1108.8</ele>
        <time>2021-07-22T17:11:02Z</time>
      </trkpt>
      <trkpt lat="40.4665650" lon="-4.7662130">
        <ele>1108.0</ele>
        <time>2021-07-22T17:11:03Z</time>
      </trkpt>
      <trkpt lat="40.4663190" lon="-4.7661710">
        <ele>1106.4</ele>
        <time>2021-07-22T17:11:05Z</time>
      </trkpt>
      <trkpt lat="40.4661970" lon="-4.7661460">
        <ele>1105.5</ele>
        <time>2021-07-22T17:11:06Z</time>
      </trkpt>
      <trkpt lat="40.4660730" lon="-4.7661270">
        <ele>1104.6</ele>
        <time>2021-07-22T17:11:07Z</time>
      </trkpt>
      <trkpt lat="40.4659490" lon="-4.7661210">
        <ele>1103.7</ele>
        <time>2021-07-22T17:11:08Z</time>
      </trkpt>
      <trkpt lat="40.4658220" lon="-4.7661330">
        <ele>1102.8</ele>
        <time>2021-07-22T17:11:09Z</time>
      </trkpt>
      <trkpt lat="40.4655680" lon="-4.7661960">
        <ele>1100.7</ele>
        <time>2021-07-22T17:11:11Z</time>
      </trkpt>
      <trkpt lat="40.4654420" lon="-4.7662380">
        <ele>1099.6</ele>
        <time>2021-07-22T17:11:12Z</time>
      </trkpt>
      <trkpt lat="40.4651970" lon="-4.7663260">
        <ele>1097.5</ele>
        <time>2021-07-22T17:11:14Z</time>
      </trkpt>
      <trkpt lat="40.4650740" lon="-4.7663690">
        <ele>1096.6</ele>
        <time>2021-07-22T17:11:15Z</time>
      </trkpt>
      <trkpt lat="40.4648370" lon="-4.7664560">
        <ele>1095.0</ele>
        <time>2021-07-22T17:11:17Z</time>
      </trkpt>
      <trkpt lat="40.4646070" lon="-4.7665540">
        <ele>1093.3</ele>
        <time>2021-07-22T17:11:19Z</time>
      </trkpt>
      <trkpt lat="40.4643930" lon="-4.7666990">
        <ele>1091.6</ele>
        <time>2021-07-22T17:11:21Z</time>
      </trkpt>
      <trkpt lat="40.4642960" lon="-4.7667940">
        <ele>1090.7</ele>
        <time>2021-07-22T17:11:22Z</time>
      </trkpt>
      <trkpt lat="40.4642060" lon="-4.7668990">
        <ele>1089.9</ele>
        <time>2021-07-22T17:11:23Z</time>
      </trkpt>
      <trkpt lat="40.4640400" lon="-4.7671230">
        <ele>1088.8</ele>
        <time>2021-07-22T17:11:25Z</time>
      </trkpt>
      <trkpt lat="40.4639580" lon="-4.7672370">
        <ele>1088.4</ele>
        <time>2021-07-22T17:11:26Z</time>
      </trkpt>
      <trkpt lat="40.4638010" lon="-4.7674620">
        <ele>1087.9</ele>
        <time>2021-07-22T17:11:28Z</time>
      </trkpt>
      <trkpt lat="40.4636580" lon="-4.7676900">
        <ele>1087.2</ele>
        <time>2021-07-22T17:11:30Z</time>
      </trkpt>
      <trkpt lat="40.4635890" lon="-4.7677910">
        <ele>1086.7</ele>
        <time>2021-07-22T17:11:31Z</time>
      </trkpt>
      <trkpt lat="40.4634450" lon="-4.7679610">
        <ele>1085.7</ele>
        <time>2021-07-22T17:11:33Z</time>
      </trkpt>
      <trkpt lat="40.4633580" lon="-4.7680250">
        <ele>1085.0</ele>
        <time>2021-07-22T17:11:34Z</time>
      </trkpt>
      <trkpt lat="40.4632700" lon="-4.7680820">
        <ele>1084.4</ele>
        <time>2021-07-22T17:11:35Z</time>
      </trkpt>
      <trkpt lat="40.4630730" lon="-4.7681630">
        <ele>1082.9</ele>
        <time>2021-07-22T17:11:37Z</time>
      </trkpt>
      <trkpt lat="40.4629650" lon="-4.7681820">
        <ele>1082.1</ele>
        <time>2021-07-22T17:11:38Z</time>
      </trkpt>
      <trkpt lat="40.4627420" lon="-4.7682400">
        <ele>1080.5</ele>
        <time>2021-07-22T17:11:40Z</time>
      </trkpt>
      <trkpt lat="40.4626300" lon="-4.7682800">
        <ele>1079.7</ele>
        <time>2021-07-22T17:11:41Z</time>
      </trkpt>
      <trkpt lat="40.4624050" lon="-4.7683610">
        <ele>1078.2</ele>
        <time>2021-07-22T17:11:43Z</time>
      </trkpt>
      <trkpt lat="40.4622920" lon="-4.7684000">
        <ele>1077.5</ele>
        <time>2021-07-22T17:11:44Z</time>
      </trkpt>
      <trkpt lat="40.4620720" lon="-4.7684780">
        <ele>1076.1</ele>
        <time>2021-07-22T17:11:46Z</time>
      </trkpt>
      <trkpt lat="40.4618600" lon="-4.7685510">
        <ele>1074.7</ele>
        <time>2021-07-22T17:11:48Z</time>
      </trkpt>
      <trkpt lat="40.4616600" lon="-4.7686040">
        <ele>1073.1</ele>
        <time>2021-07-22T17:11:50Z</time>
      </trkpt>
      <trkpt lat="40.4615700" lon="-4.7686280">
        <ele>1072.5</ele>
        <time>2021-07-22T17:11:51Z</time>
      </trkpt>
      <trkpt lat="40.4614870" lon="-4.7686480">
        <ele>1071.9</ele>
        <time>2021-07-22T17:11:52Z</time>
      </trkpt>
      <trkpt lat="40.4614090" lon="-4.7686630">
        <ele>1071.3</ele>
        <time>2021-07-22T17:11:53Z</time>
      </trkpt>
      <trkpt lat="40.4612710" lon="-4.7687020">
        <ele>1070.4</ele>
        <time>2021-07-22T17:11:55Z</time>
      </trkpt>
      <trkpt lat="40.4611320" lon="-4.7687400">
        <ele>1069.4</ele>
        <time>2021-07-22T17:11:57Z</time>
      </trkpt>
      <trkpt lat="40.4610640" lon="-4.7687640">
        <ele>1068.9</ele>
        <time>2021-07-22T17:11:58Z</time>
      </trkpt>
      <trkpt lat="40.4609470" lon="-4.7688130">
        <ele>1068.2</ele>
        <time>2021-07-22T17:12:00Z</time>
      </trkpt>
      <trkpt lat="40.4608490" lon="-4.7688550">
        <ele>1067.7</ele>
        <time>2021-07-22T17:12:02Z</time>
      </trkpt>
      <trkpt lat="40.4608040" lon="-4.7688740">
        <ele>1067.4</ele>
        <time>2021-07-22T17:12:03Z</time>
      </trkpt>
      <trkpt lat="40.4607290" lon="-4.7689090">
        <ele>1067.1</ele>
        <time>2021-07-22T17:12:05Z</time>
      </trkpt>
      <trkpt lat="40.4606850" lon="-4.7689350">
        <ele>1066.8</ele>
        <time>2021-07-22T17:12:07Z</time>
      </trkpt>
      <trkpt lat="40.4606680" lon="-4.7689470">
        <ele>1066.7</ele>
        <time>2021-07-22T17:12:09Z</time>
      </trkpt>
      <trkpt lat="40.4606690" lon="-4.7689450">
        <ele>1066.7</ele>
        <time>2021-07-22T17:12:10Z</time>
      </trkpt>
      <trkpt lat="40.4606770" lon="-4.7689400">
        <ele>1066.7</ele>
        <time>2021-07-22T17:12:12Z</time>
      </trkpt>
      <trkpt lat="40.4606760" lon="-4.7689410">
        <ele>1066.7</ele>
        <time>2021-07-22T17:12:13Z</time>
      </trkpt>
      <trkpt lat="40.4606750" lon="-4.7689400">
        <ele>1066.7</ele>
        <time>2021-07-22T17:12:15Z</time>
      </trkpt>
      <trkpt lat="40.4606750" lon="-4.7689390">
        <ele>1066.7</ele>
        <time>2021-07-22T17:12:16Z</time>
      </trkpt>
      <trkpt lat="40.4606750" lon="-4.7689390">
        <ele>1066.7</ele>
        <time>2021-07-22T17:12:17Z</time>
      </trkpt>
      <trkpt lat="40.4606770" lon="-4.7689390">
        <ele>1066.7</ele>
        <time>2021-07-22T17:12:19Z</time>
      </trkpt>
      <trkpt lat="40.4606720" lon="-4.7689340">
        <ele>1066.6</ele>
        <time>2021-07-22T17:12:21Z</time>
      </trkpt>
      <trkpt lat="40.4606690" lon="-4.7689320">
        <ele>1066.6</ele>
        <time>2021-07-22T17:12:22Z</time>
      </trkpt>
      <trkpt lat="40.4606630" lon="-4.7689290">
        <ele>1066.6</ele>
        <time>2021-07-22T17:12:24Z</time>
      </trkpt>
      <trkpt lat="40.4606590" lon="-4.7689270">
        <ele>1066.6</ele>
        <time>2021-07-22T17:12:25Z</time>
      </trkpt>
      <trkpt lat="40.4606570" lon="-4.7689260">
        <ele>1066.5</ele>
        <time>2021-07-22T17:12:26Z</time>
      </trkpt>
      <trkpt lat="40.4606520" lon="-4.7689230">
        <ele>1066.5</ele>
        <time>2021-07-22T17:12:28Z</time>
      </trkpt>
      <trkpt lat="40.4606220" lon="-4.7689270">
        <ele>1066.4</ele>
        <time>2021-07-22T17:12:57Z</time>
      </trkpt>
      <trkpt lat="40.4606100" lon="-4.7689280">
        <ele>1066.3</ele>
        <time>2021-07-22T17:12:58Z</time>
      </trkpt>
      <trkpt lat="40.4605960" lon="-4.7689320">
        <ele>1066.2</ele>
        <time>2021-07-22T17:12:59Z</time>
      </trkpt>
      <trkpt lat="40.4605580" lon="-4.7689660">
        <ele>1066.4</ele>
        <time>2021-07-22T17:13:01Z</time>
      </trkpt>
      <trkpt lat="40.4605320" lon="-4.7690130">
        <ele>1066.7</ele>
        <time>2021-07-22T17:13:02Z</time>
      </trkpt>
      <trkpt lat="40.4605080" lon="-4.7690530">
        <ele>1067.0</ele>
        <time>2021-07-22T17:13:03Z</time>
      </trkpt>
      <trkpt lat="40.4604790" lon="-4.7691370">
        <ele>1067.4</ele>
        <time>2021-07-22T17:13:04Z</time>
      </trkpt>
      <trkpt lat="40.4604580" lon="-4.7692060">
        <ele>1067.5</ele>
        <time>2021-07-22T17:13:06Z</time>
      </trkpt>
      <trkpt lat="40.4604400" lon="-4.7692600">
        <ele>1067.6</ele>
        <time>2021-07-22T17:13:07Z</time>
      </trkpt>
      <trkpt lat="40.4604240" lon="-4.7693040">
        <ele>1067.7</ele>
        <time>2021-07-22T17:13:08Z</time>
      </trkpt>
      <trkpt lat="40.4604020" lon="-4.7693660">
        <ele>1067.9</ele>
        <time>2021-07-22T17:13:09Z</time>
      </trkpt>
      <trkpt lat="40.4603840" lon="-4.7694140">
        <ele>1068.0</ele>
        <time>2021-07-22T17:13:11Z</time>
      </trkpt>
      <trkpt lat="40.4603710" lon="-4.7694720">
        <ele>1068.2</ele>
        <time>2021-07-22T17:13:12Z</time>
      </trkpt>
      <trkpt lat="40.4603440" lon="-4.7695500">
        <ele>1068.4</ele>
        <time>2021-07-22T17:13:14Z</time>
      </trkpt>
      <trkpt lat="40.4603350" lon="-4.7695950">
        <ele>1068.5</ele>
        <time>2021-07-22T17:13:15Z</time>
      </trkpt>
      <trkpt lat="40.4603170" lon="-4.7696450">
        <ele>1068.6</ele>
        <time>2021-07-22T17:13:16Z</time>
      </trkpt>
      <trkpt lat="40.4602880" lon="-4.7696970">
        <ele>1068.8</ele>
        <time>2021-07-22T17:13:17Z</time>
      </trkpt>
      <trkpt lat="40.4602520" lon="-4.7697560">
        <ele>1069.0</ele>
        <time>2021-07-22T17:13:19Z</time>
      </trkpt>
      <trkpt lat="40.4602100" lon="-4.7698450">
        <ele>1069.2</ele>
        <time>2021-07-22T17:13:21Z</time>
      </trkpt>
      <trkpt lat="40.4601790" lon="-4.7699170">
        <ele>1069.5</ele>
        <time>2021-07-22T17:13:23Z</time>
      </trkpt>
      <trkpt lat="40.4601570" lon="-4.7699700">
        <ele>1069.6</ele>
        <time>2021-07-22T17:13:24Z</time>
      </trkpt>
      <trkpt lat="40.4601360" lon="-4.7700200">
        <ele>1069.8</ele>
        <time>2021-07-22T17:13:25Z</time>
      </trkpt>
      <trkpt lat="40.4601190" lon="-4.7700630">
        <ele>1069.9</ele>
        <time>2021-07-22T17:13:26Z</time>
      </trkpt>
      <trkpt lat="40.4600960" lon="-4.7701230">
        <ele>1070.1</ele>
        <time>2021-07-22T17:13:27Z</time>
      </trkpt>
      <trkpt lat="40.4600640" lon="-4.7702050">
        <ele>1070.4</ele>
        <time>2021-07-22T17:13:29Z</time>
      </trkpt>
      <trkpt lat="40.4600460" lon="-4.7702520">
        <ele>1070.5</ele>
        <time>2021-07-22T17:13:30Z</time>
      </trkpt>
      <trkpt lat="40.4600270" lon="-4.7703000">
        <ele>1070.7</ele>
        <time>2021-07-22T17:13:31Z</time>
      </trkpt>
      <trkpt lat="40.4599980" lon="-4.7703690">
        <ele>1070.9</ele>
        <time>2021-07-22T17:13:32Z</time>
      </trkpt>
      <trkpt lat="40.4599750" lon="-4.7704270">
        <ele>1071.1</ele>
        <time>2021-07-22T17:13:34Z</time>
      </trkpt>
      <trkpt lat="40.4599550" lon="-4.7704730">
        <ele>1071.2</ele>
        <time>2021-07-22T17:13:35Z</time>
      </trkpt>
      <trkpt lat="40.4599220" lon="-4.7705480">
        <ele>1071.5</ele>
        <time>2021-07-22T17:13:37Z</time>
      </trkpt>
      <trkpt lat="40.4598990" lon="-4.7706200">
        <ele>1071.6</ele>
        <time>2021-07-22T17:13:38Z</time>
      </trkpt>
      <trkpt lat="40.4598740" lon="-4.7706970">
        <ele>1071.8</ele>
        <time>2021-07-22T17:13:40Z</time>
      </trkpt>
      <trkpt lat="40.4598560" lon="-4.7707410">
        <ele>1072.0</ele>
        <time>2021-07-22T17:13:41Z</time>
      </trkpt>
      <trkpt lat="40.4598280" lon="-4.7708010">
        <ele>1072.1</ele>
        <time>2021-07-22T17:13:42Z</time>
      </trkpt>
      <trkpt lat="40.4598050" lon="-4.7708540">
        <ele>1072.2</ele>
        <time>2021-07-22T17:13:44Z</time>
      </trkpt>
      <trkpt lat="40.4597860" lon="-4.7708970">
        <ele>1072.3</ele>
        <time>2021-07-22T17:13:45Z</time>
      </trkpt>
      <trkpt lat="40.4597620" lon="-4.7709500">
        <ele>1072.5</ele>
        <time>2021-07-22T17:13:46Z</time>
      </trkpt>
      <trkpt lat="40.4597310" lon="-4.7710310">
        <ele>1072.7</ele>
        <time>2021-07-22T17:13:48Z</time>
      </trkpt>
      <trkpt lat="40.4597180" lon="-4.7710730">
        <ele>1072.9</ele>
        <time>2021-07-22T17:13:49Z</time>
      </trkpt>
      <trkpt lat="40.4597040" lon="-4.7711200">
        <ele>1073.1</ele>
        <time>2021-07-22T17:13:50Z</time>
      </trkpt>
      <trkpt lat="40.4596840" lon="-4.7711720">
        <ele>1073.3</ele>
        <time>2021-07-22T17:13:52Z</time>
      </trkpt>
      <trkpt lat="40.4596630" lon="-4.7712330">
        <ele>1073.5</ele>
        <time>2021-07-22T17:13:53Z</time>
      </trkpt>
      <trkpt lat="40.4596320" lon="-4.7713100">
        <ele>1073.8</ele>
        <time>2021-07-22T17:13:55Z</time>
      </trkpt>
      <trkpt lat="40.4596120" lon="-4.7713500">
        <ele>1074.0</ele>
        <time>2021-07-22T17:13:56Z</time>
      </trkpt>
      <trkpt lat="40.4595840" lon="-4.7714130">
        <ele>1074.2</ele>
        <time>2021-07-22T17:13:58Z</time>
      </trkpt>
      <trkpt lat="40.4595660" lon="-4.7714590">
        <ele>1074.4</ele>
        <time>2021-07-22T17:13:59Z</time>
      </trkpt>
      <trkpt lat="40.4595430" lon="-4.7715030">
        <ele>1074.6</ele>
        <time>2021-07-22T17:14:00Z</time>
      </trkpt>
      <trkpt lat="40.4595060" lon="-4.7715830">
        <ele>1074.9</ele>
        <time>2021-07-22T17:14:02Z</time>
      </trkpt>
      <trkpt lat="40.4594800" lon="-4.7716580">
        <ele>1075.1</ele>
        <time>2021-07-22T17:14:04Z</time>
      </trkpt>
      <trkpt lat="40.4594670" lon="-4.7717060">
        <ele>1075.3</ele>
        <time>2021-07-22T17:14:05Z</time>
      </trkpt>
      <trkpt lat="40.4594540" lon="-4.7717870">
        <ele>1075.6</ele>
        <time>2021-07-22T17:14:07Z</time>
      </trkpt>
      <trkpt lat="40.4594480" lon="-4.7718450">
        <ele>1075.8</ele>
        <time>2021-07-22T17:14:08Z</time>
      </trkpt>
      <trkpt lat="40.4594450" lon="-4.7718920">
        <ele>1075.9</ele>
        <time>2021-07-22T17:14:09Z</time>
      </trkpt>
      <trkpt lat="40.4594400" lon="-4.7719400">
        <ele>1076.1</ele>
        <time>2021-07-22T17:14:10Z</time>
      </trkpt>
      <trkpt lat="40.4594400" lon="-4.7720190">
        <ele>1076.3</ele>
        <time>2021-07-22T17:14:11Z</time>
      </trkpt>
      <trkpt lat="40.4594400" lon="-4.7720860">
        <ele>1076.5</ele>
        <time>2021-07-22T17:14:13Z</time>
      </trkpt>
      <trkpt lat="40.4594420" lon="-4.7721490">
        <ele>1076.7</ele>
        <time>2021-07-22T17:14:14Z</time>
      </trkpt>
      <trkpt lat="40.4594470" lon="-4.7722330">
        <ele>1077.0</ele>
        <time>2021-07-22T17:14:16Z</time>
      </trkpt>
      <trkpt lat="40.4594500" lon="-4.7722920">
        <ele>1077.1</ele>
        <time>2021-07-22T17:14:17Z</time>
      </trkpt>
      <trkpt lat="40.4594560" lon="-4.7723600">
        <ele>1077.3</ele>
        <time>2021-07-22T17:14:18Z</time>
      </trkpt>
      <trkpt lat="40.4594600" lon="-4.7724390">
        <ele>1077.6</ele>
        <time>2021-07-22T17:14:20Z</time>
      </trkpt>
      <trkpt lat="40.4594640" lon="-4.7725010">
        <ele>1077.7</ele>
        <time>2021-07-22T17:14:21Z</time>
      </trkpt>
      <trkpt lat="40.4594700" lon="-4.7725480">
        <ele>1077.8</ele>
        <time>2021-07-22T17:14:22Z</time>
      </trkpt>
      <trkpt lat="40.4594760" lon="-4.7726430">
        <ele>1078.0</ele>
        <time>2021-07-22T17:14:24Z</time>
      </trkpt>
      <trkpt lat="40.4594850" lon="-4.7727380">
        <ele>1078.2</ele>
        <time>2021-07-22T17:14:25Z</time>
      </trkpt>
      <trkpt lat="40.4594950" lon="-4.7728490">
        <ele>1078.3</ele>
        <time>2021-07-22T17:14:27Z</time>
      </trkpt>
      <trkpt lat="40.4595060" lon="-4.7729070">
        <ele>1078.4</ele>
        <time>2021-07-22T17:14:28Z</time>
      </trkpt>
      <trkpt lat="40.4595080" lon="-4.7729710">
        <ele>1078.4</ele>
        <time>2021-07-22T17:14:29Z</time>
      </trkpt>
      <trkpt lat="40.4595080" lon="-4.7730380">
        <ele>1078.5</ele>
        <time>2021-07-22T17:14:30Z</time>
      </trkpt>
      <trkpt lat="40.4595120" lon="-4.7731590">
        <ele>1078.5</ele>
        <time>2021-07-22T17:14:32Z</time>
      </trkpt>
      <trkpt lat="40.4595150" lon="-4.7732870">
        <ele>1078.6</ele>
        <time>2021-07-22T17:14:34Z</time>
      </trkpt>
      <trkpt lat="40.4595170" lon="-4.7733470">
        <ele>1078.6</ele>
        <time>2021-07-22T17:14:35Z</time>
      </trkpt>
      <trkpt lat="40.4594850" lon="-4.7734200">
        <ele>1078.6</ele>
        <time>2021-07-22T17:14:37Z</time>
      </trkpt>
      <trkpt lat="40.4595180" lon="-4.7735290">
        <ele>1078.6</ele>
        <time>2021-07-22T17:14:38Z</time>
      </trkpt>
      <trkpt lat="40.4595260" lon="-4.7736640">
        <ele>1078.6</ele>
        <time>2021-07-22T17:14:40Z</time>
      </trkpt>
      <trkpt lat="40.4595230" lon="-4.7737330">
        <ele>1078.6</ele>
        <time>2021-07-22T17:14:41Z</time>
      </trkpt>
      <trkpt lat="40.4595110" lon="-4.7738750">
        <ele>1078.6</ele>
        <time>2021-07-22T17:14:43Z</time>
      </trkpt>
      <trkpt lat="40.4595020" lon="-4.7739450">
        <ele>1078.6</ele>
        <time>2021-07-22T17:14:44Z</time>
      </trkpt>
      <trkpt lat="40.4594790" lon="-4.7740820">
        <ele>1078.6</ele>
        <time>2021-07-22T17:14:46Z</time>
      </trkpt>
      <trkpt lat="40.4594360" lon="-4.7742080">
        <ele>1078.7</ele>
        <time>2021-07-22T17:14:48Z</time>
      </trkpt>
      <trkpt lat="40.4593930" lon="-4.7743310">
        <ele>1078.7</ele>
        <time>2021-07-22T17:14:50Z</time>
      </trkpt>
      <trkpt lat="40.4593680" lon="-4.7743900">
        <ele>1078.8</ele>
        <time>2021-07-22T17:14:51Z</time>
      </trkpt>
      <trkpt lat="40.4593440" lon="-4.7744480">
        <ele>1078.8</ele>
        <time>2021-07-22T17:14:52Z</time>
      </trkpt>
      <trkpt lat="40.4592830" lon="-4.7745610">
        <ele>1078.9</ele>
        <time>2021-07-22T17:14:54Z</time>
      </trkpt>
      <trkpt lat="40.4592540" lon="-4.7746170">
        <ele>1079.0</ele>
        <time>2021-07-22T17:14:55Z</time>
      </trkpt>
      <trkpt lat="40.4591950" lon="-4.7747310">
        <ele>1079.1</ele>
        <time>2021-07-22T17:14:57Z</time>
      </trkpt>
      <trkpt lat="40.4591630" lon="-4.7747820">
        <ele>1079.2</ele>
        <time>2021-07-22T17:14:58Z</time>
      </trkpt>
      <trkpt lat="40.4591340" lon="-4.7748300">
        <ele>1079.3</ele>
        <time>2021-07-22T17:14:59Z</time>
      </trkpt>
      <trkpt lat="40.4590820" lon="-4.7749300">
        <ele>1079.6</ele>
        <time>2021-07-22T17:15:01Z</time>
      </trkpt>
      <trkpt lat="40.4590350" lon="-4.7750200">
        <ele>1079.8</ele>
        <time>2021-07-22T17:15:03Z</time>
      </trkpt>
      <trkpt lat="40.4589810" lon="-4.7751090">
        <ele>1080.0</ele>
        <time>2021-07-22T17:15:05Z</time>
      </trkpt>
      <trkpt lat="40.4589540" lon="-4.7751530">
        <ele>1080.1</ele>
        <time>2021-07-22T17:15:06Z</time>
      </trkpt>
      <trkpt lat="40.4589130" lon="-4.7752320">
        <ele>1080.3</ele>
        <time>2021-07-22T17:15:08Z</time>
      </trkpt>
      <trkpt lat="40.4588540" lon="-4.7753490">
        <ele>1080.6</ele>
        <time>2021-07-22T17:15:10Z</time>
      </trkpt>
      <trkpt lat="40.4588270" lon="-4.7753850">
        <ele>1080.7</ele>
        <time>2021-07-22T17:15:11Z</time>
      </trkpt>
      <trkpt lat="40.4588010" lon="-4.7754360">
        <ele>1080.8</ele>
        <time>2021-07-22T17:15:12Z</time>
      </trkpt>
      <trkpt lat="40.4587730" lon="-4.7754870">
        <ele>1080.9</ele>
        <time>2021-07-22T17:15:14Z</time>
      </trkpt>
      <trkpt lat="40.4587460" lon="-4.7755330">
        <ele>1081.0</ele>
        <time>2021-07-22T17:15:15Z</time>
      </trkpt>
      <trkpt lat="40.4587040" lon="-4.7756170">
        <ele>1081.2</ele>
        <time>2021-07-22T17:15:17Z</time>
      </trkpt>
      <trkpt lat="40.4586800" lon="-4.7756680">
        <ele>1081.3</ele>
        <time>2021-07-22T17:15:18Z</time>
      </trkpt>
      <trkpt lat="40.4586460" lon="-4.7757360">
        <ele>1081.5</ele>
        <time>2021-07-22T17:15:20Z</time>
      </trkpt>
      <trkpt lat="40.4586170" lon="-4.7757900">
        <ele>1081.7</ele>
        <time>2021-07-22T17:15:21Z</time>
      </trkpt>
      <trkpt lat="40.4585910" lon="-4.7758440">
        <ele>1081.8</ele>
        <time>2021-07-22T17:15:22Z</time>
      </trkpt>
      <trkpt lat="40.4585540" lon="-4.7759100">
        <ele>1082.0</ele>
        <time>2021-07-22T17:15:24Z</time>
      </trkpt>
      <trkpt lat="40.4585320" lon="-4.7759480">
        <ele>1082.1</ele>
        <time>2021-07-22T17:15:25Z</time>
      </trkpt>
      <trkpt lat="40.4584790" lon="-4.7760450">
        <ele>1082.4</ele>
        <time>2021-07-22T17:15:27Z</time>
      </trkpt>
      <trkpt lat="40.4584610" lon="-4.7760660">
        <ele>1082.5</ele>
        <time>2021-07-22T17:15:28Z</time>
      </trkpt>
      <trkpt lat="40.4584170" lon="-4.7761430">
        <ele>1082.7</ele>
        <time>2021-07-22T17:15:30Z</time>
      </trkpt>
      <trkpt lat="40.4583850" lon="-4.7762050">
        <ele>1082.9</ele>
        <time>2021-07-22T17:15:31Z</time>
      </trkpt>
      <trkpt lat="40.4583430" lon="-4.7762880">
        <ele>1083.1</ele>
        <time>2021-07-22T17:15:33Z</time>
      </trkpt>
      <trkpt lat="40.4583110" lon="-4.7763470">
        <ele>1083.2</ele>
        <time>2021-07-22T17:15:34Z</time>
      </trkpt>
      <trkpt lat="40.4582620" lon="-4.7764320">
        <ele>1083.5</ele>
        <time>2021-07-22T17:15:36Z</time>
      </trkpt>
      <trkpt lat="40.4582370" lon="-4.7764840">
        <ele>1083.6</ele>
        <time>2021-07-22T17:15:37Z</time>
      </trkpt>
      <trkpt lat="40.4581820" lon="-4.7765800">
        <ele>1083.9</ele>
        <time>2021-07-22T17:15:39Z</time>
      </trkpt>
      <trkpt lat="40.4581530" lon="-4.7766300">
        <ele>1084.0</ele>
        <time>2021-07-22T17:15:40Z</time>
      </trkpt>
      <trkpt lat="40.4581010" lon="-4.7767150">
        <ele>1084.2</ele>
        <time>2021-07-22T17:15:42Z</time>
      </trkpt>
      <trkpt lat="40.4580740" lon="-4.7767650">
        <ele>1084.3</ele>
        <time>2021-07-22T17:15:43Z</time>
      </trkpt>
      <trkpt lat="40.4580140" lon="-4.7768860">
        <ele>1084.6</ele>
        <time>2021-07-22T17:15:45Z</time>
      </trkpt>
      <trkpt lat="40.4579640" lon="-4.7769890">
        <ele>1084.8</ele>
        <time>2021-07-22T17:15:47Z</time>
      </trkpt>
      <trkpt lat="40.4579550" lon="-4.7770530">
        <ele>1084.9</ele>
        <time>2021-07-22T17:15:49Z</time>
      </trkpt>
      <trkpt lat="40.4579260" lon="-4.7771220">
        <ele>1085.0</ele>
        <time>2021-07-22T17:15:50Z</time>
      </trkpt>
      <trkpt lat="40.4579050" lon="-4.7771620">
        <ele>1085.1</ele>
        <time>2021-07-22T17:15:51Z</time>
      </trkpt>
      <trkpt lat="40.4578800" lon="-4.7772010">
        <ele>1085.1</ele>
        <time>2021-07-22T17:15:53Z</time>
      </trkpt>
      <trkpt lat="40.4578570" lon="-4.7772760">
        <ele>1085.3</ele>
        <time>2021-07-22T17:15:55Z</time>
      </trkpt>
      <trkpt lat="40.4578320" lon="-4.7773510">
        <ele>1085.4</ele>
        <time>2021-07-22T17:15:56Z</time>
      </trkpt>
      <trkpt lat="40.4577990" lon="-4.7774520">
        <ele>1085.6</ele>
        <time>2021-07-22T17:15:58Z</time>
      </trkpt>
      <trkpt lat="40.4577720" lon="-4.7775380">
        <ele>1085.7</ele>
        <time>2021-07-22T17:15:59Z</time>
      </trkpt>
      <trkpt lat="40.4577500" lon="-4.7776350">
        <ele>1085.9</ele>
        <time>2021-07-22T17:16:01Z</time>
      </trkpt>
      <trkpt lat="40.4577280" lon="-4.7777140">
        <ele>1086.0</ele>
        <time>2021-07-22T17:16:02Z</time>
      </trkpt>
      <trkpt lat="40.4577180" lon="-4.7777690">
        <ele>1086.0</ele>
        <time>2021-07-22T17:16:03Z</time>
      </trkpt>
      <trkpt lat="40.4577040" lon="-4.7778580">
        <ele>1086.2</ele>
        <time>2021-07-22T17:16:05Z</time>
      </trkpt>
      <trkpt lat="40.4576870" lon="-4.7779400">
        <ele>1086.2</ele>
        <time>2021-07-22T17:16:06Z</time>
      </trkpt>
      <trkpt lat="40.4576710" lon="-4.7780440">
        <ele>1086.3</ele>
        <time>2021-07-22T17:16:08Z</time>
      </trkpt>
      <trkpt lat="40.4576580" lon="-4.7781240">
        <ele>1086.5</ele>
        <time>2021-07-22T17:16:09Z</time>
      </trkpt>
      <trkpt lat="40.4576510" lon="-4.7781810">
        <ele>1086.6</ele>
        <time>2021-07-22T17:16:11Z</time>
      </trkpt>
      <trkpt lat="40.4576460" lon="-4.7782580">
        <ele>1086.7</ele>
        <time>2021-07-22T17:16:12Z</time>
      </trkpt>
      <trkpt lat="40.4576370" lon="-4.7783390">
        <ele>1086.9</ele>
        <time>2021-07-22T17:16:13Z</time>
      </trkpt>
      <trkpt lat="40.4576260" lon="-4.7784300">
        <ele>1087.1</ele>
        <time>2021-07-22T17:16:15Z</time>
      </trkpt>
      <trkpt lat="40.4576190" lon="-4.7784890">
        <ele>1087.2</ele>
        <time>2021-07-22T17:16:16Z</time>
      </trkpt>
      <trkpt lat="40.4576160" lon="-4.7785440">
        <ele>1087.2</ele>
        <time>2021-07-22T17:16:17Z</time>
      </trkpt>
      <trkpt lat="40.4576130" lon="-4.7786000">
        <ele>1087.3</ele>
        <time>2021-07-22T17:16:18Z</time>
      </trkpt>
      <trkpt lat="40.4576060" lon="-4.7786620">
        <ele>1087.4</ele>
        <time>2021-07-22T17:16:19Z</time>
      </trkpt>
      <trkpt lat="40.4575990" lon="-4.7787400">
        <ele>1087.4</ele>
        <time>2021-07-22T17:16:21Z</time>
      </trkpt>
      <trkpt lat="40.4575790" lon="-4.7788140">
        <ele>1087.5</ele>
        <time>2021-07-22T17:16:22Z</time>
      </trkpt>
      <trkpt lat="40.4575600" lon="-4.7788690">
        <ele>1087.5</ele>
        <time>2021-07-22T17:16:23Z</time>
      </trkpt>
      <trkpt lat="40.4575540" lon="-4.7789720">
        <ele>1087.5</ele>
        <time>2021-07-22T17:16:25Z</time>
      </trkpt>
      <trkpt lat="40.4575470" lon="-4.7790400">
        <ele>1087.5</ele>
        <time>2021-07-22T17:16:26Z</time>
      </trkpt>
      <trkpt lat="40.4575490" lon="-4.7791210">
        <ele>1087.5</ele>
        <time>2021-07-22T17:16:27Z</time>
      </trkpt>
      <trkpt lat="40.4575440" lon="-4.7792560">
        <ele>1087.4</ele>
        <time>2021-07-22T17:16:29Z</time>
      </trkpt>
      <trkpt lat="40.4575410" lon="-4.7793230">
        <ele>1087.4</ele>
        <time>2021-07-22T17:16:30Z</time>
      </trkpt>
      <trkpt lat="40.4575270" lon="-4.7794610">
        <ele>1087.4</ele>
        <time>2021-07-22T17:16:32Z</time>
      </trkpt>
      <trkpt lat="40.4575180" lon="-4.7795290">
        <ele>1087.3</ele>
        <time>2021-07-22T17:16:33Z</time>
      </trkpt>
      <trkpt lat="40.4575050" lon="-4.7796680">
        <ele>1087.3</ele>
        <time>2021-07-22T17:16:35Z</time>
      </trkpt>
      <trkpt lat="40.4574990" lon="-4.7797400">
        <ele>1087.3</ele>
        <time>2021-07-22T17:16:36Z</time>
      </trkpt>
      <trkpt lat="40.4574910" lon="-4.7798100">
        <ele>1087.3</ele>
        <time>2021-07-22T17:16:37Z</time>
      </trkpt>
      <trkpt lat="40.4574850" lon="-4.7798800">
        <ele>1087.3</ele>
        <time>2021-07-22T17:16:38Z</time>
      </trkpt>
      <trkpt lat="40.4574760" lon="-4.7800220">
        <ele>1087.4</ele>
        <time>2021-07-22T17:16:40Z</time>
      </trkpt>
      <trkpt lat="40.4574710" lon="-4.7800960">
        <ele>1087.4</ele>
        <time>2021-07-22T17:16:41Z</time>
      </trkpt>
      <trkpt lat="40.4574560" lon="-4.7802490">
        <ele>1087.4</ele>
        <time>2021-07-22T17:16:43Z</time>
      </trkpt>
      <trkpt lat="40.4574470" lon="-4.7803290">
        <ele>1087.4</ele>
        <time>2021-07-22T17:16:44Z</time>
      </trkpt>
      <trkpt lat="40.4574260" lon="-4.7804890">
        <ele>1087.4</ele>
        <time>2021-07-22T17:16:46Z</time>
      </trkpt>
      <trkpt lat="40.4574180" lon="-4.7805700">
        <ele>1087.5</ele>
        <time>2021-07-22T17:16:47Z</time>
      </trkpt>
      <trkpt lat="40.4574090" lon="-4.7807270">
        <ele>1087.6</ele>
        <time>2021-07-22T17:16:49Z</time>
      </trkpt>
      <trkpt lat="40.4574000" lon="-4.7808810">
        <ele>1087.7</ele>
        <time>2021-07-22T17:16:51Z</time>
      </trkpt>
      <trkpt lat="40.4573860" lon="-4.7810330">
        <ele>1087.8</ele>
        <time>2021-07-22T17:16:53Z</time>
      </trkpt>
      <trkpt lat="40.4573790" lon="-4.7811140">
        <ele>1087.9</ele>
        <time>2021-07-22T17:16:54Z</time>
      </trkpt>
      <trkpt lat="40.4573680" lon="-4.7812660">
        <ele>1088.2</ele>
        <time>2021-07-22T17:16:56Z</time>
      </trkpt>
      <trkpt lat="40.4573520" lon="-4.7813910">
        <ele>1088.4</ele>
        <time>2021-07-22T17:16:58Z</time>
      </trkpt>
      <trkpt lat="40.4573420" lon="-4.7815110">
        <ele>1088.7</ele>
        <time>2021-07-22T17:17:00Z</time>
      </trkpt>
      <trkpt lat="40.4573350" lon="-4.7815640">
        <ele>1088.8</ele>
        <time>2021-07-22T17:17:01Z</time>
      </trkpt>
      <trkpt lat="40.4573290" lon="-4.7816550">
        <ele>1089.0</ele>
        <time>2021-07-22T17:17:03Z</time>
      </trkpt>
      <trkpt lat="40.4573150" lon="-4.7817640">
        <ele>1089.3</ele>
        <time>2021-07-22T17:17:05Z</time>
      </trkpt>
      <trkpt lat="40.4573030" lon="-4.7818830">
        <ele>1089.7</ele>
        <time>2021-07-22T17:17:07Z</time>
      </trkpt>
      <trkpt lat="40.4573070" lon="-4.7819490">
        <ele>1089.9</ele>
        <time>2021-07-22T17:17:08Z</time>
      </trkpt>
      <trkpt lat="40.4573010" lon="-4.7820300">
        <ele>1090.1</ele>
        <time>2021-07-22T17:17:10Z</time>
      </trkpt>
      <trkpt lat="40.4572900" lon="-4.7821220">
        <ele>1090.4</ele>
        <time>2021-07-22T17:17:12Z</time>
      </trkpt>
      <trkpt lat="40.4572820" lon="-4.7821840">
        <ele>1090.6</ele>
        <time>2021-07-22T17:17:13Z</time>
      </trkpt>
      <trkpt lat="40.4572750" lon="-4.7822330">
        <ele>1090.8</ele>
        <time>2021-07-22T17:17:14Z</time>
      </trkpt>
      <trkpt lat="40.4572660" lon="-4.7823140">
        <ele>1091.1</ele>
        <time>2021-07-22T17:17:16Z</time>
      </trkpt>
      <trkpt lat="40.4572580" lon="-4.7823730">
        <ele>1091.3</ele>
        <time>2021-07-22T17:17:17Z</time>
      </trkpt>
      <trkpt lat="40.4572570" lon="-4.7824260">
        <ele>1091.4</ele>
        <time>2021-07-22T17:17:18Z</time>
      </trkpt>
      <trkpt lat="40.4572510" lon="-4.7825120">
        <ele>1091.7</ele>
        <time>2021-07-22T17:17:20Z</time>
      </trkpt>
      <trkpt lat="40.4572440" lon="-4.7825760">
        <ele>1091.9</ele>
        <time>2021-07-22T17:17:21Z</time>
      </trkpt>
      <trkpt lat="40.4572410" lon="-4.7826260">
        <ele>1092.0</ele>
        <time>2021-07-22T17:17:22Z</time>
      </trkpt>
      <trkpt lat="40.4572310" lon="-4.7827110">
        <ele>1092.2</ele>
        <time>2021-07-22T17:17:24Z</time>
      </trkpt>
      <trkpt lat="40.4572260" lon="-4.7827750">
        <ele>1092.4</ele>
        <time>2021-07-22T17:17:25Z</time>
      </trkpt>
      <trkpt lat="40.4572220" lon="-4.7828340">
        <ele>1092.5</ele>
        <time>2021-07-22T17:17:26Z</time>
      </trkpt>
      <trkpt lat="40.4572140" lon="-4.7829130">
        <ele>1092.7</ele>
        <time>2021-07-22T17:17:27Z</time>
      </trkpt>
      <trkpt lat="40.4572060" lon="-4.7829990">
        <ele>1092.9</ele>
        <time>2021-07-22T17:17:29Z</time>
      </trkpt>
      <trkpt lat="40.4572010" lon="-4.7830690">
        <ele>1093.1</ele>
        <time>2021-07-22T17:17:30Z</time>
      </trkpt>
      <trkpt lat="40.4571940" lon="-4.7831390">
        <ele>1093.2</ele>
        <time>2021-07-22T17:17:31Z</time>
      </trkpt>
      <trkpt lat="40.4571880" lon="-4.7832030">
        <ele>1093.4</ele>
        <time>2021-07-22T17:17:32Z</time>
      </trkpt>
      <trkpt lat="40.4571820" lon="-4.7832640">
        <ele>1093.5</ele>
        <time>2021-07-22T17:17:33Z</time>
      </trkpt>
      <trkpt lat="40.4571730" lon="-4.7833540">
        <ele>1093.7</ele>
        <time>2021-07-22T17:17:35Z</time>
      </trkpt>
      <trkpt lat="40.4571640" lon="-4.7834520">
        <ele>1093.9</ele>
        <time>2021-07-22T17:17:37Z</time>
      </trkpt>
      <trkpt lat="40.4571600" lon="-4.7835080">
        <ele>1094.0</ele>
        <time>2021-07-22T17:17:38Z</time>
      </trkpt>
      <trkpt lat="40.4571580" lon="-4.7835750">
        <ele>1094.1</ele>
        <time>2021-07-22T17:17:39Z</time>
      </trkpt>
      <trkpt lat="40.4571500" lon="-4.7836540">
        <ele>1094.2</ele>
        <time>2021-07-22T17:17:41Z</time>
      </trkpt>
      <trkpt lat="40.4571460" lon="-4.7837060">
        <ele>1094.3</ele>
        <time>2021-07-22T17:17:42Z</time>
      </trkpt>
      <trkpt lat="40.4571420" lon="-4.7837560">
        <ele>1094.4</ele>
        <time>2021-07-22T17:17:43Z</time>
      </trkpt>
      <trkpt lat="40.4571340" lon="-4.7838450">
        <ele>1094.6</ele>
        <time>2021-07-22T17:17:45Z</time>
      </trkpt>
      <trkpt lat="40.4571290" lon="-4.7839010">
        <ele>1094.7</ele>
        <time>2021-07-22T17:17:46Z</time>
      </trkpt>
      <trkpt lat="40.4571230" lon="-4.7839480">
        <ele>1094.7</ele>
        <time>2021-07-22T17:17:47Z</time>
      </trkpt>
      <trkpt lat="40.4571140" lon="-4.7840420">
        <ele>1094.9</ele>
        <time>2021-07-22T17:17:49Z</time>
      </trkpt>
      <trkpt lat="40.4571110" lon="-4.7840980">
        <ele>1094.9</ele>
        <time>2021-07-22T17:17:50Z</time>
      </trkpt>
      <trkpt lat="40.4571080" lon="-4.7841490">
        <ele>1095.0</ele>
        <time>2021-07-22T17:17:51Z</time>
      </trkpt>
      <trkpt lat="40.4571050" lon="-4.7842360">
        <ele>1095.1</ele>
        <time>2021-07-22T17:17:53Z</time>
      </trkpt>
      <trkpt lat="40.4571010" lon="-4.7843130">
        <ele>1095.3</ele>
        <time>2021-07-22T17:17:54Z</time>
      </trkpt>
      <trkpt lat="40.4571010" lon="-4.7844190">
        <ele>1095.4</ele>
        <time>2021-07-22T17:17:56Z</time>
      </trkpt>
      <trkpt lat="40.4570960" lon="-4.7844880">
        <ele>1095.5</ele>
        <time>2021-07-22T17:17:57Z</time>
      </trkpt>
      <trkpt lat="40.4570920" lon="-4.7845490">
        <ele>1095.6</ele>
        <time>2021-07-22T17:17:58Z</time>
      </trkpt>
      <trkpt lat="40.4570900" lon="-4.7846080">
        <ele>1095.7</ele>
        <time>2021-07-22T17:17:59Z</time>
      </trkpt>
      <trkpt lat="40.4570820" lon="-4.7846910">
        <ele>1095.9</ele>
        <time>2021-07-22T17:18:00Z</time>
      </trkpt>
      <trkpt lat="40.4570760" lon="-4.7847530">
        <ele>1096.0</ele>
        <time>2021-07-22T17:18:01Z</time>
      </trkpt>
      <trkpt lat="40.4570740" lon="-4.7848700">
        <ele>1096.2</ele>
        <time>2021-07-22T17:18:03Z</time>
      </trkpt>
      <trkpt lat="40.4570690" lon="-4.7849370">
        <ele>1096.3</ele>
        <time>2021-07-22T17:18:04Z</time>
      </trkpt>
      <trkpt lat="40.4570640" lon="-4.7850630">
        <ele>1096.4</ele>
        <time>2021-07-22T17:18:06Z</time>
      </trkpt>
      <trkpt lat="40.4570610" lon="-4.7851920">
        <ele>1096.6</ele>
        <time>2021-07-22T17:18:08Z</time>
      </trkpt>
      <trkpt lat="40.4570580" lon="-4.7852590">
        <ele>1096.7</ele>
        <time>2021-07-22T17:18:09Z</time>
      </trkpt>
      <trkpt lat="40.4570660" lon="-4.7853690">
        <ele>1096.9</ele>
        <time>2021-07-22T17:18:11Z</time>
      </trkpt>
      <trkpt lat="40.4570740" lon="-4.7854320">
        <ele>1097.0</ele>
        <time>2021-07-22T17:18:12Z</time>
      </trkpt>
      <trkpt lat="40.4570640" lon="-4.7855620">
        <ele>1097.3</ele>
        <time>2021-07-22T17:18:14Z</time>
      </trkpt>
      <trkpt lat="40.4570600" lon="-4.7856240">
        <ele>1097.4</ele>
        <time>2021-07-22T17:18:15Z</time>
      </trkpt>
      <trkpt lat="40.4570580" lon="-4.7857580">
        <ele>1097.6</ele>
        <time>2021-07-22T17:18:17Z</time>
      </trkpt>
      <trkpt lat="40.4570580" lon="-4.7858250">
        <ele>1097.7</ele>
        <time>2021-07-22T17:18:18Z</time>
      </trkpt>
      <trkpt lat="40.4570550" lon="-4.7859460">
        <ele>1097.9</ele>
        <time>2021-07-22T17:18:20Z</time>
      </trkpt>
      <trkpt lat="40.4570460" lon="-4.7860610">
        <ele>1098.2</ele>
        <time>2021-07-22T17:18:22Z</time>
      </trkpt>
      <trkpt lat="40.4570610" lon="-4.7861220">
        <ele>1098.3</ele>
        <time>2021-07-22T17:18:23Z</time>
      </trkpt>
      <trkpt lat="40.4570540" lon="-4.7862180">
        <ele>1098.6</ele>
        <time>2021-07-22T17:18:25Z</time>
      </trkpt>
      <trkpt lat="40.4570590" lon="-4.7862780">
        <ele>1098.7</ele>
        <time>2021-07-22T17:18:26Z</time>
      </trkpt>
      <trkpt lat="40.4570620" lon="-4.7863460">
        <ele>1098.9</ele>
        <time>2021-07-22T17:18:27Z</time>
      </trkpt>
      <trkpt lat="40.4570640" lon="-4.7863970">
        <ele>1099.1</ele>
        <time>2021-07-22T17:18:28Z</time>
      </trkpt>
      <trkpt lat="40.4570670" lon="-4.7864470">
        <ele>1099.2</ele>
        <time>2021-07-22T17:18:29Z</time>
      </trkpt>
      <trkpt lat="40.4570720" lon="-4.7865250">
        <ele>1099.4</ele>
        <time>2021-07-22T17:18:30Z</time>
      </trkpt>
      <trkpt lat="40.4570760" lon="-4.7865820">
        <ele>1099.5</ele>
        <time>2021-07-22T17:18:32Z</time>
      </trkpt>
      <trkpt lat="40.4570750" lon="-4.7866580">
        <ele>1099.7</ele>
        <time>2021-07-22T17:18:33Z</time>
      </trkpt>
      <trkpt lat="40.4570750" lon="-4.7867220">
        <ele>1099.9</ele>
        <time>2021-07-22T17:18:34Z</time>
      </trkpt>
      <trkpt lat="40.4570800" lon="-4.7868040">
        <ele>1100.1</ele>
        <time>2021-07-22T17:18:36Z</time>
      </trkpt>
      <trkpt lat="40.4570840" lon="-4.7868860">
        <ele>1100.4</ele>
        <time>2021-07-22T17:18:37Z</time>
      </trkpt>
      <trkpt lat="40.4570890" lon="-4.7869650">
        <ele>1100.6</ele>
        <time>2021-07-22T17:18:39Z</time>
      </trkpt>
      <trkpt lat="40.4570910" lon="-4.7870220">
        <ele>1100.8</ele>
        <time>2021-07-22T17:18:40Z</time>
      </trkpt>
      <trkpt lat="40.4570960" lon="-4.7871130">
        <ele>1101.0</ele>
        <time>2021-07-22T17:18:42Z</time>
      </trkpt>
      <trkpt lat="40.4571000" lon="-4.7871840">
        <ele>1101.3</ele>
        <time>2021-07-22T17:18:43Z</time>
      </trkpt>
      <trkpt lat="40.4571010" lon="-4.7872420">
        <ele>1101.4</ele>
        <time>2021-07-22T17:18:44Z</time>
      </trkpt>
      <trkpt lat="40.4571020" lon="-4.7873320">
        <ele>1101.7</ele>
        <time>2021-07-22T17:18:46Z</time>
      </trkpt>
      <trkpt lat="40.4571070" lon="-4.7874100">
        <ele>1101.9</ele>
        <time>2021-07-22T17:18:47Z</time>
      </trkpt>
      <trkpt lat="40.4571080" lon="-4.7874710">
        <ele>1102.0</ele>
        <time>2021-07-22T17:18:48Z</time>
      </trkpt>
      <trkpt lat="40.4571110" lon="-4.7875530">
        <ele>1102.2</ele>
        <time>2021-07-22T17:18:50Z</time>
      </trkpt>
      <trkpt lat="40.4571130" lon="-4.7876200">
        <ele>1102.4</ele>
        <time>2021-07-22T17:18:51Z</time>
      </trkpt>
      <trkpt lat="40.4571150" lon="-4.7877190">
        <ele>1102.7</ele>
        <time>2021-07-22T17:18:53Z</time>
      </trkpt>
      <trkpt lat="40.4571190" lon="-4.7878100">
        <ele>1103.0</ele>
        <time>2021-07-22T17:18:55Z</time>
      </trkpt>
      <trkpt lat="40.4571180" lon="-4.7878600">
        <ele>1103.1</ele>
        <time>2021-07-22T17:18:56Z</time>
      </trkpt>
      <trkpt lat="40.4571220" lon="-4.7879150">
        <ele>1103.3</ele>
        <time>2021-07-22T17:18:57Z</time>
      </trkpt>
      <trkpt lat="40.4571290" lon="-4.7880040">
        <ele>1103.6</ele>
        <time>2021-07-22T17:18:59Z</time>
      </trkpt>
      <trkpt lat="40.4571330" lon="-4.7880540">
        <ele>1103.7</ele>
        <time>2021-07-22T17:19:00Z</time>
      </trkpt>
      <trkpt lat="40.4571360" lon="-4.7881090">
        <ele>1103.9</ele>
        <time>2021-07-22T17:19:01Z</time>
      </trkpt>
      <trkpt lat="40.4571390" lon="-4.7881940">
        <ele>1104.2</ele>
        <time>2021-07-22T17:19:03Z</time>
      </trkpt>
      <trkpt lat="40.4571400" lon="-4.7882550">
        <ele>1104.3</ele>
        <time>2021-07-22T17:19:04Z</time>
      </trkpt>
      <trkpt lat="40.4571440" lon="-4.7883530">
        <ele>1104.6</ele>
        <time>2021-07-22T17:19:06Z</time>
      </trkpt>
      <trkpt lat="40.4571470" lon="-4.7884070">
        <ele>1104.8</ele>
        <time>2021-07-22T17:19:07Z</time>
      </trkpt>
      <trkpt lat="40.4571540" lon="-4.7884680">
        <ele>1105.0</ele>
        <time>2021-07-22T17:19:08Z</time>
      </trkpt>
      <trkpt lat="40.4571580" lon="-4.7885290">
        <ele>1105.2</ele>
        <time>2021-07-22T17:19:09Z</time>
      </trkpt>
      <trkpt lat="40.4571630" lon="-4.7886000">
        <ele>1105.4</ele>
        <time>2021-07-22T17:19:11Z</time>
      </trkpt>
      <trkpt lat="40.4571650" lon="-4.7886740">
        <ele>1105.6</ele>
        <time>2021-07-22T17:19:12Z</time>
      </trkpt>
      <trkpt lat="40.4571640" lon="-4.7887260">
        <ele>1105.7</ele>
        <time>2021-07-22T17:19:13Z</time>
      </trkpt>
      <trkpt lat="40.4571690" lon="-4.7888190">
        <ele>1106.0</ele>
        <time>2021-07-22T17:19:15Z</time>
      </trkpt>
      <trkpt lat="40.4571730" lon="-4.7888730">
        <ele>1106.1</ele>
        <time>2021-07-22T17:19:16Z</time>
      </trkpt>
      <trkpt lat="40.4571800" lon="-4.7889560">
        <ele>1106.3</ele>
        <time>2021-07-22T17:19:18Z</time>
      </trkpt>
      <trkpt lat="40.4571850" lon="-4.7890190">
        <ele>1106.5</ele>
        <time>2021-07-22T17:19:19Z</time>
      </trkpt>
      <trkpt lat="40.4571850" lon="-4.7890770">
        <ele>1106.6</ele>
        <time>2021-07-22T17:19:20Z</time>
      </trkpt>
      <trkpt lat="40.4571870" lon="-4.7891260">
        <ele>1106.7</ele>
        <time>2021-07-22T17:19:21Z</time>
      </trkpt>
      <trkpt lat="40.4571930" lon="-4.7891880">
        <ele>1106.9</ele>
        <time>2021-07-22T17:19:23Z</time>
      </trkpt>
      <trkpt lat="40.4571960" lon="-4.7892530">
        <ele>1107.0</ele>
        <time>2021-07-22T17:19:24Z</time>
      </trkpt>
      <trkpt lat="40.4571990" lon="-4.7893100">
        <ele>1107.1</ele>
        <time>2021-07-22T17:19:25Z</time>
      </trkpt>
      <trkpt lat="40.4572060" lon="-4.7894130">
        <ele>1107.3</ele>
        <time>2021-07-22T17:19:27Z</time>
      </trkpt>
      <trkpt lat="40.4572070" lon="-4.7894690">
        <ele>1107.4</ele>
        <time>2021-07-22T17:19:28Z</time>
      </trkpt>
      <trkpt lat="40.4572090" lon="-4.7895500">
        <ele>1107.6</ele>
        <time>2021-07-22T17:19:30Z</time>
      </trkpt>
      <trkpt lat="40.4572140" lon="-4.7896230">
        <ele>1107.7</ele>
        <time>2021-07-22T17:19:31Z</time>
      </trkpt>
      <trkpt lat="40.4572160" lon="-4.7896740">
        <ele>1107.9</ele>
        <time>2021-07-22T17:19:32Z</time>
      </trkpt>
      <trkpt lat="40.4572190" lon="-4.7897210">
        <ele>1107.9</ele>
        <time>2021-07-22T17:19:33Z</time>
      </trkpt>
      <trkpt lat="40.4572280" lon="-4.7898070">
        <ele>1108.1</ele>
        <time>2021-07-22T17:19:35Z</time>
      </trkpt>
      <trkpt lat="40.4572330" lon="-4.7898600">
        <ele>1108.2</ele>
        <time>2021-07-22T17:19:36Z</time>
      </trkpt>
      <trkpt lat="40.4572350" lon="-4.7899120">
        <ele>1108.3</ele>
        <time>2021-07-22T17:19:37Z</time>
      </trkpt>
      <trkpt lat="40.4572360" lon="-4.7899640">
        <ele>1108.4</ele>
        <time>2021-07-22T17:19:38Z</time>
      </trkpt>
      <trkpt lat="40.4572430" lon="-4.7900370">
        <ele>1108.6</ele>
        <time>2021-07-22T17:19:40Z</time>
      </trkpt>
      <trkpt lat="40.4572470" lon="-4.7901110">
        <ele>1108.7</ele>
        <time>2021-07-22T17:19:41Z</time>
      </trkpt>
      <trkpt lat="40.4572500" lon="-4.7902150">
        <ele>1108.9</ele>
        <time>2021-07-22T17:19:43Z</time>
      </trkpt>
      <trkpt lat="40.4572520" lon="-4.7903090">
        <ele>1109.0</ele>
        <time>2021-07-22T17:19:44Z</time>
      </trkpt>
      <trkpt lat="40.4572530" lon="-4.7903820">
        <ele>1109.1</ele>
        <time>2021-07-22T17:19:45Z</time>
      </trkpt>
      <trkpt lat="40.4572530" lon="-4.7904460">
        <ele>1109.2</ele>
        <time>2021-07-22T17:19:46Z</time>
      </trkpt>
      <trkpt lat="40.4572550" lon="-4.7904930">
        <ele>1109.3</ele>
        <time>2021-07-22T17:19:47Z</time>
      </trkpt>
      <trkpt lat="40.4572630" lon="-4.7905520">
        <ele>1109.4</ele>
        <time>2021-07-22T17:19:48Z</time>
      </trkpt>
      <trkpt lat="40.4572670" lon="-4.7906770">
        <ele>1109.5</ele>
        <time>2021-07-22T17:19:50Z</time>
      </trkpt>
      <trkpt lat="40.4572550" lon="-4.7907280">
        <ele>1109.5</ele>
        <time>2021-07-22T17:19:51Z</time>
      </trkpt>
      <trkpt lat="40.4572540" lon="-4.7907570">
        <ele>1109.6</ele>
        <time>2021-07-22T17:19:52Z</time>
      </trkpt>
      <trkpt lat="40.4572590" lon="-4.7908700">
        <ele>1109.7</ele>
        <time>2021-07-22T17:19:54Z</time>
      </trkpt>
      <trkpt lat="40.4572630" lon="-4.7909390">
        <ele>1109.8</ele>
        <time>2021-07-22T17:19:55Z</time>
      </trkpt>
      <trkpt lat="40.4572680" lon="-4.7910360">
        <ele>1109.9</ele>
        <time>2021-07-22T17:19:56Z</time>
      </trkpt>
      <trkpt lat="40.4572730" lon="-4.7911300">
        <ele>1110.0</ele>
        <time>2021-07-22T17:19:58Z</time>
      </trkpt>
      <trkpt lat="40.4572780" lon="-4.7911890">
        <ele>1110.0</ele>
        <time>2021-07-22T17:19:59Z</time>
      </trkpt>
      <trkpt lat="40.4572830" lon="-4.7912490">
        <ele>1110.0</ele>
        <time>2021-07-22T17:20:00Z</time>
      </trkpt>
      <trkpt lat="40.4572880" lon="-4.7913310">
        <ele>1110.0</ele>
        <time>2021-07-22T17:20:01Z</time>
      </trkpt>
      <trkpt lat="40.4572880" lon="-4.7914130">
        <ele>1110.0</ele>
        <time>2021-07-22T17:20:03Z</time>
      </trkpt>
      <trkpt lat="40.4572960" lon="-4.7914980">
        <ele>1109.9</ele>
        <time>2021-07-22T17:20:04Z</time>
      </trkpt>
      <trkpt lat="40.4573060" lon="-4.7916460">
        <ele>1109.8</ele>
        <time>2021-07-22T17:20:06Z</time>
      </trkpt>
      <trkpt lat="40.4573270" lon="-4.7918140">
        <ele>1109.7</ele>
        <time>2021-07-22T17:20:08Z</time>
      </trkpt>
      <trkpt lat="40.4573490" lon="-4.7919790">
        <ele>1109.5</ele>
        <time>2021-07-22T17:20:10Z</time>
      </trkpt>
      <trkpt lat="40.4573740" lon="-4.7921240">
        <ele>1109.2</ele>
        <time>2021-07-22T17:20:12Z</time>
      </trkpt>
      <trkpt lat="40.4573810" lon="-4.7921980">
        <ele>1109.0</ele>
        <time>2021-07-22T17:20:13Z</time>
      </trkpt>
      <trkpt lat="40.4573890" lon="-4.7923380">
        <ele>1108.7</ele>
        <time>2021-07-22T17:20:15Z</time>
      </trkpt>
      <trkpt lat="40.4573960" lon="-4.7924870">
        <ele>1108.4</ele>
        <time>2021-07-22T17:20:17Z</time>
      </trkpt>
      <trkpt lat="40.4573980" lon="-4.7925670">
        <ele>1108.2</ele>
        <time>2021-07-22T17:20:18Z</time>
      </trkpt>
      <trkpt lat="40.4574000" lon="-4.7927280">
        <ele>1107.9</ele>
        <time>2021-07-22T17:20:20Z</time>
      </trkpt>
      <trkpt lat="40.4574010" lon="-4.7928090">
        <ele>1107.7</ele>
        <time>2021-07-22T17:20:21Z</time>
      </trkpt>
      <trkpt lat="40.4574040" lon="-4.7928910">
        <ele>1107.6</ele>
        <time>2021-07-22T17:20:22Z</time>
      </trkpt>
      <trkpt lat="40.4574070" lon="-4.7929710">
        <ele>1107.4</ele>
        <time>2021-07-22T17:20:23Z</time>
      </trkpt>
      <trkpt lat="40.4574130" lon="-4.7930520">
        <ele>1107.3</ele>
        <time>2021-07-22T17:20:24Z</time>
      </trkpt>
      <trkpt lat="40.4574190" lon="-4.7932110">
        <ele>1107.0</ele>
        <time>2021-07-22T17:20:26Z</time>
      </trkpt>
      <trkpt lat="40.4574300" lon="-4.7933760">
        <ele>1106.7</ele>
        <time>2021-07-22T17:20:28Z</time>
      </trkpt>
      <trkpt lat="40.4574380" lon="-4.7935390">
        <ele>1106.4</ele>
        <time>2021-07-22T17:20:30Z</time>
      </trkpt>
      <trkpt lat="40.4574440" lon="-4.7936240">
        <ele>1106.2</ele>
        <time>2021-07-22T17:20:31Z</time>
      </trkpt>
      <trkpt lat="40.4574540" lon="-4.7937880">
        <ele>1105.9</ele>
        <time>2021-07-22T17:20:33Z</time>
      </trkpt>
      <trkpt lat="40.4574540" lon="-4.7938700">
        <ele>1105.7</ele>
        <time>2021-07-22T17:20:34Z</time>
      </trkpt>
      <trkpt lat="40.4574650" lon="-4.7940300">
        <ele>1105.4</ele>
        <time>2021-07-22T17:20:36Z</time>
      </trkpt>
      <trkpt lat="40.4574700" lon="-4.7941130">
        <ele>1105.2</ele>
        <time>2021-07-22T17:20:37Z</time>
      </trkpt>
      <trkpt lat="40.4574770" lon="-4.7942800">
        <ele>1104.9</ele>
        <time>2021-07-22T17:20:39Z</time>
      </trkpt>
      <trkpt lat="40.4574830" lon="-4.7944440">
        <ele>1104.7</ele>
        <time>2021-07-22T17:20:41Z</time>
      </trkpt>
      <trkpt lat="40.4574860" lon="-4.7945270">
        <ele>1104.5</ele>
        <time>2021-07-22T17:20:42Z</time>
      </trkpt>
      <trkpt lat="40.4574970" lon="-4.7946960">
        <ele>1104.3</ele>
        <time>2021-07-22T17:20:44Z</time>
      </trkpt>
      <trkpt lat="40.4575040" lon="-4.7947800">
        <ele>1104.1</ele>
        <time>2021-07-22T17:20:45Z</time>
      </trkpt>
      <trkpt lat="40.4575090" lon="-4.7949440">
        <ele>1103.9</ele>
        <time>2021-07-22T17:20:47Z</time>
      </trkpt>
      <trkpt lat="40.4575130" lon="-4.7950320">
        <ele>1103.7</ele>
        <time>2021-07-22T17:20:48Z</time>
      </trkpt>
      <trkpt lat="40.4575200" lon="-4.7952110">
        <ele>1103.5</ele>
        <time>2021-07-22T17:20:50Z</time>
      </trkpt>
      <trkpt lat="40.4575260" lon="-4.7953030">
        <ele>1103.3</ele>
        <time>2021-07-22T17:20:51Z</time>
      </trkpt>
      <trkpt lat="40.4575360" lon="-4.7954840">
        <ele>1103.1</ele>
        <time>2021-07-22T17:20:53Z</time>
      </trkpt>
      <trkpt lat="40.4575450" lon="-4.7956620">
        <ele>1102.8</ele>
        <time>2021-07-22T17:20:55Z</time>
      </trkpt>
      <trkpt lat="40.4575500" lon="-4.7957530">
        <ele>1102.7</ele>
        <time>2021-07-22T17:20:56Z</time>
      </trkpt>
      <trkpt lat="40.4575630" lon="-4.7959340">
        <ele>1102.6</ele>
        <time>2021-07-22T17:20:58Z</time>
      </trkpt>
      <trkpt lat="40.4575680" lon="-4.7960230">
        <ele>1102.5</ele>
        <time>2021-07-22T17:20:59Z</time>
      </trkpt>
      <trkpt lat="40.4575730" lon="-4.7961120">
        <ele>1102.4</ele>
        <time>2021-07-22T17:21:00Z</time>
      </trkpt>
      <trkpt lat="40.4575860" lon="-4.7962830">
        <ele>1102.3</ele>
        <time>2021-07-22T17:21:02Z</time>
      </trkpt>
      <trkpt lat="40.4575910" lon="-4.7964550">
        <ele>1102.2</ele>
        <time>2021-07-22T17:21:04Z</time>
      </trkpt>
      <trkpt lat="40.4575970" lon="-4.7966300">
        <ele>1102.1</ele>
        <time>2021-07-22T17:21:06Z</time>
      </trkpt>
      <trkpt lat="40.4576010" lon="-4.7967980">
        <ele>1102.1</ele>
        <time>2021-07-22T17:21:08Z</time>
      </trkpt>
      <trkpt lat="40.4576080" lon="-4.7968840">
        <ele>1102.1</ele>
        <time>2021-07-22T17:21:09Z</time>
      </trkpt>
      <trkpt lat="40.4576140" lon="-4.7969710">
        <ele>1102.1</ele>
        <time>2021-07-22T17:21:10Z</time>
      </trkpt>
      <trkpt lat="40.4576220" lon="-4.7971430">
        <ele>1102.1</ele>
        <time>2021-07-22T17:21:12Z</time>
      </trkpt>
      <trkpt lat="40.4576300" lon="-4.7973090">
        <ele>1102.1</ele>
        <time>2021-07-22T17:21:14Z</time>
      </trkpt>
      <trkpt lat="40.4576330" lon="-4.7973920">
        <ele>1102.1</ele>
        <time>2021-07-22T17:21:15Z</time>
      </trkpt>
      <trkpt lat="40.4576360" lon="-4.7975620">
        <ele>1102.1</ele>
        <time>2021-07-22T17:21:17Z</time>
      </trkpt>
      <trkpt lat="40.4576380" lon="-4.7976490">
        <ele>1102.1</ele>
        <time>2021-07-22T17:21:18Z</time>
      </trkpt>
      <trkpt lat="40.4576480" lon="-4.7978200">
        <ele>1102.2</ele>
        <time>2021-07-22T17:21:20Z</time>
      </trkpt>
      <trkpt lat="40.4576520" lon="-4.7979060">
        <ele>1102.2</ele>
        <time>2021-07-22T17:21:21Z</time>
      </trkpt>
      <trkpt lat="40.4576540" lon="-4.7979900">
        <ele>1102.3</ele>
        <time>2021-07-22T17:21:22Z</time>
      </trkpt>
      <trkpt lat="40.4576560" lon="-4.7980710">
        <ele>1102.3</ele>
        <time>2021-07-22T17:21:23Z</time>
      </trkpt>
      <trkpt lat="40.4576580" lon="-4.7981530">
        <ele>1102.4</ele>
        <time>2021-07-22T17:21:24Z</time>
      </trkpt>
      <trkpt lat="40.4576680" lon="-4.7983200">
        <ele>1102.4</ele>
        <time>2021-07-22T17:21:26Z</time>
      </trkpt>
      <trkpt lat="40.4576710" lon="-4.7984020">
        <ele>1102.4</ele>
        <time>2021-07-22T17:21:27Z</time>
      </trkpt>
      <trkpt lat="40.4576790" lon="-4.7985630">
        <ele>1102.5</ele>
        <time>2021-07-22T17:21:29Z</time>
      </trkpt>
      <trkpt lat="40.4576870" lon="-4.7987210">
        <ele>1102.6</ele>
        <time>2021-07-22T17:21:31Z</time>
      </trkpt>
      <trkpt lat="40.4576900" lon="-4.7988030">
        <ele>1102.6</ele>
        <time>2021-07-22T17:21:32Z</time>
      </trkpt>
      <trkpt lat="40.4576930" lon="-4.7988830">
        <ele>1102.7</ele>
        <time>2021-07-22T17:21:33Z</time>
      </trkpt>
      <trkpt lat="40.4577030" lon="-4.7990400">
        <ele>1102.8</ele>
        <time>2021-07-22T17:21:35Z</time>
      </trkpt>
      <trkpt lat="40.4577090" lon="-4.7991170">
        <ele>1102.8</ele>
        <time>2021-07-22T17:21:36Z</time>
      </trkpt>
      <trkpt lat="40.4577120" lon="-4.7991920">
        <ele>1102.9</ele>
        <time>2021-07-22T17:21:37Z</time>
      </trkpt>
      <trkpt lat="40.4577170" lon="-4.7993480">
        <ele>1102.9</ele>
        <time>2021-07-22T17:21:39Z</time>
      </trkpt>
      <trkpt lat="40.4577220" lon="-4.7995060">
        <ele>1102.9</ele>
        <time>2021-07-22T17:21:41Z</time>
      </trkpt>
      <trkpt lat="40.4577350" lon="-4.7996640">
        <ele>1103.0</ele>
        <time>2021-07-22T17:21:43Z</time>
      </trkpt>
      <trkpt lat="40.4577370" lon="-4.7997450">
        <ele>1103.0</ele>
        <time>2021-07-22T17:21:44Z</time>
      </trkpt>
      <trkpt lat="40.4577400" lon="-4.7999060">
        <ele>1103.1</ele>
        <time>2021-07-22T17:21:46Z</time>
      </trkpt>
      <trkpt lat="40.4577440" lon="-4.7999850">
        <ele>1103.2</ele>
        <time>2021-07-22T17:21:47Z</time>
      </trkpt>
      <trkpt lat="40.4577480" lon="-4.8000630">
        <ele>1103.2</ele>
        <time>2021-07-22T17:21:48Z</time>
      </trkpt>
      <trkpt lat="40.4577520" lon="-4.8001430">
        <ele>1103.3</ele>
        <time>2021-07-22T17:21:49Z</time>
      </trkpt>
      <trkpt lat="40.4577560" lon="-4.8002240">
        <ele>1103.3</ele>
        <time>2021-07-22T17:21:50Z</time>
      </trkpt>
      <trkpt lat="40.4577600" lon="-4.8003850">
        <ele>1103.4</ele>
        <time>2021-07-22T17:21:52Z</time>
      </trkpt>
      <trkpt lat="40.4577620" lon="-4.8004630">
        <ele>1103.5</ele>
        <time>2021-07-22T17:21:53Z</time>
      </trkpt>
      <trkpt lat="40.4577670" lon="-4.8006230">
        <ele>1103.6</ele>
        <time>2021-07-22T17:21:55Z</time>
      </trkpt>
      <trkpt lat="40.4577700" lon="-4.8007010">
        <ele>1103.6</ele>
        <time>2021-07-22T17:21:56Z</time>
      </trkpt>
      <trkpt lat="40.4577820" lon="-4.8008620">
        <ele>1103.7</ele>
        <time>2021-07-22T17:21:58Z</time>
      </trkpt>
      <trkpt lat="40.4577930" lon="-4.8010160">
        <ele>1103.8</ele>
        <time>2021-07-22T17:22:00Z</time>
      </trkpt>
      <trkpt lat="40.4577990" lon="-4.8011640">
        <ele>1103.9</ele>
        <time>2021-07-22T17:22:02Z</time>
      </trkpt>
      <trkpt lat="40.4578100" lon="-4.8013180">
        <ele>1104.0</ele>
        <time>2021-07-22T17:22:04Z</time>
      </trkpt>
      <trkpt lat="40.4578160" lon="-4.8014670">
        <ele>1104.1</ele>
        <time>2021-07-22T17:22:06Z</time>
      </trkpt>
      <trkpt lat="40.4578230" lon="-4.8016180">
        <ele>1104.2</ele>
        <time>2021-07-22T17:22:08Z</time>
      </trkpt>
      <trkpt lat="40.4578300" lon="-4.8017700">
        <ele>1104.3</ele>
        <time>2021-07-22T17:22:10Z</time>
      </trkpt>
      <trkpt lat="40.4578320" lon="-4.8018460">
        <ele>1104.3</ele>
        <time>2021-07-22T17:22:11Z</time>
      </trkpt>
      <trkpt lat="40.4578370" lon="-4.8019170">
        <ele>1104.4</ele>
        <time>2021-07-22T17:22:12Z</time>
      </trkpt>
      <trkpt lat="40.4578420" lon="-4.8020630">
        <ele>1104.5</ele>
        <time>2021-07-22T17:22:14Z</time>
      </trkpt>
      <trkpt lat="40.4578510" lon="-4.8022090">
        <ele>1104.6</ele>
        <time>2021-07-22T17:22:16Z</time>
      </trkpt>
      <trkpt lat="40.4578520" lon="-4.8023570">
        <ele>1104.6</ele>
        <time>2021-07-22T17:22:18Z</time>
      </trkpt>
      <trkpt lat="40.4578620" lon="-4.8025010">
        <ele>1104.7</ele>
        <time>2021-07-22T17:22:20Z</time>
      </trkpt>
      <trkpt lat="40.4578640" lon="-4.8025740">
        <ele>1104.8</ele>
        <time>2021-07-22T17:22:21Z</time>
      </trkpt>
      <trkpt lat="40.4578690" lon="-4.8026430">
        <ele>1104.8</ele>
        <time>2021-07-22T17:22:22Z</time>
      </trkpt>
      <trkpt lat="40.4578760" lon="-4.8027130">
        <ele>1104.9</ele>
        <time>2021-07-22T17:22:23Z</time>
      </trkpt>
      <trkpt lat="40.4578820" lon="-4.8027880">
        <ele>1104.9</ele>
        <time>2021-07-22T17:22:24Z</time>
      </trkpt>
      <trkpt lat="40.4578900" lon="-4.8029470">
        <ele>1105.0</ele>
        <time>2021-07-22T17:22:26Z</time>
      </trkpt>
      <trkpt lat="40.4578910" lon="-4.8030250">
        <ele>1105.1</ele>
        <time>2021-07-22T17:22:27Z</time>
      </trkpt>
      <trkpt lat="40.4578960" lon="-4.8031710">
        <ele>1105.2</ele>
        <time>2021-07-22T17:22:29Z</time>
      </trkpt>
      <trkpt lat="40.4579010" lon="-4.8032440">
        <ele>1105.2</ele>
        <time>2021-07-22T17:22:30Z</time>
      </trkpt>
      <trkpt lat="40.4579090" lon="-4.8033930">
        <ele>1105.3</ele>
        <time>2021-07-22T17:22:32Z</time>
      </trkpt>
      <trkpt lat="40.4579150" lon="-4.8034660">
        <ele>1105.4</ele>
        <time>2021-07-22T17:22:33Z</time>
      </trkpt>
      <trkpt lat="40.4579240" lon="-4.8036120">
        <ele>1105.4</ele>
        <time>2021-07-22T17:22:35Z</time>
      </trkpt>
      <trkpt lat="40.4579260" lon="-4.8036880">
        <ele>1105.5</ele>
        <time>2021-07-22T17:22:36Z</time>
      </trkpt>
      <trkpt lat="40.4579310" lon="-4.8037630">
        <ele>1105.5</ele>
        <time>2021-07-22T17:22:37Z</time>
      </trkpt>
      <trkpt lat="40.4579370" lon="-4.8039090">
        <ele>1105.6</ele>
        <time>2021-07-22T17:22:39Z</time>
      </trkpt>
      <trkpt lat="40.4579420" lon="-4.8040530">
        <ele>1105.7</ele>
        <time>2021-07-22T17:22:41Z</time>
      </trkpt>
      <trkpt lat="40.4579470" lon="-4.8041990">
        <ele>1105.8</ele>
        <time>2021-07-22T17:22:43Z</time>
      </trkpt>
      <trkpt lat="40.4579500" lon="-4.8042770">
        <ele>1105.9</ele>
        <time>2021-07-22T17:22:44Z</time>
      </trkpt>
      <trkpt lat="40.4579590" lon="-4.8044300">
        <ele>1106.0</ele>
        <time>2021-07-22T17:22:46Z</time>
      </trkpt>
      <trkpt lat="40.4579660" lon="-4.8045730">
        <ele>1106.1</ele>
        <time>2021-07-22T17:22:48Z</time>
      </trkpt>
      <trkpt lat="40.4579720" lon="-4.8046440">
        <ele>1106.1</ele>
        <time>2021-07-22T17:22:49Z</time>
      </trkpt>
      <trkpt lat="40.4579810" lon="-4.8047870">
        <ele>1106.2</ele>
        <time>2021-07-22T17:22:51Z</time>
      </trkpt>
      <trkpt lat="40.4579830" lon="-4.8048590">
        <ele>1106.3</ele>
        <time>2021-07-22T17:22:52Z</time>
      </trkpt>
      <trkpt lat="40.4579920" lon="-4.8050060">
        <ele>1106.4</ele>
        <time>2021-07-22T17:22:54Z</time>
      </trkpt>
      <trkpt lat="40.4579920" lon="-4.8050790">
        <ele>1106.5</ele>
        <time>2021-07-22T17:22:55Z</time>
      </trkpt>
      <trkpt lat="40.4579970" lon="-4.8052260">
        <ele>1106.6</ele>
        <time>2021-07-22T17:22:57Z</time>
      </trkpt>
      <trkpt lat="40.4580000" lon="-4.8052980">
        <ele>1106.6</ele>
        <time>2021-07-22T17:22:58Z</time>
      </trkpt>
      <trkpt lat="40.4580050" lon="-4.8053700">
        <ele>1106.6</ele>
        <time>2021-07-22T17:22:59Z</time>
      </trkpt>
      <trkpt lat="40.4580110" lon="-4.8055110">
        <ele>1106.7</ele>
        <time>2021-07-22T17:23:01Z</time>
      </trkpt>
      <trkpt lat="40.4580130" lon="-4.8055850">
        <ele>1106.7</ele>
        <time>2021-07-22T17:23:02Z</time>
      </trkpt>
      <trkpt lat="40.4580170" lon="-4.8056610">
        <ele>1106.8</ele>
        <time>2021-07-22T17:23:03Z</time>
      </trkpt>
      <trkpt lat="40.4580270" lon="-4.8058020">
        <ele>1106.8</ele>
        <time>2021-07-22T17:23:05Z</time>
      </trkpt>
      <trkpt lat="40.4580350" lon="-4.8059440">
        <ele>1106.9</ele>
        <time>2021-07-22T17:23:07Z</time>
      </trkpt>
      <trkpt lat="40.4580360" lon="-4.8060170">
        <ele>1107.0</ele>
        <time>2021-07-22T17:23:08Z</time>
      </trkpt>
      <trkpt lat="40.4580380" lon="-4.8060890">
        <ele>1107.0</ele>
        <time>2021-07-22T17:23:09Z</time>
      </trkpt>
      <trkpt lat="40.4580430" lon="-4.8062350">
        <ele>1107.1</ele>
        <time>2021-07-22T17:23:11Z</time>
      </trkpt>
      <trkpt lat="40.4580430" lon="-4.8063120">
        <ele>1107.2</ele>
        <time>2021-07-22T17:23:12Z</time>
      </trkpt>
      <trkpt lat="40.4580500" lon="-4.8064610">
        <ele>1107.3</ele>
        <time>2021-07-22T17:23:14Z</time>
      </trkpt>
      <trkpt lat="40.4580590" lon="-4.8066050">
        <ele>1107.4</ele>
        <time>2021-07-22T17:23:16Z</time>
      </trkpt>
      <trkpt lat="40.4580670" lon="-4.8067530">
        <ele>1107.5</ele>
        <time>2021-07-22T17:23:18Z</time>
      </trkpt>
      <trkpt lat="40.4580710" lon="-4.8068310">
        <ele>1107.6</ele>
        <time>2021-07-22T17:23:19Z</time>
      </trkpt>
      <trkpt lat="40.4580730" lon="-4.8069060">
        <ele>1107.6</ele>
        <time>2021-07-22T17:23:20Z</time>
      </trkpt>
      <trkpt lat="40.4580800" lon="-4.8070510">
        <ele>1107.7</ele>
        <time>2021-07-22T17:23:22Z</time>
      </trkpt>
      <trkpt lat="40.4580910" lon="-4.8071950">
        <ele>1107.8</ele>
        <time>2021-07-22T17:23:24Z</time>
      </trkpt>
      <trkpt lat="40.4580950" lon="-4.8072680">
        <ele>1107.9</ele>
        <time>2021-07-22T17:23:25Z</time>
      </trkpt>
      <trkpt lat="40.4580960" lon="-4.8073420">
        <ele>1107.9</ele>
        <time>2021-07-22T17:23:26Z</time>
      </trkpt>
      <trkpt lat="40.4581020" lon="-4.8074890">
        <ele>1108.0</ele>
        <time>2021-07-22T17:23:28Z</time>
      </trkpt>
      <trkpt lat="40.4581060" lon="-4.8075670">
        <ele>1108.0</ele>
        <time>2021-07-22T17:23:29Z</time>
      </trkpt>
      <trkpt lat="40.4581110" lon="-4.8076450">
        <ele>1108.1</ele>
        <time>2021-07-22T17:23:30Z</time>
      </trkpt>
      <trkpt lat="40.4581200" lon="-4.8077960">
        <ele>1108.1</ele>
        <time>2021-07-22T17:23:32Z</time>
      </trkpt>
      <trkpt lat="40.4581260" lon="-4.8079500">
        <ele>1108.2</ele>
        <time>2021-07-22T17:23:34Z</time>
      </trkpt>
      <trkpt lat="40.4581310" lon="-4.8080260">
        <ele>1108.2</ele>
        <time>2021-07-22T17:23:35Z</time>
      </trkpt>
      <trkpt lat="40.4581380" lon="-4.8081810">
        <ele>1108.3</ele>
        <time>2021-07-22T17:23:37Z</time>
      </trkpt>
      <trkpt lat="40.4581480" lon="-4.8083300">
        <ele>1108.4</ele>
        <time>2021-07-22T17:23:39Z</time>
      </trkpt>
      <trkpt lat="40.4581530" lon="-4.8084050">
        <ele>1108.4</ele>
        <time>2021-07-22T17:23:40Z</time>
      </trkpt>
      <trkpt lat="40.4581540" lon="-4.8084800">
        <ele>1108.5</ele>
        <time>2021-07-22T17:23:41Z</time>
      </trkpt>
      <trkpt lat="40.4581610" lon="-4.8086290">
        <ele>1108.5</ele>
        <time>2021-07-22T17:23:43Z</time>
      </trkpt>
      <trkpt lat="40.4581700" lon="-4.8087850">
        <ele>1108.6</ele>
        <time>2021-07-22T17:23:45Z</time>
      </trkpt>
      <trkpt lat="40.4581720" lon="-4.8088620">
        <ele>1108.6</ele>
        <time>2021-07-22T17:23:46Z</time>
      </trkpt>
      <trkpt lat="40.4581810" lon="-4.8090220">
        <ele>1108.6</ele>
        <time>2021-07-22T17:23:48Z</time>
      </trkpt>
      <trkpt lat="40.4581870" lon="-4.8091020">
        <ele>1108.7</ele>
        <time>2021-07-22T17:23:49Z</time>
      </trkpt>
      <trkpt lat="40.4581980" lon="-4.8092670">
        <ele>1108.7</ele>
        <time>2021-07-22T17:23:51Z</time>
      </trkpt>
      <trkpt lat="40.4582070" lon="-4.8094300">
        <ele>1108.7</ele>
        <time>2021-07-22T17:23:53Z</time>
      </trkpt>
      <trkpt lat="40.4582110" lon="-4.8095110">
        <ele>1108.7</ele>
        <time>2021-07-22T17:23:54Z</time>
      </trkpt>
      <trkpt lat="40.4582170" lon="-4.8095850">
        <ele>1108.7</ele>
        <time>2021-07-22T17:23:55Z</time>
      </trkpt>
      <trkpt lat="40.4582230" lon="-4.8097390">
        <ele>1108.8</ele>
        <time>2021-07-22T17:23:57Z</time>
      </trkpt>
      <trkpt lat="40.4582280" lon="-4.8098170">
        <ele>1108.8</ele>
        <time>2021-07-22T17:23:58Z</time>
      </trkpt>
      <trkpt lat="40.4582370" lon="-4.8099830">
        <ele>1108.9</ele>
        <time>2021-07-22T17:24:00Z</time>
      </trkpt>
      <trkpt lat="40.4582420" lon="-4.8100640">
        <ele>1109.0</ele>
        <time>2021-07-22T17:24:01Z</time>
      </trkpt>
      <trkpt lat="40.4582520" lon="-4.8102210">
        <ele>1109.1</ele>
        <time>2021-07-22T17:24:03Z</time>
      </trkpt>
      <trkpt lat="40.4582560" lon="-4.8102940">
        <ele>1109.2</ele>
        <time>2021-07-22T17:24:04Z</time>
      </trkpt>
      <trkpt lat="40.4582590" lon="-4.8103710">
        <ele>1109.3</ele>
        <time>2021-07-22T17:24:05Z</time>
      </trkpt>
      <trkpt lat="40.4582670" lon="-4.8105260">
        <ele>1109.4</ele>
        <time>2021-07-22T17:24:07Z</time>
      </trkpt>
      <trkpt lat="40.4582770" lon="-4.8106830">
        <ele>1109.6</ele>
        <time>2021-07-22T17:24:09Z</time>
      </trkpt>
      <trkpt lat="40.4582800" lon="-4.8107590">
        <ele>1109.7</ele>
        <time>2021-07-22T17:24:10Z</time>
      </trkpt>
      <trkpt lat="40.4582760" lon="-4.8109220">
        <ele>1109.9</ele>
        <time>2021-07-22T17:24:12Z</time>
      </trkpt>
      <trkpt lat="40.4582810" lon="-4.8110770">
        <ele>1110.2</ele>
        <time>2021-07-22T17:24:14Z</time>
      </trkpt>
      <trkpt lat="40.4582870" lon="-4.8112310">
        <ele>1110.5</ele>
        <time>2021-07-22T17:24:16Z</time>
      </trkpt>
      <trkpt lat="40.4582920" lon="-4.8113010">
        <ele>1110.7</ele>
        <time>2021-07-22T17:24:17Z</time>
      </trkpt>
      <trkpt lat="40.4583050" lon="-4.8114440">
        <ele>1111.1</ele>
        <time>2021-07-22T17:24:19Z</time>
      </trkpt>
      <trkpt lat="40.4583060" lon="-4.8115060">
        <ele>1111.3</ele>
        <time>2021-07-22T17:24:20Z</time>
      </trkpt>
      <trkpt lat="40.4583080" lon="-4.8115640">
        <ele>1111.5</ele>
        <time>2021-07-22T17:24:21Z</time>
      </trkpt>
      <trkpt lat="40.4583100" lon="-4.8116590">
        <ele>1111.8</ele>
        <time>2021-07-22T17:24:23Z</time>
      </trkpt>
      <trkpt lat="40.4583130" lon="-4.8117150">
        <ele>1112.1</ele>
        <time>2021-07-22T17:24:24Z</time>
      </trkpt>
      <trkpt lat="40.4583170" lon="-4.8117690">
        <ele>1112.3</ele>
        <time>2021-07-22T17:24:25Z</time>
      </trkpt>
      <trkpt lat="40.4583240" lon="-4.8118590">
        <ele>1112.7</ele>
        <time>2021-07-22T17:24:27Z</time>
      </trkpt>
      <trkpt lat="40.4583250" lon="-4.8119070">
        <ele>1112.9</ele>
        <time>2021-07-22T17:24:28Z</time>
      </trkpt>
      <trkpt lat="40.4583350" lon="-4.8119710">
        <ele>1113.2</ele>
        <time>2021-07-22T17:24:30Z</time>
      </trkpt>
      <trkpt lat="40.4583330" lon="-4.8120090">
        <ele>1113.4</ele>
        <time>2021-07-22T17:24:31Z</time>
      </trkpt>
      <trkpt lat="40.4583330" lon="-4.8120810">
        <ele>1113.8</ele>
        <time>2021-07-22T17:24:33Z</time>
      </trkpt>
      <trkpt lat="40.4583370" lon="-4.8121410">
        <ele>1114.1</ele>
        <time>2021-07-22T17:24:34Z</time>
      </trkpt>
      <trkpt lat="40.4583370" lon="-4.8121890">
        <ele>1114.3</ele>
        <time>2021-07-22T17:24:35Z</time>
      </trkpt>
      <trkpt lat="40.4583410" lon="-4.8122550">
        <ele>1114.7</ele>
        <time>2021-07-22T17:24:36Z</time>
      </trkpt>
      <trkpt lat="40.4583430" lon="-4.8123110">
        <ele>1115.0</ele>
        <time>2021-07-22T17:24:38Z</time>
      </trkpt>
      <trkpt lat="40.4583430" lon="-4.8123650">
        <ele>1115.2</ele>
        <time>2021-07-22T17:24:39Z</time>
      </trkpt>
      <trkpt lat="40.4583430" lon="-4.8124350">
        <ele>1115.6</ele>
        <time>2021-07-22T17:24:41Z</time>
      </trkpt>
      <trkpt lat="40.4583460" lon="-4.8124890">
        <ele>1115.8</ele>
        <time>2021-07-22T17:24:42Z</time>
      </trkpt>
      <trkpt lat="40.4583530" lon="-4.8125380">
        <ele>1116.1</ele>
        <time>2021-07-22T17:24:44Z</time>
      </trkpt>
      <trkpt lat="40.4583550" lon="-4.8125900">
        <ele>1116.3</ele>
        <time>2021-07-22T17:24:45Z</time>
      </trkpt>
      <trkpt lat="40.4583560" lon="-4.8126480">
        <ele>1116.6</ele>
        <time>2021-07-22T17:24:47Z</time>
      </trkpt>
      <trkpt lat="40.4583620" lon="-4.8127100">
        <ele>1117.0</ele>
        <time>2021-07-22T17:24:48Z</time>
      </trkpt>
      <trkpt lat="40.4583680" lon="-4.8127830">
        <ele>1117.4</ele>
        <time>2021-07-22T17:24:50Z</time>
      </trkpt>
      <trkpt lat="40.4583690" lon="-4.8128230">
        <ele>1117.6</ele>
        <time>2021-07-22T17:24:51Z</time>
      </trkpt>
      <trkpt lat="40.4583740" lon="-4.8128720">
        <ele>1117.8</ele>
        <time>2021-07-22T17:24:52Z</time>
      </trkpt>
      <trkpt lat="40.4583800" lon="-4.8129270">
        <ele>1118.1</ele>
        <time>2021-07-22T17:24:54Z</time>
      </trkpt>
      <trkpt lat="40.4583800" lon="-4.8129670">
        <ele>1118.3</ele>
        <time>2021-07-22T17:24:55Z</time>
      </trkpt>
      <trkpt lat="40.4583810" lon="-4.8130400">
        <ele>1118.7</ele>
        <time>2021-07-22T17:24:57Z</time>
      </trkpt>
      <trkpt lat="40.4583840" lon="-4.8130870">
        <ele>1119.0</ele>
        <time>2021-07-22T17:24:59Z</time>
      </trkpt>
      <trkpt lat="40.4583880" lon="-4.8131330">
        <ele>1119.2</ele>
        <time>2021-07-22T17:25:00Z</time>
      </trkpt>
      <trkpt lat="40.4583920" lon="-4.8131910">
        <ele>1119.5</ele>
        <time>2021-07-22T17:25:01Z</time>
      </trkpt>
      <trkpt lat="40.4583940" lon="-4.8132170">
        <ele>1119.7</ele>
        <time>2021-07-22T17:25:02Z</time>
      </trkpt>
      <trkpt lat="40.4583960" lon="-4.8132640">
        <ele>1119.9</ele>
        <time>2021-07-22T17:25:04Z</time>
      </trkpt>
      <trkpt lat="40.4583930" lon="-4.8133080">
        <ele>1120.1</ele>
        <time>2021-07-22T17:25:05Z</time>
      </trkpt>
      <trkpt lat="40.4583970" lon="-4.8133630">
        <ele>1120.4</ele>
        <time>2021-07-22T17:25:06Z</time>
      </trkpt>
      <trkpt lat="40.4584000" lon="-4.8134110">
        <ele>1120.6</ele>
        <time>2021-07-22T17:25:07Z</time>
      </trkpt>
      <trkpt lat="40.4584020" lon="-4.8134690">
        <ele>1120.9</ele>
        <time>2021-07-22T17:25:09Z</time>
      </trkpt>
      <trkpt lat="40.4584060" lon="-4.8135100">
        <ele>1121.1</ele>
        <time>2021-07-22T17:25:10Z</time>
      </trkpt>
      <trkpt lat="40.4584170" lon="-4.8135650">
        <ele>1121.4</ele>
        <time>2021-07-22T17:25:11Z</time>
      </trkpt>
      <trkpt lat="40.4584290" lon="-4.8136260">
        <ele>1121.7</ele>
        <time>2021-07-22T17:25:13Z</time>
      </trkpt>
      <trkpt lat="40.4584340" lon="-4.8136670">
        <ele>1122.0</ele>
        <time>2021-07-22T17:25:14Z</time>
      </trkpt>
      <trkpt lat="40.4584330" lon="-4.8137330">
        <ele>1122.3</ele>
        <time>2021-07-22T17:25:15Z</time>
      </trkpt>
      <trkpt lat="40.4584340" lon="-4.8137880">
        <ele>1122.6</ele>
        <time>2021-07-22T17:25:17Z</time>
      </trkpt>
      <trkpt lat="40.4584330" lon="-4.8138290">
        <ele>1122.8</ele>
        <time>2021-07-22T17:25:18Z</time>
      </trkpt>
      <trkpt lat="40.4584330" lon="-4.8138830">
        <ele>1123.1</ele>
        <time>2021-07-22T17:25:20Z</time>
      </trkpt>
      <trkpt lat="40.4584330" lon="-4.8139330">
        <ele>1123.4</ele>
        <time>2021-07-22T17:25:21Z</time>
      </trkpt>
      <trkpt lat="40.4584370" lon="-4.8139970">
        <ele>1123.8</ele>
        <time>2021-07-22T17:25:22Z</time>
      </trkpt>
      <trkpt lat="40.4584390" lon="-4.8140270">
        <ele>1123.9</ele>
        <time>2021-07-22T17:25:23Z</time>
      </trkpt>
      <trkpt lat="40.4584430" lon="-4.8140810">
        <ele>1124.2</ele>
        <time>2021-07-22T17:25:25Z</time>
      </trkpt>
      <trkpt lat="40.4584480" lon="-4.8141270">
        <ele>1124.5</ele>
        <time>2021-07-22T17:25:26Z</time>
      </trkpt>
      <trkpt lat="40.4584530" lon="-4.8141900">
        <ele>1124.8</ele>
        <time>2021-07-22T17:25:27Z</time>
      </trkpt>
      <trkpt lat="40.4584580" lon="-4.8142560">
        <ele>1125.2</ele>
        <time>2021-07-22T17:25:29Z</time>
      </trkpt>
      <trkpt lat="40.4584610" lon="-4.8142950">
        <ele>1125.4</ele>
        <time>2021-07-22T17:25:30Z</time>
      </trkpt>
      <trkpt lat="40.4584650" lon="-4.8143520">
        <ele>1125.8</ele>
        <time>2021-07-22T17:25:32Z</time>
      </trkpt>
      <trkpt lat="40.4584570" lon="-4.8144020">
        <ele>1126.0</ele>
        <time>2021-07-22T17:25:33Z</time>
      </trkpt>
      <trkpt lat="40.4584540" lon="-4.8144200">
        <ele>1126.1</ele>
        <time>2021-07-22T17:25:34Z</time>
      </trkpt>
      <trkpt lat="40.4584490" lon="-4.8144850">
        <ele>1126.5</ele>
        <time>2021-07-22T17:25:36Z</time>
      </trkpt>
      <trkpt lat="40.4584450" lon="-4.8145470">
        <ele>1126.8</ele>
        <time>2021-07-22T17:25:37Z</time>
      </trkpt>
      <trkpt lat="40.4584450" lon="-4.8145930">
        <ele>1127.1</ele>
        <time>2021-07-22T17:25:38Z</time>
      </trkpt>
      <trkpt lat="40.4584480" lon="-4.8146600">
        <ele>1127.4</ele>
        <time>2021-07-22T17:25:40Z</time>
      </trkpt>
      <trkpt lat="40.4584530" lon="-4.8147080">
        <ele>1127.6</ele>
        <time>2021-07-22T17:25:41Z</time>
      </trkpt>
      <trkpt lat="40.4584600" lon="-4.8147740">
        <ele>1128.0</ele>
        <time>2021-07-22T17:25:43Z</time>
      </trkpt>
      <trkpt lat="40.4584650" lon="-4.8148130">
        <ele>1128.1</ele>
        <time>2021-07-22T17:25:44Z</time>
      </trkpt>
      <trkpt lat="40.4584680" lon="-4.8148500">
        <ele>1128.3</ele>
        <time>2021-07-22T17:25:45Z</time>
      </trkpt>
      <trkpt lat="40.4584650" lon="-4.8149380">
        <ele>1128.7</ele>
        <time>2021-07-22T17:25:47Z</time>
      </trkpt>
      <trkpt lat="40.4584690" lon="-4.8149860">
        <ele>1128.8</ele>
        <time>2021-07-22T17:25:48Z</time>
      </trkpt>
      <trkpt lat="40.4584730" lon="-4.8150580">
        <ele>1129.0</ele>
        <time>2021-07-22T17:25:50Z</time>
      </trkpt>
      <trkpt lat="40.4584650" lon="-4.8151220">
        <ele>1129.2</ele>
        <time>2021-07-22T17:25:51Z</time>
      </trkpt>
      <trkpt lat="40.4584650" lon="-4.8151790">
        <ele>1129.3</ele>
        <time>2021-07-22T17:25:53Z</time>
      </trkpt>
      <trkpt lat="40.4584700" lon="-4.8152240">
        <ele>1129.4</ele>
        <time>2021-07-22T17:25:54Z</time>
      </trkpt>
      <trkpt lat="40.4584720" lon="-4.8152660">
        <ele>1129.5</ele>
        <time>2021-07-22T17:25:55Z</time>
      </trkpt>
      <trkpt lat="40.4584720" lon="-4.8153460">
        <ele>1129.7</ele>
        <time>2021-07-22T17:25:57Z</time>
      </trkpt>
      <trkpt lat="40.4584730" lon="-4.8153940">
        <ele>1129.7</ele>
        <time>2021-07-22T17:25:58Z</time>
      </trkpt>
      <trkpt lat="40.4584720" lon="-4.8154370">
        <ele>1129.8</ele>
        <time>2021-07-22T17:25:59Z</time>
      </trkpt>
      <trkpt lat="40.4584640" lon="-4.8154810">
        <ele>1129.9</ele>
        <time>2021-07-22T17:26:00Z</time>
      </trkpt>
      <trkpt lat="40.4584550" lon="-4.8155500">
        <ele>1130.0</ele>
        <time>2021-07-22T17:26:02Z</time>
      </trkpt>
      <trkpt lat="40.4584470" lon="-4.8156330">
        <ele>1130.2</ele>
        <time>2021-07-22T17:26:04Z</time>
      </trkpt>
      <trkpt lat="40.4584410" lon="-4.8156850">
        <ele>1130.3</ele>
        <time>2021-07-22T17:26:05Z</time>
      </trkpt>
      <trkpt lat="40.4584310" lon="-4.8157260">
        <ele>1130.3</ele>
        <time>2021-07-22T17:26:06Z</time>
      </trkpt>
      <trkpt lat="40.4584160" lon="-4.8157960">
        <ele>1130.4</ele>
        <time>2021-07-22T17:26:08Z</time>
      </trkpt>
      <trkpt lat="40.4584090" lon="-4.8158450">
        <ele>1130.5</ele>
        <time>2021-07-22T17:26:09Z</time>
      </trkpt>
      <trkpt lat="40.4584030" lon="-4.8158940">
        <ele>1130.5</ele>
        <time>2021-07-22T17:26:10Z</time>
      </trkpt>
      <trkpt lat="40.4583970" lon="-4.8159340">
        <ele>1130.6</ele>
        <time>2021-07-22T17:26:11Z</time>
      </trkpt>
      <trkpt lat="40.4583850" lon="-4.8160090">
        <ele>1130.6</ele>
        <time>2021-07-22T17:26:13Z</time>
      </trkpt>
      <trkpt lat="40.4583770" lon="-4.8160540">
        <ele>1130.7</ele>
        <time>2021-07-22T17:26:14Z</time>
      </trkpt>
      <trkpt lat="40.4583670" lon="-4.8161220">
        <ele>1130.7</ele>
        <time>2021-07-22T17:26:16Z</time>
      </trkpt>
      <trkpt lat="40.4583580" lon="-4.8161770">
        <ele>1130.7</ele>
        <time>2021-07-22T17:26:17Z</time>
      </trkpt>
      <trkpt lat="40.4583460" lon="-4.8162240">
        <ele>1130.8</ele>
        <time>2021-07-22T17:26:18Z</time>
      </trkpt>
      <trkpt lat="40.4583310" lon="-4.8162630">
        <ele>1130.8</ele>
        <time>2021-07-22T17:26:19Z</time>
      </trkpt>
      <trkpt lat="40.4583160" lon="-4.8163020">
        <ele>1130.8</ele>
        <time>2021-07-22T17:26:20Z</time>
      </trkpt>
      <trkpt lat="40.4583020" lon="-4.8163410">
        <ele>1130.8</ele>
        <time>2021-07-22T17:26:21Z</time>
      </trkpt>
      <trkpt lat="40.4582900" lon="-4.8163870">
        <ele>1130.8</ele>
        <time>2021-07-22T17:26:22Z</time>
      </trkpt>
      <trkpt lat="40.4582640" lon="-4.8164550">
        <ele>1130.8</ele>
        <time>2021-07-22T17:26:23Z</time>
      </trkpt>
      <trkpt lat="40.4582370" lon="-4.8165140">
        <ele>1130.8</ele>
        <time>2021-07-22T17:26:24Z</time>
      </trkpt>
      <trkpt lat="40.4581990" lon="-4.8165790">
        <ele>1130.8</ele>
        <time>2021-07-22T17:26:26Z</time>
      </trkpt>
      <trkpt lat="40.4581670" lon="-4.8166440">
        <ele>1130.8</ele>
        <time>2021-07-22T17:26:27Z</time>
      </trkpt>
      <trkpt lat="40.4581410" lon="-4.8167020">
        <ele>1130.9</ele>
        <time>2021-07-22T17:26:28Z</time>
      </trkpt>
      <trkpt lat="40.4581110" lon="-4.8167570">
        <ele>1130.9</ele>
        <time>2021-07-22T17:26:29Z</time>
      </trkpt>
      <trkpt lat="40.4580560" lon="-4.8168520">
        <ele>1131.0</ele>
        <time>2021-07-22T17:26:31Z</time>
      </trkpt>
      <trkpt lat="40.4580040" lon="-4.8169610">
        <ele>1131.0</ele>
        <time>2021-07-22T17:26:32Z</time>
      </trkpt>
      <trkpt lat="40.4579770" lon="-4.8170130">
        <ele>1131.1</ele>
        <time>2021-07-22T17:26:33Z</time>
      </trkpt>
      <trkpt lat="40.4579880" lon="-4.8170680">
        <ele>1131.1</ele>
        <time>2021-07-22T17:26:34Z</time>
      </trkpt>
      <trkpt lat="40.4579540" lon="-4.8171380">
        <ele>1131.2</ele>
        <time>2021-07-22T17:26:36Z</time>
      </trkpt>
      <trkpt lat="40.4579070" lon="-4.8172030">
        <ele>1131.2</ele>
        <time>2021-07-22T17:26:37Z</time>
      </trkpt>
      <trkpt lat="40.4578580" lon="-4.8172870">
        <ele>1131.3</ele>
        <time>2021-07-22T17:26:39Z</time>
      </trkpt>
      <trkpt lat="40.4578180" lon="-4.8173650">
        <ele>1131.4</ele>
        <time>2021-07-22T17:26:40Z</time>
      </trkpt>
      <trkpt lat="40.4577900" lon="-4.8174200">
        <ele>1131.5</ele>
        <time>2021-07-22T17:26:41Z</time>
      </trkpt>
      <trkpt lat="40.4577570" lon="-4.8174780">
        <ele>1131.6</ele>
        <time>2021-07-22T17:26:42Z</time>
      </trkpt>
      <trkpt lat="40.4577350" lon="-4.8175270">
        <ele>1131.6</ele>
        <time>2021-07-22T17:26:43Z</time>
      </trkpt>
      <trkpt lat="40.4576960" lon="-4.8176040">
        <ele>1131.7</ele>
        <time>2021-07-22T17:26:45Z</time>
      </trkpt>
      <trkpt lat="40.4576740" lon="-4.8176640">
        <ele>1131.8</ele>
        <time>2021-07-22T17:26:46Z</time>
      </trkpt>
      <trkpt lat="40.4576400" lon="-4.8177410">
        <ele>1132.0</ele>
        <time>2021-07-22T17:26:48Z</time>
      </trkpt>
      <trkpt lat="40.4576120" lon="-4.8178030">
        <ele>1132.1</ele>
        <time>2021-07-22T17:26:49Z</time>
      </trkpt>
      <trkpt lat="40.4575820" lon="-4.8178790">
        <ele>1132.3</ele>
        <time>2021-07-22T17:26:50Z</time>
      </trkpt>
      <trkpt lat="40.4575520" lon="-4.8179570">
        <ele>1132.5</ele>
        <time>2021-07-22T17:26:52Z</time>
      </trkpt>
      <trkpt lat="40.4575240" lon="-4.8180150">
        <ele>1132.6</ele>
        <time>2021-07-22T17:26:53Z</time>
      </trkpt>
      <trkpt lat="40.4575000" lon="-4.8180610">
        <ele>1132.8</ele>
        <time>2021-07-22T17:26:55Z</time>
      </trkpt>
      <trkpt lat="40.4574620" lon="-4.8181600">
        <ele>1133.1</ele>
        <time>2021-07-22T17:26:56Z</time>
      </trkpt>
      <trkpt lat="40.4574300" lon="-4.8182170">
        <ele>1133.2</ele>
        <time>2021-07-22T17:26:57Z</time>
      </trkpt>
      <trkpt lat="40.4573700" lon="-4.8183320">
        <ele>1133.6</ele>
        <time>2021-07-22T17:26:59Z</time>
      </trkpt>
      <trkpt lat="40.4573290" lon="-4.8184070">
        <ele>1133.8</ele>
        <time>2021-07-22T17:27:01Z</time>
      </trkpt>
      <trkpt lat="40.4572800" lon="-4.8184850">
        <ele>1134.1</ele>
        <time>2021-07-22T17:27:02Z</time>
      </trkpt>
      <trkpt lat="40.4572250" lon="-4.8185980">
        <ele>1134.4</ele>
        <time>2021-07-22T17:27:04Z</time>
      </trkpt>
      <trkpt lat="40.4571730" lon="-4.8187110">
        <ele>1134.7</ele>
        <time>2021-07-22T17:27:06Z</time>
      </trkpt>
      <trkpt lat="40.4571410" lon="-4.8187790">
        <ele>1134.9</ele>
        <time>2021-07-22T17:27:08Z</time>
      </trkpt>
      <trkpt lat="40.4571160" lon="-4.8188330">
        <ele>1135.0</ele>
        <time>2021-07-22T17:27:09Z</time>
      </trkpt>
      <trkpt lat="40.4570720" lon="-4.8189410">
        <ele>1135.3</ele>
        <time>2021-07-22T17:27:11Z</time>
      </trkpt>
      <trkpt lat="40.4570460" lon="-4.8190090">
        <ele>1135.5</ele>
        <time>2021-07-22T17:27:12Z</time>
      </trkpt>
      <trkpt lat="40.4570190" lon="-4.8190720">
        <ele>1135.6</ele>
        <time>2021-07-22T17:27:13Z</time>
      </trkpt>
      <trkpt lat="40.4569830" lon="-4.8191620">
        <ele>1135.8</ele>
        <time>2021-07-22T17:27:15Z</time>
      </trkpt>
      <trkpt lat="40.4569690" lon="-4.8192150">
        <ele>1135.9</ele>
        <time>2021-07-22T17:27:16Z</time>
      </trkpt>
      <trkpt lat="40.4569330" lon="-4.8192880">
        <ele>1136.0</ele>
        <time>2021-07-22T17:27:18Z</time>
      </trkpt>
      <trkpt lat="40.4569030" lon="-4.8193430">
        <ele>1136.1</ele>
        <time>2021-07-22T17:27:19Z</time>
      </trkpt>
      <trkpt lat="40.4568680" lon="-4.8194000">
        <ele>1136.2</ele>
        <time>2021-07-22T17:27:20Z</time>
      </trkpt>
      <trkpt lat="40.4568220" lon="-4.8194980">
        <ele>1136.4</ele>
        <time>2021-07-22T17:27:21Z</time>
      </trkpt>
      <trkpt lat="40.4567940" lon="-4.8195620">
        <ele>1136.5</ele>
        <time>2021-07-22T17:27:22Z</time>
      </trkpt>
      <trkpt lat="40.4567630" lon="-4.8196260">
        <ele>1136.5</ele>
        <time>2021-07-22T17:27:23Z</time>
      </trkpt>
      <trkpt lat="40.4567360" lon="-4.8196940">
        <ele>1136.6</ele>
        <time>2021-07-22T17:27:24Z</time>
      </trkpt>
      <trkpt lat="40.4566640" lon="-4.8198220">
        <ele>1136.7</ele>
        <time>2021-07-22T17:27:26Z</time>
      </trkpt>
      <trkpt lat="40.4566220" lon="-4.8198850">
        <ele>1136.7</ele>
        <time>2021-07-22T17:27:27Z</time>
      </trkpt>
      <trkpt lat="40.4565840" lon="-4.8199510">
        <ele>1136.7</ele>
        <time>2021-07-22T17:27:28Z</time>
      </trkpt>
      <trkpt lat="40.4565040" lon="-4.8200770">
        <ele>1136.8</ele>
        <time>2021-07-22T17:27:30Z</time>
      </trkpt>
      <trkpt lat="40.4564260" lon="-4.8201970">
        <ele>1136.8</ele>
        <time>2021-07-22T17:27:31Z</time>
      </trkpt>
      <trkpt lat="40.4563620" lon="-4.8202840">
        <ele>1136.7</ele>
        <time>2021-07-22T17:27:32Z</time>
      </trkpt>
      <trkpt lat="40.4562600" lon="-4.8204220">
        <ele>1136.5</ele>
        <time>2021-07-22T17:27:34Z</time>
      </trkpt>
      <trkpt lat="40.4561780" lon="-4.8205440">
        <ele>1136.4</ele>
        <time>2021-07-22T17:27:36Z</time>
      </trkpt>
      <trkpt lat="40.4561100" lon="-4.8206540">
        <ele>1136.3</ele>
        <time>2021-07-22T17:27:38Z</time>
      </trkpt>
      <trkpt lat="40.4560350" lon="-4.8207460">
        <ele>1136.1</ele>
        <time>2021-07-22T17:27:40Z</time>
      </trkpt>
      <trkpt lat="40.4559630" lon="-4.8208550">
        <ele>1135.9</ele>
        <time>2021-07-22T17:27:42Z</time>
      </trkpt>
      <trkpt lat="40.4559270" lon="-4.8209120">
        <ele>1135.8</ele>
        <time>2021-07-22T17:27:43Z</time>
      </trkpt>
      <trkpt lat="40.4558880" lon="-4.8209670">
        <ele>1135.7</ele>
        <time>2021-07-22T17:27:44Z</time>
      </trkpt>
      <trkpt lat="40.4558090" lon="-4.8210830">
        <ele>1135.4</ele>
        <time>2021-07-22T17:27:46Z</time>
      </trkpt>
      <trkpt lat="40.4557340" lon="-4.8212060">
        <ele>1135.1</ele>
        <time>2021-07-22T17:27:48Z</time>
      </trkpt>
      <trkpt lat="40.4556950" lon="-4.8212700">
        <ele>1134.9</ele>
        <time>2021-07-22T17:27:49Z</time>
      </trkpt>
      <trkpt lat="40.4556130" lon="-4.8213980">
        <ele>1134.6</ele>
        <time>2021-07-22T17:27:51Z</time>
      </trkpt>
      <trkpt lat="40.4555730" lon="-4.8214670">
        <ele>1134.5</ele>
        <time>2021-07-22T17:27:52Z</time>
      </trkpt>
      <trkpt lat="40.4554910" lon="-4.8215980">
        <ele>1134.1</ele>
        <time>2021-07-22T17:27:54Z</time>
      </trkpt>
      <trkpt lat="40.4554490" lon="-4.8216610">
        <ele>1133.9</ele>
        <time>2021-07-22T17:27:55Z</time>
      </trkpt>
      <trkpt lat="40.4553670" lon="-4.8217940">
        <ele>1133.5</ele>
        <time>2021-07-22T17:27:57Z</time>
      </trkpt>
      <trkpt lat="40.4552790" lon="-4.8219270">
        <ele>1133.1</ele>
        <time>2021-07-22T17:27:59Z</time>
      </trkpt>
      <trkpt lat="40.4551960" lon="-4.8220630">
        <ele>1132.8</ele>
        <time>2021-07-22T17:28:01Z</time>
      </trkpt>
      <trkpt lat="40.4551510" lon="-4.8221260">
        <ele>1132.7</ele>
        <time>2021-07-22T17:28:02Z</time>
      </trkpt>
      <trkpt lat="40.4550630" lon="-4.8222520">
        <ele>1132.5</ele>
        <time>2021-07-22T17:28:04Z</time>
      </trkpt>
      <trkpt lat="40.4550170" lon="-4.8223070">
        <ele>1132.3</ele>
        <time>2021-07-22T17:28:05Z</time>
      </trkpt>
      <trkpt lat="40.4549290" lon="-4.8224170">
        <ele>1132.1</ele>
        <time>2021-07-22T17:28:07Z</time>
      </trkpt>
      <trkpt lat="40.4548320" lon="-4.8225050">
        <ele>1131.9</ele>
        <time>2021-07-22T17:28:09Z</time>
      </trkpt>
      <trkpt lat="40.4547780" lon="-4.8225350">
        <ele>1131.7</ele>
        <time>2021-07-22T17:28:10Z</time>
      </trkpt>
      <trkpt lat="40.4546710" lon="-4.8225710">
        <ele>1131.4</ele>
        <time>2021-07-22T17:28:12Z</time>
      </trkpt>
      <trkpt lat="40.4545560" lon="-4.8226230">
        <ele>1131.0</ele>
        <time>2021-07-22T17:28:14Z</time>
      </trkpt>
      <trkpt lat="40.4544360" lon="-4.8226630">
        <ele>1130.6</ele>
        <time>2021-07-22T17:28:16Z</time>
      </trkpt>
      <trkpt lat="40.4543740" lon="-4.8226900">
        <ele>1130.4</ele>
        <time>2021-07-22T17:28:17Z</time>
      </trkpt>
      <trkpt lat="40.4542450" lon="-4.8227410">
        <ele>1129.9</ele>
        <time>2021-07-22T17:28:19Z</time>
      </trkpt>
      <trkpt lat="40.4541800" lon="-4.8227700">
        <ele>1129.7</ele>
        <time>2021-07-22T17:28:20Z</time>
      </trkpt>
      <trkpt lat="40.4540440" lon="-4.8228390">
        <ele>1129.1</ele>
        <time>2021-07-22T17:28:22Z</time>
      </trkpt>
      <trkpt lat="40.4539760" lon="-4.8228750">
        <ele>1128.7</ele>
        <time>2021-07-22T17:28:23Z</time>
      </trkpt>
      <trkpt lat="40.4539090" lon="-4.8229120">
        <ele>1128.3</ele>
        <time>2021-07-22T17:28:24Z</time>
      </trkpt>
      <trkpt lat="40.4537720" lon="-4.8229800">
        <ele>1127.4</ele>
        <time>2021-07-22T17:28:26Z</time>
      </trkpt>
      <trkpt lat="40.4537000" lon="-4.8230120">
        <ele>1127.0</ele>
        <time>2021-07-22T17:28:27Z</time>
      </trkpt>
      <trkpt lat="40.4536280" lon="-4.8230380">
        <ele>1126.6</ele>
        <time>2021-07-22T17:28:28Z</time>
      </trkpt>
      <trkpt lat="40.4534950" lon="-4.8230950">
        <ele>1125.9</ele>
        <time>2021-07-22T17:28:30Z</time>
      </trkpt>
      <trkpt lat="40.4534290" lon="-4.8231170">
        <ele>1125.6</ele>
        <time>2021-07-22T17:28:31Z</time>
      </trkpt>
      <trkpt lat="40.4532910" lon="-4.8231040">
        <ele>1125.2</ele>
        <time>2021-07-22T17:28:33Z</time>
      </trkpt>
      <trkpt lat="40.4531610" lon="-4.8230350">
        <ele>1124.7</ele>
        <time>2021-07-22T17:28:35Z</time>
      </trkpt>
      <trkpt lat="40.4530940" lon="-4.8229870">
        <ele>1124.5</ele>
        <time>2021-07-22T17:28:36Z</time>
      </trkpt>
      <trkpt lat="40.4529480" lon="-4.8228970">
        <ele>1124.0</ele>
        <time>2021-07-22T17:28:38Z</time>
      </trkpt>
      <trkpt lat="40.4528080" lon="-4.8228020">
        <ele>1123.7</ele>
        <time>2021-07-22T17:28:40Z</time>
      </trkpt>
      <trkpt lat="40.4526930" lon="-4.8226770">
        <ele>1123.2</ele>
        <time>2021-07-22T17:28:42Z</time>
      </trkpt>
      <trkpt lat="40.4526430" lon="-4.8226010">
        <ele>1123.0</ele>
        <time>2021-07-22T17:28:43Z</time>
      </trkpt>
      <trkpt lat="40.4525460" lon="-4.8224540">
        <ele>1122.5</ele>
        <time>2021-07-22T17:28:45Z</time>
      </trkpt>
      <trkpt lat="40.4524970" lon="-4.8223770">
        <ele>1122.3</ele>
        <time>2021-07-22T17:28:46Z</time>
      </trkpt>
      <trkpt lat="40.4523890" lon="-4.8222310">
        <ele>1121.9</ele>
        <time>2021-07-22T17:28:48Z</time>
      </trkpt>
      <trkpt lat="40.4523290" lon="-4.8221690">
        <ele>1121.7</ele>
        <time>2021-07-22T17:28:49Z</time>
      </trkpt>
      <trkpt lat="40.4522630" lon="-4.8221110">
        <ele>1121.5</ele>
        <time>2021-07-22T17:28:50Z</time>
      </trkpt>
      <trkpt lat="40.4521970" lon="-4.8220530">
        <ele>1121.2</ele>
        <time>2021-07-22T17:28:51Z</time>
      </trkpt>
      <trkpt lat="40.4521350" lon="-4.8219920">
        <ele>1121.0</ele>
        <time>2021-07-22T17:28:52Z</time>
      </trkpt>
      <trkpt lat="40.4520080" lon="-4.8218770">
        <ele>1120.6</ele>
        <time>2021-07-22T17:28:54Z</time>
      </trkpt>
      <trkpt lat="40.4519410" lon="-4.8218210">
        <ele>1120.4</ele>
        <time>2021-07-22T17:28:55Z</time>
      </trkpt>
      <trkpt lat="40.4518020" lon="-4.8217160">
        <ele>1120.0</ele>
        <time>2021-07-22T17:28:57Z</time>
      </trkpt>
      <trkpt lat="40.4516500" lon="-4.8216340">
        <ele>1119.5</ele>
        <time>2021-07-22T17:28:59Z</time>
      </trkpt>
      <trkpt lat="40.4514850" lon="-4.8215700">
        <ele>1119.0</ele>
        <time>2021-07-22T17:29:01Z</time>
      </trkpt>
      <trkpt lat="40.4513140" lon="-4.8215370">
        <ele>1118.5</ele>
        <time>2021-07-22T17:29:03Z</time>
      </trkpt>
      <trkpt lat="40.4512290" lon="-4.8215340">
        <ele>1118.4</ele>
        <time>2021-07-22T17:29:04Z</time>
      </trkpt>
      <trkpt lat="40.4511470" lon="-4.8215420">
        <ele>1118.2</ele>
        <time>2021-07-22T17:29:05Z</time>
      </trkpt>
      <trkpt lat="40.4510690" lon="-4.8215610">
        <ele>1118.1</ele>
        <time>2021-07-22T17:29:06Z</time>
      </trkpt>
      <trkpt lat="40.4509160" lon="-4.8216350">
        <ele>1117.8</ele>
        <time>2021-07-22T17:29:08Z</time>
      </trkpt>
      <trkpt lat="40.4508430" lon="-4.8216770">
        <ele>1117.7</ele>
        <time>2021-07-22T17:29:09Z</time>
      </trkpt>
      <trkpt lat="40.4507750" lon="-4.8217290">
        <ele>1117.5</ele>
        <time>2021-07-22T17:29:10Z</time>
      </trkpt>
      <trkpt lat="40.4506480" lon="-4.8218480">
        <ele>1117.2</ele>
        <time>2021-07-22T17:29:12Z</time>
      </trkpt>
      <trkpt lat="40.4505250" lon="-4.8219770">
        <ele>1117.0</ele>
        <time>2021-07-22T17:29:14Z</time>
      </trkpt>
      <trkpt lat="40.4503970" lon="-4.8220960">
        <ele>1116.7</ele>
        <time>2021-07-22T17:29:16Z</time>
      </trkpt>
      <trkpt lat="40.4502720" lon="-4.8222150">
        <ele>1116.6</ele>
        <time>2021-07-22T17:29:18Z</time>
      </trkpt>
      <trkpt lat="40.4502100" lon="-4.8222710">
        <ele>1116.5</ele>
        <time>2021-07-22T17:29:19Z</time>
      </trkpt>
      <trkpt lat="40.4500860" lon="-4.8223940">
        <ele>1116.2</ele>
        <time>2021-07-22T17:29:21Z</time>
      </trkpt>
      <trkpt lat="40.4500240" lon="-4.8224610">
        <ele>1116.1</ele>
        <time>2021-07-22T17:29:22Z</time>
      </trkpt>
      <trkpt lat="40.4499630" lon="-4.8225250">
        <ele>1115.9</ele>
        <time>2021-07-22T17:29:23Z</time>
      </trkpt>
      <trkpt lat="40.4498510" lon="-4.8226660">
        <ele>1115.7</ele>
        <time>2021-07-22T17:29:25Z</time>
      </trkpt>
      <trkpt lat="40.4497900" lon="-4.8227300">
        <ele>1115.6</ele>
        <time>2021-07-22T17:29:26Z</time>
      </trkpt>
      <trkpt lat="40.4497280" lon="-4.8227950">
        <ele>1115.5</ele>
        <time>2021-07-22T17:29:27Z</time>
      </trkpt>
      <trkpt lat="40.4496030" lon="-4.8229210">
        <ele>1115.4</ele>
        <time>2021-07-22T17:29:29Z</time>
      </trkpt>
      <trkpt lat="40.4494830" lon="-4.8230470">
        <ele>1115.2</ele>
        <time>2021-07-22T17:29:31Z</time>
      </trkpt>
      <trkpt lat="40.4493620" lon="-4.8231590">
        <ele>1115.1</ele>
        <time>2021-07-22T17:29:33Z</time>
      </trkpt>
      <trkpt lat="40.4493010" lon="-4.8232150">
        <ele>1115.0</ele>
        <time>2021-07-22T17:29:34Z</time>
      </trkpt>
      <trkpt lat="40.4491840" lon="-4.8233320">
        <ele>1114.8</ele>
        <time>2021-07-22T17:29:36Z</time>
      </trkpt>
      <trkpt lat="40.4491210" lon="-4.8233910">
        <ele>1114.7</ele>
        <time>2021-07-22T17:29:37Z</time>
      </trkpt>
      <trkpt lat="40.4490580" lon="-4.8234500">
        <ele>1114.6</ele>
        <time>2021-07-22T17:29:38Z</time>
      </trkpt>
      <trkpt lat="40.4489300" lon="-4.8235600">
        <ele>1114.4</ele>
        <time>2021-07-22T17:29:40Z</time>
      </trkpt>
      <trkpt lat="40.4488640" lon="-4.8236160">
        <ele>1114.4</ele>
        <time>2021-07-22T17:29:41Z</time>
      </trkpt>
      <trkpt lat="40.4487970" lon="-4.8236690">
        <ele>1114.4</ele>
        <time>2021-07-22T17:29:42Z</time>
      </trkpt>
      <trkpt lat="40.4486730" lon="-4.8237670">
        <ele>1114.4</ele>
        <time>2021-07-22T17:29:44Z</time>
      </trkpt>
      <trkpt lat="40.4485490" lon="-4.8238580">
        <ele>1114.5</ele>
        <time>2021-07-22T17:29:46Z</time>
      </trkpt>
      <trkpt lat="40.4484840" lon="-4.8238990">
        <ele>1114.5</ele>
        <time>2021-07-22T17:29:47Z</time>
      </trkpt>
      <trkpt lat="40.4483480" lon="-4.8239880">
        <ele>1114.6</ele>
        <time>2021-07-22T17:29:49Z</time>
      </trkpt>
      <trkpt lat="40.4482800" lon="-4.8240330">
        <ele>1114.7</ele>
        <time>2021-07-22T17:29:50Z</time>
      </trkpt>
      <trkpt lat="40.4482120" lon="-4.8240810">
        <ele>1114.7</ele>
        <time>2021-07-22T17:29:51Z</time>
      </trkpt>
      <trkpt lat="40.4481440" lon="-4.8241290">
        <ele>1114.8</ele>
        <time>2021-07-22T17:29:52Z</time>
      </trkpt>
      <trkpt lat="40.4480130" lon="-4.8242130">
        <ele>1114.9</ele>
        <time>2021-07-22T17:29:54Z</time>
      </trkpt>
      <trkpt lat="40.4478830" lon="-4.8242950">
        <ele>1115.1</ele>
        <time>2021-07-22T17:29:56Z</time>
      </trkpt>
      <trkpt lat="40.4478190" lon="-4.8243390">
        <ele>1115.2</ele>
        <time>2021-07-22T17:29:57Z</time>
      </trkpt>
      <trkpt lat="40.4477570" lon="-4.8243830">
        <ele>1115.2</ele>
        <time>2021-07-22T17:29:58Z</time>
      </trkpt>
      <trkpt lat="40.4476390" lon="-4.8244600">
        <ele>1115.4</ele>
        <time>2021-07-22T17:30:00Z</time>
      </trkpt>
      <trkpt lat="40.4475130" lon="-4.8245410">
        <ele>1115.4</ele>
        <time>2021-07-22T17:30:02Z</time>
      </trkpt>
      <trkpt lat="40.4473950" lon="-4.8246280">
        <ele>1115.5</ele>
        <time>2021-07-22T17:30:04Z</time>
      </trkpt>
      <trkpt lat="40.4472770" lon="-4.8247090">
        <ele>1115.6</ele>
        <time>2021-07-22T17:30:06Z</time>
      </trkpt>
      <trkpt lat="40.4472190" lon="-4.8247530">
        <ele>1115.6</ele>
        <time>2021-07-22T17:30:07Z</time>
      </trkpt>
      <trkpt lat="40.4471060" lon="-4.8248390">
        <ele>1115.6</ele>
        <time>2021-07-22T17:30:09Z</time>
      </trkpt>
      <trkpt lat="40.4470000" lon="-4.8249310">
        <ele>1115.6</ele>
        <time>2021-07-22T17:30:11Z</time>
      </trkpt>
      <trkpt lat="40.4468940" lon="-4.8250260">
        <ele>1115.4</ele>
        <time>2021-07-22T17:30:13Z</time>
      </trkpt>
      <trkpt lat="40.4467920" lon="-4.8251320">
        <ele>1115.1</ele>
        <time>2021-07-22T17:30:15Z</time>
      </trkpt>
      <trkpt lat="40.4467410" lon="-4.8251860">
        <ele>1114.9</ele>
        <time>2021-07-22T17:30:16Z</time>
      </trkpt>
      <trkpt lat="40.4466930" lon="-4.8252440">
        <ele>1114.7</ele>
        <time>2021-07-22T17:30:17Z</time>
      </trkpt>
      <trkpt lat="40.4466470" lon="-4.8253060">
        <ele>1114.4</ele>
        <time>2021-07-22T17:30:18Z</time>
      </trkpt>
      <trkpt lat="40.4465520" lon="-4.8254380">
        <ele>1113.8</ele>
        <time>2021-07-22T17:30:20Z</time>
      </trkpt>
      <trkpt lat="40.4465030" lon="-4.8255070">
        <ele>1113.4</ele>
        <time>2021-07-22T17:30:21Z</time>
      </trkpt>
      <trkpt lat="40.4464050" lon="-4.8256610">
        <ele>1112.5</ele>
        <time>2021-07-22T17:30:23Z</time>
      </trkpt>
      <trkpt lat="40.4463510" lon="-4.8257360">
        <ele>1112.1</ele>
        <time>2021-07-22T17:30:24Z</time>
      </trkpt>
      <trkpt lat="40.4462430" lon="-4.8258960">
        <ele>1111.2</ele>
        <time>2021-07-22T17:30:26Z</time>
      </trkpt>
      <trkpt lat="40.4461880" lon="-4.8259840">
        <ele>1110.8</ele>
        <time>2021-07-22T17:30:27Z</time>
      </trkpt>
      <trkpt lat="40.4461340" lon="-4.8260740">
        <ele>1110.3</ele>
        <time>2021-07-22T17:30:28Z</time>
      </trkpt>
      <trkpt lat="40.4460170" lon="-4.8262560">
        <ele>1109.2</ele>
        <time>2021-07-22T17:30:30Z</time>
      </trkpt>
      <trkpt lat="40.4459570" lon="-4.8263510">
        <ele>1108.7</ele>
        <time>2021-07-22T17:30:31Z</time>
      </trkpt>
      <trkpt lat="40.4458360" lon="-4.8265400">
        <ele>1107.7</ele>
        <time>2021-07-22T17:30:33Z</time>
      </trkpt>
      <trkpt lat="40.4457750" lon="-4.8266370">
        <ele>1107.2</ele>
        <time>2021-07-22T17:30:34Z</time>
      </trkpt>
      <trkpt lat="40.4457120" lon="-4.8267340">
        <ele>1106.6</ele>
        <time>2021-07-22T17:30:35Z</time>
      </trkpt>
      <trkpt lat="40.4455860" lon="-4.8269290">
        <ele>1105.5</ele>
        <time>2021-07-22T17:30:37Z</time>
      </trkpt>
      <trkpt lat="40.4455200" lon="-4.8270310">
        <ele>1105.0</ele>
        <time>2021-07-22T17:30:38Z</time>
      </trkpt>
      <trkpt lat="40.4453870" lon="-4.8272300">
        <ele>1103.9</ele>
        <time>2021-07-22T17:30:40Z</time>
      </trkpt>
      <trkpt lat="40.4452470" lon="-4.8274310">
        <ele>1102.7</ele>
        <time>2021-07-22T17:30:42Z</time>
      </trkpt>
      <trkpt lat="40.4451770" lon="-4.8275320">
        <ele>1102.1</ele>
        <time>2021-07-22T17:30:43Z</time>
      </trkpt>
      <trkpt lat="40.4450420" lon="-4.8277470">
        <ele>1101.0</ele>
        <time>2021-07-22T17:30:45Z</time>
      </trkpt>
      <trkpt lat="40.4449020" lon="-4.8279630">
        <ele>1099.9</ele>
        <time>2021-07-22T17:30:47Z</time>
      </trkpt>
      <trkpt lat="40.4448280" lon="-4.8280660">
        <ele>1099.3</ele>
        <time>2021-07-22T17:30:48Z</time>
      </trkpt>
      <trkpt lat="40.4446900" lon="-4.8282920">
        <ele>1098.2</ele>
        <time>2021-07-22T17:30:50Z</time>
      </trkpt>
      <trkpt lat="40.4445480" lon="-4.8285120">
        <ele>1097.0</ele>
        <time>2021-07-22T17:30:52Z</time>
      </trkpt>
      <trkpt lat="40.4444090" lon="-4.8287410">
        <ele>1096.1</ele>
        <time>2021-07-22T17:30:54Z</time>
      </trkpt>
      <trkpt lat="40.4443420" lon="-4.8288560">
        <ele>1095.9</ele>
        <time>2021-07-22T17:30:55Z</time>
      </trkpt>
      <trkpt lat="40.4441980" lon="-4.8290690">
        <ele>1095.6</ele>
        <time>2021-07-22T17:30:57Z</time>
      </trkpt>
      <trkpt lat="40.4440740" lon="-4.8292200">
        <ele>1095.6</ele>
        <time>2021-07-22T17:30:59Z</time>
      </trkpt>
      <trkpt lat="40.4440210" lon="-4.8292520">
        <ele>1095.2</ele>
        <time>2021-07-22T17:31:00Z</time>
      </trkpt>
      <trkpt lat="40.4439710" lon="-4.8292620">
        <ele>1094.9</ele>
        <time>2021-07-22T17:31:01Z</time>
      </trkpt>
      <trkpt lat="40.4438570" lon="-4.8293050">
        <ele>1094.2</ele>
        <time>2021-07-22T17:31:03Z</time>
      </trkpt>
      <trkpt lat="40.4437360" lon="-4.8293970">
        <ele>1093.4</ele>
        <time>2021-07-22T17:31:05Z</time>
      </trkpt>
      <trkpt lat="40.4436730" lon="-4.8294470">
        <ele>1093.0</ele>
        <time>2021-07-22T17:31:06Z</time>
      </trkpt>
      <trkpt lat="40.4435370" lon="-4.8295330">
        <ele>1092.2</ele>
        <time>2021-07-22T17:31:08Z</time>
      </trkpt>
      <trkpt lat="40.4434680" lon="-4.8295820">
        <ele>1091.7</ele>
        <time>2021-07-22T17:31:09Z</time>
      </trkpt>
      <trkpt lat="40.4433990" lon="-4.8296280">
        <ele>1091.3</ele>
        <time>2021-07-22T17:31:10Z</time>
      </trkpt>
      <trkpt lat="40.4432580" lon="-4.8297180">
        <ele>1090.5</ele>
        <time>2021-07-22T17:31:12Z</time>
      </trkpt>
      <trkpt lat="40.4431180" lon="-4.8297840">
        <ele>1089.6</ele>
        <time>2021-07-22T17:31:14Z</time>
      </trkpt>
      <trkpt lat="40.4429840" lon="-4.8298380">
        <ele>1088.5</ele>
        <time>2021-07-22T17:31:16Z</time>
      </trkpt>
      <trkpt lat="40.4428650" lon="-4.8299300">
        <ele>1087.3</ele>
        <time>2021-07-22T17:31:18Z</time>
      </trkpt>
      <trkpt lat="40.4427770" lon="-4.8300770">
        <ele>1085.9</ele>
        <time>2021-07-22T17:31:20Z</time>
      </trkpt>
      <trkpt lat="40.4427220" lon="-4.8302730">
        <ele>1084.4</ele>
        <time>2021-07-22T17:31:22Z</time>
      </trkpt>
      <trkpt lat="40.4426960" lon="-4.8303800">
        <ele>1083.6</ele>
        <time>2021-07-22T17:31:23Z</time>
      </trkpt>
      <trkpt lat="40.4426420" lon="-4.8305820">
        <ele>1082.4</ele>
        <time>2021-07-22T17:31:25Z</time>
      </trkpt>
      <trkpt lat="40.4425850" lon="-4.8307700">
        <ele>1081.1</ele>
        <time>2021-07-22T17:31:27Z</time>
      </trkpt>
      <trkpt lat="40.4425240" lon="-4.8309270">
        <ele>1079.7</ele>
        <time>2021-07-22T17:31:29Z</time>
      </trkpt>
      <trkpt lat="40.4424160" lon="-4.8310350">
        <ele>1077.9</ele>
        <time>2021-07-22T17:31:31Z</time>
      </trkpt>
      <trkpt lat="40.4423460" lon="-4.8310680">
        <ele>1076.8</ele>
        <time>2021-07-22T17:31:32Z</time>
      </trkpt>
      <trkpt lat="40.4422080" lon="-4.8311560">
        <ele>1074.8</ele>
        <time>2021-07-22T17:31:34Z</time>
      </trkpt>
      <trkpt lat="40.4420750" lon="-4.8313080">
        <ele>1072.7</ele>
        <time>2021-07-22T17:31:36Z</time>
      </trkpt>
      <trkpt lat="40.4419400" lon="-4.8314860">
        <ele>1070.6</ele>
        <time>2021-07-22T17:31:38Z</time>
      </trkpt>
      <trkpt lat="40.4417910" lon="-4.8316520">
        <ele>1068.7</ele>
        <time>2021-07-22T17:31:40Z</time>
      </trkpt>
      <trkpt lat="40.4416420" lon="-4.8318190">
        <ele>1067.0</ele>
        <time>2021-07-22T17:31:42Z</time>
      </trkpt>
      <trkpt lat="40.4414940" lon="-4.8319880">
        <ele>1065.4</ele>
        <time>2021-07-22T17:31:44Z</time>
      </trkpt>
      <trkpt lat="40.4414170" lon="-4.8320700">
        <ele>1064.5</ele>
        <time>2021-07-22T17:31:45Z</time>
      </trkpt>
      <trkpt lat="40.4413370" lon="-4.8321480">
        <ele>1063.7</ele>
        <time>2021-07-22T17:31:46Z</time>
      </trkpt>
      <trkpt lat="40.4411720" lon="-4.8323010">
        <ele>1062.2</ele>
        <time>2021-07-22T17:31:48Z</time>
      </trkpt>
      <trkpt lat="40.4410050" lon="-4.8324540">
        <ele>1060.8</ele>
        <time>2021-07-22T17:31:50Z</time>
      </trkpt>
      <trkpt lat="40.4408450" lon="-4.8326110">
        <ele>1059.7</ele>
        <time>2021-07-22T17:31:52Z</time>
      </trkpt>
      <trkpt lat="40.4406800" lon="-4.8327690">
        <ele>1058.8</ele>
        <time>2021-07-22T17:31:54Z</time>
      </trkpt>
      <trkpt lat="40.4405080" lon="-4.8329180">
        <ele>1057.8</ele>
        <time>2021-07-22T17:31:56Z</time>
      </trkpt>
      <trkpt lat="40.4403420" lon="-4.8330480">
        <ele>1056.8</ele>
        <time>2021-07-22T17:31:58Z</time>
      </trkpt>
      <trkpt lat="40.4402620" lon="-4.8331070">
        <ele>1056.4</ele>
        <time>2021-07-22T17:31:59Z</time>
      </trkpt>
      <trkpt lat="40.4400960" lon="-4.8331920">
        <ele>1055.5</ele>
        <time>2021-07-22T17:32:01Z</time>
      </trkpt>
      <trkpt lat="40.4400150" lon="-4.8332200">
        <ele>1055.2</ele>
        <time>2021-07-22T17:32:02Z</time>
      </trkpt>
      <trkpt lat="40.4399380" lon="-4.8332360">
        <ele>1054.8</ele>
        <time>2021-07-22T17:32:03Z</time>
      </trkpt>
      <trkpt lat="40.4397880" lon="-4.8332760">
        <ele>1054.3</ele>
        <time>2021-07-22T17:32:05Z</time>
      </trkpt>
      <trkpt lat="40.4396320" lon="-4.8333170">
        <ele>1053.6</ele>
        <time>2021-07-22T17:32:07Z</time>
      </trkpt>
      <trkpt lat="40.4394720" lon="-4.8333780">
        <ele>1052.9</ele>
        <time>2021-07-22T17:32:09Z</time>
      </trkpt>
      <trkpt lat="40.4393270" lon="-4.8334780">
        <ele>1052.2</ele>
        <time>2021-07-22T17:32:11Z</time>
      </trkpt>
      <trkpt lat="40.4392590" lon="-4.8335420">
        <ele>1051.8</ele>
        <time>2021-07-22T17:32:12Z</time>
      </trkpt>
      <trkpt lat="40.4391920" lon="-4.8336060">
        <ele>1051.5</ele>
        <time>2021-07-22T17:32:13Z</time>
      </trkpt>
      <trkpt lat="40.4390560" lon="-4.8337370">
        <ele>1050.8</ele>
        <time>2021-07-22T17:32:15Z</time>
      </trkpt>
      <trkpt lat="40.4389840" lon="-4.8337990">
        <ele>1050.5</ele>
        <time>2021-07-22T17:32:16Z</time>
      </trkpt>
      <trkpt lat="40.4388290" lon="-4.8339010">
        <ele>1049.8</ele>
        <time>2021-07-22T17:32:18Z</time>
      </trkpt>
      <trkpt lat="40.4387430" lon="-4.8339340">
        <ele>1049.4</ele>
        <time>2021-07-22T17:32:19Z</time>
      </trkpt>
      <trkpt lat="40.4386570" lon="-4.8339600">
        <ele>1049.1</ele>
        <time>2021-07-22T17:32:20Z</time>
      </trkpt>
      <trkpt lat="40.4385700" lon="-4.8339790">
        <ele>1048.8</ele>
        <time>2021-07-22T17:32:21Z</time>
      </trkpt>
      <trkpt lat="40.4384030" lon="-4.8339980">
        <ele>1048.1</ele>
        <time>2021-07-22T17:32:23Z</time>
      </trkpt>
      <trkpt lat="40.4383230" lon="-4.8339900">
        <ele>1047.8</ele>
        <time>2021-07-22T17:32:24Z</time>
      </trkpt>
      <trkpt lat="40.4382540" lon="-4.8339640">
        <ele>1047.6</ele>
        <time>2021-07-22T17:32:25Z</time>
      </trkpt>
      <trkpt lat="40.4381520" lon="-4.8338920">
        <ele>1047.3</ele>
        <time>2021-07-22T17:32:27Z</time>
      </trkpt>
      <trkpt lat="40.4381070" lon="-4.8337400">
        <ele>1047.0</ele>
        <time>2021-07-22T17:32:29Z</time>
      </trkpt>
      <trkpt lat="40.4380950" lon="-4.8335710">
        <ele>1046.7</ele>
        <time>2021-07-22T17:32:31Z</time>
      </trkpt>
      <trkpt lat="40.4380990" lon="-4.8334050">
        <ele>1046.5</ele>
        <time>2021-07-22T17:32:33Z</time>
      </trkpt>
      <trkpt lat="40.4380980" lon="-4.8333180">
        <ele>1046.4</ele>
        <time>2021-07-22T17:32:34Z</time>
      </trkpt>
      <trkpt lat="40.4381030" lon="-4.8331400">
        <ele>1046.1</ele>
        <time>2021-07-22T17:32:36Z</time>
      </trkpt>
      <trkpt lat="40.4381360" lon="-4.8329730">
        <ele>1045.8</ele>
        <time>2021-07-22T17:32:38Z</time>
      </trkpt>
      <trkpt lat="40.4381580" lon="-4.8328870">
        <ele>1045.6</ele>
        <time>2021-07-22T17:32:39Z</time>
      </trkpt>
      <trkpt lat="40.4381800" lon="-4.8328010">
        <ele>1045.4</ele>
        <time>2021-07-22T17:32:40Z</time>
      </trkpt>
      <trkpt lat="40.4382320" lon="-4.8326330">
        <ele>1045.0</ele>
        <time>2021-07-22T17:32:42Z</time>
      </trkpt>
      <trkpt lat="40.4382600" lon="-4.8325520">
        <ele>1044.9</ele>
        <time>2021-07-22T17:32:43Z</time>
      </trkpt>
      <trkpt lat="40.4383120" lon="-4.8323800">
        <ele>1044.6</ele>
        <time>2021-07-22T17:32:45Z</time>
      </trkpt>
      <trkpt lat="40.4383480" lon="-4.8322130">
        <ele>1044.3</ele>
        <time>2021-07-22T17:32:47Z</time>
      </trkpt>
      <trkpt lat="40.4383690" lon="-4.8321280">
        <ele>1044.1</ele>
        <time>2021-07-22T17:32:48Z</time>
      </trkpt>
      <trkpt lat="40.4384160" lon="-4.8319520">
        <ele>1043.8</ele>
        <time>2021-07-22T17:32:50Z</time>
      </trkpt>
      <trkpt lat="40.4384580" lon="-4.8317870">
        <ele>1043.5</ele>
        <time>2021-07-22T17:32:52Z</time>
      </trkpt>
      <trkpt lat="40.4384610" lon="-4.8316180">
        <ele>1042.9</ele>
        <time>2021-07-22T17:32:54Z</time>
      </trkpt>
      <trkpt lat="40.4384590" lon="-4.8314300">
        <ele>1042.0</ele>
        <time>2021-07-22T17:32:56Z</time>
      </trkpt>
      <trkpt lat="40.4384630" lon="-4.8313270">
        <ele>1041.4</ele>
        <time>2021-07-22T17:32:57Z</time>
      </trkpt>
      <trkpt lat="40.4384650" lon="-4.8312170">
        <ele>1040.8</ele>
        <time>2021-07-22T17:32:58Z</time>
      </trkpt>
      <trkpt lat="40.4384640" lon="-4.8311050">
        <ele>1040.2</ele>
        <time>2021-07-22T17:32:59Z</time>
      </trkpt>
      <trkpt lat="40.4384540" lon="-4.8309940">
        <ele>1039.7</ele>
        <time>2021-07-22T17:33:00Z</time>
      </trkpt>
      <trkpt lat="40.4384340" lon="-4.8308920">
        <ele>1039.3</ele>
        <time>2021-07-22T17:33:01Z</time>
      </trkpt>
      <trkpt lat="40.4384010" lon="-4.8308040">
        <ele>1038.9</ele>
        <time>2021-07-22T17:33:02Z</time>
      </trkpt>
      <trkpt lat="40.4383080" lon="-4.8306690">
        <ele>1038.3</ele>
        <time>2021-07-22T17:33:04Z</time>
      </trkpt>
      <trkpt lat="40.4381730" lon="-4.8306080">
        <ele>1037.4</ele>
        <time>2021-07-22T17:33:06Z</time>
      </trkpt>
      <trkpt lat="40.4381010" lon="-4.8306000">
        <ele>1036.9</ele>
        <time>2021-07-22T17:33:07Z</time>
      </trkpt>
      <trkpt lat="40.4379580" lon="-4.8305950">
        <ele>1035.9</ele>
        <time>2021-07-22T17:33:09Z</time>
      </trkpt>
      <trkpt lat="40.4378280" lon="-4.8305280">
        <ele>1034.8</ele>
        <time>2021-07-22T17:33:11Z</time>
      </trkpt>
      <trkpt lat="40.4377660" lon="-4.8304700">
        <ele>1034.1</ele>
        <time>2021-07-22T17:33:12Z</time>
      </trkpt>
      <trkpt lat="40.4377120" lon="-4.8303920">
        <ele>1033.3</ele>
        <time>2021-07-22T17:33:13Z</time>
      </trkpt>
      <trkpt lat="40.4376210" lon="-4.8301890">
        <ele>1031.5</ele>
        <time>2021-07-22T17:33:15Z</time>
      </trkpt>
      <trkpt lat="40.4375840" lon="-4.8300700">
        <ele>1030.6</ele>
        <time>2021-07-22T17:33:16Z</time>
      </trkpt>
      <trkpt lat="40.4375600" lon="-4.8299430">
        <ele>1029.9</ele>
        <time>2021-07-22T17:33:17Z</time>
      </trkpt>
      <trkpt lat="40.4375460" lon="-4.8298090">
        <ele>1029.3</ele>
        <time>2021-07-22T17:33:18Z</time>
      </trkpt>
      <trkpt lat="40.4375480" lon="-4.8296720">
        <ele>1028.8</ele>
        <time>2021-07-22T17:33:19Z</time>
      </trkpt>
      <trkpt lat="40.4375600" lon="-4.8294220">
        <ele>1028.2</ele>
        <time>2021-07-22T17:33:21Z</time>
      </trkpt>
      <trkpt lat="40.4375830" lon="-4.8292270">
        <ele>1027.9</ele>
        <time>2021-07-22T17:33:23Z</time>
      </trkpt>
      <trkpt lat="40.4375700" lon="-4.8290810">
        <ele>1027.6</ele>
        <time>2021-07-22T17:33:25Z</time>
      </trkpt>
      <trkpt lat="40.4374860" lon="-4.8289720">
        <ele>1026.8</ele>
        <time>2021-07-22T17:33:27Z</time>
      </trkpt>
      <trkpt lat="40.4374340" lon="-4.8289200">
        <ele>1026.1</ele>
        <time>2021-07-22T17:33:28Z</time>
      </trkpt>
      <trkpt lat="40.4373480" lon="-4.8287690">
        <ele>1024.2</ele>
        <time>2021-07-22T17:33:30Z</time>
      </trkpt>
      <trkpt lat="40.4372830" lon="-4.8285640">
        <ele>1021.6</ele>
        <time>2021-07-22T17:33:32Z</time>
      </trkpt>
      <trkpt lat="40.4371950" lon="-4.8283500">
        <ele>1019.0</ele>
        <time>2021-07-22T17:33:34Z</time>
      </trkpt>
      <trkpt lat="40.4371350" lon="-4.8282470">
        <ele>1017.7</ele>
        <time>2021-07-22T17:33:35Z</time>
      </trkpt>
      <trkpt lat="40.4369970" lon="-4.8280630">
        <ele>1015.4</ele>
        <time>2021-07-22T17:33:37Z</time>
      </trkpt>
      <trkpt lat="40.4369340" lon="-4.8279640">
        <ele>1014.3</ele>
        <time>2021-07-22T17:33:38Z</time>
      </trkpt>
      <trkpt lat="40.4368500" lon="-4.8277280">
        <ele>1012.2</ele>
        <time>2021-07-22T17:33:40Z</time>
      </trkpt>
      <trkpt lat="40.4367820" lon="-4.8274750">
        <ele>1010.3</ele>
        <time>2021-07-22T17:33:42Z</time>
      </trkpt>
      <trkpt lat="40.4367470" lon="-4.8273430">
        <ele>1009.5</ele>
        <time>2021-07-22T17:33:43Z</time>
      </trkpt>
      <trkpt lat="40.4366840" lon="-4.8271020">
        <ele>1008.1</ele>
        <time>2021-07-22T17:33:45Z</time>
      </trkpt>
      <trkpt lat="40.4366510" lon="-4.8269910">
        <ele>1007.6</ele>
        <time>2021-07-22T17:33:46Z</time>
      </trkpt>
      <trkpt lat="40.4365970" lon="-4.8267730">
        <ele>1006.7</ele>
        <time>2021-07-22T17:33:48Z</time>
      </trkpt>
      <trkpt lat="40.4365870" lon="-4.8266610">
        <ele>1006.3</ele>
        <time>2021-07-22T17:33:49Z</time>
      </trkpt>
      <trkpt lat="40.4366030" lon="-4.8265550">
        <ele>1005.9</ele>
        <time>2021-07-22T17:33:50Z</time>
      </trkpt>
      <trkpt lat="40.4366300" lon="-4.8264510">
        <ele>1005.5</ele>
        <time>2021-07-22T17:33:51Z</time>
      </trkpt>
      <trkpt lat="40.4366850" lon="-4.8262580">
        <ele>1004.8</ele>
        <time>2021-07-22T17:33:53Z</time>
      </trkpt>
      <trkpt lat="40.4367380" lon="-4.8260330">
        <ele>1004.1</ele>
        <time>2021-07-22T17:33:55Z</time>
      </trkpt>
      <trkpt lat="40.4367610" lon="-4.8258130">
        <ele>1003.7</ele>
        <time>2021-07-22T17:33:57Z</time>
      </trkpt>
      <trkpt lat="40.4367520" lon="-4.8257070">
        <ele>1003.5</ele>
        <time>2021-07-22T17:33:58Z</time>
      </trkpt>
      <trkpt lat="40.4367250" lon="-4.8254990">
        <ele>1003.1</ele>
        <time>2021-07-22T17:34:00Z</time>
      </trkpt>
      <trkpt lat="40.4367240" lon="-4.8253920">
        <ele>1002.9</ele>
        <time>2021-07-22T17:34:01Z</time>
      </trkpt>
      <trkpt lat="40.4367250" lon="-4.8252910">
        <ele>1002.7</ele>
        <time>2021-07-22T17:34:02Z</time>
      </trkpt>
      <trkpt lat="40.4367080" lon="-4.8250960">
        <ele>1002.2</ele>
        <time>2021-07-22T17:34:04Z</time>
      </trkpt>
      <trkpt lat="40.4366840" lon="-4.8250030">
        <ele>1001.8</ele>
        <time>2021-07-22T17:34:05Z</time>
      </trkpt>
      <trkpt lat="40.4366010" lon="-4.8248280">
        <ele>1000.9</ele>
        <time>2021-07-22T17:34:07Z</time>
      </trkpt>
      <trkpt lat="40.4365450" lon="-4.8247450">
        <ele>1000.4</ele>
        <time>2021-07-22T17:34:08Z</time>
      </trkpt>
      <trkpt lat="40.4364920" lon="-4.8246570">
        <ele>999.8</ele>
        <time>2021-07-22T17:34:09Z</time>
      </trkpt>
      <trkpt lat="40.4363740" lon="-4.8244830">
        <ele>998.4</ele>
        <time>2021-07-22T17:34:11Z</time>
      </trkpt>
      <trkpt lat="40.4363040" lon="-4.8243970">
        <ele>997.5</ele>
        <time>2021-07-22T17:34:12Z</time>
      </trkpt>
      <trkpt lat="40.4361670" lon="-4.8242310">
        <ele>995.9</ele>
        <time>2021-07-22T17:34:14Z</time>
      </trkpt>
      <trkpt lat="40.4361090" lon="-4.8241470">
        <ele>995.1</ele>
        <time>2021-07-22T17:34:15Z</time>
      </trkpt>
      <trkpt lat="40.4360500" lon="-4.8240720">
        <ele>994.5</ele>
        <time>2021-07-22T17:34:16Z</time>
      </trkpt>
      <trkpt lat="40.4359290" lon="-4.8239310">
        <ele>993.3</ele>
        <time>2021-07-22T17:34:18Z</time>
      </trkpt>
      <trkpt lat="40.4358710" lon="-4.8238770">
        <ele>992.8</ele>
        <time>2021-07-22T17:34:19Z</time>
      </trkpt>
      <trkpt lat="40.4358130" lon="-4.8238300">
        <ele>992.4</ele>
        <time>2021-07-22T17:34:20Z</time>
      </trkpt>
      <trkpt lat="40.4357540" lon="-4.8237870">
        <ele>992.0</ele>
        <time>2021-07-22T17:34:21Z</time>
      </trkpt>
      <trkpt lat="40.4357010" lon="-4.8237460">
        <ele>991.5</ele>
        <time>2021-07-22T17:34:22Z</time>
      </trkpt>
      <trkpt lat="40.4356560" lon="-4.8237020">
        <ele>991.1</ele>
        <time>2021-07-22T17:34:23Z</time>
      </trkpt>
      <trkpt lat="40.4355950" lon="-4.8235920">
        <ele>990.2</ele>
        <time>2021-07-22T17:34:25Z</time>
      </trkpt>
      <trkpt lat="40.4355770" lon="-4.8235310">
        <ele>989.7</ele>
        <time>2021-07-22T17:34:26Z</time>
      </trkpt>
      <trkpt lat="40.4355330" lon="-4.8234140">
        <ele>988.7</ele>
        <time>2021-07-22T17:34:28Z</time>
      </trkpt>
      <trkpt lat="40.4354650" lon="-4.8233230">
        <ele>987.6</ele>
        <time>2021-07-22T17:34:30Z</time>
      </trkpt>
      <trkpt lat="40.4354160" lon="-4.8232970">
        <ele>986.9</ele>
        <time>2021-07-22T17:34:31Z</time>
      </trkpt>
      <trkpt lat="40.4353610" lon="-4.8232850">
        <ele>986.1</ele>
        <time>2021-07-22T17:34:32Z</time>
      </trkpt>
      <trkpt lat="40.4352440" lon="-4.8232670">
        <ele>984.4</ele>
        <time>2021-07-22T17:34:34Z</time>
      </trkpt>
      <trkpt lat="40.4351850" lon="-4.8232500">
        <ele>983.5</ele>
        <time>2021-07-22T17:34:35Z</time>
      </trkpt>
      <trkpt lat="40.4351240" lon="-4.8232270">
        <ele>982.6</ele>
        <time>2021-07-22T17:34:36Z</time>
      </trkpt>
      <trkpt lat="40.4350120" lon="-4.8231690">
        <ele>980.9</ele>
        <time>2021-07-22T17:34:38Z</time>
      </trkpt>
      <trkpt lat="40.4349560" lon="-4.8231380">
        <ele>980.0</ele>
        <time>2021-07-22T17:34:39Z</time>
      </trkpt>
      <trkpt lat="40.4348350" lon="-4.8231160">
        <ele>978.0</ele>
        <time>2021-07-22T17:34:41Z</time>
      </trkpt>
      <trkpt lat="40.4347670" lon="-4.8231240">
        <ele>976.9</ele>
        <time>2021-07-22T17:34:42Z</time>
      </trkpt>
      <trkpt lat="40.4346080" lon="-4.8231840">
        <ele>974.2</ele>
        <time>2021-07-22T17:34:44Z</time>
      </trkpt>
      <trkpt lat="40.4345210" lon="-4.8232290">
        <ele>972.6</ele>
        <time>2021-07-22T17:34:45Z</time>
      </trkpt>
      <trkpt lat="40.4343440" lon="-4.8232990">
        <ele>970.0</ele>
        <time>2021-07-22T17:34:47Z</time>
      </trkpt>
      <trkpt lat="40.4342490" lon="-4.8233220">
        <ele>968.6</ele>
        <time>2021-07-22T17:34:48Z</time>
      </trkpt>
      <trkpt lat="40.4340570" lon="-4.8233560">
        <ele>966.1</ele>
        <time>2021-07-22T17:34:50Z</time>
      </trkpt>
      <trkpt lat="40.4339640" lon="-4.8233690">
        <ele>965.1</ele>
        <time>2021-07-22T17:34:51Z</time>
      </trkpt>
      <trkpt lat="40.4337790" lon="-4.8233840">
        <ele>963.2</ele>
        <time>2021-07-22T17:34:53Z</time>
      </trkpt>
      <trkpt lat="40.4336870" lon="-4.8233900">
        <ele>962.3</ele>
        <time>2021-07-22T17:34:54Z</time>
      </trkpt>
      <trkpt lat="40.4335160" lon="-4.8234120">
        <ele>960.8</ele>
        <time>2021-07-22T17:34:56Z</time>
      </trkpt>
      <trkpt lat="40.4334350" lon="-4.8234200">
        <ele>960.2</ele>
        <time>2021-07-22T17:34:57Z</time>
      </trkpt>
      <trkpt lat="40.4332980" lon="-4.8234740">
        <ele>958.9</ele>
        <time>2021-07-22T17:34:59Z</time>
      </trkpt>
      <trkpt lat="40.4331560" lon="-4.8235790">
        <ele>957.5</ele>
        <time>2021-07-22T17:35:01Z</time>
      </trkpt>
      <trkpt lat="40.4330810" lon="-4.8236410">
        <ele>956.7</ele>
        <time>2021-07-22T17:35:02Z</time>
      </trkpt>
      <trkpt lat="40.4329340" lon="-4.8237500">
        <ele>955.2</ele>
        <time>2021-07-22T17:35:04Z</time>
      </trkpt>
      <trkpt lat="40.4328610" lon="-4.8237890">
        <ele>954.6</ele>
        <time>2021-07-22T17:35:05Z</time>
      </trkpt>
      <trkpt lat="40.4327110" lon="-4.8238310">
        <ele>953.6</ele>
        <time>2021-07-22T17:35:07Z</time>
      </trkpt>
      <trkpt lat="40.4326300" lon="-4.8238200">
        <ele>953.0</ele>
        <time>2021-07-22T17:35:08Z</time>
      </trkpt>
      <trkpt lat="40.4325420" lon="-4.8238060">
        <ele>952.4</ele>
        <time>2021-07-22T17:35:09Z</time>
      </trkpt>
      <trkpt lat="40.4323580" lon="-4.8237830">
        <ele>951.2</ele>
        <time>2021-07-22T17:35:11Z</time>
      </trkpt>
      <trkpt lat="40.4321740" lon="-4.8237960">
        <ele>949.8</ele>
        <time>2021-07-22T17:35:13Z</time>
      </trkpt>
      <trkpt lat="40.4319850" lon="-4.8238140">
        <ele>948.3</ele>
        <time>2021-07-22T17:35:15Z</time>
      </trkpt>
      <trkpt lat="40.4318970" lon="-4.8238150">
        <ele>947.7</ele>
        <time>2021-07-22T17:35:16Z</time>
      </trkpt>
      <trkpt lat="40.4318140" lon="-4.8237960">
        <ele>947.2</ele>
        <time>2021-07-22T17:35:17Z</time>
      </trkpt>
      <trkpt lat="40.4317300" lon="-4.8237650">
        <ele>946.7</ele>
        <time>2021-07-22T17:35:18Z</time>
      </trkpt>
      <trkpt lat="40.4315680" lon="-4.8236540">
        <ele>945.9</ele>
        <time>2021-07-22T17:35:20Z</time>
      </trkpt>
      <trkpt lat="40.4313970" lon="-4.8235530">
        <ele>945.4</ele>
        <time>2021-07-22T17:35:22Z</time>
      </trkpt>
      <trkpt lat="40.4313100" lon="-4.8235100">
        <ele>945.2</ele>
        <time>2021-07-22T17:35:23Z</time>
      </trkpt>
      <trkpt lat="40.4311440" lon="-4.8234410">
        <ele>945.0</ele>
        <time>2021-07-22T17:35:25Z</time>
      </trkpt>
      <trkpt lat="40.4310590" lon="-4.8234190">
        <ele>945.0</ele>
        <time>2021-07-22T17:35:26Z</time>
      </trkpt>
      <trkpt lat="40.4309730" lon="-4.8234070">
        <ele>945.0</ele>
        <time>2021-07-22T17:35:27Z</time>
      </trkpt>
      <trkpt lat="40.4308110" lon="-4.8234050">
        <ele>945.0</ele>
        <time>2021-07-22T17:35:29Z</time>
      </trkpt>
      <trkpt lat="40.4307300" lon="-4.8234060">
        <ele>945.0</ele>
        <time>2021-07-22T17:35:30Z</time>
      </trkpt>
      <trkpt lat="40.4305800" lon="-4.8234180">
        <ele>945.0</ele>
        <time>2021-07-22T17:35:32Z</time>
      </trkpt>
      <trkpt lat="40.4304310" lon="-4.8234440">
        <ele>944.9</ele>
        <time>2021-07-22T17:35:34Z</time>
      </trkpt>
      <trkpt lat="40.4303610" lon="-4.8234700">
        <ele>944.9</ele>
        <time>2021-07-22T17:35:35Z</time>
      </trkpt>
      <trkpt lat="40.4302330" lon="-4.8235480">
        <ele>944.4</ele>
        <time>2021-07-22T17:35:37Z</time>
      </trkpt>
      <trkpt lat="40.4301180" lon="-4.8236550">
        <ele>943.7</ele>
        <time>2021-07-22T17:35:39Z</time>
      </trkpt>
      <trkpt lat="40.4300580" lon="-4.8237050">
        <ele>943.2</ele>
        <time>2021-07-22T17:35:40Z</time>
      </trkpt>
      <trkpt lat="40.4299980" lon="-4.8237530">
        <ele>942.7</ele>
        <time>2021-07-22T17:35:41Z</time>
      </trkpt>
      <trkpt lat="40.4298640" lon="-4.8238060">
        <ele>941.7</ele>
        <time>2021-07-22T17:35:43Z</time>
      </trkpt>
      <trkpt lat="40.4297130" lon="-4.8237880">
        <ele>940.6</ele>
        <time>2021-07-22T17:35:45Z</time>
      </trkpt>
      <trkpt lat="40.4296350" lon="-4.8237450">
        <ele>940.2</ele>
        <time>2021-07-22T17:35:46Z</time>
      </trkpt>
      <trkpt lat="40.4295600" lon="-4.8236880">
        <ele>939.8</ele>
        <time>2021-07-22T17:35:47Z</time>
      </trkpt>
      <trkpt lat="40.4294330" lon="-4.8235250">
        <ele>939.3</ele>
        <time>2021-07-22T17:35:49Z</time>
      </trkpt>
      <trkpt lat="40.4293880" lon="-4.8234300">
        <ele>939.2</ele>
        <time>2021-07-22T17:35:50Z</time>
      </trkpt>
      <trkpt lat="40.4293540" lon="-4.8233260">
        <ele>939.0</ele>
        <time>2021-07-22T17:35:51Z</time>
      </trkpt>
      <trkpt lat="40.4293240" lon="-4.8231120">
        <ele>938.7</ele>
        <time>2021-07-22T17:35:53Z</time>
      </trkpt>
      <trkpt lat="40.4293240" lon="-4.8228840">
        <ele>938.4</ele>
        <time>2021-07-22T17:35:55Z</time>
      </trkpt>
      <trkpt lat="40.4293230" lon="-4.8226660">
        <ele>938.1</ele>
        <time>2021-07-22T17:35:57Z</time>
      </trkpt>
      <trkpt lat="40.4293200" lon="-4.8225600">
        <ele>938.0</ele>
        <time>2021-07-22T17:35:58Z</time>
      </trkpt>
      <trkpt lat="40.4293150" lon="-4.8223420">
        <ele>937.8</ele>
        <time>2021-07-22T17:36:00Z</time>
      </trkpt>
      <trkpt lat="40.4293090" lon="-4.8222280">
        <ele>937.7</ele>
        <time>2021-07-22T17:36:01Z</time>
      </trkpt>
      <trkpt lat="40.4292930" lon="-4.8220010">
        <ele>937.4</ele>
        <time>2021-07-22T17:36:03Z</time>
      </trkpt>
      <trkpt lat="40.4292860" lon="-4.8218850">
        <ele>937.3</ele>
        <time>2021-07-22T17:36:04Z</time>
      </trkpt>
      <trkpt lat="40.4292790" lon="-4.8217730">
        <ele>937.2</ele>
        <time>2021-07-22T17:36:05Z</time>
      </trkpt>
      <trkpt lat="40.4292660" lon="-4.8216590">
        <ele>937.1</ele>
        <time>2021-07-22T17:36:06Z</time>
      </trkpt>
      <trkpt lat="40.4292410" lon="-4.8214330">
        <ele>936.9</ele>
        <time>2021-07-22T17:36:08Z</time>
      </trkpt>
      <trkpt lat="40.4292300" lon="-4.8213230">
        <ele>936.8</ele>
        <time>2021-07-22T17:36:09Z</time>
      </trkpt>
      <trkpt lat="40.4292160" lon="-4.8211030">
        <ele>936.7</ele>
        <time>2021-07-22T17:36:11Z</time>
      </trkpt>
      <trkpt lat="40.4292130" lon="-4.8209930">
        <ele>936.6</ele>
        <time>2021-07-22T17:36:12Z</time>
      </trkpt>
      <trkpt lat="40.4292110" lon="-4.8207680">
        <ele>936.6</ele>
        <time>2021-07-22T17:36:14Z</time>
      </trkpt>
      <trkpt lat="40.4292060" lon="-4.8205420">
        <ele>936.5</ele>
        <time>2021-07-22T17:36:16Z</time>
      </trkpt>
      <trkpt lat="40.4291900" lon="-4.8203140">
        <ele>936.4</ele>
        <time>2021-07-22T17:36:18Z</time>
      </trkpt>
      <trkpt lat="40.4291770" lon="-4.8200870">
        <ele>936.4</ele>
        <time>2021-07-22T17:36:20Z</time>
      </trkpt>
      <trkpt lat="40.4291470" lon="-4.8198700">
        <ele>936.2</ele>
        <time>2021-07-22T17:36:22Z</time>
      </trkpt>
      <trkpt lat="40.4291270" lon="-4.8197570">
        <ele>936.1</ele>
        <time>2021-07-22T17:36:23Z</time>
      </trkpt>
      <trkpt lat="40.4291050" lon="-4.8195260">
        <ele>935.9</ele>
        <time>2021-07-22T17:36:25Z</time>
      </trkpt>
      <trkpt lat="40.4290840" lon="-4.8193090">
        <ele>935.8</ele>
        <time>2021-07-22T17:36:27Z</time>
      </trkpt>
      <trkpt lat="40.4290810" lon="-4.8191970">
        <ele>935.7</ele>
        <time>2021-07-22T17:36:28Z</time>
      </trkpt>
      <trkpt lat="40.4290640" lon="-4.8189830">
        <ele>935.7</ele>
        <time>2021-07-22T17:36:30Z</time>
      </trkpt>
      <trkpt lat="40.4290440" lon="-4.8187700">
        <ele>935.5</ele>
        <time>2021-07-22T17:36:32Z</time>
      </trkpt>
      <trkpt lat="40.4289960" lon="-4.8185710">
        <ele>935.3</ele>
        <time>2021-07-22T17:36:34Z</time>
      </trkpt>
      <trkpt lat="40.4289700" lon="-4.8184780">
        <ele>935.2</ele>
        <time>2021-07-22T17:36:35Z</time>
      </trkpt>
      <trkpt lat="40.4289330" lon="-4.8182800">
        <ele>935.0</ele>
        <time>2021-07-22T17:36:37Z</time>
      </trkpt>
      <trkpt lat="40.4289070" lon="-4.8181830">
        <ele>934.9</ele>
        <time>2021-07-22T17:36:38Z</time>
      </trkpt>
      <trkpt lat="40.4288760" lon="-4.8180810">
        <ele>934.9</ele>
        <time>2021-07-22T17:36:39Z</time>
      </trkpt>
      <trkpt lat="40.4288480" lon="-4.8179810">
        <ele>934.8</ele>
        <time>2021-07-22T17:36:40Z</time>
      </trkpt>
      <trkpt lat="40.4288220" lon="-4.8178790">
        <ele>934.7</ele>
        <time>2021-07-22T17:36:41Z</time>
      </trkpt>
      <trkpt lat="40.4287840" lon="-4.8176720">
        <ele>934.6</ele>
        <time>2021-07-22T17:36:43Z</time>
      </trkpt>
      <trkpt lat="40.4287540" lon="-4.8175710">
        <ele>934.6</ele>
        <time>2021-07-22T17:36:44Z</time>
      </trkpt>
      <trkpt lat="40.4287240" lon="-4.8174680">
        <ele>934.5</ele>
        <time>2021-07-22T17:36:45Z</time>
      </trkpt>
      <trkpt lat="40.4286700" lon="-4.8172690">
        <ele>934.5</ele>
        <time>2021-07-22T17:36:47Z</time>
      </trkpt>
      <trkpt lat="40.4286370" lon="-4.8171730">
        <ele>934.5</ele>
        <time>2021-07-22T17:36:48Z</time>
      </trkpt>
      <trkpt lat="40.4286080" lon="-4.8170790">
        <ele>934.5</ele>
        <time>2021-07-22T17:36:49Z</time>
      </trkpt>
      <trkpt lat="40.4285810" lon="-4.8169820">
        <ele>934.4</ele>
        <time>2021-07-22T17:36:50Z</time>
      </trkpt>
      <trkpt lat="40.4285320" lon="-4.8167820">
        <ele>934.4</ele>
        <time>2021-07-22T17:36:52Z</time>
      </trkpt>
      <trkpt lat="40.4285020" lon="-4.8165790">
        <ele>934.2</ele>
        <time>2021-07-22T17:36:54Z</time>
      </trkpt>
      <trkpt lat="40.4284910" lon="-4.8164740">
        <ele>934.1</ele>
        <time>2021-07-22T17:36:55Z</time>
      </trkpt>
      <trkpt lat="40.4284720" lon="-4.8162640">
        <ele>934.0</ele>
        <time>2021-07-22T17:36:57Z</time>
      </trkpt>
      <trkpt lat="40.4284650" lon="-4.8161560">
        <ele>934.0</ele>
        <time>2021-07-22T17:36:58Z</time>
      </trkpt>
      <trkpt lat="40.4284590" lon="-4.8160480">
        <ele>933.9</ele>
        <time>2021-07-22T17:36:59Z</time>
      </trkpt>
      <trkpt lat="40.4284480" lon="-4.8158350">
        <ele>933.8</ele>
        <time>2021-07-22T17:37:01Z</time>
      </trkpt>
      <trkpt lat="40.4284400" lon="-4.8157280">
        <ele>933.7</ele>
        <time>2021-07-22T17:37:02Z</time>
      </trkpt>
      <trkpt lat="40.4284230" lon="-4.8155170">
        <ele>933.6</ele>
        <time>2021-07-22T17:37:04Z</time>
      </trkpt>
      <trkpt lat="40.4283970" lon="-4.8153040">
        <ele>933.5</ele>
        <time>2021-07-22T17:37:06Z</time>
      </trkpt>
      <trkpt lat="40.4283620" lon="-4.8150870">
        <ele>933.3</ele>
        <time>2021-07-22T17:37:08Z</time>
      </trkpt>
      <trkpt lat="40.4283280" lon="-4.8148700">
        <ele>933.3</ele>
        <time>2021-07-22T17:37:10Z</time>
      </trkpt>
      <trkpt lat="40.4283120" lon="-4.8147610">
        <ele>933.3</ele>
        <time>2021-07-22T17:37:11Z</time>
      </trkpt>
      <trkpt lat="40.4282940" lon="-4.8146520">
        <ele>933.3</ele>
        <time>2021-07-22T17:37:12Z</time>
      </trkpt>
      <trkpt lat="40.4282460" lon="-4.8144380">
        <ele>933.4</ele>
        <time>2021-07-22T17:37:14Z</time>
      </trkpt>
      <trkpt lat="40.4282240" lon="-4.8143300">
        <ele>933.5</ele>
        <time>2021-07-22T17:37:15Z</time>
      </trkpt>
      <trkpt lat="40.4281840" lon="-4.8141180">
        <ele>933.7</ele>
        <time>2021-07-22T17:37:17Z</time>
      </trkpt>
      <trkpt lat="40.4281600" lon="-4.8140160">
        <ele>933.9</ele>
        <time>2021-07-22T17:37:18Z</time>
      </trkpt>
      <trkpt lat="40.4281390" lon="-4.8139150">
        <ele>934.1</ele>
        <time>2021-07-22T17:37:19Z</time>
      </trkpt>
      <trkpt lat="40.4280850" lon="-4.8137160">
        <ele>934.5</ele>
        <time>2021-07-22T17:37:21Z</time>
      </trkpt>
      <trkpt lat="40.4280240" lon="-4.8135400">
        <ele>934.5</ele>
        <time>2021-07-22T17:37:23Z</time>
      </trkpt>
      <trkpt lat="40.4279850" lon="-4.8134660">
        <ele>934.5</ele>
        <time>2021-07-22T17:37:24Z</time>
      </trkpt>
      <trkpt lat="40.4278990" lon="-4.8133360">
        <ele>934.7</ele>
        <time>2021-07-22T17:37:26Z</time>
      </trkpt>
      <trkpt lat="40.4278600" lon="-4.8132700">
        <ele>934.7</ele>
        <time>2021-07-22T17:37:27Z</time>
      </trkpt>
      <trkpt lat="40.4278200" lon="-4.8132040">
        <ele>934.8</ele>
        <time>2021-07-22T17:37:28Z</time>
      </trkpt>
      <trkpt lat="40.4277400" lon="-4.8130730">
        <ele>934.8</ele>
        <time>2021-07-22T17:37:30Z</time>
      </trkpt>
      <trkpt lat="40.4277000" lon="-4.8130030">
        <ele>934.7</ele>
        <time>2021-07-22T17:37:31Z</time>
      </trkpt>
      <trkpt lat="40.4276630" lon="-4.8129310">
        <ele>934.6</ele>
        <time>2021-07-22T17:37:32Z</time>
      </trkpt>
      <trkpt lat="40.4276250" lon="-4.8127560">
        <ele>934.2</ele>
        <time>2021-07-22T17:37:34Z</time>
      </trkpt>
      <trkpt lat="40.4276170" lon="-4.8126640">
        <ele>934.0</ele>
        <time>2021-07-22T17:37:35Z</time>
      </trkpt>
      <trkpt lat="40.4276040" lon="-4.8124710">
        <ele>933.3</ele>
        <time>2021-07-22T17:37:37Z</time>
      </trkpt>
      <trkpt lat="40.4276000" lon="-4.8123670">
        <ele>932.9</ele>
        <time>2021-07-22T17:37:38Z</time>
      </trkpt>
      <trkpt lat="40.4275940" lon="-4.8121460">
        <ele>932.0</ele>
        <time>2021-07-22T17:37:40Z</time>
      </trkpt>
      <trkpt lat="40.4275840" lon="-4.8119010">
        <ele>931.0</ele>
        <time>2021-07-22T17:37:42Z</time>
      </trkpt>
      <trkpt lat="40.4275810" lon="-4.8116320">
        <ele>930.1</ele>
        <time>2021-07-22T17:37:44Z</time>
      </trkpt>
      <trkpt lat="40.4275800" lon="-4.8113610">
        <ele>929.3</ele>
        <time>2021-07-22T17:37:46Z</time>
      </trkpt>
      <trkpt lat="40.4275790" lon="-4.8111050">
        <ele>928.7</ele>
        <time>2021-07-22T17:37:48Z</time>
      </trkpt>
      <trkpt lat="40.4275830" lon="-4.8108490">
        <ele>928.3</ele>
        <time>2021-07-22T17:37:50Z</time>
      </trkpt>
      <trkpt lat="40.4275720" lon="-4.8106010">
        <ele>928.3</ele>
        <time>2021-07-22T17:37:52Z</time>
      </trkpt>
      <trkpt lat="40.4275610" lon="-4.8104790">
        <ele>928.3</ele>
        <time>2021-07-22T17:37:53Z</time>
      </trkpt>
      <trkpt lat="40.4275470" lon="-4.8103620">
        <ele>928.3</ele>
        <time>2021-07-22T17:37:54Z</time>
      </trkpt>
      <trkpt lat="40.4275340" lon="-4.8102470">
        <ele>928.3</ele>
        <time>2021-07-22T17:37:55Z</time>
      </trkpt>
      <trkpt lat="40.4275230" lon="-4.8100190">
        <ele>928.2</ele>
        <time>2021-07-22T17:37:57Z</time>
      </trkpt>
      <trkpt lat="40.4275310" lon="-4.8099010">
        <ele>928.2</ele>
        <time>2021-07-22T17:37:58Z</time>
      </trkpt>
      <trkpt lat="40.4275760" lon="-4.8096770">
        <ele>928.1</ele>
        <time>2021-07-22T17:38:00Z</time>
      </trkpt>
      <trkpt lat="40.4276400" lon="-4.8094620">
        <ele>927.7</ele>
        <time>2021-07-22T17:38:02Z</time>
      </trkpt>
      <trkpt lat="40.4276750" lon="-4.8093550">
        <ele>927.5</ele>
        <time>2021-07-22T17:38:03Z</time>
      </trkpt>
      <trkpt lat="40.4277500" lon="-4.8091390">
        <ele>927.0</ele>
        <time>2021-07-22T17:38:05Z</time>
      </trkpt>
      <trkpt lat="40.4277890" lon="-4.8090290">
        <ele>926.8</ele>
        <time>2021-07-22T17:38:06Z</time>
      </trkpt>
      <trkpt lat="40.4278620" lon="-4.8088110">
        <ele>926.3</ele>
        <time>2021-07-22T17:38:08Z</time>
      </trkpt>
      <trkpt lat="40.4279430" lon="-4.8085990">
        <ele>925.8</ele>
        <time>2021-07-22T17:38:10Z</time>
      </trkpt>
      <trkpt lat="40.4279740" lon="-4.8084910">
        <ele>925.5</ele>
        <time>2021-07-22T17:38:11Z</time>
      </trkpt>
      <trkpt lat="40.4279980" lon="-4.8083800">
        <ele>925.2</ele>
        <time>2021-07-22T17:38:12Z</time>
      </trkpt>
      <trkpt lat="40.4280150" lon="-4.8082660">
        <ele>924.8</ele>
        <time>2021-07-22T17:38:13Z</time>
      </trkpt>
      <trkpt lat="40.4280110" lon="-4.8080300">
        <ele>924.0</ele>
        <time>2021-07-22T17:38:15Z</time>
      </trkpt>
      <trkpt lat="40.4280120" lon="-4.8077930">
        <ele>923.3</ele>
        <time>2021-07-22T17:38:17Z</time>
      </trkpt>
      <trkpt lat="40.4280100" lon="-4.8076730">
        <ele>923.1</ele>
        <time>2021-07-22T17:38:18Z</time>
      </trkpt>
      <trkpt lat="40.4280130" lon="-4.8074370">
        <ele>922.5</ele>
        <time>2021-07-22T17:38:20Z</time>
      </trkpt>
      <trkpt lat="40.4280150" lon="-4.8073120">
        <ele>922.2</ele>
        <time>2021-07-22T17:38:21Z</time>
      </trkpt>
      <trkpt lat="40.4280160" lon="-4.8070700">
        <ele>921.6</ele>
        <time>2021-07-22T17:38:23Z</time>
      </trkpt>
      <trkpt lat="40.4280210" lon="-4.8068230">
        <ele>921.0</ele>
        <time>2021-07-22T17:38:25Z</time>
      </trkpt>
      <trkpt lat="40.4280220" lon="-4.8067000">
        <ele>920.7</ele>
        <time>2021-07-22T17:38:26Z</time>
      </trkpt>
      <trkpt lat="40.4280250" lon="-4.8064550">
        <ele>920.2</ele>
        <time>2021-07-22T17:38:28Z</time>
      </trkpt>
      <trkpt lat="40.4280270" lon="-4.8063350">
        <ele>920.0</ele>
        <time>2021-07-22T17:38:29Z</time>
      </trkpt>
      <trkpt lat="40.4280300" lon="-4.8060990">
        <ele>919.5</ele>
        <time>2021-07-22T17:38:31Z</time>
      </trkpt>
      <trkpt lat="40.4280280" lon="-4.8059800">
        <ele>919.3</ele>
        <time>2021-07-22T17:38:32Z</time>
      </trkpt>
      <trkpt lat="40.4280300" lon="-4.8058630">
        <ele>919.1</ele>
        <time>2021-07-22T17:38:33Z</time>
      </trkpt>
      <trkpt lat="40.4280270" lon="-4.8056270">
        <ele>918.9</ele>
        <time>2021-07-22T17:38:35Z</time>
      </trkpt>
      <trkpt lat="40.4280240" lon="-4.8053880">
        <ele>918.7</ele>
        <time>2021-07-22T17:38:37Z</time>
      </trkpt>
      <trkpt lat="40.4280220" lon="-4.8052680">
        <ele>918.6</ele>
        <time>2021-07-22T17:38:38Z</time>
      </trkpt>
      <trkpt lat="40.4280260" lon="-4.8050330">
        <ele>918.4</ele>
        <time>2021-07-22T17:38:40Z</time>
      </trkpt>
      <trkpt lat="40.4280370" lon="-4.8048020">
        <ele>918.3</ele>
        <time>2021-07-22T17:38:42Z</time>
      </trkpt>
      <trkpt lat="40.4280400" lon="-4.8046880">
        <ele>918.3</ele>
        <time>2021-07-22T17:38:43Z</time>
      </trkpt>
      <trkpt lat="40.4280430" lon="-4.8045710">
        <ele>918.4</ele>
        <time>2021-07-22T17:38:44Z</time>
      </trkpt>
      <trkpt lat="40.4280440" lon="-4.8043470">
        <ele>918.5</ele>
        <time>2021-07-22T17:38:46Z</time>
      </trkpt>
      <trkpt lat="40.4280420" lon="-4.8042380">
        <ele>918.6</ele>
        <time>2021-07-22T17:38:47Z</time>
      </trkpt>
      <trkpt lat="40.4280410" lon="-4.8040200">
        <ele>918.7</ele>
        <time>2021-07-22T17:38:49Z</time>
      </trkpt>
      <trkpt lat="40.4280410" lon="-4.8039130">
        <ele>918.9</ele>
        <time>2021-07-22T17:38:50Z</time>
      </trkpt>
      <trkpt lat="40.4280420" lon="-4.8038120">
        <ele>918.9</ele>
        <time>2021-07-22T17:38:51Z</time>
      </trkpt>
      <trkpt lat="40.4280360" lon="-4.8037150">
        <ele>919.0</ele>
        <time>2021-07-22T17:38:52Z</time>
      </trkpt>
      <trkpt lat="40.4280230" lon="-4.8035160">
        <ele>919.1</ele>
        <time>2021-07-22T17:38:54Z</time>
      </trkpt>
      <trkpt lat="40.4279890" lon="-4.8033150">
        <ele>919.2</ele>
        <time>2021-07-22T17:38:56Z</time>
      </trkpt>
      <trkpt lat="40.4279530" lon="-4.8031160">
        <ele>919.3</ele>
        <time>2021-07-22T17:38:58Z</time>
      </trkpt>
      <trkpt lat="40.4279350" lon="-4.8030130">
        <ele>919.4</ele>
        <time>2021-07-22T17:38:59Z</time>
      </trkpt>
      <trkpt lat="40.4279160" lon="-4.8029150">
        <ele>919.4</ele>
        <time>2021-07-22T17:39:00Z</time>
      </trkpt>
      <trkpt lat="40.4278680" lon="-4.8027260">
        <ele>919.5</ele>
        <time>2021-07-22T17:39:02Z</time>
      </trkpt>
      <trkpt lat="40.4278350" lon="-4.8025360">
        <ele>919.6</ele>
        <time>2021-07-22T17:39:04Z</time>
      </trkpt>
      <trkpt lat="40.4278180" lon="-4.8024410">
        <ele>919.6</ele>
        <time>2021-07-22T17:39:05Z</time>
      </trkpt>
      <trkpt lat="40.4277670" lon="-4.8022630">
        <ele>919.8</ele>
        <time>2021-07-22T17:39:07Z</time>
      </trkpt>
      <trkpt lat="40.4277280" lon="-4.8021850">
        <ele>919.8</ele>
        <time>2021-07-22T17:39:08Z</time>
      </trkpt>
      <trkpt lat="40.4276760" lon="-4.8021230">
        <ele>919.7</ele>
        <time>2021-07-22T17:39:09Z</time>
      </trkpt>
      <trkpt lat="40.4275530" lon="-4.8020180">
        <ele>919.7</ele>
        <time>2021-07-22T17:39:11Z</time>
      </trkpt>
      <trkpt lat="40.4274900" lon="-4.8019620">
        <ele>919.7</ele>
        <time>2021-07-22T17:39:12Z</time>
      </trkpt>
      <trkpt lat="40.4273740" lon="-4.8018520">
        <ele>919.8</ele>
        <time>2021-07-22T17:39:14Z</time>
      </trkpt>
      <trkpt lat="40.4272590" lon="-4.8017420">
        <ele>920.0</ele>
        <time>2021-07-22T17:39:16Z</time>
      </trkpt>
      <trkpt lat="40.4272080" lon="-4.8016890">
        <ele>920.1</ele>
        <time>2021-07-22T17:39:17Z</time>
      </trkpt>
      <trkpt lat="40.4271570" lon="-4.8016370">
        <ele>920.2</ele>
        <time>2021-07-22T17:39:18Z</time>
      </trkpt>
      <trkpt lat="40.4270510" lon="-4.8015330">
        <ele>920.5</ele>
        <time>2021-07-22T17:39:20Z</time>
      </trkpt>
      <trkpt lat="40.4269960" lon="-4.8014820">
        <ele>920.6</ele>
        <time>2021-07-22T17:39:21Z</time>
      </trkpt>
      <trkpt lat="40.4268890" lon="-4.8013960">
        <ele>920.8</ele>
        <time>2021-07-22T17:39:23Z</time>
      </trkpt>
      <trkpt lat="40.4267910" lon="-4.8013110">
        <ele>921.0</ele>
        <time>2021-07-22T17:39:25Z</time>
      </trkpt>
      <trkpt lat="40.4267460" lon="-4.8012690">
        <ele>921.2</ele>
        <time>2021-07-22T17:39:26Z</time>
      </trkpt>
      <trkpt lat="40.4266530" lon="-4.8011940">
        <ele>921.5</ele>
        <time>2021-07-22T17:39:28Z</time>
      </trkpt>
      <trkpt lat="40.4266040" lon="-4.8011540">
        <ele>921.8</ele>
        <time>2021-07-22T17:39:29Z</time>
      </trkpt>
      <trkpt lat="40.4265110" lon="-4.8010730">
        <ele>922.2</ele>
        <time>2021-07-22T17:39:31Z</time>
      </trkpt>
      <trkpt lat="40.4264230" lon="-4.8009880">
        <ele>922.6</ele>
        <time>2021-07-22T17:39:33Z</time>
      </trkpt>
      <trkpt lat="40.4263330" lon="-4.8009060">
        <ele>923.0</ele>
        <time>2021-07-22T17:39:35Z</time>
      </trkpt>
      <trkpt lat="40.4262890" lon="-4.8008730">
        <ele>923.2</ele>
        <time>2021-07-22T17:39:36Z</time>
      </trkpt>
      <trkpt lat="40.4262480" lon="-4.8008380">
        <ele>923.4</ele>
        <time>2021-07-22T17:39:37Z</time>
      </trkpt>
      <trkpt lat="40.4261640" lon="-4.8007620">
        <ele>923.9</ele>
        <time>2021-07-22T17:39:39Z</time>
      </trkpt>
      <trkpt lat="40.4261270" lon="-4.8007260">
        <ele>924.1</ele>
        <time>2021-07-22T17:39:40Z</time>
      </trkpt>
      <trkpt lat="40.4260850" lon="-4.8006950">
        <ele>924.3</ele>
        <time>2021-07-22T17:39:41Z</time>
      </trkpt>
      <trkpt lat="40.4260110" lon="-4.8006480">
        <ele>924.8</ele>
        <time>2021-07-22T17:39:43Z</time>
      </trkpt>
      <trkpt lat="40.4259700" lon="-4.8006270">
        <ele>925.0</ele>
        <time>2021-07-22T17:39:44Z</time>
      </trkpt>
      <trkpt lat="40.4258910" lon="-4.8005840">
        <ele>925.5</ele>
        <time>2021-07-22T17:39:46Z</time>
      </trkpt>
      <trkpt lat="40.4258510" lon="-4.8005650">
        <ele>925.8</ele>
        <time>2021-07-22T17:39:47Z</time>
      </trkpt>
      <trkpt lat="40.4257940" lon="-4.8005310">
        <ele>926.0</ele>
        <time>2021-07-22T17:39:48Z</time>
      </trkpt>
      <trkpt lat="40.4257420" lon="-4.8005300">
        <ele>926.2</ele>
        <time>2021-07-22T17:39:50Z</time>
      </trkpt>
      <trkpt lat="40.4256950" lon="-4.8004960">
        <ele>926.4</ele>
        <time>2021-07-22T17:39:51Z</time>
      </trkpt>
      <trkpt lat="40.4256470" lon="-4.8004550">
        <ele>926.5</ele>
        <time>2021-07-22T17:39:52Z</time>
      </trkpt>
      <trkpt lat="40.4256030" lon="-4.8004250">
        <ele>926.5</ele>
        <time>2021-07-22T17:39:53Z</time>
      </trkpt>
      <trkpt lat="40.4255190" lon="-4.8003650">
        <ele>926.6</ele>
        <time>2021-07-22T17:39:55Z</time>
      </trkpt>
      <trkpt lat="40.4254760" lon="-4.8003300">
        <ele>926.6</ele>
        <time>2021-07-22T17:39:56Z</time>
      </trkpt>
      <trkpt lat="40.4253920" lon="-4.8002610">
        <ele>926.6</ele>
        <time>2021-07-22T17:39:58Z</time>
      </trkpt>
      <trkpt lat="40.4253460" lon="-4.8002300">
        <ele>926.6</ele>
        <time>2021-07-22T17:39:59Z</time>
      </trkpt>
      <trkpt lat="40.4252990" lon="-4.8001960">
        <ele>926.6</ele>
        <time>2021-07-22T17:40:00Z</time>
      </trkpt>
      <trkpt lat="40.4252560" lon="-4.8001560">
        <ele>926.6</ele>
        <time>2021-07-22T17:40:01Z</time>
      </trkpt>
      <trkpt lat="40.4252110" lon="-4.8001200">
        <ele>926.6</ele>
        <time>2021-07-22T17:40:02Z</time>
      </trkpt>
      <trkpt lat="40.4251250" lon="-4.8000410">
        <ele>926.7</ele>
        <time>2021-07-22T17:40:04Z</time>
      </trkpt>
      <trkpt lat="40.4250450" lon="-4.7999700">
        <ele>926.7</ele>
        <time>2021-07-22T17:40:06Z</time>
      </trkpt>
      <trkpt lat="40.4249590" lon="-4.7999010">
        <ele>926.6</ele>
        <time>2021-07-22T17:40:08Z</time>
      </trkpt>
      <trkpt lat="40.4248720" lon="-4.7998330">
        <ele>926.6</ele>
        <time>2021-07-22T17:40:10Z</time>
      </trkpt>
      <trkpt lat="40.4247740" lon="-4.7997740">
        <ele>926.5</ele>
        <time>2021-07-22T17:40:12Z</time>
      </trkpt>
      <trkpt lat="40.4247210" lon="-4.7997470">
        <ele>926.4</ele>
        <time>2021-07-22T17:40:13Z</time>
      </trkpt>
      <trkpt lat="40.4246720" lon="-4.7997160">
        <ele>926.4</ele>
        <time>2021-07-22T17:40:14Z</time>
      </trkpt>
      <trkpt lat="40.4246210" lon="-4.7996880">
        <ele>926.3</ele>
        <time>2021-07-22T17:40:15Z</time>
      </trkpt>
      <trkpt lat="40.4245240" lon="-4.7996410">
        <ele>926.2</ele>
        <time>2021-07-22T17:40:17Z</time>
      </trkpt>
      <trkpt lat="40.4244230" lon="-4.7995950">
        <ele>926.0</ele>
        <time>2021-07-22T17:40:19Z</time>
      </trkpt>
      <trkpt lat="40.4243240" lon="-4.7995580">
        <ele>925.8</ele>
        <time>2021-07-22T17:40:21Z</time>
      </trkpt>
      <trkpt lat="40.4242720" lon="-4.7995360">
        <ele>925.6</ele>
        <time>2021-07-22T17:40:22Z</time>
      </trkpt>
      <trkpt lat="40.4242180" lon="-4.7995190">
        <ele>925.4</ele>
        <time>2021-07-22T17:40:23Z</time>
      </trkpt>
      <trkpt lat="40.4241000" lon="-4.7994750">
        <ele>924.8</ele>
        <time>2021-07-22T17:40:25Z</time>
      </trkpt>
      <trkpt lat="40.4239760" lon="-4.7994360">
        <ele>924.1</ele>
        <time>2021-07-22T17:40:27Z</time>
      </trkpt>
      <trkpt lat="40.4238440" lon="-4.7993970">
        <ele>923.2</ele>
        <time>2021-07-22T17:40:29Z</time>
      </trkpt>
      <trkpt lat="40.4237740" lon="-4.7993770">
        <ele>922.7</ele>
        <time>2021-07-22T17:40:30Z</time>
      </trkpt>
      <trkpt lat="40.4236300" lon="-4.7993010">
        <ele>921.6</ele>
        <time>2021-07-22T17:40:32Z</time>
      </trkpt>
      <trkpt lat="40.4235530" lon="-4.7992580">
        <ele>920.9</ele>
        <time>2021-07-22T17:40:33Z</time>
      </trkpt>
      <trkpt lat="40.4233930" lon="-4.7991630">
        <ele>919.8</ele>
        <time>2021-07-22T17:40:35Z</time>
      </trkpt>
      <trkpt lat="40.4233050" lon="-4.7991160">
        <ele>919.3</ele>
        <time>2021-07-22T17:40:36Z</time>
      </trkpt>
      <trkpt lat="40.4231260" lon="-4.7990090">
        <ele>919.1</ele>
        <time>2021-07-22T17:40:38Z</time>
      </trkpt>
      <trkpt lat="40.4229530" lon="-4.7989120">
        <ele>919.3</ele>
        <time>2021-07-22T17:40:40Z</time>
      </trkpt>
      <trkpt lat="40.4228710" lon="-4.7988620">
        <ele>919.5</ele>
        <time>2021-07-22T17:40:41Z</time>
      </trkpt>
      <trkpt lat="40.4227920" lon="-4.7988260">
        <ele>919.7</ele>
        <time>2021-07-22T17:40:42Z</time>
      </trkpt>
      <trkpt lat="40.4227200" lon="-4.7987880">
        <ele>920.0</ele>
        <time>2021-07-22T17:40:43Z</time>
      </trkpt>
      <trkpt lat="40.4225830" lon="-4.7987260">
        <ele>920.8</ele>
        <time>2021-07-22T17:40:45Z</time>
      </trkpt>
      <trkpt lat="40.4224670" lon="-4.7986840">
        <ele>921.6</ele>
        <time>2021-07-22T17:40:47Z</time>
      </trkpt>
      <trkpt lat="40.4224130" lon="-4.7986620">
        <ele>922.0</ele>
        <time>2021-07-22T17:40:48Z</time>
      </trkpt>
      <trkpt lat="40.4223670" lon="-4.7986320">
        <ele>922.4</ele>
        <time>2021-07-22T17:40:49Z</time>
      </trkpt>
      <trkpt lat="40.4222760" lon="-4.7985530">
        <ele>923.1</ele>
        <time>2021-07-22T17:40:51Z</time>
      </trkpt>
      <trkpt lat="40.4222020" lon="-4.7984350">
        <ele>923.6</ele>
        <time>2021-07-22T17:40:53Z</time>
      </trkpt>
      <trkpt lat="40.4221710" lon="-4.7983700">
        <ele>923.8</ele>
        <time>2021-07-22T17:40:54Z</time>
      </trkpt>
      <trkpt lat="40.4221110" lon="-4.7982310">
        <ele>924.1</ele>
        <time>2021-07-22T17:40:56Z</time>
      </trkpt>
      <trkpt lat="40.4220710" lon="-4.7981590">
        <ele>924.1</ele>
        <time>2021-07-22T17:40:57Z</time>
      </trkpt>
      <trkpt lat="40.4220290" lon="-4.7980870">
        <ele>924.0</ele>
        <time>2021-07-22T17:40:58Z</time>
      </trkpt>
      <trkpt lat="40.4219350" lon="-4.7979530">
        <ele>923.6</ele>
        <time>2021-07-22T17:41:00Z</time>
      </trkpt>
      <trkpt lat="40.4218730" lon="-4.7978930">
        <ele>923.3</ele>
        <time>2021-07-22T17:41:01Z</time>
      </trkpt>
      <trkpt lat="40.4217500" lon="-4.7977600">
        <ele>922.5</ele>
        <time>2021-07-22T17:41:03Z</time>
      </trkpt>
      <trkpt lat="40.4216920" lon="-4.7976850">
        <ele>922.0</ele>
        <time>2021-07-22T17:41:04Z</time>
      </trkpt>
      <trkpt lat="40.4216410" lon="-4.7976000">
        <ele>921.3</ele>
        <time>2021-07-22T17:41:05Z</time>
      </trkpt>
      <trkpt lat="40.4215900" lon="-4.7975040">
        <ele>920.5</ele>
        <time>2021-07-22T17:41:06Z</time>
      </trkpt>
      <trkpt lat="40.4214850" lon="-4.7972890">
        <ele>918.4</ele>
        <time>2021-07-22T17:41:08Z</time>
      </trkpt>
      <trkpt lat="40.4214310" lon="-4.7971810">
        <ele>917.3</ele>
        <time>2021-07-22T17:41:09Z</time>
      </trkpt>
      <trkpt lat="40.4213780" lon="-4.7970750">
        <ele>916.2</ele>
        <time>2021-07-22T17:41:10Z</time>
      </trkpt>
      <trkpt lat="40.4213130" lon="-4.7969750">
        <ele>915.1</ele>
        <time>2021-07-22T17:41:11Z</time>
      </trkpt>
      <trkpt lat="40.4212400" lon="-4.7968800">
        <ele>913.9</ele>
        <time>2021-07-22T17:41:12Z</time>
      </trkpt>
      <trkpt lat="40.4211020" lon="-4.7966950">
        <ele>911.8</ele>
        <time>2021-07-22T17:41:14Z</time>
      </trkpt>
      <trkpt lat="40.4210390" lon="-4.7966050">
        <ele>910.8</ele>
        <time>2021-07-22T17:41:15Z</time>
      </trkpt>
      <trkpt lat="40.4209370" lon="-4.7964210">
        <ele>908.8</ele>
        <time>2021-07-22T17:41:17Z</time>
      </trkpt>
      <trkpt lat="40.4208870" lon="-4.7963280">
        <ele>907.8</ele>
        <time>2021-07-22T17:41:18Z</time>
      </trkpt>
      <trkpt lat="40.4208270" lon="-4.7962460">
        <ele>906.7</ele>
        <time>2021-07-22T17:41:19Z</time>
      </trkpt>
      <trkpt lat="40.4206860" lon="-4.7961200">
        <ele>904.5</ele>
        <time>2021-07-22T17:41:21Z</time>
      </trkpt>
      <trkpt lat="40.4204990" lon="-4.7960120">
        <ele>901.9</ele>
        <time>2021-07-22T17:41:23Z</time>
      </trkpt>
      <trkpt lat="40.4203060" lon="-4.7959170">
        <ele>899.5</ele>
        <time>2021-07-22T17:41:25Z</time>
      </trkpt>
      <trkpt lat="40.4202120" lon="-4.7958720">
        <ele>898.5</ele>
        <time>2021-07-22T17:41:26Z</time>
      </trkpt>
      <trkpt lat="40.4200480" lon="-4.7957880">
        <ele>896.8</ele>
        <time>2021-07-22T17:41:28Z</time>
      </trkpt>
      <trkpt lat="40.4199060" lon="-4.7956970">
        <ele>895.6</ele>
        <time>2021-07-22T17:41:30Z</time>
      </trkpt>
      <trkpt lat="40.4197800" lon="-4.7956110">
        <ele>894.4</ele>
        <time>2021-07-22T17:41:32Z</time>
      </trkpt>
      <trkpt lat="40.4196760" lon="-4.7954910">
        <ele>893.0</ele>
        <time>2021-07-22T17:41:34Z</time>
      </trkpt>
      <trkpt lat="40.4196000" lon="-4.7953290">
        <ele>891.3</ele>
        <time>2021-07-22T17:41:36Z</time>
      </trkpt>
      <trkpt lat="40.4195750" lon="-4.7952380">
        <ele>890.5</ele>
        <time>2021-07-22T17:41:37Z</time>
      </trkpt>
      <trkpt lat="40.4195580" lon="-4.7951340">
        <ele>889.6</ele>
        <time>2021-07-22T17:41:38Z</time>
      </trkpt>
      <trkpt lat="40.4195630" lon="-4.7950260">
        <ele>888.7</ele>
        <time>2021-07-22T17:41:39Z</time>
      </trkpt>
      <trkpt lat="40.4196220" lon="-4.7947900">
        <ele>886.7</ele>
        <time>2021-07-22T17:41:41Z</time>
      </trkpt>
      <trkpt lat="40.4196660" lon="-4.7946690">
        <ele>885.6</ele>
        <time>2021-07-22T17:41:42Z</time>
      </trkpt>
      <trkpt lat="40.4197300" lon="-4.7944150">
        <ele>883.9</ele>
        <time>2021-07-22T17:41:44Z</time>
      </trkpt>
      <trkpt lat="40.4197390" lon="-4.7941560">
        <ele>882.2</ele>
        <time>2021-07-22T17:41:46Z</time>
      </trkpt>
      <trkpt lat="40.4197270" lon="-4.7940320">
        <ele>881.4</ele>
        <time>2021-07-22T17:41:47Z</time>
      </trkpt>
      <trkpt lat="40.4196940" lon="-4.7937900">
        <ele>880.1</ele>
        <time>2021-07-22T17:41:49Z</time>
      </trkpt>
      <trkpt lat="40.4196840" lon="-4.7936640">
        <ele>879.5</ele>
        <time>2021-07-22T17:41:50Z</time>
      </trkpt>
      <trkpt lat="40.4196760" lon="-4.7935360">
        <ele>878.9</ele>
        <time>2021-07-22T17:41:51Z</time>
      </trkpt>
      <trkpt lat="40.4196530" lon="-4.7932920">
        <ele>878.0</ele>
        <time>2021-07-22T17:41:53Z</time>
      </trkpt>
      <trkpt lat="40.4196330" lon="-4.7931800">
        <ele>877.7</ele>
        <time>2021-07-22T17:41:54Z</time>
      </trkpt>
      <trkpt lat="40.4196080" lon="-4.7930730">
        <ele>877.3</ele>
        <time>2021-07-22T17:41:55Z</time>
      </trkpt>
      <trkpt lat="40.4195480" lon="-4.7928920">
        <ele>876.6</ele>
        <time>2021-07-22T17:41:57Z</time>
      </trkpt>
      <trkpt lat="40.4195010" lon="-4.7928150">
        <ele>876.1</ele>
        <time>2021-07-22T17:41:58Z</time>
      </trkpt>
      <trkpt lat="40.4193730" lon="-4.7927010">
        <ele>875.0</ele>
        <time>2021-07-22T17:42:00Z</time>
      </trkpt>
      <trkpt lat="40.4192980" lon="-4.7926770">
        <ele>874.5</ele>
        <time>2021-07-22T17:42:01Z</time>
      </trkpt>
      <trkpt lat="40.4192170" lon="-4.7926710">
        <ele>873.9</ele>
        <time>2021-07-22T17:42:02Z</time>
      </trkpt>
      <trkpt lat="40.4190520" lon="-4.7926820">
        <ele>872.9</ele>
        <time>2021-07-22T17:42:04Z</time>
      </trkpt>
      <trkpt lat="40.4189680" lon="-4.7926920">
        <ele>872.6</ele>
        <time>2021-07-22T17:42:05Z</time>
      </trkpt>
      <trkpt lat="40.4188170" lon="-4.7926990">
        <ele>871.9</ele>
        <time>2021-07-22T17:42:07Z</time>
      </trkpt>
      <trkpt lat="40.4186950" lon="-4.7926150">
        <ele>871.1</ele>
        <time>2021-07-22T17:42:09Z</time>
      </trkpt>
      <trkpt lat="40.4186480" lon="-4.7925410">
        <ele>870.6</ele>
        <time>2021-07-22T17:42:10Z</time>
      </trkpt>
      <trkpt lat="40.4185940" lon="-4.7923670">
        <ele>869.4</ele>
        <time>2021-07-22T17:42:12Z</time>
      </trkpt>
      <trkpt lat="40.4185890" lon="-4.7922650">
        <ele>868.9</ele>
        <time>2021-07-22T17:42:13Z</time>
      </trkpt>
      <trkpt lat="40.4185940" lon="-4.7920680">
        <ele>867.9</ele>
        <time>2021-07-22T17:42:15Z</time>
      </trkpt>
      <trkpt lat="40.4185950" lon="-4.7919670">
        <ele>867.4</ele>
        <time>2021-07-22T17:42:16Z</time>
      </trkpt>
      <trkpt lat="40.4185510" lon="-4.7917720">
        <ele>866.7</ele>
        <time>2021-07-22T17:42:18Z</time>
      </trkpt>
      <trkpt lat="40.4185050" lon="-4.7916960">
        <ele>866.3</ele>
        <time>2021-07-22T17:42:19Z</time>
      </trkpt>
      <trkpt lat="40.4184040" lon="-4.7915920">
        <ele>865.7</ele>
        <time>2021-07-22T17:42:21Z</time>
      </trkpt>
      <trkpt lat="40.4183410" lon="-4.7915540">
        <ele>865.3</ele>
        <time>2021-07-22T17:42:22Z</time>
      </trkpt>
      <trkpt lat="40.4181820" lon="-4.7914820">
        <ele>864.2</ele>
        <time>2021-07-22T17:42:24Z</time>
      </trkpt>
      <trkpt lat="40.4180110" lon="-4.7914000">
        <ele>863.0</ele>
        <time>2021-07-22T17:42:26Z</time>
      </trkpt>
      <trkpt lat="40.4178430" lon="-4.7912770">
        <ele>862.2</ele>
        <time>2021-07-22T17:42:28Z</time>
      </trkpt>
      <trkpt lat="40.4177550" lon="-4.7912170">
        <ele>861.8</ele>
        <time>2021-07-22T17:42:29Z</time>
      </trkpt>
      <trkpt lat="40.4175840" lon="-4.7910960">
        <ele>861.2</ele>
        <time>2021-07-22T17:42:31Z</time>
      </trkpt>
      <trkpt lat="40.4174080" lon="-4.7909910">
        <ele>860.8</ele>
        <time>2021-07-22T17:42:33Z</time>
      </trkpt>
      <trkpt lat="40.4172430" lon="-4.7908850">
        <ele>860.6</ele>
        <time>2021-07-22T17:42:35Z</time>
      </trkpt>
      <trkpt lat="40.4171630" lon="-4.7908320">
        <ele>860.5</ele>
        <time>2021-07-22T17:42:36Z</time>
      </trkpt>
      <trkpt lat="40.4170080" lon="-4.7907360">
        <ele>860.4</ele>
        <time>2021-07-22T17:42:38Z</time>
      </trkpt>
      <trkpt lat="40.4168670" lon="-4.7906430">
        <ele>860.3</ele>
        <time>2021-07-22T17:42:40Z</time>
      </trkpt>
      <trkpt lat="40.4167350" lon="-4.7905530">
        <ele>860.3</ele>
        <time>2021-07-22T17:42:42Z</time>
      </trkpt>
      <trkpt lat="40.4166130" lon="-4.7904660">
        <ele>860.3</ele>
        <time>2021-07-22T17:42:44Z</time>
      </trkpt>
      <trkpt lat="40.4164950" lon="-4.7904070">
        <ele>859.9</ele>
        <time>2021-07-22T17:42:46Z</time>
      </trkpt>
      <trkpt lat="40.4164050" lon="-4.7903250">
        <ele>859.1</ele>
        <time>2021-07-22T17:42:48Z</time>
      </trkpt>
      <trkpt lat="40.4163260" lon="-4.7901970">
        <ele>857.8</ele>
        <time>2021-07-22T17:42:50Z</time>
      </trkpt>
      <trkpt lat="40.4162430" lon="-4.7900100">
        <ele>856.2</ele>
        <time>2021-07-22T17:42:52Z</time>
      </trkpt>
      <trkpt lat="40.4162060" lon="-4.7899080">
        <ele>855.5</ele>
        <time>2021-07-22T17:42:53Z</time>
      </trkpt>
      <trkpt lat="40.4161720" lon="-4.7898100">
        <ele>855.0</ele>
        <time>2021-07-22T17:42:54Z</time>
      </trkpt>
      <trkpt lat="40.4161420" lon="-4.7897170">
        <ele>854.6</ele>
        <time>2021-07-22T17:42:55Z</time>
      </trkpt>
      <trkpt lat="40.4160780" lon="-4.7895430">
        <ele>854.0</ele>
        <time>2021-07-22T17:42:57Z</time>
      </trkpt>
      <trkpt lat="40.4160470" lon="-4.7894590">
        <ele>853.8</ele>
        <time>2021-07-22T17:42:58Z</time>
      </trkpt>
      <trkpt lat="40.4159800" lon="-4.7893010">
        <ele>853.1</ele>
        <time>2021-07-22T17:43:00Z</time>
      </trkpt>
      <trkpt lat="40.4159040" lon="-4.7891560">
        <ele>852.4</ele>
        <time>2021-07-22T17:43:02Z</time>
      </trkpt>
      <trkpt lat="40.4158550" lon="-4.7890710">
        <ele>851.9</ele>
        <time>2021-07-22T17:43:03Z</time>
      </trkpt>
      <trkpt lat="40.4157420" lon="-4.7889270">
        <ele>851.0</ele>
        <time>2021-07-22T17:43:05Z</time>
      </trkpt>
      <trkpt lat="40.4156580" lon="-4.7888090">
        <ele>850.3</ele>
        <time>2021-07-22T17:43:07Z</time>
      </trkpt>
      <trkpt lat="40.4155640" lon="-4.7886840">
        <ele>849.6</ele>
        <time>2021-07-22T17:43:09Z</time>
      </trkpt>
      <trkpt lat="40.4154790" lon="-4.7885460">
        <ele>849.1</ele>
        <time>2021-07-22T17:43:11Z</time>
      </trkpt>
      <trkpt lat="40.4154380" lon="-4.7884760">
        <ele>848.8</ele>
        <time>2021-07-22T17:43:12Z</time>
      </trkpt>
      <trkpt lat="40.4153940" lon="-4.7884160">
        <ele>848.6</ele>
        <time>2021-07-22T17:43:13Z</time>
      </trkpt>
      <trkpt lat="40.4152870" lon="-4.7883060">
        <ele>847.7</ele>
        <time>2021-07-22T17:43:15Z</time>
      </trkpt>
      <trkpt lat="40.4151780" lon="-4.7881950">
        <ele>846.6</ele>
        <time>2021-07-22T17:43:17Z</time>
      </trkpt>
      <trkpt lat="40.4151270" lon="-4.7881420">
        <ele>846.1</ele>
        <time>2021-07-22T17:43:18Z</time>
      </trkpt>
      <trkpt lat="40.4150710" lon="-4.7880910">
        <ele>845.5</ele>
        <time>2021-07-22T17:43:19Z</time>
      </trkpt>
      <trkpt lat="40.4149700" lon="-4.7879900">
        <ele>844.4</ele>
        <time>2021-07-22T17:43:21Z</time>
      </trkpt>
      <trkpt lat="40.4148660" lon="-4.7878900">
        <ele>843.3</ele>
        <time>2021-07-22T17:43:23Z</time>
      </trkpt>
      <trkpt lat="40.4148140" lon="-4.7878410">
        <ele>842.8</ele>
        <time>2021-07-22T17:43:24Z</time>
      </trkpt>
      <trkpt lat="40.4147620" lon="-4.7877920">
        <ele>842.4</ele>
        <time>2021-07-22T17:43:25Z</time>
      </trkpt>
      <trkpt lat="40.4146810" lon="-4.7877250">
        <ele>841.8</ele>
        <time>2021-07-22T17:43:27Z</time>
      </trkpt>
      <trkpt lat="40.4146570" lon="-4.7877140">
        <ele>841.6</ele>
        <time>2021-07-22T17:43:28Z</time>
      </trkpt>
      <trkpt lat="40.4145820" lon="-4.7877030">
        <ele>841.2</ele>
        <time>2021-07-22T17:43:30Z</time>
      </trkpt>
      <trkpt lat="40.4144990" lon="-4.7877300">
        <ele>841.0</ele>
        <time>2021-07-22T17:43:32Z</time>
      </trkpt>
      <trkpt lat="40.4144010" lon="-4.7877720">
        <ele>840.7</ele>
        <time>2021-07-22T17:43:34Z</time>
      </trkpt>
      <trkpt lat="40.4143680" lon="-4.7877840">
        <ele>840.6</ele>
        <time>2021-07-22T17:43:35Z</time>
      </trkpt>
      <trkpt lat="40.4143320" lon="-4.7877750">
        <ele>840.5</ele>
        <time>2021-07-22T17:43:37Z</time>
      </trkpt>
      <trkpt lat="40.4142950" lon="-4.7877230">
        <ele>840.3</ele>
        <time>2021-07-22T17:43:38Z</time>
      </trkpt>
      <trkpt lat="40.4142700" lon="-4.7876650">
        <ele>840.3</ele>
        <time>2021-07-22T17:43:39Z</time>
      </trkpt>
      <trkpt lat="40.4142390" lon="-4.7875660">
        <ele>840.2</ele>
        <time>2021-07-22T17:43:41Z</time>
      </trkpt>
      <trkpt lat="40.4141990" lon="-4.7875030">
        <ele>840.2</ele>
        <time>2021-07-22T17:43:42Z</time>
      </trkpt>
      <trkpt lat="40.4141640" lon="-4.7874720">
        <ele>840.2</ele>
        <time>2021-07-22T17:43:43Z</time>
      </trkpt>
      <trkpt lat="40.4140940" lon="-4.7874370">
        <ele>840.2</ele>
        <time>2021-07-22T17:43:45Z</time>
      </trkpt>
      <trkpt lat="40.4140440" lon="-4.7874230">
        <ele>840.1</ele>
        <time>2021-07-22T17:43:47Z</time>
      </trkpt>
      <trkpt lat="40.4140340" lon="-4.7874200">
        <ele>840.1</ele>
        <time>2021-07-22T17:43:49Z</time>
      </trkpt>
      <trkpt lat="40.4140680" lon="-4.7874340">
        <ele>840.1</ele>
        <time>2021-07-22T17:43:50Z</time>
      </trkpt>
      <trkpt lat="40.4140720" lon="-4.7874260">
        <ele>840.1</ele>
        <time>2021-07-22T17:43:52Z</time>
      </trkpt>
      <trkpt lat="40.4140470" lon="-4.7874390">
        <ele>840.0</ele>
        <time>2021-07-22T17:43:54Z</time>
      </trkpt>
      <trkpt lat="40.4139900" lon="-4.7874890">
        <ele>840.0</ele>
        <time>2021-07-22T17:43:56Z</time>
      </trkpt>
      <trkpt lat="40.4139250" lon="-4.7875330">
        <ele>839.9</ele>
        <time>2021-07-22T17:43:58Z</time>
      </trkpt>
      <trkpt lat="40.4138800" lon="-4.7875530">
        <ele>839.9</ele>
        <time>2021-07-22T17:43:59Z</time>
      </trkpt>
      <trkpt lat="40.4138070" lon="-4.7875770">
        <ele>839.8</ele>
        <time>2021-07-22T17:44:01Z</time>
      </trkpt>
      <trkpt lat="40.4137050" lon="-4.7875940">
        <ele>839.7</ele>
        <time>2021-07-22T17:44:02Z</time>
      </trkpt>
      <trkpt lat="40.4136520" lon="-4.7876030">
        <ele>839.7</ele>
        <time>2021-07-22T17:44:03Z</time>
      </trkpt>
      <trkpt lat="40.4135490" lon="-4.7876070">
        <ele>839.6</ele>
        <time>2021-07-22T17:44:05Z</time>
      </trkpt>
      <trkpt lat="40.4134960" lon="-4.7876150">
        <ele>839.5</ele>
        <time>2021-07-22T17:44:06Z</time>
      </trkpt>
      <trkpt lat="40.4133910" lon="-4.7876240">
        <ele>839.4</ele>
        <time>2021-07-22T17:44:08Z</time>
      </trkpt>
      <trkpt lat="40.4133400" lon="-4.7876230">
        <ele>839.4</ele>
        <time>2021-07-22T17:44:09Z</time>
      </trkpt>
      <trkpt lat="40.4132900" lon="-4.7876150">
        <ele>839.3</ele>
        <time>2021-07-22T17:44:10Z</time>
      </trkpt>
      <trkpt lat="40.4131950" lon="-4.7875490">
        <ele>838.9</ele>
        <time>2021-07-22T17:44:12Z</time>
      </trkpt>
      <trkpt lat="40.4131270" lon="-4.7874210">
        <ele>838.3</ele>
        <time>2021-07-22T17:44:14Z</time>
      </trkpt>
      <trkpt lat="40.4131020" lon="-4.7873430">
        <ele>837.9</ele>
        <time>2021-07-22T17:44:15Z</time>
      </trkpt>
      <trkpt lat="40.4130520" lon="-4.7871830">
        <ele>837.5</ele>
        <time>2021-07-22T17:44:17Z</time>
      </trkpt>
      <trkpt lat="40.4130190" lon="-4.7871040">
        <ele>837.3</ele>
        <time>2021-07-22T17:44:18Z</time>
      </trkpt>
      <trkpt lat="40.4129830" lon="-4.7870220">
        <ele>837.1</ele>
        <time>2021-07-22T17:44:19Z</time>
      </trkpt>
      <trkpt lat="40.4129200" lon="-4.7868500">
        <ele>836.6</ele>
        <time>2021-07-22T17:44:21Z</time>
      </trkpt>
      <trkpt lat="40.4128920" lon="-4.7867620">
        <ele>836.4</ele>
        <time>2021-07-22T17:44:22Z</time>
      </trkpt>
      <trkpt lat="40.4128670" lon="-4.7866670">
        <ele>836.1</ele>
        <time>2021-07-22T17:44:23Z</time>
      </trkpt>
      <trkpt lat="40.4128360" lon="-4.7864700">
        <ele>835.7</ele>
        <time>2021-07-22T17:44:25Z</time>
      </trkpt>
      <trkpt lat="40.4128310" lon="-4.7862690">
        <ele>835.3</ele>
        <time>2021-07-22T17:44:27Z</time>
      </trkpt>
      <trkpt lat="40.4128430" lon="-4.7860700">
        <ele>834.9</ele>
        <time>2021-07-22T17:44:29Z</time>
      </trkpt>
      <trkpt lat="40.4128470" lon="-4.7859660">
        <ele>834.8</ele>
        <time>2021-07-22T17:44:30Z</time>
      </trkpt>
      <trkpt lat="40.4128670" lon="-4.7857610">
        <ele>834.7</ele>
        <time>2021-07-22T17:44:32Z</time>
      </trkpt>
      <trkpt lat="40.4129070" lon="-4.7855690">
        <ele>834.5</ele>
        <time>2021-07-22T17:44:34Z</time>
      </trkpt>
      <trkpt lat="40.4129280" lon="-4.7854840">
        <ele>834.4</ele>
        <time>2021-07-22T17:44:35Z</time>
      </trkpt>
      <trkpt lat="40.4129480" lon="-4.7853940">
        <ele>834.3</ele>
        <time>2021-07-22T17:44:36Z</time>
      </trkpt>
      <trkpt lat="40.4129850" lon="-4.7852300">
        <ele>834.1</ele>
        <time>2021-07-22T17:44:38Z</time>
      </trkpt>
      <trkpt lat="40.4130040" lon="-4.7851580">
        <ele>834.1</ele>
        <time>2021-07-22T17:44:39Z</time>
      </trkpt>
      <trkpt lat="40.4130250" lon="-4.7850900">
        <ele>834.1</ele>
        <time>2021-07-22T17:44:40Z</time>
      </trkpt>
      <trkpt lat="40.4130670" lon="-4.7849710">
        <ele>834.0</ele>
        <time>2021-07-22T17:44:42Z</time>
      </trkpt>
      <trkpt lat="40.4131080" lon="-4.7848520">
        <ele>834.1</ele>
        <time>2021-07-22T17:44:44Z</time>
      </trkpt>
      <trkpt lat="40.4131470" lon="-4.7847270">
        <ele>834.1</ele>
        <time>2021-07-22T17:44:46Z</time>
      </trkpt>
      <trkpt lat="40.4131590" lon="-4.7845830">
        <ele>834.1</ele>
        <time>2021-07-22T17:44:48Z</time>
      </trkpt>
      <trkpt lat="40.4131510" lon="-4.7845090">
        <ele>834.2</ele>
        <time>2021-07-22T17:44:49Z</time>
      </trkpt>
      <trkpt lat="40.4130850" lon="-4.7843640">
        <ele>834.2</ele>
        <time>2021-07-22T17:44:51Z</time>
      </trkpt>
      <trkpt lat="40.4130090" lon="-4.7842440">
        <ele>834.3</ele>
        <time>2021-07-22T17:44:53Z</time>
      </trkpt>
      <trkpt lat="40.4129550" lon="-4.7841480">
        <ele>834.4</ele>
        <time>2021-07-22T17:44:55Z</time>
      </trkpt>
      <trkpt lat="40.4129050" lon="-4.7840600">
        <ele>834.4</ele>
        <time>2021-07-22T17:44:57Z</time>
      </trkpt>
      <trkpt lat="40.4128800" lon="-4.7840190">
        <ele>834.4</ele>
        <time>2021-07-22T17:44:58Z</time>
      </trkpt>
      <trkpt lat="40.4128130" lon="-4.7839040">
        <ele>834.5</ele>
        <time>2021-07-22T17:45:00Z</time>
      </trkpt>
      <trkpt lat="40.4127890" lon="-4.7838710">
        <ele>834.5</ele>
        <time>2021-07-22T17:45:01Z</time>
      </trkpt>
      <trkpt lat="40.4127510" lon="-4.7838310">
        <ele>834.6</ele>
        <time>2021-07-22T17:45:03Z</time>
      </trkpt>
      <trkpt lat="40.4127210" lon="-4.7837810">
        <ele>834.6</ele>
        <time>2021-07-22T17:45:04Z</time>
      </trkpt>
      <trkpt lat="40.4126790" lon="-4.7836750">
        <ele>834.7</ele>
        <time>2021-07-22T17:45:06Z</time>
      </trkpt>
      <trkpt lat="40.4126410" lon="-4.7836140">
        <ele>834.8</ele>
        <time>2021-07-22T17:45:07Z</time>
      </trkpt>
      <trkpt lat="40.4125980" lon="-4.7835530">
        <ele>834.8</ele>
        <time>2021-07-22T17:45:08Z</time>
      </trkpt>
      <trkpt lat="40.4125490" lon="-4.7834890">
        <ele>834.9</ele>
        <time>2021-07-22T17:45:09Z</time>
      </trkpt>
      <trkpt lat="40.4124640" lon="-4.7833630">
        <ele>835.2</ele>
        <time>2021-07-22T17:45:11Z</time>
      </trkpt>
      <trkpt lat="40.4123770" lon="-4.7832330">
        <ele>835.6</ele>
        <time>2021-07-22T17:45:13Z</time>
      </trkpt>
      <trkpt lat="40.4123390" lon="-4.7831670">
        <ele>835.8</ele>
        <time>2021-07-22T17:45:14Z</time>
      </trkpt>
      <trkpt lat="40.4122580" lon="-4.7830470">
        <ele>836.2</ele>
        <time>2021-07-22T17:45:16Z</time>
      </trkpt>
      <trkpt lat="40.4122000" lon="-4.7829280">
        <ele>836.6</ele>
        <time>2021-07-22T17:45:18Z</time>
      </trkpt>
      <trkpt lat="40.4121720" lon="-4.7828800">
        <ele>836.7</ele>
        <time>2021-07-22T17:45:19Z</time>
      </trkpt>
      <trkpt lat="40.4121440" lon="-4.7828410">
        <ele>836.9</ele>
        <time>2021-07-22T17:45:20Z</time>
      </trkpt>
      <trkpt lat="40.4121060" lon="-4.7827800">
        <ele>837.1</ele>
        <time>2021-07-22T17:45:22Z</time>
      </trkpt>
      <trkpt lat="40.4120820" lon="-4.7827460">
        <ele>837.2</ele>
        <time>2021-07-22T17:45:23Z</time>
      </trkpt>
      <trkpt lat="40.4120500" lon="-4.7827050">
        <ele>837.3</ele>
        <time>2021-07-22T17:45:24Z</time>
      </trkpt>
      <trkpt lat="40.4119730" lon="-4.7826020">
        <ele>837.5</ele>
        <time>2021-07-22T17:45:26Z</time>
      </trkpt>
      <trkpt lat="40.4118930" lon="-4.7825000">
        <ele>837.8</ele>
        <time>2021-07-22T17:45:28Z</time>
      </trkpt>
      <trkpt lat="40.4118540" lon="-4.7824490">
        <ele>838.0</ele>
        <time>2021-07-22T17:45:29Z</time>
      </trkpt>
      <trkpt lat="40.4118130" lon="-4.7823920">
        <ele>838.2</ele>
        <time>2021-07-22T17:45:30Z</time>
      </trkpt>
      <trkpt lat="40.4117430" lon="-4.7822630">
        <ele>838.5</ele>
        <time>2021-07-22T17:45:32Z</time>
      </trkpt>
      <trkpt lat="40.4116940" lon="-4.7821220">
        <ele>838.8</ele>
        <time>2021-07-22T17:45:34Z</time>
      </trkpt>
      <trkpt lat="40.4116720" lon="-4.7820470">
        <ele>838.8</ele>
        <time>2021-07-22T17:45:35Z</time>
      </trkpt>
      <trkpt lat="40.4116430" lon="-4.7818940">
        <ele>838.8</ele>
        <time>2021-07-22T17:45:37Z</time>
      </trkpt>
      <trkpt lat="40.4116340" lon="-4.7818140">
        <ele>838.8</ele>
        <time>2021-07-22T17:45:38Z</time>
      </trkpt>
      <trkpt lat="40.4116330" lon="-4.7816540">
        <ele>838.6</ele>
        <time>2021-07-22T17:45:40Z</time>
      </trkpt>
      <trkpt lat="40.4116370" lon="-4.7815700">
        <ele>838.4</ele>
        <time>2021-07-22T17:45:41Z</time>
      </trkpt>
      <trkpt lat="40.4116360" lon="-4.7813920">
        <ele>837.8</ele>
        <time>2021-07-22T17:45:43Z</time>
      </trkpt>
      <trkpt lat="40.4116270" lon="-4.7811920">
        <ele>837.1</ele>
        <time>2021-07-22T17:45:45Z</time>
      </trkpt>
      <trkpt lat="40.4116220" lon="-4.7810800">
        <ele>836.7</ele>
        <time>2021-07-22T17:45:46Z</time>
      </trkpt>
      <trkpt lat="40.4116140" lon="-4.7809650">
        <ele>836.2</ele>
        <time>2021-07-22T17:45:47Z</time>
      </trkpt>
      <trkpt lat="40.4115840" lon="-4.7807280">
        <ele>835.3</ele>
        <time>2021-07-22T17:45:49Z</time>
      </trkpt>
      <trkpt lat="40.4115530" lon="-4.7804840">
        <ele>834.2</ele>
        <time>2021-07-22T17:45:51Z</time>
      </trkpt>
      <trkpt lat="40.4115360" lon="-4.7803580">
        <ele>833.7</ele>
        <time>2021-07-22T17:45:52Z</time>
      </trkpt>
      <trkpt lat="40.4115100" lon="-4.7800980">
        <ele>832.7</ele>
        <time>2021-07-22T17:45:54Z</time>
      </trkpt>
      <trkpt lat="40.4114890" lon="-4.7798360">
        <ele>831.7</ele>
        <time>2021-07-22T17:45:56Z</time>
      </trkpt>
      <trkpt lat="40.4114760" lon="-4.7796920">
        <ele>831.0</ele>
        <time>2021-07-22T17:45:57Z</time>
      </trkpt>
      <trkpt lat="40.4114800" lon="-4.7795500">
        <ele>830.5</ele>
        <time>2021-07-22T17:45:58Z</time>
      </trkpt>
      <trkpt lat="40.4115010" lon="-4.7792520">
        <ele>829.2</ele>
        <time>2021-07-22T17:46:00Z</time>
      </trkpt>
      <trkpt lat="40.4115220" lon="-4.7789490">
        <ele>827.9</ele>
        <time>2021-07-22T17:46:02Z</time>
      </trkpt>
      <trkpt lat="40.4115520" lon="-4.7786420">
        <ele>826.4</ele>
        <time>2021-07-22T17:46:04Z</time>
      </trkpt>
      <trkpt lat="40.4115660" lon="-4.7784850">
        <ele>825.6</ele>
        <time>2021-07-22T17:46:05Z</time>
      </trkpt>
      <trkpt lat="40.4115860" lon="-4.7781630">
        <ele>824.1</ele>
        <time>2021-07-22T17:46:07Z</time>
      </trkpt>
      <trkpt lat="40.4116000" lon="-4.7780010">
        <ele>823.4</ele>
        <time>2021-07-22T17:46:08Z</time>
      </trkpt>
      <trkpt lat="40.4116280" lon="-4.7776730">
        <ele>822.0</ele>
        <time>2021-07-22T17:46:10Z</time>
      </trkpt>
      <trkpt lat="40.4116370" lon="-4.7775050">
        <ele>821.4</ele>
        <time>2021-07-22T17:46:11Z</time>
      </trkpt>
      <trkpt lat="40.4116470" lon="-4.7773370">
        <ele>820.8</ele>
        <time>2021-07-22T17:46:12Z</time>
      </trkpt>
      <trkpt lat="40.4116600" lon="-4.7771680">
        <ele>820.3</ele>
        <time>2021-07-22T17:46:13Z</time>
      </trkpt>
      <trkpt lat="40.4116810" lon="-4.7768370">
        <ele>819.3</ele>
        <time>2021-07-22T17:46:15Z</time>
      </trkpt>
      <trkpt lat="40.4116970" lon="-4.7766730">
        <ele>818.9</ele>
        <time>2021-07-22T17:46:16Z</time>
      </trkpt>
      <trkpt lat="40.4117290" lon="-4.7763480">
        <ele>818.4</ele>
        <time>2021-07-22T17:46:18Z</time>
      </trkpt>
      <trkpt lat="40.4117530" lon="-4.7760330">
        <ele>817.9</ele>
        <time>2021-07-22T17:46:20Z</time>
      </trkpt>
      <trkpt lat="40.4117650" lon="-4.7758780">
        <ele>817.6</ele>
        <time>2021-07-22T17:46:21Z</time>
      </trkpt>
      <trkpt lat="40.4117820" lon="-4.7757250">
        <ele>817.4</ele>
        <time>2021-07-22T17:46:22Z</time>
      </trkpt>
      <trkpt lat="40.4117970" lon="-4.7755690">
        <ele>817.2</ele>
        <time>2021-07-22T17:46:23Z</time>
      </trkpt>
      <trkpt lat="40.4118070" lon="-4.7754060">
        <ele>817.1</ele>
        <time>2021-07-22T17:46:24Z</time>
      </trkpt>
      <trkpt lat="40.4118280" lon="-4.7750820">
        <ele>817.1</ele>
        <time>2021-07-22T17:46:26Z</time>
      </trkpt>
      <trkpt lat="40.4118310" lon="-4.7749140">
        <ele>817.1</ele>
        <time>2021-07-22T17:46:27Z</time>
      </trkpt>
      <trkpt lat="40.4118130" lon="-4.7745870">
        <ele>817.1</ele>
        <time>2021-07-22T17:46:29Z</time>
      </trkpt>
      <trkpt lat="40.4117740" lon="-4.7742760">
        <ele>817.2</ele>
        <time>2021-07-22T17:46:31Z</time>
      </trkpt>
      <trkpt lat="40.4117550" lon="-4.7741240">
        <ele>817.3</ele>
        <time>2021-07-22T17:46:32Z</time>
      </trkpt>
      <trkpt lat="40.4117200" lon="-4.7738310">
        <ele>817.7</ele>
        <time>2021-07-22T17:46:34Z</time>
      </trkpt>
      <trkpt lat="40.4117000" lon="-4.7736820">
        <ele>818.1</ele>
        <time>2021-07-22T17:46:35Z</time>
      </trkpt>
      <trkpt lat="40.4116720" lon="-4.7735350">
        <ele>818.5</ele>
        <time>2021-07-22T17:46:36Z</time>
      </trkpt>
      <trkpt lat="40.4116250" lon="-4.7732580">
        <ele>819.3</ele>
        <time>2021-07-22T17:46:38Z</time>
      </trkpt>
      <trkpt lat="40.4116050" lon="-4.7731260">
        <ele>819.8</ele>
        <time>2021-07-22T17:46:39Z</time>
      </trkpt>
      <trkpt lat="40.4115900" lon="-4.7729970">
        <ele>820.3</ele>
        <time>2021-07-22T17:46:40Z</time>
      </trkpt>
      <trkpt lat="40.4115560" lon="-4.7727420">
        <ele>821.2</ele>
        <time>2021-07-22T17:46:42Z</time>
      </trkpt>
      <trkpt lat="40.4115300" lon="-4.7724800">
        <ele>822.2</ele>
        <time>2021-07-22T17:46:44Z</time>
      </trkpt>
      <trkpt lat="40.4115210" lon="-4.7723480">
        <ele>822.7</ele>
        <time>2021-07-22T17:46:45Z</time>
      </trkpt>
      <trkpt lat="40.4115080" lon="-4.7720850">
        <ele>823.6</ele>
        <time>2021-07-22T17:46:47Z</time>
      </trkpt>
      <trkpt lat="40.4115120" lon="-4.7719550">
        <ele>823.9</ele>
        <time>2021-07-22T17:46:48Z</time>
      </trkpt>
      <trkpt lat="40.4115240" lon="-4.7717090">
        <ele>824.6</ele>
        <time>2021-07-22T17:46:50Z</time>
      </trkpt>
      <trkpt lat="40.4115350" lon="-4.7715860">
        <ele>824.9</ele>
        <time>2021-07-22T17:46:51Z</time>
      </trkpt>
      <trkpt lat="40.4115490" lon="-4.7714620">
        <ele>825.3</ele>
        <time>2021-07-22T17:46:52Z</time>
      </trkpt>
      <trkpt lat="40.4115910" lon="-4.7712180">
        <ele>825.9</ele>
        <time>2021-07-22T17:46:54Z</time>
      </trkpt>
      <trkpt lat="40.4116450" lon="-4.7709970">
        <ele>826.6</ele>
        <time>2021-07-22T17:46:56Z</time>
      </trkpt>
      <trkpt lat="40.4117070" lon="-4.7707890">
        <ele>827.1</ele>
        <time>2021-07-22T17:46:58Z</time>
      </trkpt>
      <trkpt lat="40.4117810" lon="-4.7705900">
        <ele>827.4</ele>
        <time>2021-07-22T17:47:00Z</time>
      </trkpt>
      <trkpt lat="40.4118140" lon="-4.7704940">
        <ele>827.5</ele>
        <time>2021-07-22T17:47:01Z</time>
      </trkpt>
      <trkpt lat="40.4118870" lon="-4.7703010">
        <ele>827.6</ele>
        <time>2021-07-22T17:47:03Z</time>
      </trkpt>
      <trkpt lat="40.4119280" lon="-4.7702070">
        <ele>827.7</ele>
        <time>2021-07-22T17:47:04Z</time>
      </trkpt>
      <trkpt lat="40.4120150" lon="-4.7700210">
        <ele>827.7</ele>
        <time>2021-07-22T17:47:06Z</time>
      </trkpt>
      <trkpt lat="40.4120580" lon="-4.7699260">
        <ele>827.7</ele>
        <time>2021-07-22T17:47:07Z</time>
      </trkpt>
      <trkpt lat="40.4121380" lon="-4.7697270">
        <ele>827.6</ele>
        <time>2021-07-22T17:47:09Z</time>
      </trkpt>
      <trkpt lat="40.4121800" lon="-4.7696260">
        <ele>827.6</ele>
        <time>2021-07-22T17:47:10Z</time>
      </trkpt>
      <trkpt lat="40.4122590" lon="-4.7694170">
        <ele>827.5</ele>
        <time>2021-07-22T17:47:12Z</time>
      </trkpt>
      <trkpt lat="40.4122970" lon="-4.7693090">
        <ele>827.4</ele>
        <time>2021-07-22T17:47:13Z</time>
      </trkpt>
      <trkpt lat="40.4123270" lon="-4.7691980">
        <ele>827.4</ele>
        <time>2021-07-22T17:47:14Z</time>
      </trkpt>
      <trkpt lat="40.4123870" lon="-4.7689680">
        <ele>827.3</ele>
        <time>2021-07-22T17:47:16Z</time>
      </trkpt>
      <trkpt lat="40.4124370" lon="-4.7687350">
        <ele>827.3</ele>
        <time>2021-07-22T17:47:18Z</time>
      </trkpt>
      <trkpt lat="40.4124740" lon="-4.7685010">
        <ele>827.3</ele>
        <time>2021-07-22T17:47:20Z</time>
      </trkpt>
      <trkpt lat="40.4124920" lon="-4.7683820">
        <ele>827.3</ele>
        <time>2021-07-22T17:47:21Z</time>
      </trkpt>
      <trkpt lat="40.4125010" lon="-4.7682630">
        <ele>827.4</ele>
        <time>2021-07-22T17:47:22Z</time>
      </trkpt>
      <trkpt lat="40.4125250" lon="-4.7680400">
        <ele>827.4</ele>
        <time>2021-07-22T17:47:24Z</time>
      </trkpt>
      <trkpt lat="40.4125320" lon="-4.7679250">
        <ele>827.4</ele>
        <time>2021-07-22T17:47:25Z</time>
      </trkpt>
      <trkpt lat="40.4125390" lon="-4.7676900">
        <ele>827.3</ele>
        <time>2021-07-22T17:47:27Z</time>
      </trkpt>
      <trkpt lat="40.4125410" lon="-4.7674570">
        <ele>827.3</ele>
        <time>2021-07-22T17:47:29Z</time>
      </trkpt>
      <trkpt lat="40.4125390" lon="-4.7673410">
        <ele>827.3</ele>
        <time>2021-07-22T17:47:30Z</time>
      </trkpt>
      <trkpt lat="40.4125460" lon="-4.7671120">
        <ele>827.4</ele>
        <time>2021-07-22T17:47:32Z</time>
      </trkpt>
      <trkpt lat="40.4125510" lon="-4.7669970">
        <ele>827.4</ele>
        <time>2021-07-22T17:47:33Z</time>
      </trkpt>
      <trkpt lat="40.4125520" lon="-4.7667680">
        <ele>827.4</ele>
        <time>2021-07-22T17:47:35Z</time>
      </trkpt>
      <trkpt lat="40.4125550" lon="-4.7666530">
        <ele>827.5</ele>
        <time>2021-07-22T17:47:36Z</time>
      </trkpt>
      <trkpt lat="40.4125600" lon="-4.7664290">
        <ele>827.5</ele>
        <time>2021-07-22T17:47:38Z</time>
      </trkpt>
      <trkpt lat="40.4125670" lon="-4.7662070">
        <ele>827.4</ele>
        <time>2021-07-22T17:47:40Z</time>
      </trkpt>
      <trkpt lat="40.4125710" lon="-4.7660970">
        <ele>827.4</ele>
        <time>2021-07-22T17:47:41Z</time>
      </trkpt>
      <trkpt lat="40.4125710" lon="-4.7658680">
        <ele>827.4</ele>
        <time>2021-07-22T17:47:43Z</time>
      </trkpt>
      <trkpt lat="40.4125600" lon="-4.7656370">
        <ele>827.6</ele>
        <time>2021-07-22T17:47:45Z</time>
      </trkpt>
      <trkpt lat="40.4125520" lon="-4.7655230">
        <ele>827.7</ele>
        <time>2021-07-22T17:47:46Z</time>
      </trkpt>
      <trkpt lat="40.4125470" lon="-4.7654090">
        <ele>827.8</ele>
        <time>2021-07-22T17:47:47Z</time>
      </trkpt>
      <trkpt lat="40.4125300" lon="-4.7651890">
        <ele>828.0</ele>
        <time>2021-07-22T17:47:49Z</time>
      </trkpt>
      <trkpt lat="40.4124970" lon="-4.7649780">
        <ele>828.2</ele>
        <time>2021-07-22T17:47:51Z</time>
      </trkpt>
      <trkpt lat="40.4124760" lon="-4.7648780">
        <ele>828.3</ele>
        <time>2021-07-22T17:47:52Z</time>
      </trkpt>
      <trkpt lat="40.4124310" lon="-4.7646870">
        <ele>828.6</ele>
        <time>2021-07-22T17:47:54Z</time>
      </trkpt>
      <trkpt lat="40.4123800" lon="-4.7645050">
        <ele>829.0</ele>
        <time>2021-07-22T17:47:56Z</time>
      </trkpt>
      <trkpt lat="40.4123510" lon="-4.7644150">
        <ele>829.1</ele>
        <time>2021-07-22T17:47:57Z</time>
      </trkpt>
      <trkpt lat="40.4123170" lon="-4.7643250">
        <ele>829.3</ele>
        <time>2021-07-22T17:47:58Z</time>
      </trkpt>
      <trkpt lat="40.4122550" lon="-4.7641600">
        <ele>829.7</ele>
        <time>2021-07-22T17:48:00Z</time>
      </trkpt>
      <trkpt lat="40.4122190" lon="-4.7640810">
        <ele>829.9</ele>
        <time>2021-07-22T17:48:01Z</time>
      </trkpt>
      <trkpt lat="40.4121490" lon="-4.7639270">
        <ele>830.3</ele>
        <time>2021-07-22T17:48:03Z</time>
      </trkpt>
      <trkpt lat="40.4120700" lon="-4.7637820">
        <ele>830.7</ele>
        <time>2021-07-22T17:48:05Z</time>
      </trkpt>
      <trkpt lat="40.4120020" lon="-4.7636280">
        <ele>831.0</ele>
        <time>2021-07-22T17:48:07Z</time>
      </trkpt>
      <trkpt lat="40.4119670" lon="-4.7635570">
        <ele>831.2</ele>
        <time>2021-07-22T17:48:08Z</time>
      </trkpt>
      <trkpt lat="40.4119000" lon="-4.7634110">
        <ele>831.6</ele>
        <time>2021-07-22T17:48:10Z</time>
      </trkpt>
      <trkpt lat="40.4118660" lon="-4.7633380">
        <ele>831.8</ele>
        <time>2021-07-22T17:48:11Z</time>
      </trkpt>
      <trkpt lat="40.4118320" lon="-4.7632650">
        <ele>832.0</ele>
        <time>2021-07-22T17:48:12Z</time>
      </trkpt>
      <trkpt lat="40.4117990" lon="-4.7631930">
        <ele>832.2</ele>
        <time>2021-07-22T17:48:13Z</time>
      </trkpt>
      <trkpt lat="40.4117310" lon="-4.7630500">
        <ele>832.6</ele>
        <time>2021-07-22T17:48:15Z</time>
      </trkpt>
      <trkpt lat="40.4116970" lon="-4.7629770">
        <ele>832.8</ele>
        <time>2021-07-22T17:48:16Z</time>
      </trkpt>
      <trkpt lat="40.4116640" lon="-4.7629050">
        <ele>832.9</ele>
        <time>2021-07-22T17:48:17Z</time>
      </trkpt>
      <trkpt lat="40.4116290" lon="-4.7628340">
        <ele>833.1</ele>
        <time>2021-07-22T17:48:18Z</time>
      </trkpt>
      <trkpt lat="40.4115940" lon="-4.7627650">
        <ele>833.2</ele>
        <time>2021-07-22T17:48:19Z</time>
      </trkpt>
      <trkpt lat="40.4115260" lon="-4.7626200">
        <ele>833.5</ele>
        <time>2021-07-22T17:48:21Z</time>
      </trkpt>
      <trkpt lat="40.4114570" lon="-4.7624690">
        <ele>833.8</ele>
        <time>2021-07-22T17:48:23Z</time>
      </trkpt>
      <trkpt lat="40.4113850" lon="-4.7623210">
        <ele>834.0</ele>
        <time>2021-07-22T17:48:25Z</time>
      </trkpt>
      <trkpt lat="40.4113170" lon="-4.7621740">
        <ele>834.2</ele>
        <time>2021-07-22T17:48:27Z</time>
      </trkpt>
      <trkpt lat="40.4112830" lon="-4.7620980">
        <ele>834.4</ele>
        <time>2021-07-22T17:48:28Z</time>
      </trkpt>
      <trkpt lat="40.4112110" lon="-4.7619480">
        <ele>834.6</ele>
        <time>2021-07-22T17:48:30Z</time>
      </trkpt>
      <trkpt lat="40.4111380" lon="-4.7618010">
        <ele>834.7</ele>
        <time>2021-07-22T17:48:32Z</time>
      </trkpt>
      <trkpt lat="40.4110590" lon="-4.7616510">
        <ele>834.9</ele>
        <time>2021-07-22T17:48:34Z</time>
      </trkpt>
      <trkpt lat="40.4110150" lon="-4.7615760">
        <ele>835.0</ele>
        <time>2021-07-22T17:48:35Z</time>
      </trkpt>
      <trkpt lat="40.4109350" lon="-4.7614280">
        <ele>835.2</ele>
        <time>2021-07-22T17:48:37Z</time>
      </trkpt>
      <trkpt lat="40.4108980" lon="-4.7613530">
        <ele>835.3</ele>
        <time>2021-07-22T17:48:38Z</time>
      </trkpt>
      <trkpt lat="40.4108600" lon="-4.7612750">
        <ele>835.3</ele>
        <time>2021-07-22T17:48:39Z</time>
      </trkpt>
      <trkpt lat="40.4107870" lon="-4.7611150">
        <ele>835.4</ele>
        <time>2021-07-22T17:48:41Z</time>
      </trkpt>
      <trkpt lat="40.4107480" lon="-4.7610370">
        <ele>835.5</ele>
        <time>2021-07-22T17:48:42Z</time>
      </trkpt>
      <trkpt lat="40.4107130" lon="-4.7609580">
        <ele>835.6</ele>
        <time>2021-07-22T17:48:43Z</time>
      </trkpt>
      <trkpt lat="40.4106780" lon="-4.7608760">
        <ele>835.6</ele>
        <time>2021-07-22T17:48:44Z</time>
      </trkpt>
      <trkpt lat="40.4106060" lon="-4.7607120">
        <ele>835.7</ele>
        <time>2021-07-22T17:48:46Z</time>
      </trkpt>
      <trkpt lat="40.4105750" lon="-4.7606300">
        <ele>835.7</ele>
        <time>2021-07-22T17:48:47Z</time>
      </trkpt>
      <trkpt lat="40.4104990" lon="-4.7604650">
        <ele>835.8</ele>
        <time>2021-07-22T17:48:49Z</time>
      </trkpt>
      <trkpt lat="40.4104590" lon="-4.7603800">
        <ele>835.9</ele>
        <time>2021-07-22T17:48:50Z</time>
      </trkpt>
      <trkpt lat="40.4104220" lon="-4.7602940">
        <ele>836.0</ele>
        <time>2021-07-22T17:48:51Z</time>
      </trkpt>
      <trkpt lat="40.4103840" lon="-4.7602110">
        <ele>836.0</ele>
        <time>2021-07-22T17:48:52Z</time>
      </trkpt>
      <trkpt lat="40.4103470" lon="-4.7601280">
        <ele>836.1</ele>
        <time>2021-07-22T17:48:53Z</time>
      </trkpt>
      <trkpt lat="40.4103120" lon="-4.7600440">
        <ele>836.1</ele>
        <time>2021-07-22T17:48:54Z</time>
      </trkpt>
      <trkpt lat="40.4102390" lon="-4.7598740">
        <ele>836.2</ele>
        <time>2021-07-22T17:48:56Z</time>
      </trkpt>
      <trkpt lat="40.4102060" lon="-4.7597860">
        <ele>836.3</ele>
        <time>2021-07-22T17:48:57Z</time>
      </trkpt>
      <trkpt lat="40.4101780" lon="-4.7597020">
        <ele>836.4</ele>
        <time>2021-07-22T17:48:58Z</time>
      </trkpt>
      <trkpt lat="40.4101200" lon="-4.7595320">
        <ele>836.6</ele>
        <time>2021-07-22T17:49:00Z</time>
      </trkpt>
      <trkpt lat="40.4100660" lon="-4.7593560">
        <ele>836.7</ele>
        <time>2021-07-22T17:49:02Z</time>
      </trkpt>
      <trkpt lat="40.4100180" lon="-4.7591750">
        <ele>836.8</ele>
        <time>2021-07-22T17:49:04Z</time>
      </trkpt>
      <trkpt lat="40.4099960" lon="-4.7590800">
        <ele>836.9</ele>
        <time>2021-07-22T17:49:05Z</time>
      </trkpt>
      <trkpt lat="40.4099680" lon="-4.7588930">
        <ele>836.9</ele>
        <time>2021-07-22T17:49:07Z</time>
      </trkpt>
      <trkpt lat="40.4099580" lon="-4.7588010">
        <ele>837.0</ele>
        <time>2021-07-22T17:49:08Z</time>
      </trkpt>
      <trkpt lat="40.4099340" lon="-4.7586070">
        <ele>837.1</ele>
        <time>2021-07-22T17:49:10Z</time>
      </trkpt>
      <trkpt lat="40.4099310" lon="-4.7585070">
        <ele>837.1</ele>
        <time>2021-07-22T17:49:11Z</time>
      </trkpt>
      <trkpt lat="40.4099240" lon="-4.7583080">
        <ele>837.0</ele>
        <time>2021-07-22T17:49:13Z</time>
      </trkpt>
      <trkpt lat="40.4099300" lon="-4.7581090">
        <ele>836.9</ele>
        <time>2021-07-22T17:49:15Z</time>
      </trkpt>
      <trkpt lat="40.4099300" lon="-4.7580050">
        <ele>836.8</ele>
        <time>2021-07-22T17:49:16Z</time>
      </trkpt>
      <trkpt lat="40.4099330" lon="-4.7579000">
        <ele>836.6</ele>
        <time>2021-07-22T17:49:17Z</time>
      </trkpt>
      <trkpt lat="40.4099390" lon="-4.7577910">
        <ele>836.4</ele>
        <time>2021-07-22T17:49:18Z</time>
      </trkpt>
      <trkpt lat="40.4099480" lon="-4.7576800">
        <ele>836.3</ele>
        <time>2021-07-22T17:49:19Z</time>
      </trkpt>
      <trkpt lat="40.4099760" lon="-4.7574550">
        <ele>835.8</ele>
        <time>2021-07-22T17:49:21Z</time>
      </trkpt>
      <trkpt lat="40.4099960" lon="-4.7573340">
        <ele>835.5</ele>
        <time>2021-07-22T17:49:22Z</time>
      </trkpt>
      <trkpt lat="40.4100430" lon="-4.7570890">
        <ele>834.8</ele>
        <time>2021-07-22T17:49:24Z</time>
      </trkpt>
      <trkpt lat="40.4101000" lon="-4.7568370">
        <ele>834.0</ele>
        <time>2021-07-22T17:49:26Z</time>
      </trkpt>
      <trkpt lat="40.4101550" lon="-4.7565750">
        <ele>833.2</ele>
        <time>2021-07-22T17:49:28Z</time>
      </trkpt>
      <trkpt lat="40.4102140" lon="-4.7563120">
        <ele>832.3</ele>
        <time>2021-07-22T17:49:30Z</time>
      </trkpt>
      <trkpt lat="40.4102480" lon="-4.7561770">
        <ele>831.9</ele>
        <time>2021-07-22T17:49:31Z</time>
      </trkpt>
      <trkpt lat="40.4103060" lon="-4.7559030">
        <ele>831.0</ele>
        <time>2021-07-22T17:49:33Z</time>
      </trkpt>
      <trkpt lat="40.4103590" lon="-4.7556290">
        <ele>829.9</ele>
        <time>2021-07-22T17:49:35Z</time>
      </trkpt>
      <trkpt lat="40.4103910" lon="-4.7554890">
        <ele>829.4</ele>
        <time>2021-07-22T17:49:36Z</time>
      </trkpt>
      <trkpt lat="40.4104250" lon="-4.7553490">
        <ele>828.8</ele>
        <time>2021-07-22T17:49:37Z</time>
      </trkpt>
      <trkpt lat="40.4104530" lon="-4.7552060">
        <ele>828.3</ele>
        <time>2021-07-22T17:49:38Z</time>
      </trkpt>
      <trkpt lat="40.4104880" lon="-4.7549110">
        <ele>827.1</ele>
        <time>2021-07-22T17:49:40Z</time>
      </trkpt>
      <trkpt lat="40.4105280" lon="-4.7546110">
        <ele>826.0</ele>
        <time>2021-07-22T17:49:42Z</time>
      </trkpt>
      <trkpt lat="40.4105790" lon="-4.7543090">
        <ele>824.7</ele>
        <time>2021-07-22T17:49:44Z</time>
      </trkpt>
      <trkpt lat="40.4106020" lon="-4.7541540">
        <ele>824.0</ele>
        <time>2021-07-22T17:49:45Z</time>
      </trkpt>
      <trkpt lat="40.4106420" lon="-4.7538420">
        <ele>822.5</ele>
        <time>2021-07-22T17:49:47Z</time>
      </trkpt>
      <trkpt lat="40.4106670" lon="-4.7535180">
        <ele>821.0</ele>
        <time>2021-07-22T17:49:49Z</time>
      </trkpt>
      <trkpt lat="40.4106770" lon="-4.7531940">
        <ele>819.6</ele>
        <time>2021-07-22T17:49:51Z</time>
      </trkpt>
      <trkpt lat="40.4106810" lon="-4.7530290">
        <ele>818.9</ele>
        <time>2021-07-22T17:49:52Z</time>
      </trkpt>
      <trkpt lat="40.4106880" lon="-4.7526970">
        <ele>817.5</ele>
        <time>2021-07-22T17:49:54Z</time>
      </trkpt>
      <trkpt lat="40.4106910" lon="-4.7525310">
        <ele>816.8</ele>
        <time>2021-07-22T17:49:55Z</time>
      </trkpt>
      <trkpt lat="40.4106920" lon="-4.7521980">
        <ele>815.4</ele>
        <time>2021-07-22T17:49:57Z</time>
      </trkpt>
      <trkpt lat="40.4106940" lon="-4.7520290">
        <ele>814.7</ele>
        <time>2021-07-22T17:49:58Z</time>
      </trkpt>
      <trkpt lat="40.4106900" lon="-4.7516910">
        <ele>813.3</ele>
        <time>2021-07-22T17:50:00Z</time>
      </trkpt>
      <trkpt lat="40.4106820" lon="-4.7515200">
        <ele>812.5</ele>
        <time>2021-07-22T17:50:01Z</time>
      </trkpt>
      <trkpt lat="40.4106550" lon="-4.7511820">
        <ele>811.0</ele>
        <time>2021-07-22T17:50:03Z</time>
      </trkpt>
      <trkpt lat="40.4106440" lon="-4.7510150">
        <ele>810.2</ele>
        <time>2021-07-22T17:50:04Z</time>
      </trkpt>
      <trkpt lat="40.4106280" lon="-4.7508480">
        <ele>809.4</ele>
        <time>2021-07-22T17:50:05Z</time>
      </trkpt>
      <trkpt lat="40.4105810" lon="-4.7505130">
        <ele>808.0</ele>
        <time>2021-07-22T17:50:07Z</time>
      </trkpt>
      <trkpt lat="40.4105580" lon="-4.7503450">
        <ele>807.4</ele>
        <time>2021-07-22T17:50:08Z</time>
      </trkpt>
      <trkpt lat="40.4105130" lon="-4.7500090">
        <ele>806.3</ele>
        <time>2021-07-22T17:50:10Z</time>
      </trkpt>
      <trkpt lat="40.4104620" lon="-4.7496780">
        <ele>805.8</ele>
        <time>2021-07-22T17:50:12Z</time>
      </trkpt>
      <trkpt lat="40.4104250" lon="-4.7493650">
        <ele>805.5</ele>
        <time>2021-07-22T17:50:14Z</time>
      </trkpt>
      <trkpt lat="40.4103800" lon="-4.7490710">
        <ele>805.2</ele>
        <time>2021-07-22T17:50:16Z</time>
      </trkpt>
      <trkpt lat="40.4103610" lon="-4.7489300">
        <ele>804.9</ele>
        <time>2021-07-22T17:50:17Z</time>
      </trkpt>
      <trkpt lat="40.4103050" lon="-4.7486430">
        <ele>804.0</ele>
        <time>2021-07-22T17:50:19Z</time>
      </trkpt>
      <trkpt lat="40.4102560" lon="-4.7483530">
        <ele>802.9</ele>
        <time>2021-07-22T17:50:21Z</time>
      </trkpt>
      <trkpt lat="40.4102300" lon="-4.7482060">
        <ele>802.3</ele>
        <time>2021-07-22T17:50:22Z</time>
      </trkpt>
      <trkpt lat="40.4101830" lon="-4.7479030">
        <ele>801.1</ele>
        <time>2021-07-22T17:50:24Z</time>
      </trkpt>
      <trkpt lat="40.4101350" lon="-4.7475990">
        <ele>799.9</ele>
        <time>2021-07-22T17:50:26Z</time>
      </trkpt>
      <trkpt lat="40.4101140" lon="-4.7474450">
        <ele>799.2</ele>
        <time>2021-07-22T17:50:27Z</time>
      </trkpt>
      <trkpt lat="40.4100890" lon="-4.7472940">
        <ele>798.6</ele>
        <time>2021-07-22T17:50:28Z</time>
      </trkpt>
      <trkpt lat="40.4100400" lon="-4.7469850">
        <ele>797.1</ele>
        <time>2021-07-22T17:50:30Z</time>
      </trkpt>
      <trkpt lat="40.4100190" lon="-4.7468290">
        <ele>796.3</ele>
        <time>2021-07-22T17:50:31Z</time>
      </trkpt>
      <trkpt lat="40.4099720" lon="-4.7465130">
        <ele>794.8</ele>
        <time>2021-07-22T17:50:33Z</time>
      </trkpt>
      <trkpt lat="40.4099320" lon="-4.7461940">
        <ele>793.5</ele>
        <time>2021-07-22T17:50:35Z</time>
      </trkpt>
      <trkpt lat="40.4098850" lon="-4.7458730">
        <ele>792.7</ele>
        <time>2021-07-22T17:50:37Z</time>
      </trkpt>
      <trkpt lat="40.4098610" lon="-4.7457130">
        <ele>792.3</ele>
        <time>2021-07-22T17:50:38Z</time>
      </trkpt>
      <trkpt lat="40.4098370" lon="-4.7455550">
        <ele>792.1</ele>
        <time>2021-07-22T17:50:39Z</time>
      </trkpt>
      <trkpt lat="40.4097890" lon="-4.7452490">
        <ele>791.8</ele>
        <time>2021-07-22T17:50:41Z</time>
      </trkpt>
      <trkpt lat="40.4097700" lon="-4.7451010">
        <ele>791.7</ele>
        <time>2021-07-22T17:50:42Z</time>
      </trkpt>
      <trkpt lat="40.4097230" lon="-4.7448190">
        <ele>791.5</ele>
        <time>2021-07-22T17:50:44Z</time>
      </trkpt>
      <trkpt lat="40.4096940" lon="-4.7445540">
        <ele>791.5</ele>
        <time>2021-07-22T17:50:46Z</time>
      </trkpt>
      <trkpt lat="40.4096750" lon="-4.7444220">
        <ele>791.5</ele>
        <time>2021-07-22T17:50:47Z</time>
      </trkpt>
      <trkpt lat="40.4096590" lon="-4.7442910">
        <ele>791.4</ele>
        <time>2021-07-22T17:50:48Z</time>
      </trkpt>
      <trkpt lat="40.4096240" lon="-4.7440380">
        <ele>791.4</ele>
        <time>2021-07-22T17:50:50Z</time>
      </trkpt>
      <trkpt lat="40.4096090" lon="-4.7439130">
        <ele>791.5</ele>
        <time>2021-07-22T17:50:51Z</time>
      </trkpt>
      <trkpt lat="40.4095950" lon="-4.7437910">
        <ele>791.5</ele>
        <time>2021-07-22T17:50:52Z</time>
      </trkpt>
      <trkpt lat="40.4095770" lon="-4.7436710">
        <ele>791.4</ele>
        <time>2021-07-22T17:50:53Z</time>
      </trkpt>
      <trkpt lat="40.4095420" lon="-4.7434370">
        <ele>791.1</ele>
        <time>2021-07-22T17:50:55Z</time>
      </trkpt>
      <trkpt lat="40.4095250" lon="-4.7433180">
        <ele>790.9</ele>
        <time>2021-07-22T17:50:56Z</time>
      </trkpt>
      <trkpt lat="40.4095080" lon="-4.7431950">
        <ele>790.7</ele>
        <time>2021-07-22T17:50:57Z</time>
      </trkpt>
      <trkpt lat="40.4094890" lon="-4.7430720">
        <ele>790.4</ele>
        <time>2021-07-22T17:50:58Z</time>
      </trkpt>
      <trkpt lat="40.4094590" lon="-4.7428250">
        <ele>789.8</ele>
        <time>2021-07-22T17:51:00Z</time>
      </trkpt>
      <trkpt lat="40.4094480" lon="-4.7427000">
        <ele>789.6</ele>
        <time>2021-07-22T17:51:01Z</time>
      </trkpt>
      <trkpt lat="40.4094360" lon="-4.7425720">
        <ele>789.3</ele>
        <time>2021-07-22T17:51:02Z</time>
      </trkpt>
      <trkpt lat="40.4094150" lon="-4.7423230">
        <ele>788.8</ele>
        <time>2021-07-22T17:51:04Z</time>
      </trkpt>
      <trkpt lat="40.4094070" lon="-4.7421910">
        <ele>788.5</ele>
        <time>2021-07-22T17:51:05Z</time>
      </trkpt>
      <trkpt lat="40.4094030" lon="-4.7420570">
        <ele>788.2</ele>
        <time>2021-07-22T17:51:06Z</time>
      </trkpt>
      <trkpt lat="40.4094070" lon="-4.7417820">
        <ele>787.5</ele>
        <time>2021-07-22T17:51:08Z</time>
      </trkpt>
      <trkpt lat="40.4094130" lon="-4.7416400">
        <ele>787.1</ele>
        <time>2021-07-22T17:51:09Z</time>
      </trkpt>
      <trkpt lat="40.4094250" lon="-4.7413580">
        <ele>786.4</ele>
        <time>2021-07-22T17:51:11Z</time>
      </trkpt>
      <trkpt lat="40.4094360" lon="-4.7410730">
        <ele>785.6</ele>
        <time>2021-07-22T17:51:13Z</time>
      </trkpt>
      <trkpt lat="40.4094430" lon="-4.7407910">
        <ele>784.9</ele>
        <time>2021-07-22T17:51:15Z</time>
      </trkpt>
      <trkpt lat="40.4094510" lon="-4.7406500">
        <ele>784.6</ele>
        <time>2021-07-22T17:51:16Z</time>
      </trkpt>
      <trkpt lat="40.4094580" lon="-4.7405050">
        <ele>784.2</ele>
        <time>2021-07-22T17:51:17Z</time>
      </trkpt>
      <trkpt lat="40.4094710" lon="-4.7402220">
        <ele>783.4</ele>
        <time>2021-07-22T17:51:19Z</time>
      </trkpt>
      <trkpt lat="40.4094890" lon="-4.7399370">
        <ele>782.6</ele>
        <time>2021-07-22T17:51:21Z</time>
      </trkpt>
      <trkpt lat="40.4094960" lon="-4.7397920">
        <ele>782.2</ele>
        <time>2021-07-22T17:51:22Z</time>
      </trkpt>
      <trkpt lat="40.4094990" lon="-4.7396450">
        <ele>781.8</ele>
        <time>2021-07-22T17:51:23Z</time>
      </trkpt>
      <trkpt lat="40.4095090" lon="-4.7393540">
        <ele>781.0</ele>
        <time>2021-07-22T17:51:25Z</time>
      </trkpt>
      <trkpt lat="40.4095140" lon="-4.7392020">
        <ele>780.7</ele>
        <time>2021-07-22T17:51:26Z</time>
      </trkpt>
      <trkpt lat="40.4095210" lon="-4.7390530">
        <ele>780.4</ele>
        <time>2021-07-22T17:51:27Z</time>
      </trkpt>
      <trkpt lat="40.4095270" lon="-4.7389050">
        <ele>780.1</ele>
        <time>2021-07-22T17:51:28Z</time>
      </trkpt>
      <trkpt lat="40.4095300" lon="-4.7387600">
        <ele>779.9</ele>
        <time>2021-07-22T17:51:29Z</time>
      </trkpt>
      <trkpt lat="40.4095290" lon="-4.7386160">
        <ele>779.7</ele>
        <time>2021-07-22T17:51:30Z</time>
      </trkpt>
      <trkpt lat="40.4095390" lon="-4.7383350">
        <ele>779.6</ele>
        <time>2021-07-22T17:51:32Z</time>
      </trkpt>
      <trkpt lat="40.4095470" lon="-4.7381960">
        <ele>779.5</ele>
        <time>2021-07-22T17:51:33Z</time>
      </trkpt>
      <trkpt lat="40.4095710" lon="-4.7379260">
        <ele>779.5</ele>
        <time>2021-07-22T17:51:35Z</time>
      </trkpt>
      <trkpt lat="40.4095750" lon="-4.7377900">
        <ele>779.5</ele>
        <time>2021-07-22T17:51:36Z</time>
      </trkpt>
      <trkpt lat="40.4095840" lon="-4.7375140">
        <ele>779.6</ele>
        <time>2021-07-22T17:51:38Z</time>
      </trkpt>
      <trkpt lat="40.4095910" lon="-4.7373750">
        <ele>779.6</ele>
        <time>2021-07-22T17:51:39Z</time>
      </trkpt>
      <trkpt lat="40.4096020" lon="-4.7371140">
        <ele>779.8</ele>
        <time>2021-07-22T17:51:41Z</time>
      </trkpt>
      <trkpt lat="40.4096120" lon="-4.7368530">
        <ele>780.1</ele>
        <time>2021-07-22T17:51:43Z</time>
      </trkpt>
      <trkpt lat="40.4096130" lon="-4.7366040">
        <ele>780.6</ele>
        <time>2021-07-22T17:51:45Z</time>
      </trkpt>
      <trkpt lat="40.4096240" lon="-4.7363590">
        <ele>781.0</ele>
        <time>2021-07-22T17:51:47Z</time>
      </trkpt>
      <trkpt lat="40.4096270" lon="-4.7361210">
        <ele>781.5</ele>
        <time>2021-07-22T17:51:49Z</time>
      </trkpt>
      <trkpt lat="40.4096290" lon="-4.7360020">
        <ele>781.7</ele>
        <time>2021-07-22T17:51:50Z</time>
      </trkpt>
      <trkpt lat="40.4096320" lon="-4.7357730">
        <ele>782.2</ele>
        <time>2021-07-22T17:51:52Z</time>
      </trkpt>
      <trkpt lat="40.4096330" lon="-4.7356590">
        <ele>782.5</ele>
        <time>2021-07-22T17:51:53Z</time>
      </trkpt>
      <trkpt lat="40.4096380" lon="-4.7355470">
        <ele>782.7</ele>
        <time>2021-07-22T17:51:54Z</time>
      </trkpt>
      <trkpt lat="40.4096420" lon="-4.7354390">
        <ele>782.9</ele>
        <time>2021-07-22T17:51:55Z</time>
      </trkpt>
      <trkpt lat="40.4096520" lon="-4.7352270">
        <ele>783.4</ele>
        <time>2021-07-22T17:51:57Z</time>
      </trkpt>
      <trkpt lat="40.4096580" lon="-4.7351220">
        <ele>783.6</ele>
        <time>2021-07-22T17:51:58Z</time>
      </trkpt>
      <trkpt lat="40.4096610" lon="-4.7349170">
        <ele>784.0</ele>
        <time>2021-07-22T17:52:00Z</time>
      </trkpt>
      <trkpt lat="40.4096650" lon="-4.7347050">
        <ele>784.4</ele>
        <time>2021-07-22T17:52:02Z</time>
      </trkpt>
      <trkpt lat="40.4096690" lon="-4.7345990">
        <ele>784.6</ele>
        <time>2021-07-22T17:52:03Z</time>
      </trkpt>
      <trkpt lat="40.4096760" lon="-4.7343980">
        <ele>784.9</ele>
        <time>2021-07-22T17:52:05Z</time>
      </trkpt>
      <trkpt lat="40.4096780" lon="-4.7342990">
        <ele>785.1</ele>
        <time>2021-07-22T17:52:06Z</time>
      </trkpt>
      <trkpt lat="40.4096860" lon="-4.7341040">
        <ele>785.5</ele>
        <time>2021-07-22T17:52:08Z</time>
      </trkpt>
      <trkpt lat="40.4096980" lon="-4.7339210">
        <ele>785.8</ele>
        <time>2021-07-22T17:52:10Z</time>
      </trkpt>
      <trkpt lat="40.4097030" lon="-4.7337340">
        <ele>786.2</ele>
        <time>2021-07-22T17:52:12Z</time>
      </trkpt>
      <trkpt lat="40.4097150" lon="-4.7335500">
        <ele>786.5</ele>
        <time>2021-07-22T17:52:14Z</time>
      </trkpt>
      <trkpt lat="40.4097210" lon="-4.7334590">
        <ele>786.7</ele>
        <time>2021-07-22T17:52:15Z</time>
      </trkpt>
      <trkpt lat="40.4097290" lon="-4.7333690">
        <ele>786.9</ele>
        <time>2021-07-22T17:52:16Z</time>
      </trkpt>
      <trkpt lat="40.4097440" lon="-4.7331830">
        <ele>787.2</ele>
        <time>2021-07-22T17:52:18Z</time>
      </trkpt>
      <trkpt lat="40.4097530" lon="-4.7330910">
        <ele>787.4</ele>
        <time>2021-07-22T17:52:19Z</time>
      </trkpt>
      <trkpt lat="40.4097610" lon="-4.7329200">
        <ele>787.8</ele>
        <time>2021-07-22T17:52:21Z</time>
      </trkpt>
      <trkpt lat="40.4097640" lon="-4.7327450">
        <ele>788.1</ele>
        <time>2021-07-22T17:52:23Z</time>
      </trkpt>
      <trkpt lat="40.4097640" lon="-4.7326530">
        <ele>788.3</ele>
        <time>2021-07-22T17:52:24Z</time>
      </trkpt>
      <trkpt lat="40.4097660" lon="-4.7324770">
        <ele>788.7</ele>
        <time>2021-07-22T17:52:26Z</time>
      </trkpt>
      <trkpt lat="40.4097690" lon="-4.7323900">
        <ele>788.8</ele>
        <time>2021-07-22T17:52:27Z</time>
      </trkpt>
      <trkpt lat="40.4097760" lon="-4.7322130">
        <ele>789.1</ele>
        <time>2021-07-22T17:52:29Z</time>
      </trkpt>
      <trkpt lat="40.4097790" lon="-4.7321230">
        <ele>789.3</ele>
        <time>2021-07-22T17:52:30Z</time>
      </trkpt>
      <trkpt lat="40.4097840" lon="-4.7320340">
        <ele>789.5</ele>
        <time>2021-07-22T17:52:31Z</time>
      </trkpt>
      <trkpt lat="40.4097840" lon="-4.7318650">
        <ele>789.8</ele>
        <time>2021-07-22T17:52:33Z</time>
      </trkpt>
      <trkpt lat="40.4097910" lon="-4.7317800">
        <ele>790.0</ele>
        <time>2021-07-22T17:52:34Z</time>
      </trkpt>
      <trkpt lat="40.4098000" lon="-4.7316920">
        <ele>790.1</ele>
        <time>2021-07-22T17:52:35Z</time>
      </trkpt>
      <trkpt lat="40.4098020" lon="-4.7316010">
        <ele>790.3</ele>
        <time>2021-07-22T17:52:36Z</time>
      </trkpt>
      <trkpt lat="40.4098080" lon="-4.7314280">
        <ele>790.5</ele>
        <time>2021-07-22T17:52:38Z</time>
      </trkpt>
      <trkpt lat="40.4098140" lon="-4.7312560">
        <ele>790.8</ele>
        <time>2021-07-22T17:52:40Z</time>
      </trkpt>
      <trkpt lat="40.4098160" lon="-4.7311670">
        <ele>790.8</ele>
        <time>2021-07-22T17:52:41Z</time>
      </trkpt>
      <trkpt lat="40.4098220" lon="-4.7309870">
        <ele>790.9</ele>
        <time>2021-07-22T17:52:43Z</time>
      </trkpt>
      <trkpt lat="40.4098350" lon="-4.7308030">
        <ele>790.7</ele>
        <time>2021-07-22T17:52:45Z</time>
      </trkpt>
      <trkpt lat="40.4098460" lon="-4.7306070">
        <ele>790.5</ele>
        <time>2021-07-22T17:52:47Z</time>
      </trkpt>
      <trkpt lat="40.4098540" lon="-4.7305050">
        <ele>790.4</ele>
        <time>2021-07-22T17:52:48Z</time>
      </trkpt>
      <trkpt lat="40.4098710" lon="-4.7302980">
        <ele>790.1</ele>
        <time>2021-07-22T17:52:50Z</time>
      </trkpt>
      <trkpt lat="40.4098770" lon="-4.7301890">
        <ele>789.9</ele>
        <time>2021-07-22T17:52:51Z</time>
      </trkpt>
      <trkpt lat="40.4098830" lon="-4.7300780">
        <ele>789.7</ele>
        <time>2021-07-22T17:52:52Z</time>
      </trkpt>
      <trkpt lat="40.4099050" lon="-4.7298600">
        <ele>789.4</ele>
        <time>2021-07-22T17:52:54Z</time>
      </trkpt>
      <trkpt lat="40.4099120" lon="-4.7297480">
        <ele>789.3</ele>
        <time>2021-07-22T17:52:55Z</time>
      </trkpt>
      <trkpt lat="40.4099220" lon="-4.7296350">
        <ele>789.1</ele>
        <time>2021-07-22T17:52:56Z</time>
      </trkpt>
      <trkpt lat="40.4099400" lon="-4.7294030">
        <ele>788.8</ele>
        <time>2021-07-22T17:52:58Z</time>
      </trkpt>
      <trkpt lat="40.4099460" lon="-4.7292860">
        <ele>788.6</ele>
        <time>2021-07-22T17:52:59Z</time>
      </trkpt>
      <trkpt lat="40.4099580" lon="-4.7290480">
        <ele>788.3</ele>
        <time>2021-07-22T17:53:01Z</time>
      </trkpt>
      <trkpt lat="40.4099730" lon="-4.7288050">
        <ele>788.0</ele>
        <time>2021-07-22T17:53:03Z</time>
      </trkpt>
      <trkpt lat="40.4099830" lon="-4.7286810">
        <ele>787.7</ele>
        <time>2021-07-22T17:53:04Z</time>
      </trkpt>
      <trkpt lat="40.4099910" lon="-4.7284300">
        <ele>787.3</ele>
        <time>2021-07-22T17:53:06Z</time>
      </trkpt>
      <trkpt lat="40.4099960" lon="-4.7283030">
        <ele>787.2</ele>
        <time>2021-07-22T17:53:07Z</time>
      </trkpt>
      <trkpt lat="40.4100030" lon="-4.7281750">
        <ele>787.0</ele>
        <time>2021-07-22T17:53:08Z</time>
      </trkpt>
      <trkpt lat="40.4100110" lon="-4.7280460">
        <ele>786.8</ele>
        <time>2021-07-22T17:53:09Z</time>
      </trkpt>
      <trkpt lat="40.4100370" lon="-4.7277990">
        <ele>786.4</ele>
        <time>2021-07-22T17:53:11Z</time>
      </trkpt>
      <trkpt lat="40.4100440" lon="-4.7276720">
        <ele>786.2</ele>
        <time>2021-07-22T17:53:12Z</time>
      </trkpt>
      <trkpt lat="40.4100490" lon="-4.7275450">
        <ele>786.0</ele>
        <time>2021-07-22T17:53:13Z</time>
      </trkpt>
      <trkpt lat="40.4100550" lon="-4.7272890">
        <ele>785.6</ele>
        <time>2021-07-22T17:53:15Z</time>
      </trkpt>
      <trkpt lat="40.4100640" lon="-4.7270240">
        <ele>785.2</ele>
        <time>2021-07-22T17:53:17Z</time>
      </trkpt>
      <trkpt lat="40.4100820" lon="-4.7267600">
        <ele>784.8</ele>
        <time>2021-07-22T17:53:19Z</time>
      </trkpt>
      <trkpt lat="40.4100990" lon="-4.7264940">
        <ele>784.3</ele>
        <time>2021-07-22T17:53:21Z</time>
      </trkpt>
      <trkpt lat="40.4101090" lon="-4.7262250">
        <ele>783.8</ele>
        <time>2021-07-22T17:53:23Z</time>
      </trkpt>
      <trkpt lat="40.4101170" lon="-4.7260880">
        <ele>783.5</ele>
        <time>2021-07-22T17:53:24Z</time>
      </trkpt>
      <trkpt lat="40.4101240" lon="-4.7259510">
        <ele>783.2</ele>
        <time>2021-07-22T17:53:25Z</time>
      </trkpt>
      <trkpt lat="40.4101390" lon="-4.7256780">
        <ele>782.5</ele>
        <time>2021-07-22T17:53:27Z</time>
      </trkpt>
      <trkpt lat="40.4101580" lon="-4.7253940">
        <ele>781.9</ele>
        <time>2021-07-22T17:53:29Z</time>
      </trkpt>
      <trkpt lat="40.4101750" lon="-4.7251020">
        <ele>781.2</ele>
        <time>2021-07-22T17:53:31Z</time>
      </trkpt>
      <trkpt lat="40.4101860" lon="-4.7249510">
        <ele>781.0</ele>
        <time>2021-07-22T17:53:32Z</time>
      </trkpt>
      <trkpt lat="40.4101920" lon="-4.7248020">
        <ele>780.8</ele>
        <time>2021-07-22T17:53:33Z</time>
      </trkpt>
      <trkpt lat="40.4102140" lon="-4.7245010">
        <ele>780.4</ele>
        <time>2021-07-22T17:53:35Z</time>
      </trkpt>
      <trkpt lat="40.4102240" lon="-4.7243510">
        <ele>780.2</ele>
        <time>2021-07-22T17:53:36Z</time>
      </trkpt>
      <trkpt lat="40.4102350" lon="-4.7240520">
        <ele>779.7</ele>
        <time>2021-07-22T17:53:38Z</time>
      </trkpt>
      <trkpt lat="40.4102420" lon="-4.7239000">
        <ele>779.4</ele>
        <time>2021-07-22T17:53:39Z</time>
      </trkpt>
      <trkpt lat="40.4102510" lon="-4.7237470">
        <ele>779.2</ele>
        <time>2021-07-22T17:53:40Z</time>
      </trkpt>
      <trkpt lat="40.4102640" lon="-4.7234450">
        <ele>779.0</ele>
        <time>2021-07-22T17:53:42Z</time>
      </trkpt>
      <trkpt lat="40.4102700" lon="-4.7231440">
        <ele>779.0</ele>
        <time>2021-07-22T17:53:44Z</time>
      </trkpt>
      <trkpt lat="40.4102760" lon="-4.7228560">
        <ele>779.0</ele>
        <time>2021-07-22T17:53:46Z</time>
      </trkpt>
      <trkpt lat="40.4102840" lon="-4.7227090">
        <ele>779.0</ele>
        <time>2021-07-22T17:53:47Z</time>
      </trkpt>
      <trkpt lat="40.4102930" lon="-4.7225630">
        <ele>779.1</ele>
        <time>2021-07-22T17:53:48Z</time>
      </trkpt>
      <trkpt lat="40.4103170" lon="-4.7222740">
        <ele>779.1</ele>
        <time>2021-07-22T17:53:50Z</time>
      </trkpt>
      <trkpt lat="40.4103250" lon="-4.7221270">
        <ele>779.0</ele>
        <time>2021-07-22T17:53:51Z</time>
      </trkpt>
      <trkpt lat="40.4103300" lon="-4.7218330">
        <ele>779.0</ele>
        <time>2021-07-22T17:53:53Z</time>
      </trkpt>
      <trkpt lat="40.4103430" lon="-4.7215440">
        <ele>779.1</ele>
        <time>2021-07-22T17:53:55Z</time>
      </trkpt>
      <trkpt lat="40.4103540" lon="-4.7212660">
        <ele>779.2</ele>
        <time>2021-07-22T17:53:57Z</time>
      </trkpt>
      <trkpt lat="40.4103580" lon="-4.7211260">
        <ele>779.3</ele>
        <time>2021-07-22T17:53:58Z</time>
      </trkpt>
      <trkpt lat="40.4103680" lon="-4.7208500">
        <ele>779.3</ele>
        <time>2021-07-22T17:54:00Z</time>
      </trkpt>
      <trkpt lat="40.4103770" lon="-4.7205740">
        <ele>779.4</ele>
        <time>2021-07-22T17:54:02Z</time>
      </trkpt>
      <trkpt lat="40.4103800" lon="-4.7204360">
        <ele>779.4</ele>
        <time>2021-07-22T17:54:03Z</time>
      </trkpt>
      <trkpt lat="40.4103900" lon="-4.7201750">
        <ele>779.4</ele>
        <time>2021-07-22T17:54:05Z</time>
      </trkpt>
      <trkpt lat="40.4103920" lon="-4.7200430">
        <ele>779.4</ele>
        <time>2021-07-22T17:54:06Z</time>
      </trkpt>
      <trkpt lat="40.4103980" lon="-4.7197860">
        <ele>779.5</ele>
        <time>2021-07-22T17:54:08Z</time>
      </trkpt>
      <trkpt lat="40.4104060" lon="-4.7195400">
        <ele>779.5</ele>
        <time>2021-07-22T17:54:10Z</time>
      </trkpt>
      <trkpt lat="40.4104140" lon="-4.7192970">
        <ele>779.5</ele>
        <time>2021-07-22T17:54:12Z</time>
      </trkpt>
      <trkpt lat="40.4104200" lon="-4.7191790">
        <ele>779.5</ele>
        <time>2021-07-22T17:54:13Z</time>
      </trkpt>
      <trkpt lat="40.4104290" lon="-4.7190610">
        <ele>779.4</ele>
        <time>2021-07-22T17:54:14Z</time>
      </trkpt>
      <trkpt lat="40.4104480" lon="-4.7188340">
        <ele>779.3</ele>
        <time>2021-07-22T17:54:16Z</time>
      </trkpt>
      <trkpt lat="40.4104650" lon="-4.7186080">
        <ele>779.2</ele>
        <time>2021-07-22T17:54:18Z</time>
      </trkpt>
      <trkpt lat="40.4104780" lon="-4.7183820">
        <ele>779.0</ele>
        <time>2021-07-22T17:54:20Z</time>
      </trkpt>
      <trkpt lat="40.4104840" lon="-4.7181560">
        <ele>778.9</ele>
        <time>2021-07-22T17:54:22Z</time>
      </trkpt>
      <trkpt lat="40.4104950" lon="-4.7180470">
        <ele>778.8</ele>
        <time>2021-07-22T17:54:23Z</time>
      </trkpt>
      <trkpt lat="40.4105100" lon="-4.7178320">
        <ele>778.5</ele>
        <time>2021-07-22T17:54:25Z</time>
      </trkpt>
      <trkpt lat="40.4105140" lon="-4.7177240">
        <ele>778.4</ele>
        <time>2021-07-22T17:54:26Z</time>
      </trkpt>
      <trkpt lat="40.4105250" lon="-4.7175030">
        <ele>778.3</ele>
        <time>2021-07-22T17:54:28Z</time>
      </trkpt>
      <trkpt lat="40.4105150" lon="-4.7172990">
        <ele>778.0</ele>
        <time>2021-07-22T17:54:30Z</time>
      </trkpt>
      <trkpt lat="40.4104210" lon="-4.7171340">
        <ele>776.9</ele>
        <time>2021-07-22T17:54:32Z</time>
      </trkpt>
      <trkpt lat="40.4103700" lon="-4.7170430">
        <ele>776.4</ele>
        <time>2021-07-22T17:54:33Z</time>
      </trkpt>
      <trkpt lat="40.4102860" lon="-4.7168470">
        <ele>775.7</ele>
        <time>2021-07-22T17:54:35Z</time>
      </trkpt>
      <trkpt lat="40.4102130" lon="-4.7166470">
        <ele>775.5</ele>
        <time>2021-07-22T17:54:37Z</time>
      </trkpt>
      <trkpt lat="40.4101860" lon="-4.7165500">
        <ele>775.5</ele>
        <time>2021-07-22T17:54:38Z</time>
      </trkpt>
      <trkpt lat="40.4101250" lon="-4.7163610">
        <ele>775.3</ele>
        <time>2021-07-22T17:54:40Z</time>
      </trkpt>
      <trkpt lat="40.4100920" lon="-4.7162690">
        <ele>775.2</ele>
        <time>2021-07-22T17:54:41Z</time>
      </trkpt>
      <trkpt lat="40.4100630" lon="-4.7161800">
        <ele>775.1</ele>
        <time>2021-07-22T17:54:42Z</time>
      </trkpt>
      <trkpt lat="40.4100110" lon="-4.7160140">
        <ele>774.8</ele>
        <time>2021-07-22T17:54:44Z</time>
      </trkpt>
      <trkpt lat="40.4099540" lon="-4.7158500">
        <ele>774.4</ele>
        <time>2021-07-22T17:54:46Z</time>
      </trkpt>
      <trkpt lat="40.4099300" lon="-4.7157680">
        <ele>774.2</ele>
        <time>2021-07-22T17:54:47Z</time>
      </trkpt>
      <trkpt lat="40.4099120" lon="-4.7156890">
        <ele>774.0</ele>
        <time>2021-07-22T17:54:48Z</time>
      </trkpt>
      <trkpt lat="40.4098950" lon="-4.7156100">
        <ele>773.8</ele>
        <time>2021-07-22T17:54:49Z</time>
      </trkpt>
      <trkpt lat="40.4098550" lon="-4.7154400">
        <ele>773.4</ele>
        <time>2021-07-22T17:54:51Z</time>
      </trkpt>
      <trkpt lat="40.4098360" lon="-4.7153490">
        <ele>773.1</ele>
        <time>2021-07-22T17:54:52Z</time>
      </trkpt>
      <trkpt lat="40.4098000" lon="-4.7151630">
        <ele>772.7</ele>
        <time>2021-07-22T17:54:54Z</time>
      </trkpt>
      <trkpt lat="40.4097530" lon="-4.7149780">
        <ele>772.3</ele>
        <time>2021-07-22T17:54:56Z</time>
      </trkpt>
      <trkpt lat="40.4097170" lon="-4.7147850">
        <ele>772.1</ele>
        <time>2021-07-22T17:54:58Z</time>
      </trkpt>
      <trkpt lat="40.4096840" lon="-4.7145990">
        <ele>771.9</ele>
        <time>2021-07-22T17:55:00Z</time>
      </trkpt>
      <trkpt lat="40.4096520" lon="-4.7144260">
        <ele>771.7</ele>
        <time>2021-07-22T17:55:02Z</time>
      </trkpt>
      <trkpt lat="40.4096460" lon="-4.7142440">
        <ele>771.5</ele>
        <time>2021-07-22T17:55:04Z</time>
      </trkpt>
      <trkpt lat="40.4096500" lon="-4.7140710">
        <ele>771.3</ele>
        <time>2021-07-22T17:55:06Z</time>
      </trkpt>
      <trkpt lat="40.4096520" lon="-4.7139840">
        <ele>771.1</ele>
        <time>2021-07-22T17:55:07Z</time>
      </trkpt>
      <trkpt lat="40.4096560" lon="-4.7138980">
        <ele>770.9</ele>
        <time>2021-07-22T17:55:08Z</time>
      </trkpt>
      <trkpt lat="40.4096610" lon="-4.7138160">
        <ele>770.7</ele>
        <time>2021-07-22T17:55:09Z</time>
      </trkpt>
      <trkpt lat="40.4096770" lon="-4.7137380">
        <ele>770.5</ele>
        <time>2021-07-22T17:55:10Z</time>
      </trkpt>
      <trkpt lat="40.4096900" lon="-4.7135780">
        <ele>770.0</ele>
        <time>2021-07-22T17:55:12Z</time>
      </trkpt>
      <trkpt lat="40.4096940" lon="-4.7134870">
        <ele>769.7</ele>
        <time>2021-07-22T17:55:13Z</time>
      </trkpt>
      <trkpt lat="40.4097020" lon="-4.7133930">
        <ele>769.3</ele>
        <time>2021-07-22T17:55:14Z</time>
      </trkpt>
      <trkpt lat="40.4097070" lon="-4.7132940">
        <ele>769.0</ele>
        <time>2021-07-22T17:55:15Z</time>
      </trkpt>
      <trkpt lat="40.4097140" lon="-4.7131910">
        <ele>768.7</ele>
        <time>2021-07-22T17:55:16Z</time>
      </trkpt>
      <trkpt lat="40.4097350" lon="-4.7129800">
        <ele>768.1</ele>
        <time>2021-07-22T17:55:18Z</time>
      </trkpt>
      <trkpt lat="40.4097700" lon="-4.7127840">
        <ele>767.6</ele>
        <time>2021-07-22T17:55:20Z</time>
      </trkpt>
      <trkpt lat="40.4097840" lon="-4.7126970">
        <ele>767.4</ele>
        <time>2021-07-22T17:55:21Z</time>
      </trkpt>
      <trkpt lat="40.4097750" lon="-4.7125410">
        <ele>767.1</ele>
        <time>2021-07-22T17:55:23Z</time>
      </trkpt>
      <trkpt lat="40.4097630" lon="-4.7124710">
        <ele>766.9</ele>
        <time>2021-07-22T17:55:24Z</time>
      </trkpt>
      <trkpt lat="40.4097610" lon="-4.7123950">
        <ele>766.6</ele>
        <time>2021-07-22T17:55:25Z</time>
      </trkpt>
      <trkpt lat="40.4097710" lon="-4.7123130">
        <ele>766.3</ele>
        <time>2021-07-22T17:55:26Z</time>
      </trkpt>
      <trkpt lat="40.4098250" lon="-4.7121520">
        <ele>765.9</ele>
        <time>2021-07-22T17:55:28Z</time>
      </trkpt>
      <trkpt lat="40.4099190" lon="-4.7120330">
        <ele>765.6</ele>
        <time>2021-07-22T17:55:30Z</time>
      </trkpt>
      <trkpt lat="40.4099660" lon="-4.7119720">
        <ele>765.5</ele>
        <time>2021-07-22T17:55:31Z</time>
      </trkpt>
      <trkpt lat="40.4100120" lon="-4.7119060">
        <ele>765.4</ele>
        <time>2021-07-22T17:55:32Z</time>
      </trkpt>
      <trkpt lat="40.4100970" lon="-4.7117840">
        <ele>765.2</ele>
        <time>2021-07-22T17:55:34Z</time>
      </trkpt>
      <trkpt lat="40.4101350" lon="-4.7117200">
        <ele>765.1</ele>
        <time>2021-07-22T17:55:35Z</time>
      </trkpt>
      <trkpt lat="40.4102040" lon="-4.7115760">
        <ele>765.0</ele>
        <time>2021-07-22T17:55:37Z</time>
      </trkpt>
      <trkpt lat="40.4102380" lon="-4.7114980">
        <ele>765.0</ele>
        <time>2021-07-22T17:55:38Z</time>
      </trkpt>
      <trkpt lat="40.4102680" lon="-4.7114190">
        <ele>765.0</ele>
        <time>2021-07-22T17:55:39Z</time>
      </trkpt>
      <trkpt lat="40.4103230" lon="-4.7112620">
        <ele>765.0</ele>
        <time>2021-07-22T17:55:41Z</time>
      </trkpt>
      <trkpt lat="40.4103910" lon="-4.7111390">
        <ele>765.1</ele>
        <time>2021-07-22T17:55:43Z</time>
      </trkpt>
      <trkpt lat="40.4104500" lon="-4.7110350">
        <ele>765.2</ele>
        <time>2021-07-22T17:55:45Z</time>
      </trkpt>
      <trkpt lat="40.4105060" lon="-4.7109360">
        <ele>765.2</ele>
        <time>2021-07-22T17:55:47Z</time>
      </trkpt>
      <trkpt lat="40.4105560" lon="-4.7108320">
        <ele>765.2</ele>
        <time>2021-07-22T17:55:49Z</time>
      </trkpt>
      <trkpt lat="40.4105830" lon="-4.7107770">
        <ele>765.2</ele>
        <time>2021-07-22T17:55:50Z</time>
      </trkpt>
      <trkpt lat="40.4106140" lon="-4.7107280">
        <ele>765.2</ele>
        <time>2021-07-22T17:55:51Z</time>
      </trkpt>
      <trkpt lat="40.4106430" lon="-4.7106810">
        <ele>765.2</ele>
        <time>2021-07-22T17:55:52Z</time>
      </trkpt>
      <trkpt lat="40.4106710" lon="-4.7106340">
        <ele>765.2</ele>
        <time>2021-07-22T17:55:53Z</time>
      </trkpt>
      <trkpt lat="40.4107130" lon="-4.7105650">
        <ele>765.1</ele>
        <time>2021-07-22T17:55:55Z</time>
      </trkpt>
      <trkpt lat="40.4107530" lon="-4.7105160">
        <ele>765.1</ele>
        <time>2021-07-22T17:55:57Z</time>
      </trkpt>
      <trkpt lat="40.4107710" lon="-4.7105090">
        <ele>765.1</ele>
        <time>2021-07-22T17:55:58Z</time>
      </trkpt>
      <trkpt lat="40.4107920" lon="-4.7105160">
        <ele>765.1</ele>
        <time>2021-07-22T17:56:00Z</time>
      </trkpt>
      <trkpt lat="40.4107990" lon="-4.7105230">
        <ele>765.1</ele>
        <time>2021-07-22T17:56:01Z</time>
      </trkpt>
      <trkpt lat="40.4107910" lon="-4.7105280">
        <ele>765.1</ele>
        <time>2021-07-22T17:56:03Z</time>
      </trkpt>
      <trkpt lat="40.4107830" lon="-4.7105350">
        <ele>765.1</ele>
        <time>2021-07-22T17:56:05Z</time>
      </trkpt>
      <trkpt lat="40.4107810" lon="-4.7105390">
        <ele>765.1</ele>
        <time>2021-07-22T17:56:07Z</time>
      </trkpt>
      <trkpt lat="40.4107830" lon="-4.7105430">
        <ele>765.1</ele>
        <time>2021-07-22T17:56:08Z</time>
      </trkpt>
      <trkpt lat="40.4107830" lon="-4.7105480">
        <ele>765.1</ele>
        <time>2021-07-22T17:56:09Z</time>
      </trkpt>
      <trkpt lat="40.4107830" lon="-4.7105530">
        <ele>765.1</ele>
        <time>2021-07-22T17:56:11Z</time>
      </trkpt>
      <trkpt lat="40.4107860" lon="-4.7105590">
        <ele>765.1</ele>
        <time>2021-07-22T17:56:12Z</time>
      </trkpt>
      <trkpt lat="40.4107860" lon="-4.7105590">
        <ele>765.1</ele>
        <time>2021-07-22T17:56:13Z</time>
      </trkpt>
      <trkpt lat="40.4107870" lon="-4.7105580">
        <ele>765.1</ele>
        <time>2021-07-22T17:56:14Z</time>
      </trkpt>
      <trkpt lat="40.4107900" lon="-4.7105570">
        <ele>765.1</ele>
        <time>2021-07-22T17:56:17Z</time>
      </trkpt>
      <trkpt lat="40.40991" lon="-4.71254">
        <ele>764.8</ele>
        <time>2021-07-22 17:34:07</time>
      </trkpt>
      <trkpt lat="40.40996" lon="-4.71282">
        <ele>765.2</ele>
        <time>2021-07-22 17:34:12</time>
      </trkpt>
      <trkpt lat="40.40996" lon="-4.71288">
        <ele>765.2</ele>
        <time>2021-07-22 17:34:13</time>
      </trkpt>
      <trkpt lat="40.40996" lon="-4.7131">
        <ele>765</ele>
        <time>2021-07-22 17:34:17</time>
      </trkpt>
      <trkpt lat="40.40996" lon="-4.71327">
        <ele>765.2</ele>
        <time>2021-07-22 17:34:20</time>
      </trkpt>
      <trkpt lat="40.40995" lon="-4.71359">
        <ele>765.8</ele>
        <time>2021-07-22 17:34:26</time>
      </trkpt>
      <trkpt lat="40.40994" lon="-4.71369">
        <ele>766.2</ele>
        <time>2021-07-22 17:34:28</time>
      </trkpt>
      <trkpt lat="40.40996" lon="-4.71385">
        <ele>766.8</ele>
        <time>2021-07-22 17:34:33</time>
      </trkpt>
      <trkpt lat="40.40999" lon="-4.71391">
        <ele>767.2</ele>
        <time>2021-07-22 17:34:35</time>
      </trkpt>
      <trkpt lat="40.41" lon="-4.71395">
        <ele>767.4</ele>
        <time>2021-07-22 17:34:36</time>
      </trkpt>
      <trkpt lat="40.41" lon="-4.71403">
        <ele>768</ele>
        <time>2021-07-22 17:34:38</time>
      </trkpt>
      <trkpt lat="40.41001" lon="-4.71407">
        <ele>768</ele>
        <time>2021-07-22 17:34:39</time>
      </trkpt>
      <trkpt lat="40.41002" lon="-4.71427">
        <ele>768.2</ele>
        <time>2021-07-22 17:34:43</time>
      </trkpt>
      <trkpt lat="40.41008" lon="-4.71461">
        <ele>768.6</ele>
        <time>2021-07-22 17:34:50</time>
      </trkpt>
      <trkpt lat="40.41011" lon="-4.71504">
        <ele>768.8</ele>
        <time>2021-07-22 17:34:58</time>
      </trkpt>
      <trkpt lat="40.41012" lon="-4.7151">
        <ele>768.8</ele>
        <time>2021-07-22 17:34:59</time>
      </trkpt>
      <trkpt lat="40.41018" lon="-4.71559">
        <ele>769.4</ele>
        <time>2021-07-22 17:35:08</time>
      </trkpt>
      <trkpt lat="40.41019" lon="-4.71576">
        <ele>769.8</ele>
        <time>2021-07-22 17:35:11</time>
      </trkpt>
      <trkpt lat="40.41022" lon="-4.71592">
        <ele>770.2</ele>
        <time>2021-07-22 17:35:14</time>
      </trkpt>
      <trkpt lat="40.41023" lon="-4.71603">
        <ele>770.8</ele>
        <time>2021-07-22 17:35:16</time>
      </trkpt>
      <trkpt lat="40.41024" lon="-4.71608">
        <ele>771</ele>
        <time>2021-07-22 17:35:17</time>
      </trkpt>
      <trkpt lat="40.41025" lon="-4.71619">
        <ele>771.4</ele>
        <time>2021-07-22 17:35:19</time>
      </trkpt>
      <trkpt lat="40.41029" lon="-4.71634">
        <ele>771.8</ele>
        <time>2021-07-22 17:35:22</time>
      </trkpt>
      <trkpt lat="40.41035" lon="-4.71662">
        <ele>772</ele>
        <time>2021-07-22 17:35:28</time>
      </trkpt>
      <trkpt lat="40.41036" lon="-4.71667">
        <ele>772</ele>
        <time>2021-07-22 17:35:29</time>
      </trkpt>
      <trkpt lat="40.41045" lon="-4.71703">
        <ele>772.4</ele>
        <time>2021-07-22 17:35:36</time>
      </trkpt>
      <trkpt lat="40.41058" lon="-4.71725">
        <ele>772.8</ele>
        <time>2021-07-22 17:35:42</time>
      </trkpt>
      <trkpt lat="40.41065" lon="-4.71738">
        <ele>773</ele>
        <time>2021-07-22 17:35:47</time>
      </trkpt>
      <trkpt lat="40.41065" lon="-4.71748">
        <ele>773</ele>
        <time>2021-07-22 17:35:49</time>
      </trkpt>
      <trkpt lat="40.41064" lon="-4.71759">
        <ele>773.4</ele>
        <time>2021-07-22 17:35:51</time>
      </trkpt>
      <trkpt lat="40.41063" lon="-4.71765">
        <ele>773.6</ele>
        <time>2021-07-22 17:35:52</time>
      </trkpt>
      <trkpt lat="40.41062" lon="-4.71782">
        <ele>774.2</ele>
        <time>2021-07-22 17:35:55</time>
      </trkpt>
      <trkpt lat="40.4106" lon="-4.71811">
        <ele>774.6</ele>
        <time>2021-07-22 17:36:00</time>
      </trkpt>
      <trkpt lat="40.41056" lon="-4.71853">
        <ele>774.8</ele>
        <time>2021-07-22 17:36:07</time>
      </trkpt>
      <trkpt lat="40.41052" lon="-4.71902">
        <ele>775.2</ele>
        <time>2021-07-22 17:36:15</time>
      </trkpt>
      <trkpt lat="40.41052" lon="-4.71908">
        <ele>775.2</ele>
        <time>2021-07-22 17:36:16</time>
      </trkpt>
      <trkpt lat="40.4105" lon="-4.71946">
        <ele>776.2</ele>
        <time>2021-07-22 17:36:22</time>
      </trkpt>
      <trkpt lat="40.41049" lon="-4.71953">
        <ele>776.4</ele>
        <time>2021-07-22 17:36:23</time>
      </trkpt>
      <trkpt lat="40.41046" lon="-4.72005">
        <ele>776.8</ele>
        <time>2021-07-22 17:36:30</time>
      </trkpt>
      <trkpt lat="40.41045" lon="-4.72061">
        <ele>777</ele>
        <time>2021-07-22 17:36:37</time>
      </trkpt>
      <trkpt lat="40.41044" lon="-4.72069">
        <ele>777</ele>
        <time>2021-07-22 17:36:38</time>
      </trkpt>
      <trkpt lat="40.4104" lon="-4.72132">
        <ele>777.2</ele>
        <time>2021-07-22 17:36:46</time>
      </trkpt>
      <trkpt lat="40.41036" lon="-4.72205">
        <ele>777.6</ele>
        <time>2021-07-22 17:36:55</time>
      </trkpt>
      <trkpt lat="40.41035" lon="-4.72213">
        <ele>777.6</ele>
        <time>2021-07-22 17:36:56</time>
      </trkpt>
      <trkpt lat="40.41035" lon="-4.72221">
        <ele>777.6</ele>
        <time>2021-07-22 17:36:57</time>
      </trkpt>
      <trkpt lat="40.41032" lon="-4.72275">
        <ele>777.8</ele>
        <time>2021-07-22 17:37:04</time>
      </trkpt>
      <trkpt lat="40.41028" lon="-4.72351">
        <ele>777.8</ele>
        <time>2021-07-22 17:37:14</time>
      </trkpt>
      <trkpt lat="40.41028" lon="-4.72359">
        <ele>777.8</ele>
        <time>2021-07-22 17:37:15</time>
      </trkpt>
      <trkpt lat="40.41025" lon="-4.72423">
        <ele>777.6</ele>
        <time>2021-07-22 17:37:24</time>
      </trkpt>
      <trkpt lat="40.41023" lon="-4.72467">
        <ele>777.6</ele>
        <time>2021-07-22 17:37:31</time>
      </trkpt>
      <trkpt lat="40.41022" lon="-4.7251">
        <ele>778</ele>
        <time>2021-07-22 17:37:38</time>
      </trkpt>
      <trkpt lat="40.41021" lon="-4.72523">
        <ele>778.2</ele>
        <time>2021-07-22 17:37:40</time>
      </trkpt>
      <trkpt lat="40.41016" lon="-4.72577">
        <ele>779.2</ele>
        <time>2021-07-22 17:37:49</time>
      </trkpt>
      <trkpt lat="40.41014" lon="-4.72623">
        <ele>780.4</ele>
        <time>2021-07-22 17:37:57</time>
      </trkpt>
      <trkpt lat="40.41013" lon="-4.72634">
        <ele>780.6</ele>
        <time>2021-07-22 17:37:59</time>
      </trkpt>
      <trkpt lat="40.41013" lon="-4.72657">
        <ele>781.2</ele>
        <time>2021-07-22 17:38:03</time>
      </trkpt>
      <trkpt lat="40.41012" lon="-4.72687">
        <ele>781.6</ele>
        <time>2021-07-22 17:38:08</time>
      </trkpt>
      <trkpt lat="40.41011" lon="-4.72705">
        <ele>781.6</ele>
        <time>2021-07-22 17:38:11</time>
      </trkpt>
      <trkpt lat="40.41008" lon="-4.72751">
        <ele>782.2</ele>
        <time>2021-07-22 17:38:19</time>
      </trkpt>
      <trkpt lat="40.41008" lon="-4.72763">
        <ele>782.6</ele>
        <time>2021-07-22 17:38:21</time>
      </trkpt>
      <trkpt lat="40.41007" lon="-4.72803">
        <ele>782.8</ele>
        <time>2021-07-22 17:38:28</time>
      </trkpt>
      <trkpt lat="40.41005" lon="-4.72845">
        <ele>783.4</ele>
        <time>2021-07-22 17:38:35</time>
      </trkpt>
      <trkpt lat="40.41005" lon="-4.72856">
        <ele>783.6</ele>
        <time>2021-07-22 17:38:37</time>
      </trkpt>
      <trkpt lat="40.41003" lon="-4.729">
        <ele>784.4</ele>
        <time>2021-07-22 17:38:45</time>
      </trkpt>
      <trkpt lat="40.41002" lon="-4.72911">
        <ele>784.8</ele>
        <time>2021-07-22 17:38:47</time>
      </trkpt>
      <trkpt lat="40.41001" lon="-4.72945">
        <ele>785.2</ele>
        <time>2021-07-22 17:38:53</time>
      </trkpt>
      <trkpt lat="40.41" lon="-4.72967">
        <ele>785.4</ele>
        <time>2021-07-22 17:38:57</time>
      </trkpt>
      <trkpt lat="40.41" lon="-4.72973">
        <ele>785.6</ele>
        <time>2021-07-22 17:38:58</time>
      </trkpt>
      <trkpt lat="40.40996" lon="-4.73037">
        <ele>786</ele>
        <time>2021-07-22 17:39:09</time>
      </trkpt>
      <trkpt lat="40.40993" lon="-4.7309">
        <ele>786.4</ele>
        <time>2021-07-22 17:39:18</time>
      </trkpt>
      <trkpt lat="40.40993" lon="-4.73102">
        <ele>786.6</ele>
        <time>2021-07-22 17:39:20</time>
      </trkpt>
      <trkpt lat="40.40991" lon="-4.73149">
        <ele>787.2</ele>
        <time>2021-07-22 17:39:27</time>
      </trkpt>
      <trkpt lat="40.40988" lon="-4.73211">
        <ele>787.2</ele>
        <time>2021-07-22 17:39:35</time>
      </trkpt>
      <trkpt lat="40.40987" lon="-4.73219">
        <ele>787.2</ele>
        <time>2021-07-22 17:39:36</time>
      </trkpt>
      <trkpt lat="40.40984" lon="-4.73286">
        <ele>786.6</ele>
        <time>2021-07-22 17:39:44</time>
      </trkpt>
      <trkpt lat="40.40983" lon="-4.73312">
        <ele>786.6</ele>
        <time>2021-07-22 17:39:47</time>
      </trkpt>
      <trkpt lat="40.40981" lon="-4.73347">
        <ele>785.8</ele>
        <time>2021-07-22 17:39:51</time>
      </trkpt>
      <trkpt lat="40.4098" lon="-4.73384">
        <ele>785.4</ele>
        <time>2021-07-22 17:39:55</time>
      </trkpt>
      <trkpt lat="40.40979" lon="-4.73393">
        <ele>785</ele>
        <time>2021-07-22 17:39:56</time>
      </trkpt>
      <trkpt lat="40.40977" lon="-4.73442">
        <ele>784.2</ele>
        <time>2021-07-22 17:40:01</time>
      </trkpt>
      <trkpt lat="40.40975" lon="-4.73492">
        <ele>783.8</ele>
        <time>2021-07-22 17:40:06</time>
      </trkpt>
      <trkpt lat="40.40972" lon="-4.73552">
        <ele>783.2</ele>
        <time>2021-07-22 17:40:12</time>
      </trkpt>
      <trkpt lat="40.4097" lon="-4.73584">
        <ele>782.8</ele>
        <time>2021-07-22 17:40:15</time>
      </trkpt>
      <trkpt lat="40.40968" lon="-4.73616">
        <ele>782.2</ele>
        <time>2021-07-22 17:40:18</time>
      </trkpt>
      <trkpt lat="40.40966" lon="-4.73669">
        <ele>781.6</ele>
        <time>2021-07-22 17:40:23</time>
      </trkpt>
      <trkpt lat="40.40964" lon="-4.73701">
        <ele>781.2</ele>
        <time>2021-07-22 17:40:26</time>
      </trkpt>
      <trkpt lat="40.40962" lon="-4.73752">
        <ele>780.2</ele>
        <time>2021-07-22 17:40:31</time>
      </trkpt>
      <trkpt lat="40.40962" lon="-4.73761">
        <ele>780</ele>
        <time>2021-07-22 17:40:32</time>
      </trkpt>
      <trkpt lat="40.40959" lon="-4.73827">
        <ele>779.4</ele>
        <time>2021-07-22 17:40:39</time>
      </trkpt>
      <trkpt lat="40.40957" lon="-4.73856">
        <ele>779</ele>
        <time>2021-07-22 17:40:42</time>
      </trkpt>
      <trkpt lat="40.40957" lon="-4.73865">
        <ele>779</ele>
        <time>2021-07-22 17:40:43</time>
      </trkpt>
      <trkpt lat="40.40954" lon="-4.73934">
        <ele>778.8</ele>
        <time>2021-07-22 17:40:51</time>
      </trkpt>
      <trkpt lat="40.40951" lon="-4.73988">
        <ele>779.2</ele>
        <time>2021-07-22 17:40:58</time>
      </trkpt>
      <trkpt lat="40.40951" lon="-4.73996">
        <ele>779.2</ele>
        <time>2021-07-22 17:40:59</time>
      </trkpt>
      <trkpt lat="40.4095" lon="-4.7403">
        <ele>780</ele>
        <time>2021-07-22 17:41:04</time>
      </trkpt>
      <trkpt lat="40.40949" lon="-4.74037">
        <ele>780.2</ele>
        <time>2021-07-22 17:41:05</time>
      </trkpt>
      <trkpt lat="40.40948" lon="-4.74051">
        <ele>780.6</ele>
        <time>2021-07-22 17:41:07</time>
      </trkpt>
      <trkpt lat="40.40946" lon="-4.74096">
        <ele>781.4</ele>
        <time>2021-07-22 17:41:14</time>
      </trkpt>
      <trkpt lat="40.40945" lon="-4.7412">
        <ele>782.2</ele>
        <time>2021-07-22 17:41:18</time>
      </trkpt>
      <trkpt lat="40.40944" lon="-4.74133">
        <ele>782.4</ele>
        <time>2021-07-22 17:41:20</time>
      </trkpt>
      <trkpt lat="40.40943" lon="-4.74158">
        <ele>782.6</ele>
        <time>2021-07-22 17:41:24</time>
      </trkpt>
      <trkpt lat="40.40943" lon="-4.74177">
        <ele>782.6</ele>
        <time>2021-07-22 17:41:27</time>
      </trkpt>
      <trkpt lat="40.40943" lon="-4.74209">
        <ele>783.4</ele>
        <time>2021-07-22 17:41:32</time>
      </trkpt>
      <trkpt lat="40.40943" lon="-4.74221">
        <ele>783.8</ele>
        <time>2021-07-22 17:41:34</time>
      </trkpt>
      <trkpt lat="40.40945" lon="-4.74246">
        <ele>784.4</ele>
        <time>2021-07-22 17:41:38</time>
      </trkpt>
      <trkpt lat="40.40947" lon="-4.74271">
        <ele>785.2</ele>
        <time>2021-07-22 17:41:42</time>
      </trkpt>
      <trkpt lat="40.40949" lon="-4.74283">
        <ele>785.6</ele>
        <time>2021-07-22 17:41:44</time>
      </trkpt>
      <trkpt lat="40.40955" lon="-4.74329">
        <ele>786.6</ele>
        <time>2021-07-22 17:41:52</time>
      </trkpt>
      <trkpt lat="40.40959" lon="-4.74358">
        <ele>787.4</ele>
        <time>2021-07-22 17:41:57</time>
      </trkpt>
      <trkpt lat="40.40961" lon="-4.7437">
        <ele>787.8</ele>
        <time>2021-07-22 17:41:59</time>
      </trkpt>
      <trkpt lat="40.4097" lon="-4.74429">
        <ele>788.4</ele>
        <time>2021-07-22 17:42:08</time>
      </trkpt>
      <trkpt lat="40.40979" lon="-4.74496">
        <ele>788.6</ele>
        <time>2021-07-22 17:42:18</time>
      </trkpt>
      <trkpt lat="40.40988" lon="-4.74559">
        <ele>788.6</ele>
        <time>2021-07-22 17:42:27</time>
      </trkpt>
      <trkpt lat="40.40996" lon="-4.74609">
        <ele>789.2</ele>
        <time>2021-07-22 17:42:35</time>
      </trkpt>
      <trkpt lat="40.40999" lon="-4.7463">
        <ele>789.4</ele>
        <time>2021-07-22 17:42:39</time>
      </trkpt>
      <trkpt lat="40.41002" lon="-4.74652">
        <ele>790</ele>
        <time>2021-07-22 17:42:44</time>
      </trkpt>
      <trkpt lat="40.41004" lon="-4.74664">
        <ele>790.6</ele>
        <time>2021-07-22 17:42:47</time>
      </trkpt>
      <trkpt lat="40.41005" lon="-4.74677">
        <ele>791.6</ele>
        <time>2021-07-22 17:42:50</time>
      </trkpt>
      <trkpt lat="40.41007" lon="-4.74684">
        <ele>792</ele>
        <time>2021-07-22 17:42:52</time>
      </trkpt>
      <trkpt lat="40.41008" lon="-4.74695">
        <ele>792.6</ele>
        <time>2021-07-22 17:42:55</time>
      </trkpt>
      <trkpt lat="40.41011" lon="-4.74713">
        <ele>793</ele>
        <time>2021-07-22 17:43:00</time>
      </trkpt>
      <trkpt lat="40.41015" lon="-4.74743">
        <ele>793.4</ele>
        <time>2021-07-22 17:43:08</time>
      </trkpt>
      <trkpt lat="40.41016" lon="-4.74746">
        <ele>793.6</ele>
        <time>2021-07-22 17:43:09</time>
      </trkpt>
      <trkpt lat="40.41019" lon="-4.74771">
        <ele>794.4</ele>
        <time>2021-07-22 17:43:16</time>
      </trkpt>
      <trkpt lat="40.4102" lon="-4.74783">
        <ele>794.8</ele>
        <time>2021-07-22 17:43:19</time>
      </trkpt>
      <trkpt lat="40.41024" lon="-4.74804">
        <ele>795.2</ele>
        <time>2021-07-22 17:43:24</time>
      </trkpt>
      <trkpt lat="40.41025" lon="-4.74816">
        <ele>796</ele>
        <time>2021-07-22 17:43:27</time>
      </trkpt>
      <trkpt lat="40.41028" lon="-4.74837">
        <ele>797.2</ele>
        <time>2021-07-22 17:43:32</time>
      </trkpt>
      <trkpt lat="40.41032" lon="-4.74863">
        <ele>798.4</ele>
        <time>2021-07-22 17:43:38</time>
      </trkpt>
      <trkpt lat="40.41034" lon="-4.74876">
        <ele>799</ele>
        <time>2021-07-22 17:43:41</time>
      </trkpt>
      <trkpt lat="40.41035" lon="-4.74885">
        <ele>799.4</ele>
        <time>2021-07-22 17:43:43</time>
      </trkpt>
      <trkpt lat="40.4104" lon="-4.74914">
        <ele>800.6</ele>
        <time>2021-07-22 17:43:49</time>
      </trkpt>
      <trkpt lat="40.41041" lon="-4.74924">
        <ele>800.8</ele>
        <time>2021-07-22 17:43:51</time>
      </trkpt>
      <trkpt lat="40.41049" lon="-4.74979">
        <ele>801.2</ele>
        <time>2021-07-22 17:44:01</time>
      </trkpt>
      <trkpt lat="40.41056" lon="-4.75025">
        <ele>801.4</ele>
        <time>2021-07-22 17:44:09</time>
      </trkpt>
      <trkpt lat="40.41057" lon="-4.75035">
        <ele>801.6</ele>
        <time>2021-07-22 17:44:11</time>
      </trkpt>
      <trkpt lat="40.4106" lon="-4.75058">
        <ele>802.2</ele>
        <time>2021-07-22 17:44:16</time>
      </trkpt>
      <trkpt lat="40.41061" lon="-4.75067">
        <ele>802.8</ele>
        <time>2021-07-22 17:44:18</time>
      </trkpt>
      <trkpt lat="40.41065" lon="-4.75092">
        <ele>804.2</ele>
        <time>2021-07-22 17:44:24</time>
      </trkpt>
      <trkpt lat="40.41066" lon="-4.75096">
        <ele>804.2</ele>
        <time>2021-07-22 17:44:25</time>
      </trkpt>
      <trkpt lat="40.4107" lon="-4.75124">
        <ele>805.2</ele>
        <time>2021-07-22 17:44:32</time>
      </trkpt>
      <trkpt lat="40.41071" lon="-4.75131">
        <ele>805.4</ele>
        <time>2021-07-22 17:44:34</time>
      </trkpt>
      <trkpt lat="40.41072" lon="-4.75147">
        <ele>806.4</ele>
        <time>2021-07-22 17:44:38</time>
      </trkpt>
      <trkpt lat="40.41073" lon="-4.75167">
        <ele>807.4</ele>
        <time>2021-07-22 17:44:43</time>
      </trkpt>
      <trkpt lat="40.41074" lon="-4.75195">
        <ele>808.4</ele>
        <time>2021-07-22 17:44:50</time>
      </trkpt>
      <trkpt lat="40.41074" lon="-4.75199">
        <ele>808.6</ele>
        <time>2021-07-22 17:44:51</time>
      </trkpt>
      <trkpt lat="40.41074" lon="-4.75222">
        <ele>809.4</ele>
        <time>2021-07-22 17:44:57</time>
      </trkpt>
      <trkpt lat="40.41074" lon="-4.75237">
        <ele>810</ele>
        <time>2021-07-22 17:45:01</time>
      </trkpt>
      <trkpt lat="40.41074" lon="-4.75245">
        <ele>810.6</ele>
        <time>2021-07-22 17:45:03</time>
      </trkpt>
      <trkpt lat="40.41073" lon="-4.75273">
        <ele>811.4</ele>
        <time>2021-07-22 17:45:10</time>
      </trkpt>
      <trkpt lat="40.41072" lon="-4.75282">
        <ele>811.6</ele>
        <time>2021-07-22 17:45:12</time>
      </trkpt>
      <trkpt lat="40.41071" lon="-4.75306">
        <ele>812.6</ele>
        <time>2021-07-22 17:45:18</time>
      </trkpt>
      <trkpt lat="40.41071" lon="-4.75315">
        <ele>812.8</ele>
        <time>2021-07-22 17:45:20</time>
      </trkpt>
      <trkpt lat="40.4107" lon="-4.7534">
        <ele>813.8</ele>
        <time>2021-07-22 17:45:26</time>
      </trkpt>
      <trkpt lat="40.41069" lon="-4.75352">
        <ele>814.4</ele>
        <time>2021-07-22 17:45:29</time>
      </trkpt>
      <trkpt lat="40.41069" lon="-4.75359">
        <ele>814.8</ele>
        <time>2021-07-22 17:45:31</time>
      </trkpt>
      <trkpt lat="40.41067" lon="-4.75387">
        <ele>816</ele>
        <time>2021-07-22 17:45:38</time>
      </trkpt>
      <trkpt lat="40.41065" lon="-4.7541">
        <ele>817</ele>
        <time>2021-07-22 17:45:44</time>
      </trkpt>
      <trkpt lat="40.41064" lon="-4.75418">
        <ele>817.2</ele>
        <time>2021-07-22 17:45:46</time>
      </trkpt>
      <trkpt lat="40.41061" lon="-4.75433">
        <ele>818</ele>
        <time>2021-07-22 17:45:50</time>
      </trkpt>
      <trkpt lat="40.41059" lon="-4.75448">
        <ele>818.8</ele>
        <time>2021-07-22 17:45:54</time>
      </trkpt>
      <trkpt lat="40.41057" lon="-4.75456">
        <ele>819</ele>
        <time>2021-07-22 17:45:56</time>
      </trkpt>
      <trkpt lat="40.41052" lon="-4.75479">
        <ele>820</ele>
        <time>2021-07-22 17:46:02</time>
      </trkpt>
      <trkpt lat="40.41051" lon="-4.75482">
        <ele>820.2</ele>
        <time>2021-07-22 17:46:03</time>
      </trkpt>
      <trkpt lat="40.41046" lon="-4.75511">
        <ele>821.2</ele>
        <time>2021-07-22 17:46:10</time>
      </trkpt>
      <trkpt lat="40.41045" lon="-4.75516">
        <ele>821.2</ele>
        <time>2021-07-22 17:46:11</time>
      </trkpt>
      <trkpt lat="40.4104" lon="-4.75543">
        <ele>822.2</ele>
        <time>2021-07-22 17:46:17</time>
      </trkpt>
      <trkpt lat="40.41038" lon="-4.75556">
        <ele>822.8</ele>
        <time>2021-07-22 17:46:20</time>
      </trkpt>
      <trkpt lat="40.41035" lon="-4.75569">
        <ele>823.2</ele>
        <time>2021-07-22 17:46:23</time>
      </trkpt>
      <trkpt lat="40.4103" lon="-4.75596">
        <ele>824.2</ele>
        <time>2021-07-22 17:46:29</time>
      </trkpt>
      <trkpt lat="40.41024" lon="-4.75627">
        <ele>825.2</ele>
        <time>2021-07-22 17:46:36</time>
      </trkpt>
      <trkpt lat="40.41021" lon="-4.75645">
        <ele>825.6</ele>
        <time>2021-07-22 17:46:40</time>
      </trkpt>
      <trkpt lat="40.41016" lon="-4.75668">
        <ele>826.4</ele>
        <time>2021-07-22 17:46:45</time>
      </trkpt>
      <trkpt lat="40.41012" lon="-4.7569">
        <ele>827.4</ele>
        <time>2021-07-22 17:46:50</time>
      </trkpt>
      <trkpt lat="40.41011" lon="-4.75695">
        <ele>827.6</ele>
        <time>2021-07-22 17:46:51</time>
      </trkpt>
      <trkpt lat="40.41004" lon="-4.75731">
        <ele>828.6</ele>
        <time>2021-07-22 17:46:59</time>
      </trkpt>
      <trkpt lat="40.41003" lon="-4.75735">
        <ele>828.6</ele>
        <time>2021-07-22 17:47:00</time>
      </trkpt>
      <trkpt lat="40.40999" lon="-4.7577">
        <ele>829.8</ele>
        <time>2021-07-22 17:47:07</time>
      </trkpt>
      <trkpt lat="40.40996" lon="-4.75801">
        <ele>830.8</ele>
        <time>2021-07-22 17:47:13</time>
      </trkpt>
      <trkpt lat="40.40996" lon="-4.75812">
        <ele>831</ele>
        <time>2021-07-22 17:47:15</time>
      </trkpt>
      <trkpt lat="40.40996" lon="-4.75856">
        <ele>831.6</ele>
        <time>2021-07-22 17:47:23</time>
      </trkpt>
      <trkpt lat="40.41" lon="-4.75892">
        <ele>831.4</ele>
        <time>2021-07-22 17:47:30</time>
      </trkpt>
      <trkpt lat="40.41001" lon="-4.75897">
        <ele>831.4</ele>
        <time>2021-07-22 17:47:31</time>
      </trkpt>
      <trkpt lat="40.41008" lon="-4.75932">
        <ele>831.2</ele>
        <time>2021-07-22 17:47:37</time>
      </trkpt>
      <trkpt lat="40.4101" lon="-4.75938">
        <ele>831.2</ele>
        <time>2021-07-22 17:47:38</time>
      </trkpt>
      <trkpt lat="40.41026" lon="-4.75986">
        <ele>830.8</ele>
        <time>2021-07-22 17:47:45</time>
      </trkpt>
      <trkpt lat="40.41038" lon="-4.76014">
        <ele>830.6</ele>
        <time>2021-07-22 17:47:49</time>
      </trkpt>
      <trkpt lat="40.41048" lon="-4.76035">
        <ele>830.6</ele>
        <time>2021-07-22 17:47:52</time>
      </trkpt>
      <trkpt lat="40.41075" lon="-4.76092">
        <ele>830.8</ele>
        <time>2021-07-22 17:48:00</time>
      </trkpt>
      <trkpt lat="40.41103" lon="-4.76149">
        <ele>830.4</ele>
        <time>2021-07-22 17:48:08</time>
      </trkpt>
      <trkpt lat="40.41135" lon="-4.76217">
        <ele>830</ele>
        <time>2021-07-22 17:48:17</time>
      </trkpt>
      <trkpt lat="40.41165" lon="-4.76282">
        <ele>830</ele>
        <time>2021-07-22 17:48:25</time>
      </trkpt>
      <trkpt lat="40.41185" lon="-4.76325">
        <ele>829.6</ele>
        <time>2021-07-22 17:48:30</time>
      </trkpt>
      <trkpt lat="40.41206" lon="-4.7637">
        <ele>829</ele>
        <time>2021-07-22 17:48:35</time>
      </trkpt>
      <trkpt lat="40.41223" lon="-4.76407">
        <ele>828.6</ele>
        <time>2021-07-22 17:48:39</time>
      </trkpt>
      <trkpt lat="40.41238" lon="-4.76446">
        <ele>828</ele>
        <time>2021-07-22 17:48:43</time>
      </trkpt>
      <trkpt lat="40.41249" lon="-4.76488">
        <ele>827.4</ele>
        <time>2021-07-22 17:48:47</time>
      </trkpt>
      <trkpt lat="40.41254" lon="-4.76509">
        <ele>826.8</ele>
        <time>2021-07-22 17:48:49</time>
      </trkpt>
      <trkpt lat="40.41255" lon="-4.76519">
        <ele>826.4</ele>
        <time>2021-07-22 17:48:50</time>
      </trkpt>
      <trkpt lat="40.4126" lon="-4.76571">
        <ele>825.6</ele>
        <time>2021-07-22 17:48:55</time>
      </trkpt>
      <trkpt lat="40.4126" lon="-4.76602">
        <ele>825.2</ele>
        <time>2021-07-22 17:48:58</time>
      </trkpt>
      <trkpt lat="40.4126" lon="-4.7665">
        <ele>824.4</ele>
        <time>2021-07-22 17:49:03</time>
      </trkpt>
      <trkpt lat="40.4126" lon="-4.76687">
        <ele>824.2</ele>
        <time>2021-07-22 17:49:07</time>
      </trkpt>
      <trkpt lat="40.41258" lon="-4.76734">
        <ele>824</ele>
        <time>2021-07-22 17:49:12</time>
      </trkpt>
      <trkpt lat="40.41257" lon="-4.76797">
        <ele>824</ele>
        <time>2021-07-22 17:49:19</time>
      </trkpt>
      <trkpt lat="40.41256" lon="-4.76814">
        <ele>824</ele>
        <time>2021-07-22 17:49:21</time>
      </trkpt>
      <trkpt lat="40.41251" lon="-4.76868">
        <ele>824</ele>
        <time>2021-07-22 17:49:27</time>
      </trkpt>
      <trkpt lat="40.41248" lon="-4.76886">
        <ele>824</ele>
        <time>2021-07-22 17:49:29</time>
      </trkpt>
      <trkpt lat="40.41234" lon="-4.76941">
        <ele>824</ele>
        <time>2021-07-22 17:49:36</time>
      </trkpt>
      <trkpt lat="40.41215" lon="-4.76993">
        <ele>823.8</ele>
        <time>2021-07-22 17:49:43</time>
      </trkpt>
      <trkpt lat="40.41186" lon="-4.77057">
        <ele>823.6</ele>
        <time>2021-07-22 17:49:52</time>
      </trkpt>
      <trkpt lat="40.41183" lon="-4.77064">
        <ele>823.6</ele>
        <time>2021-07-22 17:49:53</time>
      </trkpt>
      <trkpt lat="40.41165" lon="-4.7712">
        <ele>823.4</ele>
        <time>2021-07-22 17:50:00</time>
      </trkpt>
      <trkpt lat="40.4116" lon="-4.77148">
        <ele>823</ele>
        <time>2021-07-22 17:50:03</time>
      </trkpt>
      <trkpt lat="40.41156" lon="-4.77178">
        <ele>822.8</ele>
        <time>2021-07-22 17:50:06</time>
      </trkpt>
      <trkpt lat="40.41154" lon="-4.77228">
        <ele>822</ele>
        <time>2021-07-22 17:50:11</time>
      </trkpt>
      <trkpt lat="40.41154" lon="-4.77238">
        <ele>821.8</ele>
        <time>2021-07-22 17:50:12</time>
      </trkpt>
      <trkpt lat="40.41158" lon="-4.77292">
        <ele>820.6</ele>
        <time>2021-07-22 17:50:17</time>
      </trkpt>
      <trkpt lat="40.41159" lon="-4.77304">
        <ele>820.2</ele>
        <time>2021-07-22 17:50:18</time>
      </trkpt>
      <trkpt lat="40.41162" lon="-4.77327">
        <ele>819.6</ele>
        <time>2021-07-22 17:50:20</time>
      </trkpt>
      <trkpt lat="40.41168" lon="-4.77363">
        <ele>818.2</ele>
        <time>2021-07-22 17:50:23</time>
      </trkpt>
      <trkpt lat="40.41173" lon="-4.77401">
        <ele>817.4</ele>
        <time>2021-07-22 17:50:26</time>
      </trkpt>
      <trkpt lat="40.4118" lon="-4.7745">
        <ele>817</ele>
        <time>2021-07-22 17:50:30</time>
      </trkpt>
      <trkpt lat="40.41183" lon="-4.77486">
        <ele>815.8</ele>
        <time>2021-07-22 17:50:33</time>
      </trkpt>
      <trkpt lat="40.41182" lon="-4.77543">
        <ele>814.8</ele>
        <time>2021-07-22 17:50:38</time>
      </trkpt>
      <trkpt lat="40.41181" lon="-4.77553">
        <ele>814.6</ele>
        <time>2021-07-22 17:50:39</time>
      </trkpt>
      <trkpt lat="40.41176" lon="-4.77612">
        <ele>814.4</ele>
        <time>2021-07-22 17:50:45</time>
      </trkpt>
      <trkpt lat="40.4117" lon="-4.7768">
        <ele>815</ele>
        <time>2021-07-22 17:50:53</time>
      </trkpt>
      <trkpt lat="40.41166" lon="-4.7773">
        <ele>815.4</ele>
        <time>2021-07-22 17:51:00</time>
      </trkpt>
      <trkpt lat="40.41163" lon="-4.77761">
        <ele>815.8</ele>
        <time>2021-07-22 17:51:05</time>
      </trkpt>
      <trkpt lat="40.41162" lon="-4.77772">
        <ele>816</ele>
        <time>2021-07-22 17:51:07</time>
      </trkpt>
      <trkpt lat="40.4116" lon="-4.77801">
        <ele>817</ele>
        <time>2021-07-22 17:51:13</time>
      </trkpt>
      <trkpt lat="40.41159" lon="-4.7781">
        <ele>817.6</ele>
        <time>2021-07-22 17:51:15</time>
      </trkpt>
      <trkpt lat="40.41159" lon="-4.77819">
        <ele>818</ele>
        <time>2021-07-22 17:51:17</time>
      </trkpt>
      <trkpt lat="40.41157" lon="-4.77837">
        <ele>819.2</ele>
        <time>2021-07-22 17:51:21</time>
      </trkpt>
      <trkpt lat="40.41157" lon="-4.77841">
        <ele>819.4</ele>
        <time>2021-07-22 17:51:22</time>
      </trkpt>
      <trkpt lat="40.41155" lon="-4.77863">
        <ele>820.2</ele>
        <time>2021-07-22 17:51:27</time>
      </trkpt>
      <trkpt lat="40.41155" lon="-4.77867">
        <ele>820.6</ele>
        <time>2021-07-22 17:51:28</time>
      </trkpt>
      <trkpt lat="40.41154" lon="-4.77879">
        <ele>821.4</ele>
        <time>2021-07-22 17:51:31</time>
      </trkpt>
      <trkpt lat="40.41152" lon="-4.77895">
        <ele>822.4</ele>
        <time>2021-07-22 17:51:35</time>
      </trkpt>
      <trkpt lat="40.41151" lon="-4.77907">
        <ele>823</ele>
        <time>2021-07-22 17:51:38</time>
      </trkpt>
      <trkpt lat="40.41149" lon="-4.77923">
        <ele>823.6</ele>
        <time>2021-07-22 17:51:42</time>
      </trkpt>
      <trkpt lat="40.41148" lon="-4.77945">
        <ele>823.8</ele>
        <time>2021-07-22 17:51:47</time>
      </trkpt>
      <trkpt lat="40.41147" lon="-4.77962">
        <ele>824.4</ele>
        <time>2021-07-22 17:51:51</time>
      </trkpt>
      <trkpt lat="40.41146" lon="-4.77981">
        <ele>825.2</ele>
        <time>2021-07-22 17:51:56</time>
      </trkpt>
      <trkpt lat="40.41146" lon="-4.77988">
        <ele>825.6</ele>
        <time>2021-07-22 17:51:58</time>
      </trkpt>
      <trkpt lat="40.41148" lon="-4.78003">
        <ele>826.8</ele>
        <time>2021-07-22 17:52:02</time>
      </trkpt>
      <trkpt lat="40.41148" lon="-4.78007">
        <ele>827</ele>
        <time>2021-07-22 17:52:03</time>
      </trkpt>
      <trkpt lat="40.41152" lon="-4.78036">
        <ele>828</ele>
        <time>2021-07-22 17:52:10</time>
      </trkpt>
      <trkpt lat="40.41154" lon="-4.78044">
        <ele>828.4</ele>
        <time>2021-07-22 17:52:12</time>
      </trkpt>
      <trkpt lat="40.41156" lon="-4.78061">
        <ele>829</ele>
        <time>2021-07-22 17:52:16</time>
      </trkpt>
      <trkpt lat="40.41159" lon="-4.78086">
        <ele>829.8</ele>
        <time>2021-07-22 17:52:22</time>
      </trkpt>
      <trkpt lat="40.4116" lon="-4.7809">
        <ele>830</ele>
        <time>2021-07-22 17:52:23</time>
      </trkpt>
      <trkpt lat="40.41163" lon="-4.78117">
        <ele>831</ele>
        <time>2021-07-22 17:52:29</time>
      </trkpt>
      <trkpt lat="40.41163" lon="-4.78121">
        <ele>831.2</ele>
        <time>2021-07-22 17:52:30</time>
      </trkpt>
      <trkpt lat="40.41164" lon="-4.78152">
        <ele>832.2</ele>
        <time>2021-07-22 17:52:37</time>
      </trkpt>
      <trkpt lat="40.41164" lon="-4.78174">
        <ele>833.4</ele>
        <time>2021-07-22 17:52:42</time>
      </trkpt>
      <trkpt lat="40.41165" lon="-4.78184">
        <ele>833.8</ele>
        <time>2021-07-22 17:52:44</time>
      </trkpt>
      <trkpt lat="40.41165" lon="-4.78207">
        <ele>834.4</ele>
        <time>2021-07-22 17:52:48</time>
      </trkpt>
      <trkpt lat="40.41168" lon="-4.78219">
        <ele>834.6</ele>
        <time>2021-07-22 17:52:50</time>
      </trkpt>
      <trkpt lat="40.41171" lon="-4.78231">
        <ele>834.6</ele>
        <time>2021-07-22 17:52:52</time>
      </trkpt>
      <trkpt lat="40.41181" lon="-4.78249">
        <ele>834.6</ele>
        <time>2021-07-22 17:52:55</time>
      </trkpt>
      <trkpt lat="40.41206" lon="-4.78286">
        <ele>834</ele>
        <time>2021-07-22 17:53:01</time>
      </trkpt>
      <trkpt lat="40.41224" lon="-4.78313">
        <ele>833.4</ele>
        <time>2021-07-22 17:53:05</time>
      </trkpt>
      <trkpt lat="40.41228" lon="-4.7832">
        <ele>833.4</ele>
        <time>2021-07-22 17:53:06</time>
      </trkpt>
      <trkpt lat="40.41242" lon="-4.78341">
        <ele>832.8</ele>
        <time>2021-07-22 17:53:09</time>
      </trkpt>
      <trkpt lat="40.41256" lon="-4.78362">
        <ele>832.4</ele>
        <time>2021-07-22 17:53:12</time>
      </trkpt>
      <trkpt lat="40.41265" lon="-4.78377">
        <ele>832</ele>
        <time>2021-07-22 17:53:14</time>
      </trkpt>
      <trkpt lat="40.41274" lon="-4.7839">
        <ele>831.8</ele>
        <time>2021-07-22 17:53:16</time>
      </trkpt>
      <trkpt lat="40.41279" lon="-4.78397">
        <ele>831.6</ele>
        <time>2021-07-22 17:53:17</time>
      </trkpt>
      <trkpt lat="40.41299" lon="-4.78427">
        <ele>831.2</ele>
        <time>2021-07-22 17:53:22</time>
      </trkpt>
      <trkpt lat="40.41302" lon="-4.78433">
        <ele>831</ele>
        <time>2021-07-22 17:53:23</time>
      </trkpt>
      <trkpt lat="40.41314" lon="-4.78452">
        <ele>830.6</ele>
        <time>2021-07-22 17:53:26</time>
      </trkpt>
      <trkpt lat="40.41318" lon="-4.78468">
        <ele>830</ele>
        <time>2021-07-22 17:53:28</time>
      </trkpt>
      <trkpt lat="40.41319" lon="-4.78476">
        <ele>830</ele>
        <time>2021-07-22 17:53:29</time>
      </trkpt>
      <trkpt lat="40.41318" lon="-4.78494">
        <ele>829.8</ele>
        <time>2021-07-22 17:53:31</time>
      </trkpt>
      <trkpt lat="40.41312" lon="-4.78518">
        <ele>829.4</ele>
        <time>2021-07-22 17:53:34</time>
      </trkpt>
      <trkpt lat="40.41308" lon="-4.78534">
        <ele>829.4</ele>
        <time>2021-07-22 17:53:36</time>
      </trkpt>
      <trkpt lat="40.41291" lon="-4.78596">
        <ele>829.4</ele>
        <time>2021-07-22 17:53:44</time>
      </trkpt>
      <trkpt lat="40.41288" lon="-4.78619">
        <ele>829.4</ele>
        <time>2021-07-22 17:53:47</time>
      </trkpt>
      <trkpt lat="40.41287" lon="-4.78642">
        <ele>829.6</ele>
        <time>2021-07-22 17:53:50</time>
      </trkpt>
      <trkpt lat="40.41293" lon="-4.78682">
        <ele>830</ele>
        <time>2021-07-22 17:53:56</time>
      </trkpt>
      <trkpt lat="40.41301" lon="-4.78704">
        <ele>830.8</ele>
        <time>2021-07-22 17:54:00</time>
      </trkpt>
      <trkpt lat="40.41304" lon="-4.7871">
        <ele>830.8</ele>
        <time>2021-07-22 17:54:01</time>
      </trkpt>
      <trkpt lat="40.41308" lon="-4.78721">
        <ele>831.2</ele>
        <time>2021-07-22 17:54:03</time>
      </trkpt>
      <trkpt lat="40.41323" lon="-4.7875">
        <ele>832</ele>
        <time>2021-07-22 17:54:09</time>
      </trkpt>
      <trkpt lat="40.41326" lon="-4.78753">
        <ele>832.2</ele>
        <time>2021-07-22 17:54:10</time>
      </trkpt>
      <trkpt lat="40.41347" lon="-4.78763">
        <ele>832.6</ele>
        <time>2021-07-22 17:54:15</time>
      </trkpt>
      <trkpt lat="40.41362" lon="-4.78761">
        <ele>833</ele>
        <time>2021-07-22 17:54:18</time>
      </trkpt>
      <trkpt lat="40.41378" lon="-4.78759">
        <ele>833.4</ele>
        <time>2021-07-22 17:54:21</time>
      </trkpt>
      <trkpt lat="40.41393" lon="-4.78754">
        <ele>833.4</ele>
        <time>2021-07-22 17:54:24</time>
      </trkpt>
      <trkpt lat="40.41403" lon="-4.78746">
        <ele>833.4</ele>
        <time>2021-07-22 17:54:26</time>
      </trkpt>
      <trkpt lat="40.41415" lon="-4.78729">
        <ele>833.6</ele>
        <time>2021-07-22 17:54:29</time>
      </trkpt>
      <trkpt lat="40.41421" lon="-4.78717">
        <ele>833.6</ele>
        <time>2021-07-22 17:54:31</time>
      </trkpt>
      <trkpt lat="40.41439" lon="-4.78675">
        <ele>834.2</ele>
        <time>2021-07-22 17:54:38</time>
      </trkpt>
      <trkpt lat="40.41457" lon="-4.78642">
        <ele>835.2</ele>
        <time>2021-07-22 17:54:44</time>
      </trkpt>
      <trkpt lat="40.41462" lon="-4.78637">
        <ele>835.4</ele>
        <time>2021-07-22 17:54:45</time>
      </trkpt>
      <trkpt lat="40.41485" lon="-4.78609">
        <ele>836.4</ele>
        <time>2021-07-22 17:54:51</time>
      </trkpt>
      <trkpt lat="40.41489" lon="-4.78604">
        <ele>836.6</ele>
        <time>2021-07-22 17:54:52</time>
      </trkpt>
      <trkpt lat="40.41499" lon="-4.78591">
        <ele>837.2</ele>
        <time>2021-07-22 17:54:55</time>
      </trkpt>
      <trkpt lat="40.41506" lon="-4.78584">
        <ele>837.6</ele>
        <time>2021-07-22 17:54:57</time>
      </trkpt>
      <trkpt lat="40.41509" lon="-4.78581">
        <ele>837.8</ele>
        <time>2021-07-22 17:54:58</time>
      </trkpt>
      <trkpt lat="40.41536" lon="-4.78561">
        <ele>838.6</ele>
        <time>2021-07-22 17:55:05</time>
      </trkpt>
      <trkpt lat="40.41544" lon="-4.78556">
        <ele>838.8</ele>
        <time>2021-07-22 17:55:07</time>
      </trkpt>
      <trkpt lat="40.41564" lon="-4.78543">
        <ele>839.4</ele>
        <time>2021-07-22 17:55:12</time>
      </trkpt>
      <trkpt lat="40.4158" lon="-4.78536">
        <ele>840</ele>
        <time>2021-07-22 17:55:16</time>
      </trkpt>
      <trkpt lat="40.41585" lon="-4.78534">
        <ele>840</ele>
        <time>2021-07-22 17:55:17</time>
      </trkpt>
      <trkpt lat="40.41615" lon="-4.78527">
        <ele>841.2</ele>
        <time>2021-07-22 17:55:25</time>
      </trkpt>
      <trkpt lat="40.41619" lon="-4.78526">
        <ele>841.2</ele>
        <time>2021-07-22 17:55:26</time>
      </trkpt>
      <trkpt lat="40.41639" lon="-4.78513">
        <ele>842.2</ele>
        <time>2021-07-22 17:55:32</time>
      </trkpt>
      <trkpt lat="40.41652" lon="-4.78492">
        <ele>843.4</ele>
        <time>2021-07-22 17:55:37</time>
      </trkpt>
      <trkpt lat="40.41656" lon="-4.78465">
        <ele>844.4</ele>
        <time>2021-07-22 17:55:42</time>
      </trkpt>
      <trkpt lat="40.41651" lon="-4.7844">
        <ele>845.4</ele>
        <time>2021-07-22 17:55:47</time>
      </trkpt>
      <trkpt lat="40.4165" lon="-4.78436">
        <ele>845.6</ele>
        <time>2021-07-22 17:55:48</time>
      </trkpt>
      <trkpt lat="40.41638" lon="-4.78414">
        <ele>846.6</ele>
        <time>2021-07-22 17:55:54</time>
      </trkpt>
      <trkpt lat="40.41629" lon="-4.78403">
        <ele>847.6</ele>
        <time>2021-07-22 17:55:58</time>
      </trkpt>
      <trkpt lat="40.41622" lon="-4.78392">
        <ele>848.8</ele>
        <time>2021-07-22 17:56:02</time>
      </trkpt>
      <trkpt lat="40.41612" lon="-4.78379">
        <ele>849.8</ele>
        <time>2021-07-22 17:56:07</time>
      </trkpt>
      <trkpt lat="40.41611" lon="-4.78377">
        <ele>850</ele>
        <time>2021-07-22 17:56:08</time>
      </trkpt>
      <trkpt lat="40.41603" lon="-4.78364">
        <ele>850.8</ele>
        <time>2021-07-22 17:56:12</time>
      </trkpt>
      <trkpt lat="40.41601" lon="-4.78357">
        <ele>851.2</ele>
        <time>2021-07-22 17:56:14</time>
      </trkpt>
      <trkpt lat="40.41599" lon="-4.7834">
        <ele>852</ele>
        <time>2021-07-22 17:56:18</time>
      </trkpt>
      <trkpt lat="40.41599" lon="-4.78331">
        <ele>852.4</ele>
        <time>2021-07-22 17:56:20</time>
      </trkpt>
      <trkpt lat="40.41599" lon="-4.78317">
        <ele>853</ele>
        <time>2021-07-22 17:56:23</time>
      </trkpt>
      <trkpt lat="40.416" lon="-4.78292">
        <ele>854.2</ele>
        <time>2021-07-22 17:56:28</time>
      </trkpt>
      <trkpt lat="40.416" lon="-4.78287">
        <ele>854.4</ele>
        <time>2021-07-22 17:56:29</time>
      </trkpt>
      <trkpt lat="40.41599" lon="-4.78254">
        <ele>855</ele>
        <time>2021-07-22 17:56:36</time>
      </trkpt>
      <trkpt lat="40.41598" lon="-4.78246">
        <ele>855.2</ele>
        <time>2021-07-22 17:56:38</time>
      </trkpt>
      <trkpt lat="40.41594" lon="-4.78223">
        <ele>856.2</ele>
        <time>2021-07-22 17:56:44</time>
      </trkpt>
      <trkpt lat="40.41594" lon="-4.78219">
        <ele>856.6</ele>
        <time>2021-07-22 17:56:45</time>
      </trkpt>
      <trkpt lat="40.41594" lon="-4.78204">
        <ele>857.8</ele>
        <time>2021-07-22 17:56:49</time>
      </trkpt>
      <trkpt lat="40.41597" lon="-4.78193">
        <ele>858.4</ele>
        <time>2021-07-22 17:56:52</time>
      </trkpt>
      <trkpt lat="40.41598" lon="-4.78189">
        <ele>859</ele>
        <time>2021-07-22 17:56:53</time>
      </trkpt>
      <trkpt lat="40.41604" lon="-4.78171">
        <ele>860</ele>
        <time>2021-07-22 17:56:58</time>
      </trkpt>
      <trkpt lat="40.41607" lon="-4.78161">
        <ele>860.4</ele>
        <time>2021-07-22 17:57:01</time>
      </trkpt>
      <trkpt lat="40.41609" lon="-4.78146">
        <ele>861</ele>
        <time>2021-07-22 17:57:05</time>
      </trkpt>
      <trkpt lat="40.41607" lon="-4.78142">
        <ele>861.2</ele>
        <time>2021-07-22 17:57:06</time>
      </trkpt>
      <trkpt lat="40.41604" lon="-4.7814">
        <ele>861.4</ele>
        <time>2021-07-22 17:57:07</time>
      </trkpt>
      <trkpt lat="40.41598" lon="-4.78138">
        <ele>861.6</ele>
        <time>2021-07-22 17:57:09</time>
      </trkpt>
      <trkpt lat="40.41588" lon="-4.7814">
        <ele>862.2</ele>
        <time>2021-07-22 17:57:12</time>
      </trkpt>
      <trkpt lat="40.41582" lon="-4.78143">
        <ele>862.6</ele>
        <time>2021-07-22 17:57:14</time>
      </trkpt>
      <trkpt lat="40.41566" lon="-4.78149">
        <ele>863.4</ele>
        <time>2021-07-22 17:57:19</time>
      </trkpt>
      <trkpt lat="40.41557" lon="-4.78152">
        <ele>864.4</ele>
        <time>2021-07-22 17:57:22</time>
      </trkpt>
      <trkpt lat="40.41553" lon="-4.78152">
        <ele>864.8</ele>
        <time>2021-07-22 17:57:23</time>
      </trkpt>
      <trkpt lat="40.41532" lon="-4.78154">
        <ele>865.4</ele>
        <time>2021-07-22 17:57:29</time>
      </trkpt>
      <trkpt lat="40.4152" lon="-4.78151">
        <ele>865.8</ele>
        <time>2021-07-22 17:57:32</time>
      </trkpt>
      <trkpt lat="40.41507" lon="-4.78146">
        <ele>866.2</ele>
        <time>2021-07-22 17:57:36</time>
      </trkpt>
      <trkpt lat="40.41498" lon="-4.78138">
        <ele>866.8</ele>
        <time>2021-07-22 17:57:40</time>
      </trkpt>
      <trkpt lat="40.41495" lon="-4.78132">
        <ele>867.2</ele>
        <time>2021-07-22 17:57:42</time>
      </trkpt>
      <trkpt lat="40.41493" lon="-4.78121">
        <ele>868</ele>
        <time>2021-07-22 17:57:45</time>
      </trkpt>
      <trkpt lat="40.41494" lon="-4.78113">
        <ele>868.2</ele>
        <time>2021-07-22 17:57:47</time>
      </trkpt>
      <trkpt lat="40.41495" lon="-4.78103">
        <ele>869</ele>
        <time>2021-07-22 17:57:50</time>
      </trkpt>
      <trkpt lat="40.41497" lon="-4.78093">
        <ele>870.2</ele>
        <time>2021-07-22 17:57:53</time>
      </trkpt>
      <trkpt lat="40.41499" lon="-4.78086">
        <ele>870.6</ele>
        <time>2021-07-22 17:57:55</time>
      </trkpt>
      <trkpt lat="40.41504" lon="-4.78075">
        <ele>871.2</ele>
        <time>2021-07-22 17:57:58</time>
      </trkpt>
      <trkpt lat="40.41508" lon="-4.78063">
        <ele>871.8</ele>
        <time>2021-07-22 17:58:01</time>
      </trkpt>
      <trkpt lat="40.41512" lon="-4.78056">
        <ele>872.4</ele>
        <time>2021-07-22 17:58:03</time>
      </trkpt>
      <trkpt lat="40.4152" lon="-4.78042">
        <ele>873.4</ele>
        <time>2021-07-22 17:58:07</time>
      </trkpt>
      <trkpt lat="40.41523" lon="-4.78038">
        <ele>873.6</ele>
        <time>2021-07-22 17:58:08</time>
      </trkpt>
      <trkpt lat="40.41534" lon="-4.78027">
        <ele>874.6</ele>
        <time>2021-07-22 17:58:12</time>
      </trkpt>
      <trkpt lat="40.41544" lon="-4.78022">
        <ele>875.6</ele>
        <time>2021-07-22 17:58:15</time>
      </trkpt>
      <trkpt lat="40.41548" lon="-4.7802">
        <ele>875.8</ele>
        <time>2021-07-22 17:58:16</time>
      </trkpt>
      <trkpt lat="40.41577" lon="-4.78007">
        <ele>876.4</ele>
        <time>2021-07-22 17:58:23</time>
      </trkpt>
      <trkpt lat="40.41601" lon="-4.77993">
        <ele>876.8</ele>
        <time>2021-07-22 17:58:29</time>
      </trkpt>
      <trkpt lat="40.41605" lon="-4.77991">
        <ele>876.8</ele>
        <time>2021-07-22 17:58:30</time>
      </trkpt>
      <trkpt lat="40.41633" lon="-4.77963">
        <ele>877.6</ele>
        <time>2021-07-22 17:58:38</time>
      </trkpt>
      <trkpt lat="40.41636" lon="-4.77959">
        <ele>877.8</ele>
        <time>2021-07-22 17:58:39</time>
      </trkpt>
      <trkpt lat="40.41651" lon="-4.77937">
        <ele>878.8</ele>
        <time>2021-07-22 17:58:44</time>
      </trkpt>
      <trkpt lat="40.41659" lon="-4.77924">
        <ele>879.6</ele>
        <time>2021-07-22 17:58:47</time>
      </trkpt>
      <trkpt lat="40.41668" lon="-4.77911">
        <ele>880</ele>
        <time>2021-07-22 17:58:50</time>
      </trkpt>
      <trkpt lat="40.41682" lon="-4.7789">
        <ele>881</ele>
        <time>2021-07-22 17:58:55</time>
      </trkpt>
      <trkpt lat="40.41685" lon="-4.77885">
        <ele>881</ele>
        <time>2021-07-22 17:58:56</time>
      </trkpt>
      <trkpt lat="40.41704" lon="-4.77857">
        <ele>882</ele>
        <time>2021-07-22 17:59:03</time>
      </trkpt>
      <trkpt lat="40.41712" lon="-4.77845">
        <ele>882.8</ele>
        <time>2021-07-22 17:59:06</time>
      </trkpt>
      <trkpt lat="40.41717" lon="-4.77837">
        <ele>883.2</ele>
        <time>2021-07-22 17:59:08</time>
      </trkpt>
      <trkpt lat="40.41733" lon="-4.77813">
        <ele>883.8</ele>
        <time>2021-07-22 17:59:14</time>
      </trkpt>
      <trkpt lat="40.41738" lon="-4.77805">
        <ele>884.2</ele>
        <time>2021-07-22 17:59:16</time>
      </trkpt>
      <trkpt lat="40.41751" lon="-4.77785">
        <ele>885.4</ele>
        <time>2021-07-22 17:59:21</time>
      </trkpt>
      <trkpt lat="40.41757" lon="-4.77777">
        <ele>885.6</ele>
        <time>2021-07-22 17:59:23</time>
      </trkpt>
      <trkpt lat="40.41775" lon="-4.77749">
        <ele>886.4</ele>
        <time>2021-07-22 17:59:30</time>
      </trkpt>
      <trkpt lat="40.41778" lon="-4.77744">
        <ele>886.4</ele>
        <time>2021-07-22 17:59:31</time>
      </trkpt>
      <trkpt lat="40.4179" lon="-4.77723">
        <ele>887.4</ele>
        <time>2021-07-22 17:59:36</time>
      </trkpt>
      <trkpt lat="40.41798" lon="-4.7771">
        <ele>888.2</ele>
        <time>2021-07-22 17:59:39</time>
      </trkpt>
      <trkpt lat="40.418" lon="-4.77707">
        <ele>888.4</ele>
        <time>2021-07-22 17:59:40</time>
      </trkpt>
      <trkpt lat="40.41818" lon="-4.77678">
        <ele>889.6</ele>
        <time>2021-07-22 17:59:47</time>
      </trkpt>
      <trkpt lat="40.41834" lon="-4.77655">
        <ele>890.6</ele>
        <time>2021-07-22 17:59:53</time>
      </trkpt>
      <trkpt lat="40.41839" lon="-4.77648">
        <ele>891</ele>
        <time>2021-07-22 17:59:55</time>
      </trkpt>
      <trkpt lat="40.41848" lon="-4.77635">
        <ele>891.8</ele>
        <time>2021-07-22 17:59:59</time>
      </trkpt>
      <trkpt lat="40.4186" lon="-4.7762">
        <ele>893</ele>
        <time>2021-07-22 18:00:04</time>
      </trkpt>
      <trkpt lat="40.41862" lon="-4.77617">
        <ele>893.2</ele>
        <time>2021-07-22 18:00:05</time>
      </trkpt>
      <trkpt lat="40.41872" lon="-4.77607">
        <ele>894.2</ele>
        <time>2021-07-22 18:00:09</time>
      </trkpt>
      <trkpt lat="40.41883" lon="-4.77597">
        <ele>895.2</ele>
        <time>2021-07-22 18:00:13</time>
      </trkpt>
      <trkpt lat="40.41886" lon="-4.77594">
        <ele>895.4</ele>
        <time>2021-07-22 18:00:14</time>
      </trkpt>
      <trkpt lat="40.41898" lon="-4.77585">
        <ele>896.4</ele>
        <time>2021-07-22 18:00:18</time>
      </trkpt>
      <trkpt lat="40.41905" lon="-4.7758">
        <ele>897</ele>
        <time>2021-07-22 18:00:20</time>
      </trkpt>
      <trkpt lat="40.41911" lon="-4.77576">
        <ele>897.6</ele>
        <time>2021-07-22 18:00:22</time>
      </trkpt>
      <trkpt lat="40.41925" lon="-4.77567">
        <ele>898.6</ele>
        <time>2021-07-22 18:00:26</time>
      </trkpt>
      <trkpt lat="40.41932" lon="-4.77564">
        <ele>899.2</ele>
        <time>2021-07-22 18:00:28</time>
      </trkpt>
      <trkpt lat="40.41939" lon="-4.7756">
        <ele>899.8</ele>
        <time>2021-07-22 18:00:30</time>
      </trkpt>
      <trkpt lat="40.41949" lon="-4.77555">
        <ele>900.8</ele>
        <time>2021-07-22 18:00:33</time>
      </trkpt>
      <trkpt lat="40.41963" lon="-4.77549">
        <ele>902</ele>
        <time>2021-07-22 18:00:37</time>
      </trkpt>
      <trkpt lat="40.4198" lon="-4.77541">
        <ele>903.2</ele>
        <time>2021-07-22 18:00:42</time>
      </trkpt>
      <trkpt lat="40.41991" lon="-4.77536">
        <ele>903.8</ele>
        <time>2021-07-22 18:00:45</time>
      </trkpt>
      <trkpt lat="40.41999" lon="-4.77533">
        <ele>904.4</ele>
        <time>2021-07-22 18:00:47</time>
      </trkpt>
      <trkpt lat="40.42014" lon="-4.77527">
        <ele>905.4</ele>
        <time>2021-07-22 18:00:51</time>
      </trkpt>
      <trkpt lat="40.42023" lon="-4.77524">
        <ele>905.8</ele>
        <time>2021-07-22 18:00:53</time>
      </trkpt>
      <trkpt lat="40.42037" lon="-4.77519">
        <ele>906.6</ele>
        <time>2021-07-22 18:00:56</time>
      </trkpt>
      <trkpt lat="40.42057" lon="-4.77511">
        <ele>907.6</ele>
        <time>2021-07-22 18:01:00</time>
      </trkpt>
      <trkpt lat="40.42062" lon="-4.77509">
        <ele>907.6</ele>
        <time>2021-07-22 18:01:01</time>
      </trkpt>
      <trkpt lat="40.42086" lon="-4.77499">
        <ele>908.4</ele>
        <time>2021-07-22 18:01:06</time>
      </trkpt>
      <trkpt lat="40.42097" lon="-4.77494">
        <ele>908.8</ele>
        <time>2021-07-22 18:01:08</time>
      </trkpt>
      <trkpt lat="40.42135" lon="-4.77478">
        <ele>909.2</ele>
        <time>2021-07-22 18:01:14</time>
      </trkpt>
      <trkpt lat="40.42183" lon="-4.77459">
        <ele>909</ele>
        <time>2021-07-22 18:01:21</time>
      </trkpt>
      <trkpt lat="40.42242" lon="-4.77442">
        <ele>908.6</ele>
        <time>2021-07-22 18:01:29</time>
      </trkpt>
      <trkpt lat="40.4225" lon="-4.7744">
        <ele>908.6</ele>
        <time>2021-07-22 18:01:30</time>
      </trkpt>
      <trkpt lat="40.42312" lon="-4.77427">
        <ele>908.2</ele>
        <time>2021-07-22 18:01:37</time>
      </trkpt>
      <trkpt lat="40.42353" lon="-4.77422">
        <ele>907.4</ele>
        <time>2021-07-22 18:01:41</time>
      </trkpt>
      <trkpt lat="40.42374" lon="-4.77421">
        <ele>907</ele>
        <time>2021-07-22 18:01:43</time>
      </trkpt>
      <trkpt lat="40.42408" lon="-4.77423">
        <ele>906.4</ele>
        <time>2021-07-22 18:01:46</time>
      </trkpt>
      <trkpt lat="40.42431" lon="-4.77427">
        <ele>905.6</ele>
        <time>2021-07-22 18:01:48</time>
      </trkpt>
      <trkpt lat="40.42442" lon="-4.77429">
        <ele>905.2</ele>
        <time>2021-07-22 18:01:49</time>
      </trkpt>
      <trkpt lat="40.42477" lon="-4.77437">
        <ele>904</ele>
        <time>2021-07-22 18:01:52</time>
      </trkpt>
      <trkpt lat="40.42512" lon="-4.77444">
        <ele>902.8</ele>
        <time>2021-07-22 18:01:55</time>
      </trkpt>
      <trkpt lat="40.42524" lon="-4.77447">
        <ele>902.2</ele>
        <time>2021-07-22 18:01:56</time>
      </trkpt>
      <trkpt lat="40.42546" lon="-4.77451">
        <ele>901.8</ele>
        <time>2021-07-22 18:01:58</time>
      </trkpt>
      <trkpt lat="40.42577" lon="-4.77458">
        <ele>900.6</ele>
        <time>2021-07-22 18:02:01</time>
      </trkpt>
      <trkpt lat="40.42587" lon="-4.7746">
        <ele>900</ele>
        <time>2021-07-22 18:02:02</time>
      </trkpt>
      <trkpt lat="40.42607" lon="-4.77464">
        <ele>899.4</ele>
        <time>2021-07-22 18:02:04</time>
      </trkpt>
      <trkpt lat="40.42652" lon="-4.77473">
        <ele>898.8</ele>
        <time>2021-07-22 18:02:09</time>
      </trkpt>
      <trkpt lat="40.42695" lon="-4.77481">
        <ele>898.4</ele>
        <time>2021-07-22 18:02:14</time>
      </trkpt>
      <trkpt lat="40.42711" lon="-4.77484">
        <ele>898.2</ele>
        <time>2021-07-22 18:02:16</time>
      </trkpt>
      <trkpt lat="40.42753" lon="-4.77492">
        <ele>898</ele>
        <time>2021-07-22 18:02:22</time>
      </trkpt>
      <trkpt lat="40.428" lon="-4.77501">
        <ele>898.6</ele>
        <time>2021-07-22 18:02:30</time>
      </trkpt>
      <trkpt lat="40.42827" lon="-4.77504">
        <ele>899</ele>
        <time>2021-07-22 18:02:36</time>
      </trkpt>
      <trkpt lat="40.4283" lon="-4.77504">
        <ele>899.2</ele>
        <time>2021-07-22 18:02:37</time>
      </trkpt>
      <trkpt lat="40.42845" lon="-4.77504">
        <ele>900.4</ele>
        <time>2021-07-22 18:02:41</time>
      </trkpt>
      <trkpt lat="40.4286" lon="-4.77502">
        <ele>901.2</ele>
        <time>2021-07-22 18:02:45</time>
      </trkpt>
      <trkpt lat="40.42863" lon="-4.77501">
        <ele>901.4</ele>
        <time>2021-07-22 18:02:46</time>
      </trkpt>
      <trkpt lat="40.42878" lon="-4.77499">
        <ele>902.6</ele>
        <time>2021-07-22 18:02:50</time>
      </trkpt>
      <trkpt lat="40.42881" lon="-4.77498">
        <ele>902.8</ele>
        <time>2021-07-22 18:02:51</time>
      </trkpt>
      <trkpt lat="40.42894" lon="-4.77494">
        <ele>903.8</ele>
        <time>2021-07-22 18:02:55</time>
      </trkpt>
      <trkpt lat="40.42907" lon="-4.77488">
        <ele>904.8</ele>
        <time>2021-07-22 18:02:59</time>
      </trkpt>
      <trkpt lat="40.4291" lon="-4.77486">
        <ele>905.2</ele>
        <time>2021-07-22 18:03:00</time>
      </trkpt>
      <trkpt lat="40.42925" lon="-4.77478">
        <ele>906</ele>
        <time>2021-07-22 18:03:05</time>
      </trkpt>
      <trkpt lat="40.42934" lon="-4.77473">
        <ele>907</ele>
        <time>2021-07-22 18:03:08</time>
      </trkpt>
      <trkpt lat="40.42937" lon="-4.77471">
        <ele>907.2</ele>
        <time>2021-07-22 18:03:09</time>
      </trkpt>
      <trkpt lat="40.42949" lon="-4.77461">
        <ele>908</ele>
        <time>2021-07-22 18:03:13</time>
      </trkpt>
      <trkpt lat="40.42961" lon="-4.77451">
        <ele>909.2</ele>
        <time>2021-07-22 18:03:17</time>
      </trkpt>
      <trkpt lat="40.42974" lon="-4.77437">
        <ele>910.2</ele>
        <time>2021-07-22 18:03:22</time>
      </trkpt>
      <trkpt lat="40.42982" lon="-4.77428">
        <ele>910.8</ele>
        <time>2021-07-22 18:03:25</time>
      </trkpt>
      <trkpt lat="40.42989" lon="-4.77419">
        <ele>911.2</ele>
        <time>2021-07-22 18:03:28</time>
      </trkpt>
      <trkpt lat="40.43002" lon="-4.77401">
        <ele>912.2</ele>
        <time>2021-07-22 18:03:33</time>
      </trkpt>
      <trkpt lat="40.43004" lon="-4.77398">
        <ele>912.4</ele>
        <time>2021-07-22 18:03:34</time>
      </trkpt>
      <trkpt lat="40.43017" lon="-4.77375">
        <ele>913.6</ele>
        <time>2021-07-22 18:03:40</time>
      </trkpt>
      <trkpt lat="40.43019" lon="-4.77372">
        <ele>913.8</ele>
        <time>2021-07-22 18:03:41</time>
      </trkpt>
      <trkpt lat="40.43028" lon="-4.77357">
        <ele>914.6</ele>
        <time>2021-07-22 18:03:45</time>
      </trkpt>
      <trkpt lat="40.43037" lon="-4.77343">
        <ele>915.8</ele>
        <time>2021-07-22 18:03:49</time>
      </trkpt>
      <trkpt lat="40.43045" lon="-4.77329">
        <ele>916.8</ele>
        <time>2021-07-22 18:03:53</time>
      </trkpt>
      <trkpt lat="40.43055" lon="-4.77311">
        <ele>918</ele>
        <time>2021-07-22 18:03:58</time>
      </trkpt>
      <trkpt lat="40.43059" lon="-4.77304">
        <ele>918.4</ele>
        <time>2021-07-22 18:04:00</time>
      </trkpt>
      <trkpt lat="40.43065" lon="-4.77293">
        <ele>919</ele>
        <time>2021-07-22 18:04:03</time>
      </trkpt>
      <trkpt lat="40.43076" lon="-4.77273">
        <ele>920</ele>
        <time>2021-07-22 18:04:08</time>
      </trkpt>
      <trkpt lat="40.43086" lon="-4.77255">
        <ele>921.2</ele>
        <time>2021-07-22 18:04:13</time>
      </trkpt>
      <trkpt lat="40.43094" lon="-4.7724">
        <ele>922.2</ele>
        <time>2021-07-22 18:04:17</time>
      </trkpt>
      <trkpt lat="40.43105" lon="-4.77222">
        <ele>923</ele>
        <time>2021-07-22 18:04:22</time>
      </trkpt>
      <trkpt lat="40.43111" lon="-4.7721">
        <ele>923.8</ele>
        <time>2021-07-22 18:04:25</time>
      </trkpt>
      <trkpt lat="40.43116" lon="-4.77203">
        <ele>924.2</ele>
        <time>2021-07-22 18:04:27</time>
      </trkpt>
      <trkpt lat="40.43125" lon="-4.77188">
        <ele>925.2</ele>
        <time>2021-07-22 18:04:31</time>
      </trkpt>
      <trkpt lat="40.43129" lon="-4.77181">
        <ele>925.8</ele>
        <time>2021-07-22 18:04:33</time>
      </trkpt>
      <trkpt lat="40.43133" lon="-4.77174">
        <ele>926.4</ele>
        <time>2021-07-22 18:04:35</time>
      </trkpt>
      <trkpt lat="40.43143" lon="-4.77156">
        <ele>927.6</ele>
        <time>2021-07-22 18:04:40</time>
      </trkpt>
      <trkpt lat="40.43145" lon="-4.77153">
        <ele>927.6</ele>
        <time>2021-07-22 18:04:41</time>
      </trkpt>
      <trkpt lat="40.43159" lon="-4.77129">
        <ele>928.6</ele>
        <time>2021-07-22 18:04:48</time>
      </trkpt>
      <trkpt lat="40.43172" lon="-4.77106">
        <ele>929.6</ele>
        <time>2021-07-22 18:04:54</time>
      </trkpt>
      <trkpt lat="40.43177" lon="-4.77098">
        <ele>930</ele>
        <time>2021-07-22 18:04:56</time>
      </trkpt>
      <trkpt lat="40.43193" lon="-4.7707">
        <ele>930.4</ele>
        <time>2021-07-22 18:05:02</time>
      </trkpt>
      <trkpt lat="40.43196" lon="-4.77065">
        <ele>930.6</ele>
        <time>2021-07-22 18:05:03</time>
      </trkpt>
      <trkpt lat="40.43211" lon="-4.77041">
        <ele>931.8</ele>
        <time>2021-07-22 18:05:08</time>
      </trkpt>
      <trkpt lat="40.43217" lon="-4.77031">
        <ele>932</ele>
        <time>2021-07-22 18:05:10</time>
      </trkpt>
      <trkpt lat="40.43237" lon="-4.77004">
        <ele>932.8</ele>
        <time>2021-07-22 18:05:16</time>
      </trkpt>
      <trkpt lat="40.4324" lon="-4.77">
        <ele>933</ele>
        <time>2021-07-22 18:05:17</time>
      </trkpt>
      <trkpt lat="40.4325" lon="-4.76988">
        <ele>934</ele>
        <time>2021-07-22 18:05:20</time>
      </trkpt>
      <trkpt lat="40.43264" lon="-4.76974">
        <ele>934.6</ele>
        <time>2021-07-22 18:05:24</time>
      </trkpt>
      <trkpt lat="40.43271" lon="-4.76967">
        <ele>934.8</ele>
        <time>2021-07-22 18:05:26</time>
      </trkpt>
      <trkpt lat="40.43275" lon="-4.76963">
        <ele>935</ele>
        <time>2021-07-22 18:05:27</time>
      </trkpt>
      <trkpt lat="40.43279" lon="-4.7696">
        <ele>935</ele>
        <time>2021-07-22 18:05:28</time>
      </trkpt>
      <trkpt lat="40.43303" lon="-4.7694">
        <ele>936</ele>
        <time>2021-07-22 18:05:34</time>
      </trkpt>
      <trkpt lat="40.43307" lon="-4.76937">
        <ele>936.2</ele>
        <time>2021-07-22 18:05:35</time>
      </trkpt>
      <trkpt lat="40.43337" lon="-4.76917">
        <ele>937</ele>
        <time>2021-07-22 18:05:42</time>
      </trkpt>
      <trkpt lat="40.43347" lon="-4.76912">
        <ele>937.2</ele>
        <time>2021-07-22 18:05:44</time>
      </trkpt>
      <trkpt lat="40.43379" lon="-4.76896">
        <ele>938.2</ele>
        <time>2021-07-22 18:05:50</time>
      </trkpt>
      <trkpt lat="40.4341" lon="-4.76885">
        <ele>938.2</ele>
        <time>2021-07-22 18:05:55</time>
      </trkpt>
      <trkpt lat="40.43424" lon="-4.76881">
        <ele>938.2</ele>
        <time>2021-07-22 18:05:57</time>
      </trkpt>
      <trkpt lat="40.43469" lon="-4.76866">
        <ele>938.2</ele>
        <time>2021-07-22 18:06:03</time>
      </trkpt>
      <trkpt lat="40.43477" lon="-4.76864">
        <ele>938.2</ele>
        <time>2021-07-22 18:06:04</time>
      </trkpt>
      <trkpt lat="40.43534" lon="-4.76846">
        <ele>936.8</ele>
        <time>2021-07-22 18:06:11</time>
      </trkpt>
      <trkpt lat="40.43566" lon="-4.76836">
        <ele>936.2</ele>
        <time>2021-07-22 18:06:15</time>
      </trkpt>
      <trkpt lat="40.43589" lon="-4.76829">
        <ele>936</ele>
        <time>2021-07-22 18:06:18</time>
      </trkpt>
      <trkpt lat="40.43633" lon="-4.76815">
        <ele>936</ele>
        <time>2021-07-22 18:06:24</time>
      </trkpt>
      <trkpt lat="40.4369" lon="-4.76797">
        <ele>936.8</ele>
        <time>2021-07-22 18:06:32</time>
      </trkpt>
      <trkpt lat="40.43705" lon="-4.76792">
        <ele>937.4</ele>
        <time>2021-07-22 18:06:34</time>
      </trkpt>
      <trkpt lat="40.43755" lon="-4.76777">
        <ele>938.4</ele>
        <time>2021-07-22 18:06:41</time>
      </trkpt>
      <trkpt lat="40.43811" lon="-4.76759">
        <ele>939.2</ele>
        <time>2021-07-22 18:06:49</time>
      </trkpt>
      <trkpt lat="40.43818" lon="-4.76757">
        <ele>939.4</ele>
        <time>2021-07-22 18:06:50</time>
      </trkpt>
      <trkpt lat="40.43872" lon="-4.76732">
        <ele>940</ele>
        <time>2021-07-22 18:06:58</time>
      </trkpt>
      <trkpt lat="40.43885" lon="-4.76725">
        <ele>940.2</ele>
        <time>2021-07-22 18:07:00</time>
      </trkpt>
      <trkpt lat="40.43908" lon="-4.76709">
        <ele>940.6</ele>
        <time>2021-07-22 18:07:04</time>
      </trkpt>
      <trkpt lat="40.43937" lon="-4.7669">
        <ele>941.4</ele>
        <time>2021-07-22 18:07:09</time>
      </trkpt>
      <trkpt lat="40.43954" lon="-4.76681">
        <ele>941.6</ele>
        <time>2021-07-22 18:07:12</time>
      </trkpt>
      <trkpt lat="40.4399" lon="-4.76667">
        <ele>942.4</ele>
        <time>2021-07-22 18:07:18</time>
      </trkpt>
      <trkpt lat="40.43997" lon="-4.76665">
        <ele>942.6</ele>
        <time>2021-07-22 18:07:19</time>
      </trkpt>
      <trkpt lat="40.44036" lon="-4.7666">
        <ele>943.2</ele>
        <time>2021-07-22 18:07:25</time>
      </trkpt>
      <trkpt lat="40.44062" lon="-4.76662">
        <ele>943.4</ele>
        <time>2021-07-22 18:07:29</time>
      </trkpt>
      <trkpt lat="40.44095" lon="-4.76662">
        <ele>944</ele>
        <time>2021-07-22 18:07:34</time>
      </trkpt>
      <trkpt lat="40.44107" lon="-4.76662">
        <ele>944.4</ele>
        <time>2021-07-22 18:07:36</time>
      </trkpt>
      <trkpt lat="40.44145" lon="-4.76662">
        <ele>945.6</ele>
        <time>2021-07-22 18:07:42</time>
      </trkpt>
      <trkpt lat="40.44152" lon="-4.76662">
        <ele>945.8</ele>
        <time>2021-07-22 18:07:43</time>
      </trkpt>
      <trkpt lat="40.44203" lon="-4.76663">
        <ele>946.4</ele>
        <time>2021-07-22 18:07:51</time>
      </trkpt>
      <trkpt lat="40.44209" lon="-4.76663">
        <ele>946.4</ele>
        <time>2021-07-22 18:07:52</time>
      </trkpt>
      <trkpt lat="40.44248" lon="-4.76667">
        <ele>947.2</ele>
        <time>2021-07-22 18:07:59</time>
      </trkpt>
      <trkpt lat="40.44263" lon="-4.76668">
        <ele>947.6</ele>
        <time>2021-07-22 18:08:02</time>
      </trkpt>
      <trkpt lat="40.44288" lon="-4.76672">
        <ele>948.8</ele>
        <time>2021-07-22 18:08:07</time>
      </trkpt>
      <trkpt lat="40.44293" lon="-4.76673">
        <ele>949</ele>
        <time>2021-07-22 18:08:08</time>
      </trkpt>
      <trkpt lat="40.44313" lon="-4.76676">
        <ele>950</ele>
        <time>2021-07-22 18:08:12</time>
      </trkpt>
      <trkpt lat="40.44349" lon="-4.76683">
        <ele>950.6</ele>
        <time>2021-07-22 18:08:19</time>
      </trkpt>
      <trkpt lat="40.44354" lon="-4.76684">
        <ele>951</ele>
        <time>2021-07-22 18:08:20</time>
      </trkpt>
      <trkpt lat="40.44381" lon="-4.76688">
        <ele>951.8</ele>
        <time>2021-07-22 18:08:26</time>
      </trkpt>
      <trkpt lat="40.4439" lon="-4.7669">
        <ele>952.2</ele>
        <time>2021-07-22 18:08:28</time>
      </trkpt>
      <trkpt lat="40.44395" lon="-4.76691">
        <ele>952.4</ele>
        <time>2021-07-22 18:08:29</time>
      </trkpt>
      <trkpt lat="40.44408" lon="-4.76694">
        <ele>952.8</ele>
        <time>2021-07-22 18:08:32</time>
      </trkpt>
      <trkpt lat="40.44429" lon="-4.76697">
        <ele>953.6</ele>
        <time>2021-07-22 18:08:37</time>
      </trkpt>
      <trkpt lat="40.44442" lon="-4.76701">
        <ele>954</ele>
        <time>2021-07-22 18:08:41</time>
      </trkpt>
      <trkpt lat="40.44451" lon="-4.76702">
        <ele>954.6</ele>
        <time>2021-07-22 18:08:44</time>
      </trkpt>
      <trkpt lat="40.44456" lon="-4.76703">
        <ele>955</ele>
        <time>2021-07-22 18:08:46</time>
      </trkpt>
      <trkpt lat="40.44473" lon="-4.76706">
        <ele>956</ele>
        <time>2021-07-22 18:08:52</time>
      </trkpt>
      <trkpt lat="40.44486" lon="-4.76709">
        <ele>957.2</ele>
        <time>2021-07-22 18:08:57</time>
      </trkpt>
      <trkpt lat="40.44494" lon="-4.76711">
        <ele>958.2</ele>
        <time>2021-07-22 18:09:00</time>
      </trkpt>
      <trkpt lat="40.44509" lon="-4.76715">
        <ele>959.2</ele>
        <time>2021-07-22 18:09:05</time>
      </trkpt>
      <trkpt lat="40.44518" lon="-4.76717">
        <ele>959.8</ele>
        <time>2021-07-22 18:09:08</time>
      </trkpt>
      <trkpt lat="40.44524" lon="-4.7672">
        <ele>960.2</ele>
        <time>2021-07-22 18:09:10</time>
      </trkpt>
      <trkpt lat="40.44536" lon="-4.76725">
        <ele>961.2</ele>
        <time>2021-07-22 18:09:14</time>
      </trkpt>
      <trkpt lat="40.44541" lon="-4.76728">
        <ele>961.6</ele>
        <time>2021-07-22 18:09:16</time>
      </trkpt>
      <trkpt lat="40.44547" lon="-4.7673">
        <ele>962.2</ele>
        <time>2021-07-22 18:09:18</time>
      </trkpt>
      <trkpt lat="40.44563" lon="-4.76739">
        <ele>963.2</ele>
        <time>2021-07-22 18:09:23</time>
      </trkpt>
      <trkpt lat="40.44568" lon="-4.76742">
        <ele>963.4</ele>
        <time>2021-07-22 18:09:25</time>
      </trkpt>
      <trkpt lat="40.44583" lon="-4.76751">
        <ele>964.8</ele>
        <time>2021-07-22 18:09:30</time>
      </trkpt>
      <trkpt lat="40.44594" lon="-4.76758">
        <ele>965.8</ele>
        <time>2021-07-22 18:09:34</time>
      </trkpt>
      <trkpt lat="40.44608" lon="-4.76767">
        <ele>966.6</ele>
        <time>2021-07-22 18:09:39</time>
      </trkpt>
      <trkpt lat="40.44611" lon="-4.76769">
        <ele>967</ele>
        <time>2021-07-22 18:09:40</time>
      </trkpt>
      <trkpt lat="40.44625" lon="-4.76779">
        <ele>967.4</ele>
        <time>2021-07-22 18:09:45</time>
      </trkpt>
      <trkpt lat="40.44637" lon="-4.76785">
        <ele>968.2</ele>
        <time>2021-07-22 18:09:49</time>
      </trkpt>
      <trkpt lat="40.44646" lon="-4.7679">
        <ele>968.6</ele>
        <time>2021-07-22 18:09:52</time>
      </trkpt>
      <trkpt lat="40.44658" lon="-4.76795">
        <ele>969.2</ele>
        <time>2021-07-22 18:09:56</time>
      </trkpt>
      <trkpt lat="40.4467" lon="-4.768">
        <ele>970</ele>
        <time>2021-07-22 18:10:00</time>
      </trkpt>
      <trkpt lat="40.44673" lon="-4.76801">
        <ele>970.4</ele>
        <time>2021-07-22 18:10:01</time>
      </trkpt>
      <trkpt lat="40.44689" lon="-4.76805">
        <ele>971.4</ele>
        <time>2021-07-22 18:10:06</time>
      </trkpt>
      <trkpt lat="40.44698" lon="-4.76806">
        <ele>971.8</ele>
        <time>2021-07-22 18:10:09</time>
      </trkpt>
      <trkpt lat="40.44714" lon="-4.76809">
        <ele>972.2</ele>
        <time>2021-07-22 18:10:14</time>
      </trkpt>
      <trkpt lat="40.44723" lon="-4.7681">
        <ele>972.8</ele>
        <time>2021-07-22 18:10:17</time>
      </trkpt>
      <trkpt lat="40.44732" lon="-4.76809">
        <ele>973.2</ele>
        <time>2021-07-22 18:10:20</time>
      </trkpt>
      <trkpt lat="40.44746" lon="-4.7681">
        <ele>974.2</ele>
        <time>2021-07-22 18:10:25</time>
      </trkpt>
      <trkpt lat="40.44749" lon="-4.76809">
        <ele>974.4</ele>
        <time>2021-07-22 18:10:26</time>
      </trkpt>
      <trkpt lat="40.44768" lon="-4.76805">
        <ele>975.2</ele>
        <time>2021-07-22 18:10:32</time>
      </trkpt>
      <trkpt lat="40.44774" lon="-4.76804">
        <ele>975.6</ele>
        <time>2021-07-22 18:10:34</time>
      </trkpt>
      <trkpt lat="40.44792" lon="-4.76801">
        <ele>977</ele>
        <time>2021-07-22 18:10:40</time>
      </trkpt>
      <trkpt lat="40.44797" lon="-4.76799">
        <ele>977.2</ele>
        <time>2021-07-22 18:10:42</time>
      </trkpt>
      <trkpt lat="40.44812" lon="-4.76796">
        <ele>978.2</ele>
        <time>2021-07-22 18:10:47</time>
      </trkpt>
      <trkpt lat="40.44821" lon="-4.76793">
        <ele>979</ele>
        <time>2021-07-22 18:10:50</time>
      </trkpt>
      <trkpt lat="40.44824" lon="-4.76793">
        <ele>979.2</ele>
        <time>2021-07-22 18:10:51</time>
      </trkpt>
      <trkpt lat="40.44836" lon="-4.76791">
        <ele>980.4</ele>
        <time>2021-07-22 18:10:55</time>
      </trkpt>
      <trkpt lat="40.44839" lon="-4.7679">
        <ele>980.6</ele>
        <time>2021-07-22 18:10:56</time>
      </trkpt>
      <trkpt lat="40.44854" lon="-4.76788">
        <ele>981.4</ele>
        <time>2021-07-22 18:11:01</time>
      </trkpt>
      <trkpt lat="40.4486" lon="-4.76786">
        <ele>981.8</ele>
        <time>2021-07-22 18:11:03</time>
      </trkpt>
      <trkpt lat="40.44876" lon="-4.76782">
        <ele>982.6</ele>
        <time>2021-07-22 18:11:07</time>
      </trkpt>
      <trkpt lat="40.44887" lon="-4.7678">
        <ele>983.4</ele>
        <time>2021-07-22 18:11:10</time>
      </trkpt>
      <trkpt lat="40.44891" lon="-4.76779">
        <ele>983.4</ele>
        <time>2021-07-22 18:11:11</time>
      </trkpt>
      <trkpt lat="40.44912" lon="-4.76774">
        <ele>984.4</ele>
        <time>2021-07-22 18:11:16</time>
      </trkpt>
      <trkpt lat="40.4492" lon="-4.76773">
        <ele>985</ele>
        <time>2021-07-22 18:11:18</time>
      </trkpt>
      <trkpt lat="40.44933" lon="-4.76771">
        <ele>985.6</ele>
        <time>2021-07-22 18:11:21</time>
      </trkpt>
      <trkpt lat="40.44952" lon="-4.76768">
        <ele>986.8</ele>
        <time>2021-07-22 18:11:26</time>
      </trkpt>
      <trkpt lat="40.44956" lon="-4.76767">
        <ele>987.2</ele>
        <time>2021-07-22 18:11:27</time>
      </trkpt>
      <trkpt lat="40.44972" lon="-4.76764">
        <ele>988</ele>
        <time>2021-07-22 18:11:31</time>
      </trkpt>
      <trkpt lat="40.44986" lon="-4.7676">
        <ele>988.8</ele>
        <time>2021-07-22 18:11:35</time>
      </trkpt>
      <trkpt lat="40.44995" lon="-4.76758">
        <ele>989</ele>
        <time>2021-07-22 18:11:37</time>
      </trkpt>
      <trkpt lat="40.45009" lon="-4.76755">
        <ele>990.2</ele>
        <time>2021-07-22 18:11:40</time>
      </trkpt>
      <trkpt lat="40.45014" lon="-4.76755">
        <ele>990.4</ele>
        <time>2021-07-22 18:11:41</time>
      </trkpt>
      <trkpt lat="40.45023" lon="-4.76753">
        <ele>990.6</ele>
        <time>2021-07-22 18:11:43</time>
      </trkpt>
      <trkpt lat="40.45037" lon="-4.76751">
        <ele>991</ele>
        <time>2021-07-22 18:11:46</time>
      </trkpt>
      <trkpt lat="40.45051" lon="-4.76749">
        <ele>991.2</ele>
        <time>2021-07-22 18:11:49</time>
      </trkpt>
      <trkpt lat="40.45073" lon="-4.76745">
        <ele>992.2</ele>
        <time>2021-07-22 18:11:54</time>
      </trkpt>
      <trkpt lat="40.45091" lon="-4.76743">
        <ele>992.8</ele>
        <time>2021-07-22 18:11:58</time>
      </trkpt>
      <trkpt lat="40.45098" lon="-4.76742">
        <ele>993.2</ele>
        <time>2021-07-22 18:12:00</time>
      </trkpt>
      <trkpt lat="40.45115" lon="-4.76742">
        <ele>994.2</ele>
        <time>2021-07-22 18:12:05</time>
      </trkpt>
      <trkpt lat="40.45128" lon="-4.76741">
        <ele>995.4</ele>
        <time>2021-07-22 18:12:09</time>
      </trkpt>
      <trkpt lat="40.4514" lon="-4.76741">
        <ele>996</ele>
        <time>2021-07-22 18:12:12</time>
      </trkpt>
      <trkpt lat="40.45149" lon="-4.76741">
        <ele>996.6</ele>
        <time>2021-07-22 18:12:14</time>
      </trkpt>
      <trkpt lat="40.4517" lon="-4.76741">
        <ele>997.4</ele>
        <time>2021-07-22 18:12:19</time>
      </trkpt>
      <trkpt lat="40.45175" lon="-4.76741">
        <ele>997.6</ele>
        <time>2021-07-22 18:12:20</time>
      </trkpt>
      <trkpt lat="40.452" lon="-4.76742">
        <ele>998.4</ele>
        <time>2021-07-22 18:12:26</time>
      </trkpt>
      <trkpt lat="40.45209" lon="-4.76743">
        <ele>998.8</ele>
        <time>2021-07-22 18:12:28</time>
      </trkpt>
      <trkpt lat="40.45231" lon="-4.76743">
        <ele>999.2</ele>
        <time>2021-07-22 18:12:33</time>
      </trkpt>
      <trkpt lat="40.45245" lon="-4.76744">
        <ele>999.8</ele>
        <time>2021-07-22 18:12:36</time>
      </trkpt>
      <trkpt lat="40.45265" lon="-4.76744">
        <ele>1000.2</ele>
        <time>2021-07-22 18:12:41</time>
      </trkpt>
      <trkpt lat="40.45282" lon="-4.76745">
        <ele>1000.8</ele>
        <time>2021-07-22 18:12:45</time>
      </trkpt>
      <trkpt lat="40.45295" lon="-4.76746">
        <ele>1001.6</ele>
        <time>2021-07-22 18:12:48</time>
      </trkpt>
      <trkpt lat="40.45299" lon="-4.76746">
        <ele>1002</ele>
        <time>2021-07-22 18:12:49</time>
      </trkpt>
      <trkpt lat="40.45319" lon="-4.76745">
        <ele>1003</ele>
        <time>2021-07-22 18:12:54</time>
      </trkpt>
      <trkpt lat="40.45332" lon="-4.76745">
        <ele>1003.6</ele>
        <time>2021-07-22 18:12:57</time>
      </trkpt>
      <trkpt lat="40.45342" lon="-4.76745">
        <ele>1004.2</ele>
        <time>2021-07-22 18:13:00</time>
      </trkpt>
      <trkpt lat="40.45354" lon="-4.76745">
        <ele>1004.4</ele>
        <time>2021-07-22 18:13:03</time>
      </trkpt>
      <trkpt lat="40.45362" lon="-4.76744">
        <ele>1005</ele>
        <time>2021-07-22 18:13:05</time>
      </trkpt>
      <trkpt lat="40.45383" lon="-4.76743">
        <ele>1006.2</ele>
        <time>2021-07-22 18:13:10</time>
      </trkpt>
      <trkpt lat="40.45388" lon="-4.76743">
        <ele>1006.2</ele>
        <time>2021-07-22 18:13:11</time>
      </trkpt>
      <trkpt lat="40.45406" lon="-4.7674">
        <ele>1006.8</ele>
        <time>2021-07-22 18:13:15</time>
      </trkpt>
      <trkpt lat="40.45418" lon="-4.76739">
        <ele>1007.4</ele>
        <time>2021-07-22 18:13:18</time>
      </trkpt>
      <trkpt lat="40.45441" lon="-4.76736">
        <ele>1008.6</ele>
        <time>2021-07-22 18:13:24</time>
      </trkpt>
      <trkpt lat="40.45447" lon="-4.76735">
        <ele>1008.8</ele>
        <time>2021-07-22 18:13:26</time>
      </trkpt>
      <trkpt lat="40.45467" lon="-4.76731">
        <ele>1009.6</ele>
        <time>2021-07-22 18:13:32</time>
      </trkpt>
      <trkpt lat="40.45474" lon="-4.7673">
        <ele>1010</ele>
        <time>2021-07-22 18:13:34</time>
      </trkpt>
      <trkpt lat="40.45484" lon="-4.76728">
        <ele>1010.6</ele>
        <time>2021-07-22 18:13:37</time>
      </trkpt>
      <trkpt lat="40.45501" lon="-4.76724">
        <ele>1011.4</ele>
        <time>2021-07-22 18:13:42</time>
      </trkpt>
      <trkpt lat="40.45518" lon="-4.7672">
        <ele>1011.8</ele>
        <time>2021-07-22 18:13:47</time>
      </trkpt>
      <trkpt lat="40.45529" lon="-4.76717">
        <ele>1012.4</ele>
        <time>2021-07-22 18:13:50</time>
      </trkpt>
      <trkpt lat="40.45536" lon="-4.76715">
        <ele>1012.8</ele>
        <time>2021-07-22 18:13:52</time>
      </trkpt>
      <trkpt lat="40.45551" lon="-4.76711">
        <ele>1014</ele>
        <time>2021-07-22 18:13:56</time>
      </trkpt>
      <trkpt lat="40.45558" lon="-4.76708">
        <ele>1014.2</ele>
        <time>2021-07-22 18:13:58</time>
      </trkpt>
      <trkpt lat="40.45578" lon="-4.76703">
        <ele>1015</ele>
        <time>2021-07-22 18:14:03</time>
      </trkpt>
      <trkpt lat="40.45594" lon="-4.76698">
        <ele>1015.8</ele>
        <time>2021-07-22 18:14:07</time>
      </trkpt>
      <trkpt lat="40.45598" lon="-4.76697">
        <ele>1016</ele>
        <time>2021-07-22 18:14:08</time>
      </trkpt>
      <trkpt lat="40.45628" lon="-4.76689">
        <ele>1016.8</ele>
        <time>2021-07-22 18:14:15</time>
      </trkpt>
      <trkpt lat="40.45632" lon="-4.76687">
        <ele>1017</ele>
        <time>2021-07-22 18:14:16</time>
      </trkpt>
      <trkpt lat="40.45666" lon="-4.76678">
        <ele>1017.8</ele>
        <time>2021-07-22 18:14:24</time>
      </trkpt>
      <trkpt lat="40.4567" lon="-4.76677">
        <ele>1018</ele>
        <time>2021-07-22 18:14:25</time>
      </trkpt>
      <trkpt lat="40.45688" lon="-4.76672">
        <ele>1018.6</ele>
        <time>2021-07-22 18:14:29</time>
      </trkpt>
      <trkpt lat="40.45705" lon="-4.76668">
        <ele>1019</ele>
        <time>2021-07-22 18:14:33</time>
      </trkpt>
      <trkpt lat="40.45735" lon="-4.76659">
        <ele>1020</ele>
        <time>2021-07-22 18:14:40</time>
      </trkpt>
      <trkpt lat="40.45752" lon="-4.7666">
        <ele>1020.4</ele>
        <time>2021-07-22 18:14:44</time>
      </trkpt>
      <trkpt lat="40.45756" lon="-4.76663">
        <ele>1020.4</ele>
        <time>2021-07-22 18:14:45</time>
      </trkpt>
      <trkpt lat="40.45764" lon="-4.76677">
        <ele>1021</ele>
        <time>2021-07-22 18:14:48</time>
      </trkpt>
      <trkpt lat="40.45765" lon="-4.76682">
        <ele>1021.2</ele>
        <time>2021-07-22 18:14:49</time>
      </trkpt>
      <trkpt lat="40.45766" lon="-4.76688">
        <ele>1021.4</ele>
        <time>2021-07-22 18:14:50</time>
      </trkpt>
      <trkpt lat="40.45768" lon="-4.76705">
        <ele>1022</ele>
        <time>2021-07-22 18:14:53</time>
      </trkpt>
      <trkpt lat="40.45768" lon="-4.76711">
        <ele>1022.4</ele>
        <time>2021-07-22 18:14:54</time>
      </trkpt>
      <trkpt lat="40.45769" lon="-4.76722">
        <ele>1023</ele>
        <time>2021-07-22 18:14:56</time>
      </trkpt>
      <trkpt lat="40.45772" lon="-4.76758">
        <ele>1023.6</ele>
        <time>2021-07-22 18:15:02</time>
      </trkpt>
      <trkpt lat="40.45773" lon="-4.76777">
        <ele>1024</ele>
        <time>2021-07-22 18:15:05</time>
      </trkpt>
      <trkpt lat="40.45775" lon="-4.76812">
        <ele>1024.4</ele>
        <time>2021-07-22 18:15:11</time>
      </trkpt>
      <trkpt lat="40.45776" lon="-4.76829">
        <ele>1025</ele>
        <time>2021-07-22 18:15:14</time>
      </trkpt>
      <trkpt lat="40.45779" lon="-4.76866">
        <ele>1025.6</ele>
        <time>2021-07-22 18:15:20</time>
      </trkpt>
      <trkpt lat="40.4578" lon="-4.76883">
        <ele>1026</ele>
        <time>2021-07-22 18:15:23</time>
      </trkpt>
      <trkpt lat="40.45781" lon="-4.76912">
        <ele>1026.6</ele>
        <time>2021-07-22 18:15:28</time>
      </trkpt>
      <trkpt lat="40.45783" lon="-4.76923">
        <ele>1027</ele>
        <time>2021-07-22 18:15:30</time>
      </trkpt>
      <trkpt lat="40.45789" lon="-4.76938">
        <ele>1027.8</ele>
        <time>2021-07-22 18:15:33</time>
      </trkpt>
      <trkpt lat="40.45793" lon="-4.76941">
        <ele>1027.8</ele>
        <time>2021-07-22 18:15:34</time>
      </trkpt>
      <trkpt lat="40.45801" lon="-4.76943">
        <ele>1028.4</ele>
        <time>2021-07-22 18:15:36</time>
      </trkpt>
      <trkpt lat="40.45804" lon="-4.76943">
        <ele>1028.4</ele>
        <time>2021-07-22 18:15:37</time>
      </trkpt>
      <trkpt lat="40.45814" lon="-4.76942">
        <ele>1029.2</ele>
        <time>2021-07-22 18:15:40</time>
      </trkpt>
      <trkpt lat="40.4582" lon="-4.76942">
        <ele>1029.2</ele>
        <time>2021-07-22 18:15:42</time>
      </trkpt>
      <trkpt lat="40.45829" lon="-4.76941">
        <ele>1030</ele>
        <time>2021-07-22 18:15:45</time>
      </trkpt>
      <trkpt lat="40.45849" lon="-4.76941">
        <ele>1030.8</ele>
        <time>2021-07-22 18:15:52</time>
      </trkpt>
      <trkpt lat="40.45855" lon="-4.76941">
        <ele>1031.2</ele>
        <time>2021-07-22 18:15:54</time>
      </trkpt>
      <trkpt lat="40.45869" lon="-4.76942">
        <ele>1032.4</ele>
        <time>2021-07-22 18:15:59</time>
      </trkpt>
      <trkpt lat="40.45881" lon="-4.76942">
        <ele>1033.2</ele>
        <time>2021-07-22 18:16:03</time>
      </trkpt>
      <trkpt lat="40.45896" lon="-4.76942">
        <ele>1034</ele>
        <time>2021-07-22 18:16:08</time>
      </trkpt>
      <trkpt lat="40.45899" lon="-4.76942">
        <ele>1034.4</ele>
        <time>2021-07-22 18:16:09</time>
      </trkpt>
      <trkpt lat="40.45916" lon="-4.76941">
        <ele>1035.6</ele>
        <time>2021-07-22 18:16:15</time>
      </trkpt>
      <trkpt lat="40.45919" lon="-4.76941">
        <ele>1035.8</ele>
        <time>2021-07-22 18:16:16</time>
      </trkpt>
      <trkpt lat="40.45931" lon="-4.7694">
        <ele>1036.6</ele>
        <time>2021-07-22 18:16:20</time>
      </trkpt>
      <trkpt lat="40.45942" lon="-4.76939">
        <ele>1037.4</ele>
        <time>2021-07-22 18:16:24</time>
      </trkpt>
      <trkpt lat="40.45945" lon="-4.76938">
        <ele>1037.8</ele>
        <time>2021-07-22 18:16:25</time>
      </trkpt>
      <trkpt lat="40.45958" lon="-4.76934">
        <ele>1038.6</ele>
        <time>2021-07-22 18:16:30</time>
      </trkpt>
      <trkpt lat="40.45961" lon="-4.76932">
        <ele>1038.8</ele>
        <time>2021-07-22 18:16:31</time>
      </trkpt>
      <trkpt lat="40.4597" lon="-4.76929">
        <ele>1039.6</ele>
        <time>2021-07-22 18:16:34</time>
      </trkpt>
      <trkpt lat="40.45985" lon="-4.76922">
        <ele>1040.6</ele>
        <time>2021-07-22 18:16:39</time>
      </trkpt>
      <trkpt lat="40.45988" lon="-4.76921">
        <ele>1040.8</ele>
        <time>2021-07-22 18:16:40</time>
      </trkpt>
      <trkpt lat="40.46001" lon="-4.76914">
        <ele>1042</ele>
        <time>2021-07-22 18:16:45</time>
      </trkpt>
      <trkpt lat="40.46004" lon="-4.76913">
        <ele>1042</ele>
        <time>2021-07-22 18:16:46</time>
      </trkpt>
      <trkpt lat="40.46019" lon="-4.76906">
        <ele>1043</ele>
        <time>2021-07-22 18:16:51</time>
      </trkpt>
      <trkpt lat="40.46027" lon="-4.76903">
        <ele>1043.8</ele>
        <time>2021-07-22 18:16:54</time>
      </trkpt>
      <trkpt lat="40.46033" lon="-4.76901">
        <ele>1044.2</ele>
        <time>2021-07-22 18:16:56</time>
      </trkpt>
      <trkpt lat="40.46047" lon="-4.76894">
        <ele>1045.2</ele>
        <time>2021-07-22 18:17:01</time>
      </trkpt>
      <trkpt lat="40.46063" lon="-4.76885">
        <ele>1046.2</ele>
        <time>2021-07-22 18:17:06</time>
      </trkpt>
      <trkpt lat="40.4607" lon="-4.76881">
        <ele>1046.8</ele>
        <time>2021-07-22 18:17:08</time>
      </trkpt>
      <trkpt lat="40.4608" lon="-4.76877">
        <ele>1047.4</ele>
        <time>2021-07-22 18:17:11</time>
      </trkpt>
      <trkpt lat="40.46093" lon="-4.76872">
        <ele>1048</ele>
        <time>2021-07-22 18:17:15</time>
      </trkpt>
      <trkpt lat="40.46102" lon="-4.76869">
        <ele>1048.6</ele>
        <time>2021-07-22 18:17:18</time>
      </trkpt>
      <trkpt lat="40.46111" lon="-4.76866">
        <ele>1049.6</ele>
        <time>2021-07-22 18:17:21</time>
      </trkpt>
      <trkpt lat="40.46114" lon="-4.76866">
        <ele>1050</ele>
        <time>2021-07-22 18:17:22</time>
      </trkpt>
      <trkpt lat="40.46124" lon="-4.76863">
        <ele>1050.8</ele>
        <time>2021-07-22 18:17:26</time>
      </trkpt>
      <trkpt lat="40.46134" lon="-4.7686">
        <ele>1051.8</ele>
        <time>2021-07-22 18:17:30</time>
      </trkpt>
      <trkpt lat="40.46144" lon="-4.76857">
        <ele>1052.8</ele>
        <time>2021-07-22 18:17:34</time>
      </trkpt>
      <trkpt lat="40.46154" lon="-4.76855">
        <ele>1053.8</ele>
        <time>2021-07-22 18:17:38</time>
      </trkpt>
      <trkpt lat="40.46157" lon="-4.76854">
        <ele>1054</ele>
        <time>2021-07-22 18:17:39</time>
      </trkpt>
      <trkpt lat="40.46172" lon="-4.7685">
        <ele>1055.2</ele>
        <time>2021-07-22 18:17:44</time>
      </trkpt>
      <trkpt lat="40.46177" lon="-4.76848">
        <ele>1055.8</ele>
        <time>2021-07-22 18:17:46</time>
      </trkpt>
      <trkpt lat="40.46182" lon="-4.76847">
        <ele>1056</ele>
        <time>2021-07-22 18:17:48</time>
      </trkpt>
      <trkpt lat="40.462" lon="-4.76842">
        <ele>1057.2</ele>
        <time>2021-07-22 18:17:54</time>
      </trkpt>
      <trkpt lat="40.46203" lon="-4.76841">
        <ele>1057.4</ele>
        <time>2021-07-22 18:17:55</time>
      </trkpt>
      <trkpt lat="40.46215" lon="-4.76836">
        <ele>1058.4</ele>
        <time>2021-07-22 18:17:59</time>
      </trkpt>
      <trkpt lat="40.46221" lon="-4.76834">
        <ele>1058.8</ele>
        <time>2021-07-22 18:18:01</time>
      </trkpt>
      <trkpt lat="40.46233" lon="-4.76831">
        <ele>1059.4</ele>
        <time>2021-07-22 18:18:05</time>
      </trkpt>
      <trkpt lat="40.46247" lon="-4.76826">
        <ele>1060</ele>
        <time>2021-07-22 18:18:10</time>
      </trkpt>
      <trkpt lat="40.46253" lon="-4.76824">
        <ele>1060.2</ele>
        <time>2021-07-22 18:18:12</time>
      </trkpt>
      <trkpt lat="40.46275" lon="-4.76818">
        <ele>1061.2</ele>
        <time>2021-07-22 18:18:19</time>
      </trkpt>
      <trkpt lat="40.4629" lon="-4.76814">
        <ele>1062.4</ele>
        <time>2021-07-22 18:18:24</time>
      </trkpt>
      <trkpt lat="40.46299" lon="-4.76813">
        <ele>1063</ele>
        <time>2021-07-22 18:18:27</time>
      </trkpt>
      <trkpt lat="40.46305" lon="-4.76811">
        <ele>1063.6</ele>
        <time>2021-07-22 18:18:29</time>
      </trkpt>
      <trkpt lat="40.46322" lon="-4.76806">
        <ele>1064.8</ele>
        <time>2021-07-22 18:18:35</time>
      </trkpt>
      <trkpt lat="40.46335" lon="-4.76799">
        <ele>1065.8</ele>
        <time>2021-07-22 18:18:40</time>
      </trkpt>
      <trkpt lat="40.46338" lon="-4.76797">
        <ele>1066.2</ele>
        <time>2021-07-22 18:18:41</time>
      </trkpt>
      <trkpt lat="40.46348" lon="-4.76789">
        <ele>1066.8</ele>
        <time>2021-07-22 18:18:45</time>
      </trkpt>
      <trkpt lat="40.46353" lon="-4.76783">
        <ele>1067.4</ele>
        <time>2021-07-22 18:18:47</time>
      </trkpt>
      <trkpt lat="40.4636" lon="-4.76774">
        <ele>1068</ele>
        <time>2021-07-22 18:18:50</time>
      </trkpt>
      <trkpt lat="40.46373" lon="-4.76755">
        <ele>1068.8</ele>
        <time>2021-07-22 18:18:55</time>
      </trkpt>
      <trkpt lat="40.46375" lon="-4.76752">
        <ele>1069</ele>
        <time>2021-07-22 18:18:56</time>
      </trkpt>
      <trkpt lat="40.46386" lon="-4.76736">
        <ele>1070</ele>
        <time>2021-07-22 18:19:00</time>
      </trkpt>
      <trkpt lat="40.46394" lon="-4.76724">
        <ele>1070.2</ele>
        <time>2021-07-22 18:19:03</time>
      </trkpt>
      <trkpt lat="40.46413" lon="-4.76696">
        <ele>1070.4</ele>
        <time>2021-07-22 18:19:10</time>
      </trkpt>
      <trkpt lat="40.46426" lon="-4.76678">
        <ele>1070.8</ele>
        <time>2021-07-22 18:19:16</time>
      </trkpt>
      <trkpt lat="40.46432" lon="-4.7667">
        <ele>1072</ele>
        <time>2021-07-22 18:19:19</time>
      </trkpt>
      <trkpt lat="40.46442" lon="-4.76661">
        <ele>1073</ele>
        <time>2021-07-22 18:19:23</time>
      </trkpt>
      <trkpt lat="40.46445" lon="-4.76659">
        <ele>1073.2</ele>
        <time>2021-07-22 18:19:24</time>
      </trkpt>
      <trkpt lat="40.46453" lon="-4.76653">
        <ele>1074.2</ele>
        <time>2021-07-22 18:19:27</time>
      </trkpt>
      <trkpt lat="40.46467" lon="-4.76646">
        <ele>1075</ele>
        <time>2021-07-22 18:19:32</time>
      </trkpt>
      <trkpt lat="40.46471" lon="-4.76644">
        <ele>1075.2</ele>
        <time>2021-07-22 18:19:33</time>
      </trkpt>
      <trkpt lat="40.46486" lon="-4.76639">
        <ele>1076.2</ele>
        <time>2021-07-22 18:19:38</time>
      </trkpt>
      <trkpt lat="40.46492" lon="-4.76637">
        <ele>1076.6</ele>
        <time>2021-07-22 18:19:40</time>
      </trkpt>
      <trkpt lat="40.46509" lon="-4.7663">
        <ele>1077.4</ele>
        <time>2021-07-22 18:19:46</time>
      </trkpt>
      <trkpt lat="40.46515" lon="-4.76628">
        <ele>1077.8</ele>
        <time>2021-07-22 18:19:48</time>
      </trkpt>
      <trkpt lat="40.46526" lon="-4.76624">
        <ele>1078.4</ele>
        <time>2021-07-22 18:19:52</time>
      </trkpt>
      <trkpt lat="40.46535" lon="-4.76622">
        <ele>1079</ele>
        <time>2021-07-22 18:19:55</time>
      </trkpt>
      <trkpt lat="40.46541" lon="-4.7662">
        <ele>1079.6</ele>
        <time>2021-07-22 18:19:57</time>
      </trkpt>
      <trkpt lat="40.46552" lon="-4.76615">
        <ele>1080.6</ele>
        <time>2021-07-22 18:20:01</time>
      </trkpt>
      <trkpt lat="40.46558" lon="-4.76613">
        <ele>1081</ele>
        <time>2021-07-22 18:20:03</time>
      </trkpt>
      <trkpt lat="40.46569" lon="-4.7661">
        <ele>1081.8</ele>
        <time>2021-07-22 18:20:07</time>
      </trkpt>
      <trkpt lat="40.4658" lon="-4.76607">
        <ele>1082.8</ele>
        <time>2021-07-22 18:20:11</time>
      </trkpt>
      <trkpt lat="40.46591" lon="-4.76605">
        <ele>1083.8</ele>
        <time>2021-07-22 18:20:15</time>
      </trkpt>
      <trkpt lat="40.46602" lon="-4.76605">
        <ele>1084.8</ele>
        <time>2021-07-22 18:20:19</time>
      </trkpt>
      <trkpt lat="40.46605" lon="-4.76605">
        <ele>1085</ele>
        <time>2021-07-22 18:20:20</time>
      </trkpt>
      <trkpt lat="40.46617" lon="-4.76606">
        <ele>1086</ele>
        <time>2021-07-22 18:20:24</time>
      </trkpt>
      <trkpt lat="40.4663" lon="-4.76608">
        <ele>1087</ele>
        <time>2021-07-22 18:20:29</time>
      </trkpt>
      <trkpt lat="40.46633" lon="-4.76609">
        <ele>1087.2</ele>
        <time>2021-07-22 18:20:30</time>
      </trkpt>
      <trkpt lat="40.46656" lon="-4.76614">
        <ele>1088.2</ele>
        <time>2021-07-22 18:20:38</time>
      </trkpt>
      <trkpt lat="40.46673" lon="-4.76614">
        <ele>1089.2</ele>
        <time>2021-07-22 18:20:44</time>
      </trkpt>
      <trkpt lat="40.46681" lon="-4.76614">
        <ele>1089.8</ele>
        <time>2021-07-22 18:20:47</time>
      </trkpt>
      <trkpt lat="40.46692" lon="-4.76611">
        <ele>1090.2</ele>
        <time>2021-07-22 18:20:51</time>
      </trkpt>
      <trkpt lat="40.46702" lon="-4.76608">
        <ele>1091.4</ele>
        <time>2021-07-22 18:20:55</time>
      </trkpt>
      <trkpt lat="40.46718" lon="-4.76603">
        <ele>1092.4</ele>
        <time>2021-07-22 18:21:01</time>
      </trkpt>
      <trkpt lat="40.46726" lon="-4.76601">
        <ele>1093.4</ele>
        <time>2021-07-22 18:21:04</time>
      </trkpt>
      <trkpt lat="40.46728" lon="-4.766">
        <ele>1093.6</ele>
        <time>2021-07-22 18:21:05</time>
      </trkpt>
      <trkpt lat="40.46746" lon="-4.76596">
        <ele>1095</ele>
        <time>2021-07-22 18:21:11</time>
      </trkpt>
      <trkpt lat="40.46764" lon="-4.76595">
        <ele>1096.2</ele>
        <time>2021-07-22 18:21:17</time>
      </trkpt>
      <trkpt lat="40.46767" lon="-4.76595">
        <ele>1096.4</ele>
        <time>2021-07-22 18:21:18</time>
      </trkpt>
      <trkpt lat="40.46777" lon="-4.76596">
        <ele>1097.2</ele>
        <time>2021-07-22 18:21:21</time>
      </trkpt>
      <trkpt lat="40.46792" lon="-4.76597">
        <ele>1098.4</ele>
        <time>2021-07-22 18:21:26</time>
      </trkpt>
      <trkpt lat="40.46796" lon="-4.76597">
        <ele>1098.4</ele>
        <time>2021-07-22 18:21:27</time>
      </trkpt>
      <trkpt lat="40.46811" lon="-4.76598">
        <ele>1099.6</ele>
        <time>2021-07-22 18:21:32</time>
      </trkpt>
      <trkpt lat="40.46819" lon="-4.76598">
        <ele>1100</ele>
        <time>2021-07-22 18:21:35</time>
      </trkpt>
      <trkpt lat="40.46825" lon="-4.76598">
        <ele>1100.4</ele>
        <time>2021-07-22 18:21:37</time>
      </trkpt>
      <trkpt lat="40.4684" lon="-4.76598">
        <ele>1101.6</ele>
        <time>2021-07-22 18:21:42</time>
      </trkpt>
      <trkpt lat="40.46843" lon="-4.76599">
        <ele>1101.6</ele>
        <time>2021-07-22 18:21:43</time>
      </trkpt>
      <trkpt lat="40.46855" lon="-4.76598">
        <ele>1102.6</ele>
        <time>2021-07-22 18:21:47</time>
      </trkpt>
      <trkpt lat="40.4687" lon="-4.76598">
        <ele>1103.6</ele>
        <time>2021-07-22 18:21:52</time>
      </trkpt>
      <trkpt lat="40.46881" lon="-4.76597">
        <ele>1104.6</ele>
        <time>2021-07-22 18:21:56</time>
      </trkpt>
      <trkpt lat="40.46894" lon="-4.76597">
        <ele>1105.4</ele>
        <time>2021-07-22 18:22:00</time>
      </trkpt>
      <trkpt lat="40.46897" lon="-4.76597">
        <ele>1105.6</ele>
        <time>2021-07-22 18:22:01</time>
      </trkpt>
      <trkpt lat="40.46913" lon="-4.76596">
        <ele>1106.8</ele>
        <time>2021-07-22 18:22:06</time>
      </trkpt>
      <trkpt lat="40.46919" lon="-4.76595">
        <ele>1107.2</ele>
        <time>2021-07-22 18:22:08</time>
      </trkpt>
      <trkpt lat="40.46929" lon="-4.76594">
        <ele>1107.8</ele>
        <time>2021-07-22 18:22:11</time>
      </trkpt>
      <trkpt lat="40.46947" lon="-4.7659">
        <ele>1109</ele>
        <time>2021-07-22 18:22:17</time>
      </trkpt>
      <trkpt lat="40.46962" lon="-4.76587">
        <ele>1110</ele>
        <time>2021-07-22 18:22:22</time>
      </trkpt>
      <trkpt lat="40.46977" lon="-4.76582">
        <ele>1111.2</ele>
        <time>2021-07-22 18:22:27</time>
      </trkpt>
      <trkpt lat="40.46996" lon="-4.76575">
        <ele>1112</ele>
        <time>2021-07-22 18:22:33</time>
      </trkpt>
      <trkpt lat="40.46998" lon="-4.76573">
        <ele>1112.2</ele>
        <time>2021-07-22 18:22:34</time>
      </trkpt>
      <trkpt lat="40.47006" lon="-4.76568">
        <ele>1113.2</ele>
        <time>2021-07-22 18:22:37</time>
      </trkpt>
      <trkpt lat="40.47014" lon="-4.76563">
        <ele>1113.8</ele>
        <time>2021-07-22 18:22:40</time>
      </trkpt>
      <trkpt lat="40.47022" lon="-4.76558">
        <ele>1114.4</ele>
        <time>2021-07-22 18:22:43</time>
      </trkpt>
      <trkpt lat="40.47037" lon="-4.76549">
        <ele>1115.4</ele>
        <time>2021-07-22 18:22:48</time>
      </trkpt>
      <trkpt lat="40.47049" lon="-4.76542">
        <ele>1116</ele>
        <time>2021-07-22 18:22:52</time>
      </trkpt>
      <trkpt lat="40.47056" lon="-4.76537">
        <ele>1116.4</ele>
        <time>2021-07-22 18:22:54</time>
      </trkpt>
      <trkpt lat="40.47073" lon="-4.76526">
        <ele>1117.6</ele>
        <time>2021-07-22 18:22:59</time>
      </trkpt>
      <trkpt lat="40.4708" lon="-4.76522">
        <ele>1118</ele>
        <time>2021-07-22 18:23:01</time>
      </trkpt>
      <trkpt lat="40.47109" lon="-4.76504">
        <ele>1118.6</ele>
        <time>2021-07-22 18:23:09</time>
      </trkpt>
      <trkpt lat="40.47112" lon="-4.76502">
        <ele>1118.8</ele>
        <time>2021-07-22 18:23:10</time>
      </trkpt>
      <trkpt lat="40.47129" lon="-4.76493">
        <ele>1119</ele>
        <time>2021-07-22 18:23:16</time>
      </trkpt>
      <trkpt lat="40.47142" lon="-4.76486">
        <ele>1119.8</ele>
        <time>2021-07-22 18:23:21</time>
      </trkpt>
      <trkpt lat="40.47155" lon="-4.7648">
        <ele>1120.8</ele>
        <time>2021-07-22 18:23:26</time>
      </trkpt>
      <trkpt lat="40.47167" lon="-4.76475">
        <ele>1121.8</ele>
        <time>2021-07-22 18:23:31</time>
      </trkpt>
      <trkpt lat="40.47175" lon="-4.76472">
        <ele>1122.6</ele>
        <time>2021-07-22 18:23:34</time>
      </trkpt>
      <trkpt lat="40.47177" lon="-4.76471">
        <ele>1123</ele>
        <time>2021-07-22 18:23:35</time>
      </trkpt>
      <trkpt lat="40.47187" lon="-4.76468">
        <ele>1124</ele>
        <time>2021-07-22 18:23:39</time>
      </trkpt>
      <trkpt lat="40.47195" lon="-4.76466">
        <ele>1124.6</ele>
        <time>2021-07-22 18:23:42</time>
      </trkpt>
      <trkpt lat="40.47201" lon="-4.76466">
        <ele>1125.2</ele>
        <time>2021-07-22 18:23:44</time>
      </trkpt>
      <trkpt lat="40.47212" lon="-4.76466">
        <ele>1125.6</ele>
        <time>2021-07-22 18:23:48</time>
      </trkpt>
      <trkpt lat="40.47225" lon="-4.76466">
        <ele>1126.2</ele>
        <time>2021-07-22 18:23:53</time>
      </trkpt>
      <trkpt lat="40.47228" lon="-4.76466">
        <ele>1126.6</ele>
        <time>2021-07-22 18:23:54</time>
      </trkpt>
      <trkpt lat="40.47238" lon="-4.76464">
        <ele>1127.2</ele>
        <time>2021-07-22 18:23:58</time>
      </trkpt>
      <trkpt lat="40.47252" lon="-4.76461">
        <ele>1128.4</ele>
        <time>2021-07-22 18:24:03</time>
      </trkpt>
      <trkpt lat="40.47255" lon="-4.76459">
        <ele>1128.6</ele>
        <time>2021-07-22 18:24:04</time>
      </trkpt>
      <trkpt lat="40.47267" lon="-4.76454">
        <ele>1129.4</ele>
        <time>2021-07-22 18:24:09</time>
      </trkpt>
      <trkpt lat="40.4727" lon="-4.76453">
        <ele>1129.4</ele>
        <time>2021-07-22 18:24:10</time>
      </trkpt>
      <trkpt lat="40.4728" lon="-4.76448">
        <ele>1130.2</ele>
        <time>2021-07-22 18:24:14</time>
      </trkpt>
      <trkpt lat="40.47294" lon="-4.76444">
        <ele>1131.4</ele>
        <time>2021-07-22 18:24:19</time>
      </trkpt>
      <trkpt lat="40.47297" lon="-4.76443">
        <ele>1131.4</ele>
        <time>2021-07-22 18:24:20</time>
      </trkpt>
      <trkpt lat="40.47308" lon="-4.76438">
        <ele>1132.4</ele>
        <time>2021-07-22 18:24:24</time>
      </trkpt>
      <trkpt lat="40.47313" lon="-4.76437">
        <ele>1133</ele>
        <time>2021-07-22 18:24:26</time>
      </trkpt>
      <trkpt lat="40.47324" lon="-4.76433">
        <ele>1133.4</ele>
        <time>2021-07-22 18:24:30</time>
      </trkpt>
      <trkpt lat="40.47336" lon="-4.76431">
        <ele>1134.4</ele>
        <time>2021-07-22 18:24:34</time>
      </trkpt>
      <trkpt lat="40.47351" lon="-4.7643">
        <ele>1135.6</ele>
        <time>2021-07-22 18:24:39</time>
      </trkpt>
      <trkpt lat="40.47361" lon="-4.76431">
        <ele>1136.4</ele>
        <time>2021-07-22 18:24:42</time>
      </trkpt>
      <trkpt lat="40.47364" lon="-4.76432">
        <ele>1136.6</ele>
        <time>2021-07-22 18:24:43</time>
      </trkpt>
      <trkpt lat="40.47379" lon="-4.76437">
        <ele>1137.8</ele>
        <time>2021-07-22 18:24:48</time>
      </trkpt>
      <trkpt lat="40.47382" lon="-4.76438">
        <ele>1138</ele>
        <time>2021-07-22 18:24:49</time>
      </trkpt>
      <trkpt lat="40.47397" lon="-4.76448">
        <ele>1139.2</ele>
        <time>2021-07-22 18:24:54</time>
      </trkpt>
      <trkpt lat="40.47406" lon="-4.76456">
        <ele>1139.8</ele>
        <time>2021-07-22 18:24:57</time>
      </trkpt>
      <trkpt lat="40.47412" lon="-4.7646">
        <ele>1140.2</ele>
        <time>2021-07-22 18:24:59</time>
      </trkpt>
      <trkpt lat="40.47433" lon="-4.76471">
        <ele>1141</ele>
        <time>2021-07-22 18:25:05</time>
      </trkpt>
      <trkpt lat="40.47449" lon="-4.76475">
        <ele>1142.2</ele>
        <time>2021-07-22 18:25:10</time>
      </trkpt>
      <trkpt lat="40.47459" lon="-4.76477">
        <ele>1142.8</ele>
        <time>2021-07-22 18:25:13</time>
      </trkpt>
      <trkpt lat="40.47464" lon="-4.76478">
        <ele>1143.4</ele>
        <time>2021-07-22 18:25:15</time>
      </trkpt>
      <trkpt lat="40.47479" lon="-4.76478">
        <ele>1144.2</ele>
        <time>2021-07-22 18:25:20</time>
      </trkpt>
      <trkpt lat="40.4749" lon="-4.7648">
        <ele>1145.4</ele>
        <time>2021-07-22 18:25:24</time>
      </trkpt>
      <trkpt lat="40.47502" lon="-4.76481">
        <ele>1146</ele>
        <time>2021-07-22 18:25:28</time>
      </trkpt>
      <trkpt lat="40.47508" lon="-4.76481">
        <ele>1146.4</ele>
        <time>2021-07-22 18:25:30</time>
      </trkpt>
      <trkpt lat="40.47524" lon="-4.76476">
        <ele>1147.2</ele>
        <time>2021-07-22 18:25:35</time>
      </trkpt>
      <trkpt lat="40.47531" lon="-4.76473">
        <ele>1147.6</ele>
        <time>2021-07-22 18:25:37</time>
      </trkpt>
      <trkpt lat="40.47544" lon="-4.76462">
        <ele>1148.6</ele>
        <time>2021-07-22 18:25:41</time>
      </trkpt>
      <trkpt lat="40.47547" lon="-4.76458">
        <ele>1148.8</ele>
        <time>2021-07-22 18:25:42</time>
      </trkpt>
      <trkpt lat="40.47553" lon="-4.76451">
        <ele>1149</ele>
        <time>2021-07-22 18:25:44</time>
      </trkpt>
      <trkpt lat="40.47559" lon="-4.76443">
        <ele>1149.4</ele>
        <time>2021-07-22 18:25:46</time>
      </trkpt>
      <trkpt lat="40.47565" lon="-4.76434">
        <ele>1149.8</ele>
        <time>2021-07-22 18:25:48</time>
      </trkpt>
      <trkpt lat="40.47579" lon="-4.76411">
        <ele>1150.4</ele>
        <time>2021-07-22 18:25:53</time>
      </trkpt>
      <trkpt lat="40.47594" lon="-4.7639">
        <ele>1151</ele>
        <time>2021-07-22 18:25:58</time>
      </trkpt>
      <trkpt lat="40.47611" lon="-4.76372">
        <ele>1151.4</ele>
        <time>2021-07-22 18:26:03</time>
      </trkpt>
      <trkpt lat="40.4762" lon="-4.76363">
        <ele>1151.8</ele>
        <time>2021-07-22 18:26:06</time>
      </trkpt>
      <trkpt lat="40.47635" lon="-4.7635">
        <ele>1152.4</ele>
        <time>2021-07-22 18:26:11</time>
      </trkpt>
      <trkpt lat="40.47648" lon="-4.7634">
        <ele>1153.2</ele>
        <time>2021-07-22 18:26:15</time>
      </trkpt>
      <trkpt lat="40.47654" lon="-4.76336">
        <ele>1153.6</ele>
        <time>2021-07-22 18:26:17</time>
      </trkpt>
      <trkpt lat="40.47677" lon="-4.76323">
        <ele>1154.8</ele>
        <time>2021-07-22 18:26:24</time>
      </trkpt>
      <trkpt lat="40.47703" lon="-4.7631">
        <ele>1156</ele>
        <time>2021-07-22 18:26:32</time>
      </trkpt>
      <trkpt lat="40.47721" lon="-4.763">
        <ele>1156.8</ele>
        <time>2021-07-22 18:26:38</time>
      </trkpt>
      <trkpt lat="40.47724" lon="-4.76298">
        <ele>1157</ele>
        <time>2021-07-22 18:26:39</time>
      </trkpt>
      <trkpt lat="40.47736" lon="-4.76294">
        <ele>1158</ele>
        <time>2021-07-22 18:26:43</time>
      </trkpt>
      <trkpt lat="40.47745" lon="-4.76294">
        <ele>1158.6</ele>
        <time>2021-07-22 18:26:46</time>
      </trkpt>
      <trkpt lat="40.4775" lon="-4.76295">
        <ele>1159.2</ele>
        <time>2021-07-22 18:26:48</time>
      </trkpt>
      <trkpt lat="40.47758" lon="-4.76296">
        <ele>1160.4</ele>
        <time>2021-07-22 18:26:51</time>
      </trkpt>
      <trkpt lat="40.47763" lon="-4.76298">
        <ele>1160.8</ele>
        <time>2021-07-22 18:26:53</time>
      </trkpt>
      <trkpt lat="40.4777" lon="-4.76302">
        <ele>1161.4</ele>
        <time>2021-07-22 18:26:56</time>
      </trkpt>
      <trkpt lat="40.47779" lon="-4.76309">
        <ele>1162.6</ele>
        <time>2021-07-22 18:27:00</time>
      </trkpt>
      <trkpt lat="40.47781" lon="-4.76312">
        <ele>1162.6</ele>
        <time>2021-07-22 18:27:01</time>
      </trkpt>
      <trkpt lat="40.47791" lon="-4.76326">
        <ele>1163.6</ele>
        <time>2021-07-22 18:27:06</time>
      </trkpt>
      <trkpt lat="40.47794" lon="-4.76332">
        <ele>1164.2</ele>
        <time>2021-07-22 18:27:08</time>
      </trkpt>
      <trkpt lat="40.47797" lon="-4.76338">
        <ele>1164.6</ele>
        <time>2021-07-22 18:27:10</time>
      </trkpt>
      <trkpt lat="40.47806" lon="-4.76353">
        <ele>1165.8</ele>
        <time>2021-07-22 18:27:15</time>
      </trkpt>
      <trkpt lat="40.4781" lon="-4.76359">
        <ele>1166</ele>
        <time>2021-07-22 18:27:17</time>
      </trkpt>
      <trkpt lat="40.47819" lon="-4.76374">
        <ele>1167</ele>
        <time>2021-07-22 18:27:22</time>
      </trkpt>
      <trkpt lat="40.47823" lon="-4.7638">
        <ele>1167.2</ele>
        <time>2021-07-22 18:27:24</time>
      </trkpt>
      <trkpt lat="40.47831" lon="-4.76392">
        <ele>1168</ele>
        <time>2021-07-22 18:27:28</time>
      </trkpt>
      <trkpt lat="40.47836" lon="-4.76401">
        <ele>1168.4</ele>
        <time>2021-07-22 18:27:31</time>
      </trkpt>
      <trkpt lat="40.47839" lon="-4.76408">
        <ele>1168.8</ele>
        <time>2021-07-22 18:27:33</time>
      </trkpt>
      <trkpt lat="40.47845" lon="-4.76425">
        <ele>1170</ele>
        <time>2021-07-22 18:27:38</time>
      </trkpt>
      <trkpt lat="40.47846" lon="-4.76428">
        <ele>1170.2</ele>
        <time>2021-07-22 18:27:39</time>
      </trkpt>
      <trkpt lat="40.47848" lon="-4.76443">
        <ele>1171.2</ele>
        <time>2021-07-22 18:27:43</time>
      </trkpt>
      <trkpt lat="40.4785" lon="-4.76454">
        <ele>1171.8</ele>
        <time>2021-07-22 18:27:46</time>
      </trkpt>
      <trkpt lat="40.47851" lon="-4.76462">
        <ele>1172.2</ele>
        <time>2021-07-22 18:27:48</time>
      </trkpt>
      <trkpt lat="40.47854" lon="-4.7648">
        <ele>1173.2</ele>
        <time>2021-07-22 18:27:53</time>
      </trkpt>
      <trkpt lat="40.47857" lon="-4.76499">
        <ele>1174</ele>
        <time>2021-07-22 18:27:58</time>
      </trkpt>
      <trkpt lat="40.4786" lon="-4.7651">
        <ele>1174.8</ele>
        <time>2021-07-22 18:28:01</time>
      </trkpt>
      <trkpt lat="40.47862" lon="-4.76517">
        <ele>1175.2</ele>
        <time>2021-07-22 18:28:03</time>
      </trkpt>
      <trkpt lat="40.47867" lon="-4.76531">
        <ele>1176.2</ele>
        <time>2021-07-22 18:28:07</time>
      </trkpt>
      <trkpt lat="40.47869" lon="-4.76534">
        <ele>1176.4</ele>
        <time>2021-07-22 18:28:08</time>
      </trkpt>
      <trkpt lat="40.47881" lon="-4.76552">
        <ele>1177.8</ele>
        <time>2021-07-22 18:28:14</time>
      </trkpt>
      <trkpt lat="40.47895" lon="-4.76564">
        <ele>1178.8</ele>
        <time>2021-07-22 18:28:19</time>
      </trkpt>
      <trkpt lat="40.47902" lon="-4.76567">
        <ele>1179</ele>
        <time>2021-07-22 18:28:21</time>
      </trkpt>
      <trkpt lat="40.47924" lon="-4.7657">
        <ele>1179.4</ele>
        <time>2021-07-22 18:28:27</time>
      </trkpt>
      <trkpt lat="40.47932" lon="-4.76569">
        <ele>1179.8</ele>
        <time>2021-07-22 18:28:29</time>
      </trkpt>
      <trkpt lat="40.47949" lon="-4.76561">
        <ele>1180.6</ele>
        <time>2021-07-22 18:28:34</time>
      </trkpt>
      <trkpt lat="40.47956" lon="-4.76557">
        <ele>1180.8</ele>
        <time>2021-07-22 18:28:36</time>
      </trkpt>
      <trkpt lat="40.47971" lon="-4.76545">
        <ele>1181.2</ele>
        <time>2021-07-22 18:28:41</time>
      </trkpt>
      <trkpt lat="40.47985" lon="-4.76535">
        <ele>1181.8</ele>
        <time>2021-07-22 18:28:46</time>
      </trkpt>
      <trkpt lat="40.4799" lon="-4.76531">
        <ele>1182</ele>
        <time>2021-07-22 18:28:48</time>
      </trkpt>
      <trkpt lat="40.48004" lon="-4.76523">
        <ele>1182.8</ele>
        <time>2021-07-22 18:28:53</time>
      </trkpt>
      <trkpt lat="40.4801" lon="-4.76522">
        <ele>1183</ele>
        <time>2021-07-22 18:28:55</time>
      </trkpt>
      <trkpt lat="40.48022" lon="-4.7652">
        <ele>1183.8</ele>
        <time>2021-07-22 18:28:59</time>
      </trkpt>
      <trkpt lat="40.48033" lon="-4.7652">
        <ele>1184.8</ele>
        <time>2021-07-22 18:29:03</time>
      </trkpt>
      <trkpt lat="40.48036" lon="-4.7652">
        <ele>1185</ele>
        <time>2021-07-22 18:29:04</time>
      </trkpt>
      <trkpt lat="40.48047" lon="-4.7652">
        <ele>1186</ele>
        <time>2021-07-22 18:29:08</time>
      </trkpt>
      <trkpt lat="40.48056" lon="-4.76519">
        <ele>1186.8</ele>
        <time>2021-07-22 18:29:11</time>
      </trkpt>
      <trkpt lat="40.48061" lon="-4.76519">
        <ele>1187.2</ele>
        <time>2021-07-22 18:29:13</time>
      </trkpt>
      <trkpt lat="40.48074" lon="-4.76515">
        <ele>1188.4</ele>
        <time>2021-07-22 18:29:18</time>
      </trkpt>
      <trkpt lat="40.4809" lon="-4.76504">
        <ele>1189.2</ele>
        <time>2021-07-22 18:29:24</time>
      </trkpt>
      <trkpt lat="40.48101" lon="-4.76491">
        <ele>1190.4</ele>
        <time>2021-07-22 18:29:29</time>
      </trkpt>
      <trkpt lat="40.48109" lon="-4.7648">
        <ele>1191.2</ele>
        <time>2021-07-22 18:29:33</time>
      </trkpt>
      <trkpt lat="40.48114" lon="-4.76475">
        <ele>1191.6</ele>
        <time>2021-07-22 18:29:35</time>
      </trkpt>
      <trkpt lat="40.48128" lon="-4.76455">
        <ele>1192.6</ele>
        <time>2021-07-22 18:29:42</time>
      </trkpt>
      <trkpt lat="40.48138" lon="-4.76442">
        <ele>1193.6</ele>
        <time>2021-07-22 18:29:47</time>
      </trkpt>
      <trkpt lat="40.48145" lon="-4.76435">
        <ele>1194.2</ele>
        <time>2021-07-22 18:29:50</time>
      </trkpt>
      <trkpt lat="40.48151" lon="-4.76428">
        <ele>1194.8</ele>
        <time>2021-07-22 18:29:53</time>
      </trkpt>
      <trkpt lat="40.48162" lon="-4.76413">
        <ele>1195.4</ele>
        <time>2021-07-22 18:29:58</time>
      </trkpt>
      <trkpt lat="40.48166" lon="-4.76408">
        <ele>1195.6</ele>
        <time>2021-07-22 18:30:00</time>
      </trkpt>
      <trkpt lat="40.48179" lon="-4.76392">
        <ele>1196.6</ele>
        <time>2021-07-22 18:30:06</time>
      </trkpt>
      <trkpt lat="40.48181" lon="-4.7639">
        <ele>1196.8</ele>
        <time>2021-07-22 18:30:07</time>
      </trkpt>
      <trkpt lat="40.4819" lon="-4.76381">
        <ele>1197.8</ele>
        <time>2021-07-22 18:30:12</time>
      </trkpt>
      <trkpt lat="40.48196" lon="-4.76376">
        <ele>1198.4</ele>
        <time>2021-07-22 18:30:15</time>
      </trkpt>
      <trkpt lat="40.48201" lon="-4.76373">
        <ele>1198.8</ele>
        <time>2021-07-22 18:30:17</time>
      </trkpt>
      <trkpt lat="40.48213" lon="-4.76369">
        <ele>1200</ele>
        <time>2021-07-22 18:30:21</time>
      </trkpt>
      <trkpt lat="40.48225" lon="-4.76369">
        <ele>1201</ele>
        <time>2021-07-22 18:30:25</time>
      </trkpt>
      <trkpt lat="40.48234" lon="-4.76368">
        <ele>1201.6</ele>
        <time>2021-07-22 18:30:28</time>
      </trkpt>
      <trkpt lat="40.48241" lon="-4.76368">
        <ele>1202</ele>
        <time>2021-07-22 18:30:30</time>
      </trkpt>
      <trkpt lat="40.48253" lon="-4.76368">
        <ele>1202.2</ele>
        <time>2021-07-22 18:30:34</time>
      </trkpt>
      <trkpt lat="40.48273" lon="-4.7637">
        <ele>1203.2</ele>
        <time>2021-07-22 18:30:40</time>
      </trkpt>
      <trkpt lat="40.4828" lon="-4.76369">
        <ele>1203.2</ele>
        <time>2021-07-22 18:30:42</time>
      </trkpt>
      <trkpt lat="40.48298" lon="-4.76367">
        <ele>1204.4</ele>
        <time>2021-07-22 18:30:47</time>
      </trkpt>
      <trkpt lat="40.48307" lon="-4.76364">
        <ele>1204.6</ele>
        <time>2021-07-22 18:30:50</time>
      </trkpt>
      <trkpt lat="40.4832" lon="-4.76357">
        <ele>1205.4</ele>
        <time>2021-07-22 18:30:54</time>
      </trkpt>
      <trkpt lat="40.48326" lon="-4.76352">
        <ele>1205.6</ele>
        <time>2021-07-22 18:30:56</time>
      </trkpt>
      <trkpt lat="40.48341" lon="-4.76332">
        <ele>1206.2</ele>
        <time>2021-07-22 18:31:02</time>
      </trkpt>
      <trkpt lat="40.48343" lon="-4.76328">
        <ele>1206.4</ele>
        <time>2021-07-22 18:31:03</time>
      </trkpt>
      <trkpt lat="40.48355" lon="-4.76302">
        <ele>1207.4</ele>
        <time>2021-07-22 18:31:09</time>
      </trkpt>
      <trkpt lat="40.48361" lon="-4.76289">
        <ele>1207.8</ele>
        <time>2021-07-22 18:31:12</time>
      </trkpt>
      <trkpt lat="40.48368" lon="-4.76268">
        <ele>1208.4</ele>
        <time>2021-07-22 18:31:16</time>
      </trkpt>
      <trkpt lat="40.48374" lon="-4.76254">
        <ele>1208.6</ele>
        <time>2021-07-22 18:31:19</time>
      </trkpt>
      <trkpt lat="40.48386" lon="-4.76226">
        <ele>1209.2</ele>
        <time>2021-07-22 18:31:25</time>
      </trkpt>
      <trkpt lat="40.48389" lon="-4.76216">
        <ele>1209.6</ele>
        <time>2021-07-22 18:31:27</time>
      </trkpt>
      <trkpt lat="40.48399" lon="-4.76186">
        <ele>1210.4</ele>
        <time>2021-07-22 18:31:33</time>
      </trkpt>
      <trkpt lat="40.48401" lon="-4.7618">
        <ele>1210.4</ele>
        <time>2021-07-22 18:31:34</time>
      </trkpt>
      <trkpt lat="40.48401" lon="-4.76145">
        <ele>1211.2</ele>
        <time>2021-07-22 18:31:40</time>
      </trkpt>
      <trkpt lat="40.484" lon="-4.76139">
        <ele>1211.2</ele>
        <time>2021-07-22 18:31:41</time>
      </trkpt>
      <trkpt lat="40.48391" lon="-4.76105">
        <ele>1212</ele>
        <time>2021-07-22 18:31:47</time>
      </trkpt>
      <trkpt lat="40.48389" lon="-4.761">
        <ele>1212.4</ele>
        <time>2021-07-22 18:31:48</time>
      </trkpt>
      <trkpt lat="40.48381" lon="-4.76072">
        <ele>1213.2</ele>
        <time>2021-07-22 18:31:54</time>
      </trkpt>
      <trkpt lat="40.48379" lon="-4.76068">
        <ele>1213.6</ele>
        <time>2021-07-22 18:31:55</time>
      </trkpt>
      <trkpt lat="40.48372" lon="-4.76046">
        <ele>1214.8</ele>
        <time>2021-07-22 18:32:00</time>
      </trkpt>
      <trkpt lat="40.4837" lon="-4.76038">
        <ele>1215.2</ele>
        <time>2021-07-22 18:32:02</time>
      </trkpt>
      <trkpt lat="40.48365" lon="-4.76021">
        <ele>1215.6</ele>
        <time>2021-07-22 18:32:06</time>
      </trkpt>
      <trkpt lat="40.48358" lon="-4.75998">
        <ele>1216.4</ele>
        <time>2021-07-22 18:32:11</time>
      </trkpt>
      <trkpt lat="40.48356" lon="-4.75993">
        <ele>1216.8</ele>
        <time>2021-07-22 18:32:12</time>
      </trkpt>
      <trkpt lat="40.48349" lon="-4.75968">
        <ele>1218</ele>
        <time>2021-07-22 18:32:17</time>
      </trkpt>
      <trkpt lat="40.48345" lon="-4.75953">
        <ele>1218.6</ele>
        <time>2021-07-22 18:32:20</time>
      </trkpt>
      <trkpt lat="40.4834" lon="-4.75938">
        <ele>1219</ele>
        <time>2021-07-22 18:32:23</time>
      </trkpt>
      <trkpt lat="40.48331" lon="-4.75907">
        <ele>1220.2</ele>
        <time>2021-07-22 18:32:29</time>
      </trkpt>
      <trkpt lat="40.48328" lon="-4.75897">
        <ele>1220.8</ele>
        <time>2021-07-22 18:32:31</time>
      </trkpt>
      <trkpt lat="40.48325" lon="-4.75886">
        <ele>1221.2</ele>
        <time>2021-07-22 18:32:33</time>
      </trkpt>
      <trkpt lat="40.48319" lon="-4.75859">
        <ele>1222.4</ele>
        <time>2021-07-22 18:32:38</time>
      </trkpt>
      <trkpt lat="40.48319" lon="-4.75853">
        <ele>1222.8</ele>
        <time>2021-07-22 18:32:39</time>
      </trkpt>
      <trkpt lat="40.48317" lon="-4.75831">
        <ele>1223.6</ele>
        <time>2021-07-22 18:32:43</time>
      </trkpt>
      <trkpt lat="40.48317" lon="-4.75825">
        <ele>1223.8</ele>
        <time>2021-07-22 18:32:44</time>
      </trkpt>
      <trkpt lat="40.48318" lon="-4.75808">
        <ele>1224.6</ele>
        <time>2021-07-22 18:32:47</time>
      </trkpt>
      <trkpt lat="40.48318" lon="-4.75802">
        <ele>1224.8</ele>
        <time>2021-07-22 18:32:48</time>
      </trkpt>
      <trkpt lat="40.48322" lon="-4.75765">
        <ele>1225.6</ele>
        <time>2021-07-22 18:32:55</time>
      </trkpt>
      <trkpt lat="40.48326" lon="-4.75743">
        <ele>1226.6</ele>
        <time>2021-07-22 18:33:00</time>
      </trkpt>
      <trkpt lat="40.48327" lon="-4.7573">
        <ele>1227.4</ele>
        <time>2021-07-22 18:33:03</time>
      </trkpt>
      <trkpt lat="40.48329" lon="-4.75722">
        <ele>1227.8</ele>
        <time>2021-07-22 18:33:05</time>
      </trkpt>
      <trkpt lat="40.48333" lon="-4.75701">
        <ele>1228.8</ele>
        <time>2021-07-22 18:33:10</time>
      </trkpt>
      <trkpt lat="40.48337" lon="-4.75678">
        <ele>1229.8</ele>
        <time>2021-07-22 18:33:16</time>
      </trkpt>
      <trkpt lat="40.48339" lon="-4.75668">
        <ele>1230.4</ele>
        <time>2021-07-22 18:33:19</time>
      </trkpt>
      <trkpt lat="40.48341" lon="-4.75658">
        <ele>1231.4</ele>
        <time>2021-07-22 18:33:22</time>
      </trkpt>
      <trkpt lat="40.48343" lon="-4.75641">
        <ele>1232.6</ele>
        <time>2021-07-22 18:33:27</time>
      </trkpt>
      <trkpt lat="40.48346" lon="-4.75623">
        <ele>1233.6</ele>
        <time>2021-07-22 18:33:32</time>
      </trkpt>
      <trkpt lat="40.48348" lon="-4.75609">
        <ele>1234.4</ele>
        <time>2021-07-22 18:33:36</time>
      </trkpt>
      <trkpt lat="40.48348" lon="-4.75606">
        <ele>1234.6</ele>
        <time>2021-07-22 18:33:37</time>
      </trkpt>
      <trkpt lat="40.48351" lon="-4.75585">
        <ele>1235.6</ele>
        <time>2021-07-22 18:33:43</time>
      </trkpt>
      <trkpt lat="40.48351" lon="-4.75578">
        <ele>1236.2</ele>
        <time>2021-07-22 18:33:45</time>
      </trkpt>
      <trkpt lat="40.48351" lon="-4.75567">
        <ele>1236.8</ele>
        <time>2021-07-22 18:33:48</time>
      </trkpt>
      <trkpt lat="40.48351" lon="-4.75552">
        <ele>1237.2</ele>
        <time>2021-07-22 18:33:52</time>
      </trkpt>
      <trkpt lat="40.4835" lon="-4.75543">
        <ele>1237.6</ele>
        <time>2021-07-22 18:33:54</time>
      </trkpt>
      <trkpt lat="40.48348" lon="-4.75525">
        <ele>1238.2</ele>
        <time>2021-07-22 18:33:58</time>
      </trkpt>
      <trkpt lat="40.48346" lon="-4.75516">
        <ele>1238.8</ele>
        <time>2021-07-22 18:34:00</time>
      </trkpt>
      <trkpt lat="40.48339" lon="-4.75499">
        <ele>1240</ele>
        <time>2021-07-22 18:34:04</time>
      </trkpt>
      <trkpt lat="40.48331" lon="-4.75489">
        <ele>1241</ele>
        <time>2021-07-22 18:34:07</time>
      </trkpt>
      <trkpt lat="40.48324" lon="-4.75484">
        <ele>1241.4</ele>
        <time>2021-07-22 18:34:09</time>
      </trkpt>
      <trkpt lat="40.48313" lon="-4.75479">
        <ele>1242</ele>
        <time>2021-07-22 18:34:12</time>
      </trkpt>
      <trkpt lat="40.48301" lon="-4.75476">
        <ele>1242.6</ele>
        <time>2021-07-22 18:34:15</time>
      </trkpt>
      <trkpt lat="40.4829" lon="-4.75472">
        <ele>1243</ele>
        <time>2021-07-22 18:34:18</time>
      </trkpt>
      <trkpt lat="40.48286" lon="-4.7547">
        <ele>1243</ele>
        <time>2021-07-22 18:34:19</time>
      </trkpt>
      <trkpt lat="40.48278" lon="-4.75464">
        <ele>1243.2</ele>
        <time>2021-07-22 18:34:21</time>
      </trkpt>
      <trkpt lat="40.48264" lon="-4.75441">
        <ele>1243.2</ele>
        <time>2021-07-22 18:34:26</time>
      </trkpt>
      <trkpt lat="40.4826" lon="-4.75423">
        <ele>1243.4</ele>
        <time>2021-07-22 18:34:29</time>
      </trkpt>
      <trkpt lat="40.48258" lon="-4.7541">
        <ele>1243.4</ele>
        <time>2021-07-22 18:34:31</time>
      </trkpt>
      <trkpt lat="40.48245" lon="-4.75358">
        <ele>1243.4</ele>
        <time>2021-07-22 18:34:39</time>
      </trkpt>
      <trkpt lat="40.48237" lon="-4.75312">
        <ele>1243.8</ele>
        <time>2021-07-22 18:34:46</time>
      </trkpt>
      <trkpt lat="40.48233" lon="-4.75268">
        <ele>1244.2</ele>
        <time>2021-07-22 18:34:53</time>
      </trkpt>
      <trkpt lat="40.48231" lon="-4.75245">
        <ele>1245</ele>
        <time>2021-07-22 18:34:57</time>
      </trkpt>
      <trkpt lat="40.48229" lon="-4.75228">
        <ele>1245.8</ele>
        <time>2021-07-22 18:35:00</time>
      </trkpt>
      <trkpt lat="40.48228" lon="-4.75223">
        <ele>1246.2</ele>
        <time>2021-07-22 18:35:01</time>
      </trkpt>
      <trkpt lat="40.48224" lon="-4.75204">
        <ele>1247</ele>
        <time>2021-07-22 18:35:05</time>
      </trkpt>
      <trkpt lat="40.48221" lon="-4.75195">
        <ele>1247.8</ele>
        <time>2021-07-22 18:35:07</time>
      </trkpt>
      <trkpt lat="40.48216" lon="-4.75183">
        <ele>1248.2</ele>
        <time>2021-07-22 18:35:10</time>
      </trkpt>
      <trkpt lat="40.48212" lon="-4.75171">
        <ele>1249.2</ele>
        <time>2021-07-22 18:35:13</time>
      </trkpt>
      <trkpt lat="40.48211" lon="-4.75168">
        <ele>1249.6</ele>
        <time>2021-07-22 18:35:14</time>
      </trkpt>
      <trkpt lat="40.48205" lon="-4.75154">
        <ele>1250.2</ele>
        <time>2021-07-22 18:35:18</time>
      </trkpt>
      <trkpt lat="40.48198" lon="-4.75141">
        <ele>1251</ele>
        <time>2021-07-22 18:35:22</time>
      </trkpt>
      <trkpt lat="40.48194" lon="-4.75135">
        <ele>1251.8</ele>
        <time>2021-07-22 18:35:24</time>
      </trkpt>
      <trkpt lat="40.48183" lon="-4.75123">
        <ele>1252.8</ele>
        <time>2021-07-22 18:35:29</time>
      </trkpt>
      <trkpt lat="40.48181" lon="-4.75122">
        <ele>1253.2</ele>
        <time>2021-07-22 18:35:30</time>
      </trkpt>
      <trkpt lat="40.48171" lon="-4.75115">
        <ele>1253.8</ele>
        <time>2021-07-22 18:35:34</time>
      </trkpt>
      <trkpt lat="40.48161" lon="-4.75109">
        <ele>1254.6</ele>
        <time>2021-07-22 18:35:38</time>
      </trkpt>
      <trkpt lat="40.48156" lon="-4.75106">
        <ele>1255.2</ele>
        <time>2021-07-22 18:35:40</time>
      </trkpt>
      <trkpt lat="40.48146" lon="-4.75095">
        <ele>1256.4</ele>
        <time>2021-07-22 18:35:45</time>
      </trkpt>
      <trkpt lat="40.48144" lon="-4.75092">
        <ele>1256.6</ele>
        <time>2021-07-22 18:35:46</time>
      </trkpt>
      <trkpt lat="40.48135" lon="-4.75077">
        <ele>1257.4</ele>
        <time>2021-07-22 18:35:51</time>
      </trkpt>
      <trkpt lat="40.48132" lon="-4.75066">
        <ele>1257.4</ele>
        <time>2021-07-22 18:35:54</time>
      </trkpt>
      <trkpt lat="40.48128" lon="-4.7505">
        <ele>1258.2</ele>
        <time>2021-07-22 18:35:58</time>
      </trkpt>
      <trkpt lat="40.48125" lon="-4.75033">
        <ele>1259</ele>
        <time>2021-07-22 18:36:02</time>
      </trkpt>
      <trkpt lat="40.48125" lon="-4.75024">
        <ele>1259.4</ele>
        <time>2021-07-22 18:36:04</time>
      </trkpt>
      <trkpt lat="40.48125" lon="-4.75001">
        <ele>1260.2</ele>
        <time>2021-07-22 18:36:09</time>
      </trkpt>
      <trkpt lat="40.48126" lon="-4.74997">
        <ele>1260.4</ele>
        <time>2021-07-22 18:36:10</time>
      </trkpt>
      <trkpt lat="40.48127" lon="-4.7497">
        <ele>1261.6</ele>
        <time>2021-07-22 18:36:16</time>
      </trkpt>
      <trkpt lat="40.48127" lon="-4.7496">
        <ele>1262.2</ele>
        <time>2021-07-22 18:36:18</time>
      </trkpt>
      <trkpt lat="40.48128" lon="-4.74947">
        <ele>1262.6</ele>
        <time>2021-07-22 18:36:21</time>
      </trkpt>
      <trkpt lat="40.48128" lon="-4.74928">
        <ele>1263.2</ele>
        <time>2021-07-22 18:36:25</time>
      </trkpt>
      <trkpt lat="40.48128" lon="-4.74913">
        <ele>1263.6</ele>
        <time>2021-07-22 18:36:28</time>
      </trkpt>
      <trkpt lat="40.48129" lon="-4.74894">
        <ele>1264.6</ele>
        <time>2021-07-22 18:36:32</time>
      </trkpt>
      <trkpt lat="40.48129" lon="-4.7489">
        <ele>1264.8</ele>
        <time>2021-07-22 18:36:33</time>
      </trkpt>
      <trkpt lat="40.4813" lon="-4.74871">
        <ele>1265.6</ele>
        <time>2021-07-22 18:36:37</time>
      </trkpt>
      <trkpt lat="40.48132" lon="-4.74852">
        <ele>1266.6</ele>
        <time>2021-07-22 18:36:41</time>
      </trkpt>
      <trkpt lat="40.48137" lon="-4.74824">
        <ele>1267.6</ele>
        <time>2021-07-22 18:36:47</time>
      </trkpt>
      <trkpt lat="40.48139" lon="-4.74815">
        <ele>1268</ele>
        <time>2021-07-22 18:36:49</time>
      </trkpt>
      <trkpt lat="40.48144" lon="-4.74798">
        <ele>1268.6</ele>
        <time>2021-07-22 18:36:53</time>
      </trkpt>
      <trkpt lat="40.48151" lon="-4.74783">
        <ele>1269.6</ele>
        <time>2021-07-22 18:36:57</time>
      </trkpt>
      <trkpt lat="40.48153" lon="-4.74779">
        <ele>1270</ele>
        <time>2021-07-22 18:36:58</time>
      </trkpt>
      <trkpt lat="40.48164" lon="-4.74762">
        <ele>1271</ele>
        <time>2021-07-22 18:37:03</time>
      </trkpt>
      <trkpt lat="40.48166" lon="-4.74759">
        <ele>1271.2</ele>
        <time>2021-07-22 18:37:04</time>
      </trkpt>
      <trkpt lat="40.4818" lon="-4.74746">
        <ele>1272.2</ele>
        <time>2021-07-22 18:37:09</time>
      </trkpt>
      <trkpt lat="40.48183" lon="-4.74744">
        <ele>1272.8</ele>
        <time>2021-07-22 18:37:10</time>
      </trkpt>
      <trkpt lat="40.48188" lon="-4.74739">
        <ele>1273.2</ele>
        <time>2021-07-22 18:37:12</time>
      </trkpt>
      <trkpt lat="40.48197" lon="-4.74733">
        <ele>1274</ele>
        <time>2021-07-22 18:37:15</time>
      </trkpt>
      <trkpt lat="40.48203" lon="-4.74729">
        <ele>1274.6</ele>
        <time>2021-07-22 18:37:17</time>
      </trkpt>
      <trkpt lat="40.48215" lon="-4.74721">
        <ele>1275.4</ele>
        <time>2021-07-22 18:37:21</time>
      </trkpt>
      <trkpt lat="40.4823" lon="-4.74711">
        <ele>1276</ele>
        <time>2021-07-22 18:37:26</time>
      </trkpt>
      <trkpt lat="40.48243" lon="-4.74702">
        <ele>1276.4</ele>
        <time>2021-07-22 18:37:30</time>
      </trkpt>
      <trkpt lat="40.48259" lon="-4.74691">
        <ele>1277.2</ele>
        <time>2021-07-22 18:37:35</time>
      </trkpt>
      <trkpt lat="40.48262" lon="-4.74689">
        <ele>1277.2</ele>
        <time>2021-07-22 18:37:36</time>
      </trkpt>
      <trkpt lat="40.48278" lon="-4.74679">
        <ele>1278.2</ele>
        <time>2021-07-22 18:37:41</time>
      </trkpt>
      <trkpt lat="40.48287" lon="-4.74673">
        <ele>1278.6</ele>
        <time>2021-07-22 18:37:44</time>
      </trkpt>
      <trkpt lat="40.48302" lon="-4.74663">
        <ele>1279.4</ele>
        <time>2021-07-22 18:37:49</time>
      </trkpt>
      <trkpt lat="40.4831" lon="-4.74657">
        <ele>1280</ele>
        <time>2021-07-22 18:37:52</time>
      </trkpt>
      <trkpt lat="40.48324" lon="-4.74647">
        <ele>1280.6</ele>
        <time>2021-07-22 18:37:57</time>
      </trkpt>
      <trkpt lat="40.48332" lon="-4.74643">
        <ele>1281.4</ele>
        <time>2021-07-22 18:38:00</time>
      </trkpt>
      <trkpt lat="40.48335" lon="-4.74641">
        <ele>1281.6</ele>
        <time>2021-07-22 18:38:01</time>
      </trkpt>
      <trkpt lat="40.48349" lon="-4.74633">
        <ele>1282.6</ele>
        <time>2021-07-22 18:38:06</time>
      </trkpt>
      <trkpt lat="40.48352" lon="-4.74631">
        <ele>1282.8</ele>
        <time>2021-07-22 18:38:07</time>
      </trkpt>
      <trkpt lat="40.48365" lon="-4.74622">
        <ele>1283.8</ele>
        <time>2021-07-22 18:38:12</time>
      </trkpt>
      <trkpt lat="40.48379" lon="-4.74611">
        <ele>1284.8</ele>
        <time>2021-07-22 18:38:17</time>
      </trkpt>
      <trkpt lat="40.48398" lon="-4.74599">
        <ele>1285.8</ele>
        <time>2021-07-22 18:38:23</time>
      </trkpt>
      <trkpt lat="40.48404" lon="-4.74595">
        <ele>1286.2</ele>
        <time>2021-07-22 18:38:25</time>
      </trkpt>
      <trkpt lat="40.48421" lon="-4.74584">
        <ele>1286.8</ele>
        <time>2021-07-22 18:38:31</time>
      </trkpt>
      <trkpt lat="40.4843" lon="-4.74579">
        <ele>1287.2</ele>
        <time>2021-07-22 18:38:34</time>
      </trkpt>
      <trkpt lat="40.48435" lon="-4.74577">
        <ele>1287.8</ele>
        <time>2021-07-22 18:38:36</time>
      </trkpt>
      <trkpt lat="40.48446" lon="-4.74574">
        <ele>1289</ele>
        <time>2021-07-22 18:38:40</time>
      </trkpt>
      <trkpt lat="40.48459" lon="-4.74578">
        <ele>1290</ele>
        <time>2021-07-22 18:38:45</time>
      </trkpt>
      <trkpt lat="40.48462" lon="-4.7458">
        <ele>1290.2</ele>
        <time>2021-07-22 18:38:46</time>
      </trkpt>
      <trkpt lat="40.48469" lon="-4.74586">
        <ele>1290.8</ele>
        <time>2021-07-22 18:38:49</time>
      </trkpt>
      <trkpt lat="40.48474" lon="-4.74596">
        <ele>1292</ele>
        <time>2021-07-22 18:38:52</time>
      </trkpt>
      <trkpt lat="40.48479" lon="-4.74623">
        <ele>1293</ele>
        <time>2021-07-22 18:38:59</time>
      </trkpt>
      <trkpt lat="40.48473" lon="-4.74645">
        <ele>1294</ele>
        <time>2021-07-22 18:39:05</time>
      </trkpt>
      <trkpt lat="40.48462" lon="-4.74663">
        <ele>1295.2</ele>
        <time>2021-07-22 18:39:11</time>
      </trkpt>
      <trkpt lat="40.48459" lon="-4.74669">
        <ele>1295.6</ele>
        <time>2021-07-22 18:39:13</time>
      </trkpt>
      <trkpt lat="40.48452" lon="-4.7468">
        <ele>1296.4</ele>
        <time>2021-07-22 18:39:17</time>
      </trkpt>
      <trkpt lat="40.48446" lon="-4.74689">
        <ele>1297</ele>
        <time>2021-07-22 18:39:20</time>
      </trkpt>
      <trkpt lat="40.48443" lon="-4.74696">
        <ele>1297.4</ele>
        <time>2021-07-22 18:39:22</time>
      </trkpt>
      <trkpt lat="40.48436" lon="-4.74712">
        <ele>1298.2</ele>
        <time>2021-07-22 18:39:27</time>
      </trkpt>
      <trkpt lat="40.48435" lon="-4.74715">
        <ele>1298.4</ele>
        <time>2021-07-22 18:39:28</time>
      </trkpt>
      <trkpt lat="40.48425" lon="-4.74737">
        <ele>1299.6</ele>
        <time>2021-07-22 18:39:35</time>
      </trkpt>
      <trkpt lat="40.48424" lon="-4.7474">
        <ele>1299.8</ele>
        <time>2021-07-22 18:39:36</time>
      </trkpt>
      <trkpt lat="40.48419" lon="-4.74752">
        <ele>1300.6</ele>
        <time>2021-07-22 18:39:40</time>
      </trkpt>
      <trkpt lat="40.48413" lon="-4.74767">
        <ele>1301.8</ele>
        <time>2021-07-22 18:39:45</time>
      </trkpt>
      <trkpt lat="40.4841" lon="-4.74773">
        <ele>1302.2</ele>
        <time>2021-07-22 18:39:47</time>
      </trkpt>
      <trkpt lat="40.48405" lon="-4.74786">
        <ele>1303</ele>
        <time>2021-07-22 18:39:51</time>
      </trkpt>
      <trkpt lat="40.48402" lon="-4.74792">
        <ele>1303.6</ele>
        <time>2021-07-22 18:39:53</time>
      </trkpt>
      <trkpt lat="40.48397" lon="-4.74805">
        <ele>1304</ele>
        <time>2021-07-22 18:39:57</time>
      </trkpt>
      <trkpt lat="40.48389" lon="-4.7482">
        <ele>1304.4</ele>
        <time>2021-07-22 18:40:02</time>
      </trkpt>
      <trkpt lat="40.48381" lon="-4.74838">
        <ele>1305</ele>
        <time>2021-07-22 18:40:08</time>
      </trkpt>
      <trkpt lat="40.48373" lon="-4.74855">
        <ele>1306</ele>
        <time>2021-07-22 18:40:14</time>
      </trkpt>
      <trkpt lat="40.4837" lon="-4.74861">
        <ele>1306.2</ele>
        <time>2021-07-22 18:40:16</time>
      </trkpt>
      <trkpt lat="40.48361" lon="-4.74881">
        <ele>1307</ele>
        <time>2021-07-22 18:40:23</time>
      </trkpt>
      <trkpt lat="40.48353" lon="-4.74904">
        <ele>1307.8</ele>
        <time>2021-07-22 18:40:30</time>
      </trkpt>
      <trkpt lat="40.48351" lon="-4.74911">
        <ele>1308</ele>
        <time>2021-07-22 18:40:32</time>
      </trkpt>
      <trkpt lat="40.48348" lon="-4.74934">
        <ele>1309.2</ele>
        <time>2021-07-22 18:40:38</time>
      </trkpt>
      <trkpt lat="40.48352" lon="-4.74962">
        <ele>1310.2</ele>
        <time>2021-07-22 18:40:45</time>
      </trkpt>
      <trkpt lat="40.48353" lon="-4.74966">
        <ele>1310.4</ele>
        <time>2021-07-22 18:40:46</time>
      </trkpt>
      <trkpt lat="40.48358" lon="-4.74985">
        <ele>1311</ele>
        <time>2021-07-22 18:40:51</time>
      </trkpt>
      <trkpt lat="40.48362" lon="-4.75">
        <ele>1312.2</ele>
        <time>2021-07-22 18:40:55</time>
      </trkpt>
      <trkpt lat="40.48363" lon="-4.75004">
        <ele>1312.2</ele>
        <time>2021-07-22 18:40:56</time>
      </trkpt>
      <trkpt lat="40.48371" lon="-4.75038">
        <ele>1313.2</ele>
        <time>2021-07-22 18:41:05</time>
      </trkpt>
      <trkpt lat="40.48377" lon="-4.75067">
        <ele>1314</ele>
        <time>2021-07-22 18:41:13</time>
      </trkpt>
      <trkpt lat="40.48377" lon="-4.7507">
        <ele>1314.2</ele>
        <time>2021-07-22 18:41:14</time>
      </trkpt>
      <trkpt lat="40.48379" lon="-4.75097">
        <ele>1315.2</ele>
        <time>2021-07-22 18:41:21</time>
      </trkpt>
      <trkpt lat="40.48378" lon="-4.75101">
        <ele>1315.4</ele>
        <time>2021-07-22 18:41:22</time>
      </trkpt>
      <trkpt lat="40.48379" lon="-4.75125">
        <ele>1316.4</ele>
        <time>2021-07-22 18:41:28</time>
      </trkpt>
      <trkpt lat="40.48379" lon="-4.75133">
        <ele>1316.8</ele>
        <time>2021-07-22 18:41:30</time>
      </trkpt>
      <trkpt lat="40.4838" lon="-4.75147">
        <ele>1317.4</ele>
        <time>2021-07-22 18:41:34</time>
      </trkpt>
      <trkpt lat="40.48386" lon="-4.75159">
        <ele>1318.2</ele>
        <time>2021-07-22 18:41:38</time>
      </trkpt>
      <trkpt lat="40.4839" lon="-4.75164">
        <ele>1318.6</ele>
        <time>2021-07-22 18:41:40</time>
      </trkpt>
      <trkpt lat="40.484" lon="-4.75167">
        <ele>1319</ele>
        <time>2021-07-22 18:41:43</time>
      </trkpt>
      <trkpt lat="40.4841" lon="-4.75164">
        <ele>1319.4</ele>
        <time>2021-07-22 18:41:46</time>
      </trkpt>
      <trkpt lat="40.48415" lon="-4.75158">
        <ele>1320.2</ele>
        <time>2021-07-22 18:41:48</time>
      </trkpt>
      <trkpt lat="40.48417" lon="-4.75155">
        <ele>1320.4</ele>
        <time>2021-07-22 18:41:49</time>
      </trkpt>
      <trkpt lat="40.48421" lon="-4.75136">
        <ele>1320.8</ele>
        <time>2021-07-22 18:41:53</time>
      </trkpt>
      <trkpt lat="40.48417" lon="-4.75107">
        <ele>1321</ele>
        <time>2021-07-22 18:41:59</time>
      </trkpt>
      <trkpt lat="40.48414" lon="-4.75094">
        <ele>1321.6</ele>
        <time>2021-07-22 18:42:02</time>
      </trkpt>
      <trkpt lat="40.48409" lon="-4.75076">
        <ele>1322.6</ele>
        <time>2021-07-22 18:42:06</time>
      </trkpt>
      <trkpt lat="40.48409" lon="-4.75071">
        <ele>1322.8</ele>
        <time>2021-07-22 18:42:07</time>
      </trkpt>
      <trkpt lat="40.48406" lon="-4.75053">
        <ele>1323.6</ele>
        <time>2021-07-22 18:42:11</time>
      </trkpt>
      <trkpt lat="40.48405" lon="-4.75036">
        <ele>1324.4</ele>
        <time>2021-07-22 18:42:15</time>
      </trkpt>
      <trkpt lat="40.48405" lon="-4.75031">
        <ele>1324.6</ele>
        <time>2021-07-22 18:42:16</time>
      </trkpt>
      <trkpt lat="40.48407" lon="-4.75003">
        <ele>1325.6</ele>
        <time>2021-07-22 18:42:22</time>
      </trkpt>
      <trkpt lat="40.48407" lon="-4.74997">
        <ele>1325.8</ele>
        <time>2021-07-22 18:42:23</time>
      </trkpt>
      <trkpt lat="40.48411" lon="-4.74976">
        <ele>1326.8</ele>
        <time>2021-07-22 18:42:27</time>
      </trkpt>
      <trkpt lat="40.48416" lon="-4.74957">
        <ele>1328</ele>
        <time>2021-07-22 18:42:31</time>
      </trkpt>
      <trkpt lat="40.48426" lon="-4.74931">
        <ele>1328.8</ele>
        <time>2021-07-22 18:42:37</time>
      </trkpt>
      <trkpt lat="40.4843" lon="-4.74923">
        <ele>1329.2</ele>
        <time>2021-07-22 18:42:39</time>
      </trkpt>
      <trkpt lat="40.48445" lon="-4.74903">
        <ele>1329.8</ele>
        <time>2021-07-22 18:42:45</time>
      </trkpt>
      <trkpt lat="40.48449" lon="-4.74897">
        <ele>1330.4</ele>
        <time>2021-07-22 18:42:47</time>
      </trkpt>
      <trkpt lat="40.48461" lon="-4.74884">
        <ele>1331</ele>
        <time>2021-07-22 18:42:52</time>
      </trkpt>
      <trkpt lat="40.48466" lon="-4.74878">
        <ele>1331.4</ele>
        <time>2021-07-22 18:42:54</time>
      </trkpt>
      <trkpt lat="40.48474" lon="-4.7487">
        <ele>1332</ele>
        <time>2021-07-22 18:42:57</time>
      </trkpt>
      <trkpt lat="40.4849" lon="-4.74853">
        <ele>1333</ele>
        <time>2021-07-22 18:43:03</time>
      </trkpt>
      <trkpt lat="40.48506" lon="-4.74836">
        <ele>1334.2</ele>
        <time>2021-07-22 18:43:09</time>
      </trkpt>
      <trkpt lat="40.4851" lon="-4.74831">
        <ele>1334.6</ele>
        <time>2021-07-22 18:43:11</time>
      </trkpt>
      <trkpt lat="40.48517" lon="-4.74823">
        <ele>1335.2</ele>
        <time>2021-07-22 18:43:14</time>
      </trkpt>
      <trkpt lat="40.48526" lon="-4.74814">
        <ele>1336</ele>
        <time>2021-07-22 18:43:18</time>
      </trkpt>
      <trkpt lat="40.48531" lon="-4.74809">
        <ele>1336.2</ele>
        <time>2021-07-22 18:43:20</time>
      </trkpt>
      <trkpt lat="40.48544" lon="-4.74796">
        <ele>1337.2</ele>
        <time>2021-07-22 18:43:25</time>
      </trkpt>
      <trkpt lat="40.48546" lon="-4.74793">
        <ele>1337.2</ele>
        <time>2021-07-22 18:43:26</time>
      </trkpt>
      <trkpt lat="40.48556" lon="-4.74784">
        <ele>1338.4</ele>
        <time>2021-07-22 18:43:30</time>
      </trkpt>
      <trkpt lat="40.48567" lon="-4.74776">
        <ele>1339</ele>
        <time>2021-07-22 18:43:34</time>
      </trkpt>
      <trkpt lat="40.48572" lon="-4.74771">
        <ele>1339.4</ele>
        <time>2021-07-22 18:43:36</time>
      </trkpt>
      <trkpt lat="40.48585" lon="-4.74763">
        <ele>1340.4</ele>
        <time>2021-07-22 18:43:41</time>
      </trkpt>
      <trkpt lat="40.48587" lon="-4.74761">
        <ele>1340.4</ele>
        <time>2021-07-22 18:43:42</time>
      </trkpt>
      <trkpt lat="40.48607" lon="-4.74748">
        <ele>1341.2</ele>
        <time>2021-07-22 18:43:49</time>
      </trkpt>
      <trkpt lat="40.4861" lon="-4.74746">
        <ele>1341.4</ele>
        <time>2021-07-22 18:43:50</time>
      </trkpt>
      <trkpt lat="40.48631" lon="-4.7473">
        <ele>1342</ele>
        <time>2021-07-22 18:43:57</time>
      </trkpt>
      <trkpt lat="40.48644" lon="-4.74719">
        <ele>1342.4</ele>
        <time>2021-07-22 18:44:01</time>
      </trkpt>
      <trkpt lat="40.48655" lon="-4.7471">
        <ele>1342.4</ele>
        <time>2021-07-22 18:44:04</time>
      </trkpt>
      <trkpt lat="40.48672" lon="-4.74693">
        <ele>1342.8</ele>
        <time>2021-07-22 18:44:09</time>
      </trkpt>
      <trkpt lat="40.4868" lon="-4.74683">
        <ele>1343</ele>
        <time>2021-07-22 18:44:12</time>
      </trkpt>
      <trkpt lat="40.48685" lon="-4.74678">
        <ele>1343.2</ele>
        <time>2021-07-22 18:44:14</time>
      </trkpt>
      <trkpt lat="40.48694" lon="-4.74665">
        <ele>1344</ele>
        <time>2021-07-22 18:44:19</time>
      </trkpt>
      <trkpt lat="40.48696" lon="-4.74662">
        <ele>1344.4</ele>
        <time>2021-07-22 18:44:20</time>
      </trkpt>
      <trkpt lat="40.48708" lon="-4.74646">
        <ele>1345.2</ele>
        <time>2021-07-22 18:44:26</time>
      </trkpt>
      <trkpt lat="40.4871" lon="-4.74643">
        <ele>1345.4</ele>
        <time>2021-07-22 18:44:27</time>
      </trkpt>
      <trkpt lat="40.48722" lon="-4.74625">
        <ele>1346.4</ele>
        <time>2021-07-22 18:44:33</time>
      </trkpt>
      <trkpt lat="40.48726" lon="-4.74619">
        <ele>1347</ele>
        <time>2021-07-22 18:44:35</time>
      </trkpt>
      <trkpt lat="40.48732" lon="-4.74611">
        <ele>1347.4</ele>
        <time>2021-07-22 18:44:38</time>
      </trkpt>
      <trkpt lat="40.48742" lon="-4.74597">
        <ele>1348.4</ele>
        <time>2021-07-22 18:44:43</time>
      </trkpt>
      <trkpt lat="40.48746" lon="-4.74592">
        <ele>1348.8</ele>
        <time>2021-07-22 18:44:45</time>
      </trkpt>
      <trkpt lat="40.48752" lon="-4.74584">
        <ele>1349.6</ele>
        <time>2021-07-22 18:44:48</time>
      </trkpt>
      <trkpt lat="40.48759" lon="-4.74573">
        <ele>1350.6</ele>
        <time>2021-07-22 18:44:52</time>
      </trkpt>
      <trkpt lat="40.48764" lon="-4.74567">
        <ele>1351</ele>
        <time>2021-07-22 18:44:54</time>
      </trkpt>
      <trkpt lat="40.4877" lon="-4.74559">
        <ele>1351.6</ele>
        <time>2021-07-22 18:44:57</time>
      </trkpt>
      <trkpt lat="40.48783" lon="-4.74548">
        <ele>1352.6</ele>
        <time>2021-07-22 18:45:02</time>
      </trkpt>
      <trkpt lat="40.48786" lon="-4.74546">
        <ele>1352.8</ele>
        <time>2021-07-22 18:45:03</time>
      </trkpt>
      <trkpt lat="40.48793" lon="-4.74541">
        <ele>1353.8</ele>
        <time>2021-07-22 18:45:06</time>
      </trkpt>
      <trkpt lat="40.48804" lon="-4.74537">
        <ele>1354.6</ele>
        <time>2021-07-22 18:45:10</time>
      </trkpt>
      <trkpt lat="40.48807" lon="-4.74536">
        <ele>1355</ele>
        <time>2021-07-22 18:45:11</time>
      </trkpt>
      <trkpt lat="40.48818" lon="-4.74532">
        <ele>1356</ele>
        <time>2021-07-22 18:45:15</time>
      </trkpt>
      <trkpt lat="40.48826" lon="-4.74528">
        <ele>1356.6</ele>
        <time>2021-07-22 18:45:18</time>
      </trkpt>
      <trkpt lat="40.48831" lon="-4.74524">
        <ele>1356.8</ele>
        <time>2021-07-22 18:45:20</time>
      </trkpt>
      <trkpt lat="40.48844" lon="-4.74512">
        <ele>1357.4</ele>
        <time>2021-07-22 18:45:25</time>
      </trkpt>
      <trkpt lat="40.48851" lon="-4.74502">
        <ele>1357.8</ele>
        <time>2021-07-22 18:45:28</time>
      </trkpt>
      <trkpt lat="40.48857" lon="-4.7449">
        <ele>1358.6</ele>
        <time>2021-07-22 18:45:31</time>
      </trkpt>
      <trkpt lat="40.48861" lon="-4.74475">
        <ele>1359.2</ele>
        <time>2021-07-22 18:45:34</time>
      </trkpt>
      <trkpt lat="40.48864" lon="-4.74459">
        <ele>1359.6</ele>
        <time>2021-07-22 18:45:37</time>
      </trkpt>
      <trkpt lat="40.48867" lon="-4.74432">
        <ele>1360.2</ele>
        <time>2021-07-22 18:45:42</time>
      </trkpt>
      <trkpt lat="40.48869" lon="-4.74416">
        <ele>1361</ele>
        <time>2021-07-22 18:45:45</time>
      </trkpt>
      <trkpt lat="40.4887" lon="-4.7441">
        <ele>1361.2</ele>
        <time>2021-07-22 18:45:46</time>
      </trkpt>
      <trkpt lat="40.48879" lon="-4.74381">
        <ele>1361.8</ele>
        <time>2021-07-22 18:45:52</time>
      </trkpt>
      <trkpt lat="40.48882" lon="-4.74372">
        <ele>1362.4</ele>
        <time>2021-07-22 18:45:54</time>
      </trkpt>
      <trkpt lat="40.48891" lon="-4.74354">
        <ele>1363</ele>
        <time>2021-07-22 18:45:59</time>
      </trkpt>
      <trkpt lat="40.48893" lon="-4.7435">
        <ele>1363.2</ele>
        <time>2021-07-22 18:46:00</time>
      </trkpt>
      <trkpt lat="40.48902" lon="-4.74336">
        <ele>1364.2</ele>
        <time>2021-07-22 18:46:04</time>
      </trkpt>
      <trkpt lat="40.4891" lon="-4.74322">
        <ele>1365</ele>
        <time>2021-07-22 18:46:08</time>
      </trkpt>
      <trkpt lat="40.48914" lon="-4.74316">
        <ele>1365.4</ele>
        <time>2021-07-22 18:46:10</time>
      </trkpt>
      <trkpt lat="40.48924" lon="-4.74299">
        <ele>1366.6</ele>
        <time>2021-07-22 18:46:15</time>
      </trkpt>
      <trkpt lat="40.48934" lon="-4.74281">
        <ele>1367.6</ele>
        <time>2021-07-22 18:46:20</time>
      </trkpt>
      <trkpt lat="40.48938" lon="-4.74274">
        <ele>1367.8</ele>
        <time>2021-07-22 18:46:22</time>
      </trkpt>
      <trkpt lat="40.48944" lon="-4.74263">
        <ele>1368.6</ele>
        <time>2021-07-22 18:46:25</time>
      </trkpt>
      <trkpt lat="40.48953" lon="-4.74249">
        <ele>1369.4</ele>
        <time>2021-07-22 18:46:29</time>
      </trkpt>
      <trkpt lat="40.48955" lon="-4.74246">
        <ele>1369.8</ele>
        <time>2021-07-22 18:46:30</time>
      </trkpt>
      <trkpt lat="40.48962" lon="-4.74234">
        <ele>1371</ele>
        <time>2021-07-22 18:46:33</time>
      </trkpt>
      <trkpt lat="40.48971" lon="-4.7422">
        <ele>1372</ele>
        <time>2021-07-22 18:46:37</time>
      </trkpt>
      <trkpt lat="40.48983" lon="-4.74204">
        <ele>1373</ele>
        <time>2021-07-22 18:46:42</time>
      </trkpt>
      <trkpt lat="40.48992" lon="-4.74197">
        <ele>1373.4</ele>
        <time>2021-07-22 18:46:45</time>
      </trkpt>
      <trkpt lat="40.49001" lon="-4.74191">
        <ele>1374.2</ele>
        <time>2021-07-22 18:46:48</time>
      </trkpt>
      <trkpt lat="40.49019" lon="-4.74186">
        <ele>1375</ele>
        <time>2021-07-22 18:46:53</time>
      </trkpt>
      <trkpt lat="40.49022" lon="-4.74185">
        <ele>1375.2</ele>
        <time>2021-07-22 18:46:54</time>
      </trkpt>
      <trkpt lat="40.4904" lon="-4.74183">
        <ele>1376</ele>
        <time>2021-07-22 18:46:59</time>
      </trkpt>
      <trkpt lat="40.4905" lon="-4.74179">
        <ele>1376.4</ele>
        <time>2021-07-22 18:47:02</time>
      </trkpt>
      <trkpt lat="40.49066" lon="-4.74169">
        <ele>1376.8</ele>
        <time>2021-07-22 18:47:07</time>
      </trkpt>
      <trkpt lat="40.49079" lon="-4.74155">
        <ele>1377.2</ele>
        <time>2021-07-22 18:47:12</time>
      </trkpt>
      <trkpt lat="40.4909" lon="-4.74143">
        <ele>1377.6</ele>
        <time>2021-07-22 18:47:16</time>
      </trkpt>
      <trkpt lat="40.49103" lon="-4.74128">
        <ele>1378.2</ele>
        <time>2021-07-22 18:47:21</time>
      </trkpt>
      <trkpt lat="40.49114" lon="-4.74115">
        <ele>1379</ele>
        <time>2021-07-22 18:47:25</time>
      </trkpt>
      <trkpt lat="40.49117" lon="-4.74111">
        <ele>1379.2</ele>
        <time>2021-07-22 18:47:26</time>
      </trkpt>
      <trkpt lat="40.49136" lon="-4.7409">
        <ele>1380.2</ele>
        <time>2021-07-22 18:47:33</time>
      </trkpt>
      <trkpt lat="40.49139" lon="-4.74087">
        <ele>1380.2</ele>
        <time>2021-07-22 18:47:34</time>
      </trkpt>
      <trkpt lat="40.49155" lon="-4.74068">
        <ele>1381.2</ele>
        <time>2021-07-22 18:47:40</time>
      </trkpt>
      <trkpt lat="40.49157" lon="-4.74064">
        <ele>1381.4</ele>
        <time>2021-07-22 18:47:41</time>
      </trkpt>
      <trkpt lat="40.49171" lon="-4.74036">
        <ele>1382.2</ele>
        <time>2021-07-22 18:47:47</time>
      </trkpt>
      <trkpt lat="40.49176" lon="-4.74027">
        <ele>1382.4</ele>
        <time>2021-07-22 18:47:49</time>
      </trkpt>
      <trkpt lat="40.49178" lon="-4.74022">
        <ele>1382.4</ele>
        <time>2021-07-22 18:47:50</time>
      </trkpt>
      <trkpt lat="40.49189" lon="-4.73998">
        <ele>1382.6</ele>
        <time>2021-07-22 18:47:55</time>
      </trkpt>
      <trkpt lat="40.49196" lon="-4.73983">
        <ele>1383.2</ele>
        <time>2021-07-22 18:47:58</time>
      </trkpt>
      <trkpt lat="40.49208" lon="-4.73959">
        <ele>1384</ele>
        <time>2021-07-22 18:48:03</time>
      </trkpt>
      <trkpt lat="40.4921" lon="-4.73954">
        <ele>1384.2</ele>
        <time>2021-07-22 18:48:04</time>
      </trkpt>
      <trkpt lat="40.49227" lon="-4.73923">
        <ele>1385.4</ele>
        <time>2021-07-22 18:48:11</time>
      </trkpt>
      <trkpt lat="40.49243" lon="-4.73897">
        <ele>1386.2</ele>
        <time>2021-07-22 18:48:18</time>
      </trkpt>
      <trkpt lat="40.49257" lon="-4.73873">
        <ele>1387.2</ele>
        <time>2021-07-22 18:48:24</time>
      </trkpt>
      <trkpt lat="40.49262" lon="-4.73866">
        <ele>1387.8</ele>
        <time>2021-07-22 18:48:26</time>
      </trkpt>
      <trkpt lat="40.4927" lon="-4.73855">
        <ele>1388.4</ele>
        <time>2021-07-22 18:48:29</time>
      </trkpt>
      <trkpt lat="40.4928" lon="-4.7384">
        <ele>1389.6</ele>
        <time>2021-07-22 18:48:33</time>
      </trkpt>
      <trkpt lat="40.49283" lon="-4.73837">
        <ele>1389.8</ele>
        <time>2021-07-22 18:48:34</time>
      </trkpt>
      <trkpt lat="40.4929" lon="-4.73827">
        <ele>1390.8</ele>
        <time>2021-07-22 18:48:37</time>
      </trkpt>
      <trkpt lat="40.493" lon="-4.73812">
        <ele>1391.8</ele>
        <time>2021-07-22 18:48:41</time>
      </trkpt>
      <trkpt lat="40.49302" lon="-4.73808">
        <ele>1392</ele>
        <time>2021-07-22 18:48:42</time>
      </trkpt>
      <trkpt lat="40.49311" lon="-4.73792">
        <ele>1392.8</ele>
        <time>2021-07-22 18:48:46</time>
      </trkpt>
      <trkpt lat="40.49319" lon="-4.73774">
        <ele>1394</ele>
        <time>2021-07-22 18:48:50</time>
      </trkpt>
      <trkpt lat="40.4932" lon="-4.73769">
        <ele>1394.2</ele>
        <time>2021-07-22 18:48:51</time>
      </trkpt>
      <trkpt lat="40.49328" lon="-4.73748">
        <ele>1394.8</ele>
        <time>2021-07-22 18:48:56</time>
      </trkpt>
      <trkpt lat="40.49332" lon="-4.73738">
        <ele>1395</ele>
        <time>2021-07-22 18:48:59</time>
      </trkpt>
      <trkpt lat="40.49335" lon="-4.73728">
        <ele>1395.8</ele>
        <time>2021-07-22 18:49:02</time>
      </trkpt>
      <trkpt lat="40.4934" lon="-4.73715">
        <ele>1397</ele>
        <time>2021-07-22 18:49:06</time>
      </trkpt>
      <trkpt lat="40.49341" lon="-4.73712">
        <ele>1397.2</ele>
        <time>2021-07-22 18:49:07</time>
      </trkpt>
      <trkpt lat="40.49345" lon="-4.73702">
        <ele>1398</ele>
        <time>2021-07-22 18:49:10</time>
      </trkpt>
      <trkpt lat="40.49352" lon="-4.73685">
        <ele>1398.4</ele>
        <time>2021-07-22 18:49:15</time>
      </trkpt>
      <trkpt lat="40.49355" lon="-4.73678">
        <ele>1398.8</ele>
        <time>2021-07-22 18:49:17</time>
      </trkpt>
      <trkpt lat="40.49361" lon="-4.73661">
        <ele>1399.8</ele>
        <time>2021-07-22 18:49:22</time>
      </trkpt>
      <trkpt lat="40.49368" lon="-4.73643">
        <ele>1401</ele>
        <time>2021-07-22 18:49:27</time>
      </trkpt>
      <trkpt lat="40.49372" lon="-4.73634">
        <ele>1401.8</ele>
        <time>2021-07-22 18:49:30</time>
      </trkpt>
      <trkpt lat="40.49378" lon="-4.73618">
        <ele>1403.2</ele>
        <time>2021-07-22 18:49:35</time>
      </trkpt>
      <trkpt lat="40.49382" lon="-4.73608">
        <ele>1403.8</ele>
        <time>2021-07-22 18:49:38</time>
      </trkpt>
      <trkpt lat="40.49386" lon="-4.73598">
        <ele>1404.2</ele>
        <time>2021-07-22 18:49:41</time>
      </trkpt>
      <trkpt lat="40.49394" lon="-4.73579">
        <ele>1405.4</ele>
        <time>2021-07-22 18:49:47</time>
      </trkpt>
      <trkpt lat="40.49401" lon="-4.73559">
        <ele>1406.4</ele>
        <time>2021-07-22 18:49:53</time>
      </trkpt>
      <trkpt lat="40.49404" lon="-4.73552">
        <ele>1407</ele>
        <time>2021-07-22 18:49:55</time>
      </trkpt>
      <trkpt lat="40.49408" lon="-4.73542">
        <ele>1407.4</ele>
        <time>2021-07-22 18:49:58</time>
      </trkpt>
      <trkpt lat="40.49414" lon="-4.73528">
        <ele>1408.4</ele>
        <time>2021-07-22 18:50:02</time>
      </trkpt>
      <trkpt lat="40.49417" lon="-4.73521">
        <ele>1408.6</ele>
        <time>2021-07-22 18:50:04</time>
      </trkpt>
      <trkpt lat="40.49424" lon="-4.73507">
        <ele>1409.6</ele>
        <time>2021-07-22 18:50:08</time>
      </trkpt>
      <trkpt lat="40.49433" lon="-4.73492">
        <ele>1410.6</ele>
        <time>2021-07-22 18:50:13</time>
      </trkpt>
      <trkpt lat="40.49436" lon="-4.73486">
        <ele>1410.8</ele>
        <time>2021-07-22 18:50:15</time>
      </trkpt>
      <trkpt lat="40.49444" lon="-4.73469">
        <ele>1411.6</ele>
        <time>2021-07-22 18:50:20</time>
      </trkpt>
      <trkpt lat="40.49446" lon="-4.73462">
        <ele>1412</ele>
        <time>2021-07-22 18:50:22</time>
      </trkpt>
      <trkpt lat="40.4945" lon="-4.73446">
        <ele>1412.8</ele>
        <time>2021-07-22 18:50:26</time>
      </trkpt>
      <trkpt lat="40.49452" lon="-4.73436">
        <ele>1413.6</ele>
        <time>2021-07-22 18:50:29</time>
      </trkpt>
      <trkpt lat="40.49452" lon="-4.73429">
        <ele>1414</ele>
        <time>2021-07-22 18:50:31</time>
      </trkpt>
      <trkpt lat="40.49452" lon="-4.73411">
        <ele>1414.8</ele>
        <time>2021-07-22 18:50:36</time>
      </trkpt>
      <trkpt lat="40.49452" lon="-4.73408">
        <ele>1415</ele>
        <time>2021-07-22 18:50:37</time>
      </trkpt>
      <trkpt lat="40.49445" lon="-4.73388">
        <ele>1416.2</ele>
        <time>2021-07-22 18:50:43</time>
      </trkpt>
      <trkpt lat="40.49441" lon="-4.73379">
        <ele>1417.2</ele>
        <time>2021-07-22 18:50:46</time>
      </trkpt>
      <trkpt lat="40.49434" lon="-4.73369">
        <ele>1417.8</ele>
        <time>2021-07-22 18:50:50</time>
      </trkpt>
      <trkpt lat="40.49431" lon="-4.73364">
        <ele>1418.2</ele>
        <time>2021-07-22 18:50:52</time>
      </trkpt>
      <trkpt lat="40.49422" lon="-4.73356">
        <ele>1419.2</ele>
        <time>2021-07-22 18:50:56</time>
      </trkpt>
      <trkpt lat="40.4941" lon="-4.73348">
        <ele>1420.4</ele>
        <time>2021-07-22 18:51:01</time>
      </trkpt>
      <trkpt lat="40.49402" lon="-4.73344">
        <ele>1421</ele>
        <time>2021-07-22 18:51:04</time>
      </trkpt>
      <trkpt lat="40.49391" lon="-4.73342">
        <ele>1421.4</ele>
        <time>2021-07-22 18:51:08</time>
      </trkpt>
      <trkpt lat="40.49383" lon="-4.7334">
        <ele>1422.2</ele>
        <time>2021-07-22 18:51:11</time>
      </trkpt>
      <trkpt lat="40.49377" lon="-4.73338">
        <ele>1422.6</ele>
        <time>2021-07-22 18:51:13</time>
      </trkpt>
      <trkpt lat="40.49365" lon="-4.73335">
        <ele>1423.4</ele>
        <time>2021-07-22 18:51:18</time>
      </trkpt>
      <trkpt lat="40.49362" lon="-4.73335">
        <ele>1423.6</ele>
        <time>2021-07-22 18:51:19</time>
      </trkpt>
      <trkpt lat="40.49346" lon="-4.73331">
        <ele>1424.8</ele>
        <time>2021-07-22 18:51:25</time>
      </trkpt>
      <trkpt lat="40.49336" lon="-4.73326">
        <ele>1426</ele>
        <time>2021-07-22 18:51:29</time>
      </trkpt>
      <trkpt lat="40.49325" lon="-4.73316">
        <ele>1426.6</ele>
        <time>2021-07-22 18:51:34</time>
      </trkpt>
      <trkpt lat="40.4932" lon="-4.73311">
        <ele>1427</ele>
        <time>2021-07-22 18:51:36</time>
      </trkpt>
      <trkpt lat="40.49313" lon="-4.73296">
        <ele>1427.6</ele>
        <time>2021-07-22 18:51:41</time>
      </trkpt>
      <trkpt lat="40.49312" lon="-4.73293">
        <ele>1428</ele>
        <time>2021-07-22 18:51:42</time>
      </trkpt>
      <trkpt lat="40.49309" lon="-4.73272">
        <ele>1428.8</ele>
        <time>2021-07-22 18:51:48</time>
      </trkpt>
      <trkpt lat="40.4931" lon="-4.73264">
        <ele>1429</ele>
        <time>2021-07-22 18:51:50</time>
      </trkpt>
      <trkpt lat="40.49311" lon="-4.73245">
        <ele>1429.6</ele>
        <time>2021-07-22 18:51:55</time>
      </trkpt>
      <trkpt lat="40.49313" lon="-4.73237">
        <ele>1430</ele>
        <time>2021-07-22 18:51:57</time>
      </trkpt>
      <trkpt lat="40.49317" lon="-4.73228">
        <ele>1430.4</ele>
        <time>2021-07-22 18:52:00</time>
      </trkpt>
      <trkpt lat="40.49325" lon="-4.73216">
        <ele>1431.2</ele>
        <time>2021-07-22 18:52:04</time>
      </trkpt>
      <trkpt lat="40.49331" lon="-4.73209">
        <ele>1431.6</ele>
        <time>2021-07-22 18:52:07</time>
      </trkpt>
      <trkpt lat="40.49342" lon="-4.73201">
        <ele>1432.2</ele>
        <time>2021-07-22 18:52:11</time>
      </trkpt>
      <trkpt lat="40.4935" lon="-4.73197">
        <ele>1432.6</ele>
        <time>2021-07-22 18:52:14</time>
      </trkpt>
      <trkpt lat="40.49365" lon="-4.73194">
        <ele>1433.2</ele>
        <time>2021-07-22 18:52:19</time>
      </trkpt>
      <trkpt lat="40.49377" lon="-4.73195">
        <ele>1433.8</ele>
        <time>2021-07-22 18:52:23</time>
      </trkpt>
      <trkpt lat="40.49389" lon="-4.73199">
        <ele>1434.4</ele>
        <time>2021-07-22 18:52:27</time>
      </trkpt>
      <trkpt lat="40.49394" lon="-4.73203">
        <ele>1434.6</ele>
        <time>2021-07-22 18:52:29</time>
      </trkpt>
      <trkpt lat="40.494" lon="-4.73207">
        <ele>1435</ele>
        <time>2021-07-22 18:52:31</time>
      </trkpt>
      <trkpt lat="40.49409" lon="-4.73212">
        <ele>1435.2</ele>
        <time>2021-07-22 18:52:34</time>
      </trkpt>
      <trkpt lat="40.4942" lon="-4.7322">
        <ele>1435.6</ele>
        <time>2021-07-22 18:52:38</time>
      </trkpt>
      <trkpt lat="40.4943" lon="-4.73229">
        <ele>1436.2</ele>
        <time>2021-07-22 18:52:42</time>
      </trkpt>
      <trkpt lat="40.4944" lon="-4.73237">
        <ele>1437</ele>
        <time>2021-07-22 18:52:46</time>
      </trkpt>
      <trkpt lat="40.49446" lon="-4.73241">
        <ele>1437.4</ele>
        <time>2021-07-22 18:52:48</time>
      </trkpt>
      <trkpt lat="40.49458" lon="-4.73253">
        <ele>1438.6</ele>
        <time>2021-07-22 18:52:53</time>
      </trkpt>
      <trkpt lat="40.49464" lon="-4.73257">
        <ele>1439.2</ele>
        <time>2021-07-22 18:52:55</time>
      </trkpt>
      <trkpt lat="40.49466" lon="-4.73259">
        <ele>1439.4</ele>
        <time>2021-07-22 18:52:56</time>
      </trkpt>
      <trkpt lat="40.49478" lon="-4.73268">
        <ele>1440.8</ele>
        <time>2021-07-22 18:53:00</time>
      </trkpt>
      <trkpt lat="40.49486" lon="-4.73274">
        <ele>1441.2</ele>
        <time>2021-07-22 18:53:03</time>
      </trkpt>
      <trkpt lat="40.49497" lon="-4.73283">
        <ele>1442</ele>
        <time>2021-07-22 18:53:07</time>
      </trkpt>
      <trkpt lat="40.49508" lon="-4.73291">
        <ele>1442.6</ele>
        <time>2021-07-22 18:53:11</time>
      </trkpt>
      <trkpt lat="40.49513" lon="-4.73296">
        <ele>1443</ele>
        <time>2021-07-22 18:53:13</time>
      </trkpt>
      <trkpt lat="40.49522" lon="-4.73302">
        <ele>1444.4</ele>
        <time>2021-07-22 18:53:16</time>
      </trkpt>
      <trkpt lat="40.49532" lon="-4.7331">
        <ele>1445.2</ele>
        <time>2021-07-22 18:53:20</time>
      </trkpt>
      <trkpt lat="40.49535" lon="-4.73312">
        <ele>1445.2</ele>
        <time>2021-07-22 18:53:21</time>
      </trkpt>
      <trkpt lat="40.49548" lon="-4.73323">
        <ele>1446.4</ele>
        <time>2021-07-22 18:53:26</time>
      </trkpt>
      <trkpt lat="40.49553" lon="-4.73327">
        <ele>1446.6</ele>
        <time>2021-07-22 18:53:28</time>
      </trkpt>
      <trkpt lat="40.49566" lon="-4.73337">
        <ele>1447.4</ele>
        <time>2021-07-22 18:53:33</time>
      </trkpt>
      <trkpt lat="40.49571" lon="-4.73342">
        <ele>1447.8</ele>
        <time>2021-07-22 18:53:35</time>
      </trkpt>
      <trkpt lat="40.4958" lon="-4.73352">
        <ele>1448.4</ele>
        <time>2021-07-22 18:53:39</time>
      </trkpt>
      <trkpt lat="40.49587" lon="-4.73362">
        <ele>1448.8</ele>
        <time>2021-07-22 18:53:42</time>
      </trkpt>
      <trkpt lat="40.49596" lon="-4.73376">
        <ele>1449.4</ele>
        <time>2021-07-22 18:53:46</time>
      </trkpt>
      <trkpt lat="40.49603" lon="-4.73392">
        <ele>1450.4</ele>
        <time>2021-07-22 18:53:50</time>
      </trkpt>
      <trkpt lat="40.49606" lon="-4.734">
        <ele>1450.6</ele>
        <time>2021-07-22 18:53:52</time>
      </trkpt>
      <trkpt lat="40.49611" lon="-4.73417">
        <ele>1451.4</ele>
        <time>2021-07-22 18:53:56</time>
      </trkpt>
      <trkpt lat="40.49615" lon="-4.73428">
        <ele>1451.8</ele>
        <time>2021-07-22 18:53:59</time>
      </trkpt>
      <trkpt lat="40.49618" lon="-4.73441">
        <ele>1452.4</ele>
        <time>2021-07-22 18:54:03</time>
      </trkpt>
      <trkpt lat="40.4962" lon="-4.73451">
        <ele>1452.6</ele>
        <time>2021-07-22 18:54:06</time>
      </trkpt>
      <trkpt lat="40.49622" lon="-4.73473">
        <ele>1453.6</ele>
        <time>2021-07-22 18:54:12</time>
      </trkpt>
      <trkpt lat="40.49623" lon="-4.73479">
        <ele>1453.8</ele>
        <time>2021-07-22 18:54:14</time>
      </trkpt>
      <trkpt lat="40.49625" lon="-4.73493">
        <ele>1454.2</ele>
        <time>2021-07-22 18:54:18</time>
      </trkpt>
      <trkpt lat="40.49627" lon="-4.73509">
        <ele>1455</ele>
        <time>2021-07-22 18:54:22</time>
      </trkpt>
      <trkpt lat="40.49628" lon="-4.73521">
        <ele>1455.6</ele>
        <time>2021-07-22 18:54:25</time>
      </trkpt>
      <trkpt lat="40.49628" lon="-4.73524">
        <ele>1456</ele>
        <time>2021-07-22 18:54:26</time>
      </trkpt>
      <trkpt lat="40.4963" lon="-4.73546">
        <ele>1457</ele>
        <time>2021-07-22 18:54:32</time>
      </trkpt>
      <trkpt lat="40.49631" lon="-4.7355">
        <ele>1457.2</ele>
        <time>2021-07-22 18:54:33</time>
      </trkpt>
      <trkpt lat="40.49634" lon="-4.73575">
        <ele>1458.2</ele>
        <time>2021-07-22 18:54:40</time>
      </trkpt>
      <trkpt lat="40.49637" lon="-4.73592">
        <ele>1459.2</ele>
        <time>2021-07-22 18:54:45</time>
      </trkpt>
      <trkpt lat="40.49638" lon="-4.73599">
        <ele>1459.8</ele>
        <time>2021-07-22 18:54:47</time>
      </trkpt>
      <trkpt lat="40.49641" lon="-4.73607">
        <ele>1460.4</ele>
        <time>2021-07-22 18:54:50</time>
      </trkpt>
      <trkpt lat="40.49643" lon="-4.73615">
        <ele>1461.4</ele>
        <time>2021-07-22 18:54:53</time>
      </trkpt>
      <trkpt lat="40.49647" lon="-4.73623">
        <ele>1462</ele>
        <time>2021-07-22 18:54:56</time>
      </trkpt>
      <trkpt lat="40.49651" lon="-4.73631">
        <ele>1462.6</ele>
        <time>2021-07-22 18:54:59</time>
      </trkpt>
      <trkpt lat="40.49658" lon="-4.73641">
        <ele>1463.4</ele>
        <time>2021-07-22 18:55:03</time>
      </trkpt>
      <trkpt lat="40.4966" lon="-4.73643">
        <ele>1463.8</ele>
        <time>2021-07-22 18:55:04</time>
      </trkpt>
      <trkpt lat="40.49668" lon="-4.73652">
        <ele>1464.6</ele>
        <time>2021-07-22 18:55:08</time>
      </trkpt>
      <trkpt lat="40.49677" lon="-4.7366">
        <ele>1465.2</ele>
        <time>2021-07-22 18:55:12</time>
      </trkpt>
      <trkpt lat="40.49684" lon="-4.73664">
        <ele>1465.8</ele>
        <time>2021-07-22 18:55:15</time>
      </trkpt>
      <trkpt lat="40.49695" lon="-4.73668">
        <ele>1466.4</ele>
        <time>2021-07-22 18:55:19</time>
      </trkpt>
      <trkpt lat="40.49702" lon="-4.73668">
        <ele>1467</ele>
        <time>2021-07-22 18:55:21</time>
      </trkpt>
      <trkpt lat="40.49712" lon="-4.73666">
        <ele>1467.8</ele>
        <time>2021-07-22 18:55:24</time>
      </trkpt>
      <trkpt lat="40.49715" lon="-4.73665">
        <ele>1468</ele>
        <time>2021-07-22 18:55:25</time>
      </trkpt>
      <trkpt lat="40.49732" lon="-4.73657">
        <ele>1469</ele>
        <time>2021-07-22 18:55:30</time>
      </trkpt>
      <trkpt lat="40.49735" lon="-4.73655">
        <ele>1469.2</ele>
        <time>2021-07-22 18:55:31</time>
      </trkpt>
      <trkpt lat="40.49754" lon="-4.7364">
        <ele>1470</ele>
        <time>2021-07-22 18:55:37</time>
      </trkpt>
      <trkpt lat="40.49757" lon="-4.73637">
        <ele>1470.2</ele>
        <time>2021-07-22 18:55:38</time>
      </trkpt>
      <trkpt lat="40.49774" lon="-4.73617">
        <ele>1470.8</ele>
        <time>2021-07-22 18:55:44</time>
      </trkpt>
      <trkpt lat="40.49782" lon="-4.73608">
        <ele>1471.2</ele>
        <time>2021-07-22 18:55:47</time>
      </trkpt>
      <trkpt lat="40.49791" lon="-4.73596">
        <ele>1471.4</ele>
        <time>2021-07-22 18:55:51</time>
      </trkpt>
      <trkpt lat="40.4981" lon="-4.73579">
        <ele>1471.6</ele>
        <time>2021-07-22 18:55:57</time>
      </trkpt>
      <trkpt lat="40.49836" lon="-4.73567">
        <ele>1471.6</ele>
        <time>2021-07-22 18:56:03</time>
      </trkpt>
      <trkpt lat="40.49869" lon="-4.7355">
        <ele>1471</ele>
        <time>2021-07-22 18:56:09</time>
      </trkpt>
      <trkpt lat="40.499" lon="-4.73533">
        <ele>1470.6</ele>
        <time>2021-07-22 18:56:14</time>
      </trkpt>
      <trkpt lat="40.49913" lon="-4.73526">
        <ele>1470.2</ele>
        <time>2021-07-22 18:56:16</time>
      </trkpt>
      <trkpt lat="40.49923" lon="-4.7352">
        <ele>1469.8</ele>
        <time>2021-07-22 18:56:18</time>
      </trkpt>
      <trkpt lat="40.49931" lon="-4.73515">
        <ele>1469.6</ele>
        <time>2021-07-22 18:56:20</time>
      </trkpt>
      <trkpt lat="40.49944" lon="-4.73504">
        <ele>1468.8</ele>
        <time>2021-07-22 18:56:24</time>
      </trkpt>
      <trkpt lat="40.49948" lon="-4.73499">
        <ele>1468.4</ele>
        <time>2021-07-22 18:56:26</time>
      </trkpt>
      <trkpt lat="40.4995" lon="-4.73497">
        <ele>1468</ele>
        <time>2021-07-22 18:56:30</time>
      </trkpt>
      <trkpt lat="40.49953" lon="-4.735">
        <ele>1467.4</ele>
        <time>2021-07-22 18:58:19</time>
      </trkpt>
      <trkpt lat="40.49954" lon="-4.73502">
        <ele>1467.4</ele>
        <time>2021-07-22 18:58:20</time>
      </trkpt>
      <trkpt lat="40.49955" lon="-4.73505">
        <ele>1467.4</ele>
        <time>2021-07-22 18:58:21</time>
      </trkpt>
      <trkpt lat="40.49948" lon="-4.73513">
        <ele>1467.2</ele>
        <time>2021-07-22 18:58:25</time>
      </trkpt>
      <trkpt lat="40.49942" lon="-4.73516">
        <ele>1467.2</ele>
        <time>2021-07-22 18:58:27</time>
      </trkpt>
      <trkpt lat="40.49929" lon="-4.73522">
        <ele>1467.6</ele>
        <time>2021-07-22 18:58:31</time>
      </trkpt>
      <trkpt lat="40.49901" lon="-4.73538">
        <ele>1468.8</ele>
        <time>2021-07-22 18:58:39</time>
      </trkpt>
      <trkpt lat="40.49897" lon="-4.7354">
        <ele>1468.8</ele>
        <time>2021-07-22 18:58:40</time>
      </trkpt>
      <trkpt lat="40.49872" lon="-4.73553">
        <ele>1469.8</ele>
        <time>2021-07-22 18:58:47</time>
      </trkpt>
      <trkpt lat="40.49869" lon="-4.73554">
        <ele>1470</ele>
        <time>2021-07-22 18:58:48</time>
      </trkpt>
      <trkpt lat="40.49842" lon="-4.73568">
        <ele>1470.4</ele>
        <time>2021-07-22 18:58:56</time>
      </trkpt>
      <trkpt lat="40.49838" lon="-4.7357">
        <ele>1470.4</ele>
        <time>2021-07-22 18:58:57</time>
      </trkpt>
      <trkpt lat="40.49821" lon="-4.7358">
        <ele>1470.6</ele>
        <time>2021-07-22 18:59:02</time>
      </trkpt>
      <trkpt lat="40.49811" lon="-4.73587">
        <ele>1471.2</ele>
        <time>2021-07-22 18:59:05</time>
      </trkpt>
      <trkpt lat="40.498" lon="-4.73594">
        <ele>1471.8</ele>
        <time>2021-07-22 18:59:08</time>
      </trkpt>
      <trkpt lat="40.4978" lon="-4.73613">
        <ele>1472.2</ele>
        <time>2021-07-22 18:59:14</time>
      </trkpt>
      <trkpt lat="40.49762" lon="-4.73634">
        <ele>1472.4</ele>
        <time>2021-07-22 18:59:20</time>
      </trkpt>
      <trkpt lat="40.49745" lon="-4.7365">
        <ele>1472.4</ele>
        <time>2021-07-22 18:59:25</time>
      </trkpt>
      <trkpt lat="40.49734" lon="-4.73658">
        <ele>1472.4</ele>
        <time>2021-07-22 18:59:28</time>
      </trkpt>
      <trkpt lat="40.49722" lon="-4.73666">
        <ele>1472.2</ele>
        <time>2021-07-22 18:59:31</time>
      </trkpt>
      <trkpt lat="40.49713" lon="-4.7367">
        <ele>1472.2</ele>
        <time>2021-07-22 18:59:33</time>
      </trkpt>
      <trkpt lat="40.49708" lon="-4.73671">
        <ele>1472.2</ele>
        <time>2021-07-22 18:59:34</time>
      </trkpt>
      <trkpt lat="40.49703" lon="-4.73672">
        <ele>1472</ele>
        <time>2021-07-22 18:59:35</time>
      </trkpt>
      <trkpt lat="40.49692" lon="-4.73671">
        <ele>1472</ele>
        <time>2021-07-22 18:59:37</time>
      </trkpt>
      <trkpt lat="40.49686" lon="-4.7367">
        <ele>1471.8</ele>
        <time>2021-07-22 18:59:38</time>
      </trkpt>
      <trkpt lat="40.4966" lon="-4.73654">
        <ele>1471.2</ele>
        <time>2021-07-22 18:59:43</time>
      </trkpt>
      <trkpt lat="40.49651" lon="-4.73643">
        <ele>1470.6</ele>
        <time>2021-07-22 18:59:45</time>
      </trkpt>
      <trkpt lat="40.49642" lon="-4.73628">
        <ele>1470</ele>
        <time>2021-07-22 18:59:47</time>
      </trkpt>
      <trkpt lat="40.49635" lon="-4.73609">
        <ele>1469</ele>
        <time>2021-07-22 18:59:49</time>
      </trkpt>
      <trkpt lat="40.4963" lon="-4.73585">
        <ele>1468.4</ele>
        <time>2021-07-22 18:59:51</time>
      </trkpt>
      <trkpt lat="40.49628" lon="-4.73572">
        <ele>1468</ele>
        <time>2021-07-22 18:59:52</time>
      </trkpt>
      <trkpt lat="40.49622" lon="-4.73531">
        <ele>1466.8</ele>
        <time>2021-07-22 18:59:55</time>
      </trkpt>
      <trkpt lat="40.49621" lon="-4.73516">
        <ele>1466.4</ele>
        <time>2021-07-22 18:59:56</time>
      </trkpt>
      <trkpt lat="40.49619" lon="-4.73502">
        <ele>1465.8</ele>
        <time>2021-07-22 18:59:57</time>
      </trkpt>
      <trkpt lat="40.49617" lon="-4.73474">
        <ele>1464.6</ele>
        <time>2021-07-22 18:59:59</time>
      </trkpt>
      <trkpt lat="40.49613" lon="-4.73445">
        <ele>1463</ele>
        <time>2021-07-22 19:00:01</time>
      </trkpt>
      <trkpt lat="40.4961" lon="-4.7343">
        <ele>1462.4</ele>
        <time>2021-07-22 19:00:02</time>
      </trkpt>
      <trkpt lat="40.49606" lon="-4.73416">
        <ele>1461.6</ele>
        <time>2021-07-22 19:00:03</time>
      </trkpt>
      <trkpt lat="40.49597" lon="-4.73387">
        <ele>1460.2</ele>
        <time>2021-07-22 19:00:05</time>
      </trkpt>
      <trkpt lat="40.49591" lon="-4.73375">
        <ele>1459.6</ele>
        <time>2021-07-22 19:00:06</time>
      </trkpt>
      <trkpt lat="40.49584" lon="-4.73363">
        <ele>1459</ele>
        <time>2021-07-22 19:00:07</time>
      </trkpt>
      <trkpt lat="40.4957" lon="-4.73344">
        <ele>1457.8</ele>
        <time>2021-07-22 19:00:09</time>
      </trkpt>
      <trkpt lat="40.49554" lon="-4.73329">
        <ele>1456.8</ele>
        <time>2021-07-22 19:00:11</time>
      </trkpt>
      <trkpt lat="40.49537" lon="-4.73314">
        <ele>1455.4</ele>
        <time>2021-07-22 19:00:13</time>
      </trkpt>
      <trkpt lat="40.49528" lon="-4.73308">
        <ele>1454.6</ele>
        <time>2021-07-22 19:00:14</time>
      </trkpt>
      <trkpt lat="40.49519" lon="-4.73301">
        <ele>1453.8</ele>
        <time>2021-07-22 19:00:15</time>
      </trkpt>
      <trkpt lat="40.49491" lon="-4.7328">
        <ele>1452.4</ele>
        <time>2021-07-22 19:00:18</time>
      </trkpt>
      <trkpt lat="40.49473" lon="-4.73266">
        <ele>1451.4</ele>
        <time>2021-07-22 19:00:20</time>
      </trkpt>
      <trkpt lat="40.49454" lon="-4.73252">
        <ele>1450</ele>
        <time>2021-07-22 19:00:22</time>
      </trkpt>
      <trkpt lat="40.49436" lon="-4.73239">
        <ele>1448.4</ele>
        <time>2021-07-22 19:00:24</time>
      </trkpt>
      <trkpt lat="40.49418" lon="-4.73225">
        <ele>1447.2</ele>
        <time>2021-07-22 19:00:26</time>
      </trkpt>
      <trkpt lat="40.49392" lon="-4.73207">
        <ele>1445.6</ele>
        <time>2021-07-22 19:00:29</time>
      </trkpt>
      <trkpt lat="40.49383" lon="-4.73203">
        <ele>1445</ele>
        <time>2021-07-22 19:00:30</time>
      </trkpt>
      <trkpt lat="40.49375" lon="-4.732">
        <ele>1444.4</ele>
        <time>2021-07-22 19:00:31</time>
      </trkpt>
      <trkpt lat="40.49366" lon="-4.73199">
        <ele>1444.2</ele>
        <time>2021-07-22 19:00:32</time>
      </trkpt>
      <trkpt lat="40.49349" lon="-4.73201">
        <ele>1443.2</ele>
        <time>2021-07-22 19:00:34</time>
      </trkpt>
      <trkpt lat="40.49342" lon="-4.73204">
        <ele>1442</ele>
        <time>2021-07-22 19:00:35</time>
      </trkpt>
      <trkpt lat="40.49334" lon="-4.7321">
        <ele>1441</ele>
        <time>2021-07-22 19:00:36</time>
      </trkpt>
      <trkpt lat="40.49322" lon="-4.73225">
        <ele>1439.4</ele>
        <time>2021-07-22 19:00:38</time>
      </trkpt>
      <trkpt lat="40.49314" lon="-4.73245">
        <ele>1437.8</ele>
        <time>2021-07-22 19:00:40</time>
      </trkpt>
      <trkpt lat="40.49312" lon="-4.73257">
        <ele>1437.2</ele>
        <time>2021-07-22 19:00:41</time>
      </trkpt>
      <trkpt lat="40.49312" lon="-4.73269">
        <ele>1436.6</ele>
        <time>2021-07-22 19:00:42</time>
      </trkpt>
      <trkpt lat="40.49316" lon="-4.73292">
        <ele>1435.2</ele>
        <time>2021-07-22 19:00:44</time>
      </trkpt>
      <trkpt lat="40.49334" lon="-4.73322">
        <ele>1434.2</ele>
        <time>2021-07-22 19:00:47</time>
      </trkpt>
      <trkpt lat="40.49353" lon="-4.73333">
        <ele>1433</ele>
        <time>2021-07-22 19:00:49</time>
      </trkpt>
      <trkpt lat="40.49364" lon="-4.73336">
        <ele>1432.6</ele>
        <time>2021-07-22 19:00:50</time>
      </trkpt>
      <trkpt lat="40.49374" lon="-4.73338">
        <ele>1432.2</ele>
        <time>2021-07-22 19:00:51</time>
      </trkpt>
      <trkpt lat="40.49385" lon="-4.73339">
        <ele>1431.4</ele>
        <time>2021-07-22 19:00:52</time>
      </trkpt>
      <trkpt lat="40.49405" lon="-4.73343">
        <ele>1430.2</ele>
        <time>2021-07-22 19:00:54</time>
      </trkpt>
      <trkpt lat="40.49415" lon="-4.73347">
        <ele>1429.6</ele>
        <time>2021-07-22 19:00:55</time>
      </trkpt>
      <trkpt lat="40.49424" lon="-4.73353">
        <ele>1429.2</ele>
        <time>2021-07-22 19:00:56</time>
      </trkpt>
      <trkpt lat="40.49439" lon="-4.73369">
        <ele>1428.2</ele>
        <time>2021-07-22 19:00:58</time>
      </trkpt>
      <trkpt lat="40.49445" lon="-4.73379">
        <ele>1427.8</ele>
        <time>2021-07-22 19:00:59</time>
      </trkpt>
      <trkpt lat="40.49455" lon="-4.73403">
        <ele>1426.4</ele>
        <time>2021-07-22 19:01:01</time>
      </trkpt>
      <trkpt lat="40.49458" lon="-4.7343">
        <ele>1424.8</ele>
        <time>2021-07-22 19:01:03</time>
      </trkpt>
      <trkpt lat="40.49458" lon="-4.73444">
        <ele>1424</ele>
        <time>2021-07-22 19:01:04</time>
      </trkpt>
      <trkpt lat="40.49455" lon="-4.73458">
        <ele>1423.4</ele>
        <time>2021-07-22 19:01:05</time>
      </trkpt>
      <trkpt lat="40.49447" lon="-4.73484">
        <ele>1422.6</ele>
        <time>2021-07-22 19:01:07</time>
      </trkpt>
      <trkpt lat="40.49441" lon="-4.73497">
        <ele>1422.2</ele>
        <time>2021-07-22 19:01:08</time>
      </trkpt>
      <trkpt lat="40.49435" lon="-4.7351">
        <ele>1421.8</ele>
        <time>2021-07-22 19:01:09</time>
      </trkpt>
      <trkpt lat="40.49428" lon="-4.73522">
        <ele>1421</ele>
        <time>2021-07-22 19:01:10</time>
      </trkpt>
      <trkpt lat="40.49416" lon="-4.73548">
        <ele>1419</ele>
        <time>2021-07-22 19:01:12</time>
      </trkpt>
      <trkpt lat="40.49405" lon="-4.73574">
        <ele>1418</ele>
        <time>2021-07-22 19:01:14</time>
      </trkpt>
      <trkpt lat="40.49388" lon="-4.73615">
        <ele>1416.8</ele>
        <time>2021-07-22 19:01:17</time>
      </trkpt>
      <trkpt lat="40.49377" lon="-4.73643">
        <ele>1415.8</ele>
        <time>2021-07-22 19:01:19</time>
      </trkpt>
      <trkpt lat="40.49372" lon="-4.73657">
        <ele>1415.2</ele>
        <time>2021-07-22 19:01:20</time>
      </trkpt>
      <trkpt lat="40.49361" lon="-4.73686">
        <ele>1413.4</ele>
        <time>2021-07-22 19:01:22</time>
      </trkpt>
      <trkpt lat="40.49349" lon="-4.73716">
        <ele>1412</ele>
        <time>2021-07-22 19:01:24</time>
      </trkpt>
      <trkpt lat="40.49337" lon="-4.73747">
        <ele>1411</ele>
        <time>2021-07-22 19:01:26</time>
      </trkpt>
      <trkpt lat="40.49331" lon="-4.73762">
        <ele>1410</ele>
        <time>2021-07-22 19:01:27</time>
      </trkpt>
      <trkpt lat="40.49325" lon="-4.73778">
        <ele>1409.2</ele>
        <time>2021-07-22 19:01:28</time>
      </trkpt>
      <trkpt lat="40.49312" lon="-4.73808">
        <ele>1407.4</ele>
        <time>2021-07-22 19:01:30</time>
      </trkpt>
      <trkpt lat="40.49296" lon="-4.73834">
        <ele>1405.2</ele>
        <time>2021-07-22 19:01:32</time>
      </trkpt>
      <trkpt lat="40.49287" lon="-4.73845">
        <ele>1404</ele>
        <time>2021-07-22 19:01:33</time>
      </trkpt>
      <trkpt lat="40.49279" lon="-4.73857">
        <ele>1403</ele>
        <time>2021-07-22 19:01:34</time>
      </trkpt>
      <trkpt lat="40.49262" lon="-4.73881">
        <ele>1401.4</ele>
        <time>2021-07-22 19:01:36</time>
      </trkpt>
      <trkpt lat="40.49246" lon="-4.73906">
        <ele>1400.4</ele>
        <time>2021-07-22 19:01:38</time>
      </trkpt>
      <trkpt lat="40.49239" lon="-4.73919">
        <ele>1400.2</ele>
        <time>2021-07-22 19:01:39</time>
      </trkpt>
      <trkpt lat="40.49225" lon="-4.73945">
        <ele>1399.2</ele>
        <time>2021-07-22 19:01:41</time>
      </trkpt>
      <trkpt lat="40.49212" lon="-4.73971">
        <ele>1397.8</ele>
        <time>2021-07-22 19:01:43</time>
      </trkpt>
      <trkpt lat="40.49206" lon="-4.73983">
        <ele>1396.8</ele>
        <time>2021-07-22 19:01:44</time>
      </trkpt>
      <trkpt lat="40.49193" lon="-4.74007">
        <ele>1395.2</ele>
        <time>2021-07-22 19:01:46</time>
      </trkpt>
      <trkpt lat="40.49188" lon="-4.74019">
        <ele>1394.2</ele>
        <time>2021-07-22 19:01:47</time>
      </trkpt>
      <trkpt lat="40.49177" lon="-4.74041">
        <ele>1392.2</ele>
        <time>2021-07-22 19:01:49</time>
      </trkpt>
      <trkpt lat="40.49166" lon="-4.74063">
        <ele>1390.4</ele>
        <time>2021-07-22 19:01:51</time>
      </trkpt>
      <trkpt lat="40.49154" lon="-4.74082">
        <ele>1389.2</ele>
        <time>2021-07-22 19:01:53</time>
      </trkpt>
      <trkpt lat="40.49148" lon="-4.7409">
        <ele>1388.8</ele>
        <time>2021-07-22 19:01:54</time>
      </trkpt>
      <trkpt lat="40.49134" lon="-4.74106">
        <ele>1388.2</ele>
        <time>2021-07-22 19:01:56</time>
      </trkpt>
      <trkpt lat="40.4912" lon="-4.74121">
        <ele>1387</ele>
        <time>2021-07-22 19:01:58</time>
      </trkpt>
      <trkpt lat="40.49099" lon="-4.74144">
        <ele>1386.4</ele>
        <time>2021-07-22 19:02:01</time>
      </trkpt>
      <trkpt lat="40.49092" lon="-4.74152">
        <ele>1385.8</ele>
        <time>2021-07-22 19:02:02</time>
      </trkpt>
      <trkpt lat="40.49063" lon="-4.7418">
        <ele>1384.6</ele>
        <time>2021-07-22 19:02:06</time>
      </trkpt>
      <trkpt lat="40.49055" lon="-4.74186">
        <ele>1384.2</ele>
        <time>2021-07-22 19:02:07</time>
      </trkpt>
      <trkpt lat="40.49047" lon="-4.7419">
        <ele>1383.8</ele>
        <time>2021-07-22 19:02:08</time>
      </trkpt>
      <trkpt lat="40.49039" lon="-4.74193">
        <ele>1383.4</ele>
        <time>2021-07-22 19:02:09</time>
      </trkpt>
      <trkpt lat="40.49022" lon="-4.74197">
        <ele>1382.6</ele>
        <time>2021-07-22 19:02:11</time>
      </trkpt>
      <trkpt lat="40.49014" lon="-4.74199">
        <ele>1382.2</ele>
        <time>2021-07-22 19:02:12</time>
      </trkpt>
      <trkpt lat="40.49006" lon="-4.74201">
        <ele>1381.8</ele>
        <time>2021-07-22 19:02:13</time>
      </trkpt>
      <trkpt lat="40.48991" lon="-4.74211">
        <ele>1381</ele>
        <time>2021-07-22 19:02:15</time>
      </trkpt>
      <trkpt lat="40.48984" lon="-4.74217">
        <ele>1380.6</ele>
        <time>2021-07-22 19:02:16</time>
      </trkpt>
      <trkpt lat="40.48966" lon="-4.74241">
        <ele>1380</ele>
        <time>2021-07-22 19:02:19</time>
      </trkpt>
      <trkpt lat="40.4896" lon="-4.7425">
        <ele>1379.6</ele>
        <time>2021-07-22 19:02:20</time>
      </trkpt>
      <trkpt lat="40.48949" lon="-4.74269">
        <ele>1378.8</ele>
        <time>2021-07-22 19:02:22</time>
      </trkpt>
      <trkpt lat="40.48932" lon="-4.74297">
        <ele>1377.8</ele>
        <time>2021-07-22 19:02:25</time>
      </trkpt>
      <trkpt lat="40.4892" lon="-4.74318">
        <ele>1377</ele>
        <time>2021-07-22 19:02:27</time>
      </trkpt>
      <trkpt lat="40.48914" lon="-4.74328">
        <ele>1376.8</ele>
        <time>2021-07-22 19:02:28</time>
      </trkpt>
      <trkpt lat="40.48895" lon="-4.74361">
        <ele>1375.6</ele>
        <time>2021-07-22 19:02:31</time>
      </trkpt>
      <trkpt lat="40.48884" lon="-4.74385">
        <ele>1374.4</ele>
        <time>2021-07-22 19:02:33</time>
      </trkpt>
      <trkpt lat="40.48875" lon="-4.74412">
        <ele>1373</ele>
        <time>2021-07-22 19:02:35</time>
      </trkpt>
      <trkpt lat="40.4887" lon="-4.74439">
        <ele>1371.8</ele>
        <time>2021-07-22 19:02:37</time>
      </trkpt>
      <trkpt lat="40.48867" lon="-4.74466">
        <ele>1370.4</ele>
        <time>2021-07-22 19:02:39</time>
      </trkpt>
      <trkpt lat="40.48865" lon="-4.74478">
        <ele>1369</ele>
        <time>2021-07-22 19:02:40</time>
      </trkpt>
      <trkpt lat="40.48861" lon="-4.7449">
        <ele>1368.4</ele>
        <time>2021-07-22 19:02:41</time>
      </trkpt>
      <trkpt lat="40.48857" lon="-4.74501">
        <ele>1367.8</ele>
        <time>2021-07-22 19:02:42</time>
      </trkpt>
      <trkpt lat="40.48845" lon="-4.74521">
        <ele>1366.8</ele>
        <time>2021-07-22 19:02:44</time>
      </trkpt>
      <trkpt lat="40.48837" lon="-4.74529">
        <ele>1366.6</ele>
        <time>2021-07-22 19:02:45</time>
      </trkpt>
      <trkpt lat="40.48821" lon="-4.74542">
        <ele>1365.6</ele>
        <time>2021-07-22 19:02:47</time>
      </trkpt>
      <trkpt lat="40.48812" lon="-4.74546">
        <ele>1365.2</ele>
        <time>2021-07-22 19:02:48</time>
      </trkpt>
      <trkpt lat="40.48802" lon="-4.7455">
        <ele>1364.4</ele>
        <time>2021-07-22 19:02:49</time>
      </trkpt>
      <trkpt lat="40.48784" lon="-4.74561">
        <ele>1364</ele>
        <time>2021-07-22 19:02:51</time>
      </trkpt>
      <trkpt lat="40.48753" lon="-4.74594">
        <ele>1363</ele>
        <time>2021-07-22 19:02:55</time>
      </trkpt>
      <trkpt lat="40.48745" lon="-4.74604">
        <ele>1362.8</ele>
        <time>2021-07-22 19:02:56</time>
      </trkpt>
      <trkpt lat="40.48723" lon="-4.74633">
        <ele>1361</ele>
        <time>2021-07-22 19:02:59</time>
      </trkpt>
      <trkpt lat="40.48709" lon="-4.74654">
        <ele>1359.4</ele>
        <time>2021-07-22 19:03:01</time>
      </trkpt>
      <trkpt lat="40.48694" lon="-4.74675">
        <ele>1358.2</ele>
        <time>2021-07-22 19:03:03</time>
      </trkpt>
      <trkpt lat="40.48678" lon="-4.74695">
        <ele>1356.4</ele>
        <time>2021-07-22 19:03:05</time>
      </trkpt>
      <trkpt lat="40.48661" lon="-4.74714">
        <ele>1354.6</ele>
        <time>2021-07-22 19:03:07</time>
      </trkpt>
      <trkpt lat="40.48644" lon="-4.74731">
        <ele>1353.4</ele>
        <time>2021-07-22 19:03:09</time>
      </trkpt>
      <trkpt lat="40.48635" lon="-4.74738">
        <ele>1352.2</ele>
        <time>2021-07-22 19:03:10</time>
      </trkpt>
      <trkpt lat="40.48619" lon="-4.74751">
        <ele>1351</ele>
        <time>2021-07-22 19:03:12</time>
      </trkpt>
      <trkpt lat="40.48603" lon="-4.74763">
        <ele>1349.6</ele>
        <time>2021-07-22 19:03:14</time>
      </trkpt>
      <trkpt lat="40.48578" lon="-4.74779">
        <ele>1348.4</ele>
        <time>2021-07-22 19:03:17</time>
      </trkpt>
      <trkpt lat="40.48548" lon="-4.74802">
        <ele>1347.2</ele>
        <time>2021-07-22 19:03:21</time>
      </trkpt>
      <trkpt lat="40.48541" lon="-4.74808">
        <ele>1347.2</ele>
        <time>2021-07-22 19:03:22</time>
      </trkpt>
      <trkpt lat="40.48521" lon="-4.74828">
        <ele>1346.2</ele>
        <time>2021-07-22 19:03:25</time>
      </trkpt>
      <trkpt lat="40.48486" lon="-4.74865">
        <ele>1345</ele>
        <time>2021-07-22 19:03:30</time>
      </trkpt>
      <trkpt lat="40.48472" lon="-4.74881">
        <ele>1343.6</ele>
        <time>2021-07-22 19:03:32</time>
      </trkpt>
      <trkpt lat="40.4845" lon="-4.74906">
        <ele>1342.2</ele>
        <time>2021-07-22 19:03:35</time>
      </trkpt>
      <trkpt lat="40.48437" lon="-4.74925">
        <ele>1340.8</ele>
        <time>2021-07-22 19:03:37</time>
      </trkpt>
      <trkpt lat="40.48425" lon="-4.74947">
        <ele>1339.6</ele>
        <time>2021-07-22 19:03:39</time>
      </trkpt>
      <trkpt lat="40.48417" lon="-4.7497">
        <ele>1338.6</ele>
        <time>2021-07-22 19:03:41</time>
      </trkpt>
      <trkpt lat="40.48413" lon="-4.74981">
        <ele>1338.2</ele>
        <time>2021-07-22 19:03:42</time>
      </trkpt>
      <trkpt lat="40.48408" lon="-4.75005">
        <ele>1337.4</ele>
        <time>2021-07-22 19:03:44</time>
      </trkpt>
      <trkpt lat="40.48407" lon="-4.75017">
        <ele>1336.8</ele>
        <time>2021-07-22 19:03:45</time>
      </trkpt>
      <trkpt lat="40.48406" lon="-4.7504">
        <ele>1335.8</ele>
        <time>2021-07-22 19:03:47</time>
      </trkpt>
      <trkpt lat="40.48407" lon="-4.75052">
        <ele>1335.2</ele>
        <time>2021-07-22 19:03:48</time>
      </trkpt>
      <trkpt lat="40.48408" lon="-4.75064">
        <ele>1334.6</ele>
        <time>2021-07-22 19:03:49</time>
      </trkpt>
      <trkpt lat="40.48409" lon="-4.75075">
        <ele>1334.2</ele>
        <time>2021-07-22 19:03:50</time>
      </trkpt>
      <trkpt lat="40.48414" lon="-4.75098">
        <ele>1333.6</ele>
        <time>2021-07-22 19:03:52</time>
      </trkpt>
      <trkpt lat="40.48423" lon="-4.75128">
        <ele>1332</ele>
        <time>2021-07-22 19:03:55</time>
      </trkpt>
      <trkpt lat="40.48424" lon="-4.75138">
        <ele>1331.6</ele>
        <time>2021-07-22 19:03:56</time>
      </trkpt>
      <trkpt lat="40.48425" lon="-4.75147">
        <ele>1330.8</ele>
        <time>2021-07-22 19:03:57</time>
      </trkpt>
      <trkpt lat="40.48424" lon="-4.75157">
        <ele>1330.2</ele>
        <time>2021-07-22 19:03:58</time>
      </trkpt>
      <trkpt lat="40.48416" lon="-4.75171">
        <ele>1329.4</ele>
        <time>2021-07-22 19:04:00</time>
      </trkpt>
      <trkpt lat="40.4841" lon="-4.75175">
        <ele>1328.6</ele>
        <time>2021-07-22 19:04:01</time>
      </trkpt>
      <trkpt lat="40.48402" lon="-4.75177">
        <ele>1328</ele>
        <time>2021-07-22 19:04:02</time>
      </trkpt>
      <trkpt lat="40.48387" lon="-4.75172">
        <ele>1326.4</ele>
        <time>2021-07-22 19:04:04</time>
      </trkpt>
      <trkpt lat="40.48377" lon="-4.75157">
        <ele>1325.2</ele>
        <time>2021-07-22 19:04:06</time>
      </trkpt>
      <trkpt lat="40.48371" lon="-4.75121">
        <ele>1323.8</ele>
        <time>2021-07-22 19:04:09</time>
      </trkpt>
      <trkpt lat="40.4837" lon="-4.75109">
        <ele>1323.4</ele>
        <time>2021-07-22 19:04:10</time>
      </trkpt>
      <trkpt lat="40.48366" lon="-4.75056">
        <ele>1322.6</ele>
        <time>2021-07-22 19:04:14</time>
      </trkpt>
      <trkpt lat="40.48354" lon="-4.75002">
        <ele>1321.2</ele>
        <time>2021-07-22 19:04:18</time>
      </trkpt>
      <trkpt lat="40.48348" lon="-4.74976">
        <ele>1319.8</ele>
        <time>2021-07-22 19:04:20</time>
      </trkpt>
      <trkpt lat="40.48344" lon="-4.74951">
        <ele>1318.8</ele>
        <time>2021-07-22 19:04:22</time>
      </trkpt>
      <trkpt lat="40.48342" lon="-4.74938">
        <ele>1318.4</ele>
        <time>2021-07-22 19:04:23</time>
      </trkpt>
      <trkpt lat="40.48342" lon="-4.74925">
        <ele>1318</ele>
        <time>2021-07-22 19:04:24</time>
      </trkpt>
      <trkpt lat="40.48344" lon="-4.74912">
        <ele>1317.6</ele>
        <time>2021-07-22 19:04:25</time>
      </trkpt>
      <trkpt lat="40.4835" lon="-4.74887">
        <ele>1316.8</ele>
        <time>2021-07-22 19:04:27</time>
      </trkpt>
      <trkpt lat="40.48361" lon="-4.74863">
        <ele>1316.4</ele>
        <time>2021-07-22 19:04:29</time>
      </trkpt>
      <trkpt lat="40.48378" lon="-4.74826">
        <ele>1314.8</ele>
        <time>2021-07-22 19:04:32</time>
      </trkpt>
      <trkpt lat="40.48396" lon="-4.74789">
        <ele>1313.6</ele>
        <time>2021-07-22 19:04:35</time>
      </trkpt>
      <trkpt lat="40.48413" lon="-4.74751">
        <ele>1311.4</ele>
        <time>2021-07-22 19:04:38</time>
      </trkpt>
      <trkpt lat="40.48418" lon="-4.74739">
        <ele>1310.6</ele>
        <time>2021-07-22 19:04:39</time>
      </trkpt>
      <trkpt lat="40.48423" lon="-4.74727">
        <ele>1310.4</ele>
        <time>2021-07-22 19:04:40</time>
      </trkpt>
      <trkpt lat="40.48438" lon="-4.74693">
        <ele>1309.2</ele>
        <time>2021-07-22 19:04:43</time>
      </trkpt>
      <trkpt lat="40.48448" lon="-4.74673">
        <ele>1308.2</ele>
        <time>2021-07-22 19:04:45</time>
      </trkpt>
      <trkpt lat="40.48459" lon="-4.74656">
        <ele>1306.6</ele>
        <time>2021-07-22 19:04:47</time>
      </trkpt>
      <trkpt lat="40.48468" lon="-4.74639">
        <ele>1305.4</ele>
        <time>2021-07-22 19:04:49</time>
      </trkpt>
      <trkpt lat="40.48472" lon="-4.7463">
        <ele>1304.6</ele>
        <time>2021-07-22 19:04:50</time>
      </trkpt>
      <trkpt lat="40.48474" lon="-4.74622">
        <ele>1303.8</ele>
        <time>2021-07-22 19:04:51</time>
      </trkpt>
      <trkpt lat="40.48473" lon="-4.74605">
        <ele>1302.6</ele>
        <time>2021-07-22 19:04:53</time>
      </trkpt>
      <trkpt lat="40.48467" lon="-4.74591">
        <ele>1301.2</ele>
        <time>2021-07-22 19:04:55</time>
      </trkpt>
      <trkpt lat="40.48462" lon="-4.74585">
        <ele>1300.4</ele>
        <time>2021-07-22 19:04:56</time>
      </trkpt>
      <trkpt lat="40.48456" lon="-4.74581">
        <ele>1299.6</ele>
        <time>2021-07-22 19:04:57</time>
      </trkpt>
      <trkpt lat="40.48441" lon="-4.7458">
        <ele>1298.2</ele>
        <time>2021-07-22 19:04:59</time>
      </trkpt>
      <trkpt lat="40.48426" lon="-4.74586">
        <ele>1297.2</ele>
        <time>2021-07-22 19:05:01</time>
      </trkpt>
      <trkpt lat="40.48418" lon="-4.74591">
        <ele>1296.6</ele>
        <time>2021-07-22 19:05:02</time>
      </trkpt>
      <trkpt lat="40.4841" lon="-4.74596">
        <ele>1296.2</ele>
        <time>2021-07-22 19:05:03</time>
      </trkpt>
      <trkpt lat="40.48402" lon="-4.74601">
        <ele>1295.8</ele>
        <time>2021-07-22 19:05:04</time>
      </trkpt>
      <trkpt lat="40.48377" lon="-4.74617">
        <ele>1294.6</ele>
        <time>2021-07-22 19:05:07</time>
      </trkpt>
      <trkpt lat="40.48368" lon="-4.74622">
        <ele>1294.2</ele>
        <time>2021-07-22 19:05:08</time>
      </trkpt>
      <trkpt lat="40.48334" lon="-4.74646">
        <ele>1293.2</ele>
        <time>2021-07-22 19:05:12</time>
      </trkpt>
      <trkpt lat="40.48326" lon="-4.74652">
        <ele>1292.6</ele>
        <time>2021-07-22 19:05:13</time>
      </trkpt>
      <trkpt lat="40.48317" lon="-4.74658">
        <ele>1292</ele>
        <time>2021-07-22 19:05:14</time>
      </trkpt>
      <trkpt lat="40.48292" lon="-4.74675">
        <ele>1290.8</ele>
        <time>2021-07-22 19:05:17</time>
      </trkpt>
      <trkpt lat="40.48257" lon="-4.74699">
        <ele>1289.8</ele>
        <time>2021-07-22 19:05:21</time>
      </trkpt>
      <trkpt lat="40.48232" lon="-4.74717">
        <ele>1288</ele>
        <time>2021-07-22 19:05:24</time>
      </trkpt>
      <trkpt lat="40.48215" lon="-4.74729">
        <ele>1286.4</ele>
        <time>2021-07-22 19:05:26</time>
      </trkpt>
      <trkpt lat="40.48192" lon="-4.74745">
        <ele>1285</ele>
        <time>2021-07-22 19:05:29</time>
      </trkpt>
      <trkpt lat="40.48165" lon="-4.74771">
        <ele>1283.6</ele>
        <time>2021-07-22 19:05:33</time>
      </trkpt>
      <trkpt lat="40.4816" lon="-4.74779">
        <ele>1283.2</ele>
        <time>2021-07-22 19:05:34</time>
      </trkpt>
      <trkpt lat="40.4815" lon="-4.74798">
        <ele>1282</ele>
        <time>2021-07-22 19:05:36</time>
      </trkpt>
      <trkpt lat="40.48143" lon="-4.74819">
        <ele>1280.8</ele>
        <time>2021-07-22 19:05:38</time>
      </trkpt>
      <trkpt lat="40.48138" lon="-4.74841">
        <ele>1279.6</ele>
        <time>2021-07-22 19:05:40</time>
      </trkpt>
      <trkpt lat="40.48136" lon="-4.74852">
        <ele>1279.4</ele>
        <time>2021-07-22 19:05:41</time>
      </trkpt>
      <trkpt lat="40.48133" lon="-4.74875">
        <ele>1278.4</ele>
        <time>2021-07-22 19:05:43</time>
      </trkpt>
      <trkpt lat="40.48132" lon="-4.74909">
        <ele>1276.8</ele>
        <time>2021-07-22 19:05:46</time>
      </trkpt>
      <trkpt lat="40.48131" lon="-4.74956">
        <ele>1275.6</ele>
        <time>2021-07-22 19:05:50</time>
      </trkpt>
      <trkpt lat="40.48131" lon="-4.74968">
        <ele>1275.2</ele>
        <time>2021-07-22 19:05:51</time>
      </trkpt>
      <trkpt lat="40.48131" lon="-4.74979">
        <ele>1274.4</ele>
        <time>2021-07-22 19:05:52</time>
      </trkpt>
      <trkpt lat="40.4813" lon="-4.75002">
        <ele>1273.2</ele>
        <time>2021-07-22 19:05:54</time>
      </trkpt>
      <trkpt lat="40.4813" lon="-4.75024">
        <ele>1272</ele>
        <time>2021-07-22 19:05:56</time>
      </trkpt>
      <trkpt lat="40.48132" lon="-4.75046">
        <ele>1270.8</ele>
        <time>2021-07-22 19:05:58</time>
      </trkpt>
      <trkpt lat="40.48134" lon="-4.75056">
        <ele>1270.2</ele>
        <time>2021-07-22 19:05:59</time>
      </trkpt>
      <trkpt lat="40.4814" lon="-4.75076">
        <ele>1269.4</ele>
        <time>2021-07-22 19:06:01</time>
      </trkpt>
      <trkpt lat="40.48144" lon="-4.75086">
        <ele>1269</ele>
        <time>2021-07-22 19:06:02</time>
      </trkpt>
      <trkpt lat="40.48155" lon="-4.75103">
        <ele>1268.2</ele>
        <time>2021-07-22 19:06:04</time>
      </trkpt>
      <trkpt lat="40.48162" lon="-4.75109">
        <ele>1267.6</ele>
        <time>2021-07-22 19:06:05</time>
      </trkpt>
      <trkpt lat="40.48169" lon="-4.75115">
        <ele>1266.6</ele>
        <time>2021-07-22 19:06:06</time>
      </trkpt>
      <trkpt lat="40.48177" lon="-4.75121">
        <ele>1266.2</ele>
        <time>2021-07-22 19:06:07</time>
      </trkpt>
      <trkpt lat="40.48192" lon="-4.75133">
        <ele>1265.2</ele>
        <time>2021-07-22 19:06:09</time>
      </trkpt>
      <trkpt lat="40.48204" lon="-4.75151">
        <ele>1263</ele>
        <time>2021-07-22 19:06:11</time>
      </trkpt>
      <trkpt lat="40.48209" lon="-4.75161">
        <ele>1262</ele>
        <time>2021-07-22 19:06:12</time>
      </trkpt>
      <trkpt lat="40.48219" lon="-4.75183">
        <ele>1260.4</ele>
        <time>2021-07-22 19:06:14</time>
      </trkpt>
      <trkpt lat="40.4823" lon="-4.75217">
        <ele>1259.6</ele>
        <time>2021-07-22 19:06:17</time>
      </trkpt>
      <trkpt lat="40.48236" lon="-4.75241">
        <ele>1258.8</ele>
        <time>2021-07-22 19:06:19</time>
      </trkpt>
      <trkpt lat="40.48237" lon="-4.75254">
        <ele>1258.2</ele>
        <time>2021-07-22 19:06:20</time>
      </trkpt>
      <trkpt lat="40.48238" lon="-4.75268">
        <ele>1258</ele>
        <time>2021-07-22 19:06:21</time>
      </trkpt>
      <trkpt lat="40.4824" lon="-4.75294">
        <ele>1256.6</ele>
        <time>2021-07-22 19:06:23</time>
      </trkpt>
      <trkpt lat="40.48243" lon="-4.7532">
        <ele>1255</ele>
        <time>2021-07-22 19:06:25</time>
      </trkpt>
      <trkpt lat="40.48247" lon="-4.75346">
        <ele>1253.6</ele>
        <time>2021-07-22 19:06:27</time>
      </trkpt>
      <trkpt lat="40.48249" lon="-4.75358">
        <ele>1253.2</ele>
        <time>2021-07-22 19:06:28</time>
      </trkpt>
      <trkpt lat="40.48258" lon="-4.75393">
        <ele>1251.8</ele>
        <time>2021-07-22 19:06:31</time>
      </trkpt>
      <trkpt lat="40.48263" lon="-4.75415">
        <ele>1250.6</ele>
        <time>2021-07-22 19:06:33</time>
      </trkpt>
      <trkpt lat="40.48266" lon="-4.75426">
        <ele>1249.8</ele>
        <time>2021-07-22 19:06:34</time>
      </trkpt>
      <trkpt lat="40.48269" lon="-4.75436">
        <ele>1248.4</ele>
        <time>2021-07-22 19:06:35</time>
      </trkpt>
      <trkpt lat="40.48272" lon="-4.75446">
        <ele>1248.2</ele>
        <time>2021-07-22 19:06:36</time>
      </trkpt>
      <trkpt lat="40.48281" lon="-4.75463">
        <ele>1247.8</ele>
        <time>2021-07-22 19:06:38</time>
      </trkpt>
      <trkpt lat="40.48287" lon="-4.7547">
        <ele>1247.4</ele>
        <time>2021-07-22 19:06:39</time>
      </trkpt>
      <trkpt lat="40.48301" lon="-4.75479">
        <ele>1247</ele>
        <time>2021-07-22 19:06:41</time>
      </trkpt>
      <trkpt lat="40.48316" lon="-4.75483">
        <ele>1246.4</ele>
        <time>2021-07-22 19:06:43</time>
      </trkpt>
      <trkpt lat="40.48323" lon="-4.75486">
        <ele>1246.4</ele>
        <time>2021-07-22 19:06:44</time>
      </trkpt>
      <trkpt lat="40.4833" lon="-4.75489">
        <ele>1246.2</ele>
        <time>2021-07-22 19:06:45</time>
      </trkpt>
      <trkpt lat="40.48341" lon="-4.75501">
        <ele>1246</ele>
        <time>2021-07-22 19:06:47</time>
      </trkpt>
      <trkpt lat="40.48346" lon="-4.75508">
        <ele>1246</ele>
        <time>2021-07-22 19:06:48</time>
      </trkpt>
      <trkpt lat="40.48354" lon="-4.75533">
        <ele>1245.6</ele>
        <time>2021-07-22 19:06:51</time>
      </trkpt>
      <trkpt lat="40.48357" lon="-4.75563">
        <ele>1245.2</ele>
        <time>2021-07-22 19:06:54</time>
      </trkpt>
      <trkpt lat="40.48357" lon="-4.75574">
        <ele>1245</ele>
        <time>2021-07-22 19:06:55</time>
      </trkpt>
      <trkpt lat="40.48357" lon="-4.75585">
        <ele>1245</ele>
        <time>2021-07-22 19:06:56</time>
      </trkpt>
      <trkpt lat="40.4835" lon="-4.75647">
        <ele>1244.6</ele>
        <time>2021-07-22 19:07:01</time>
      </trkpt>
      <trkpt lat="40.48348" lon="-4.7566">
        <ele>1244.2</ele>
        <time>2021-07-22 19:07:02</time>
      </trkpt>
      <trkpt lat="40.48341" lon="-4.75702">
        <ele>1242.6</ele>
        <time>2021-07-22 19:07:05</time>
      </trkpt>
      <trkpt lat="40.48335" lon="-4.75731">
        <ele>1241.4</ele>
        <time>2021-07-22 19:07:07</time>
      </trkpt>
      <trkpt lat="40.48331" lon="-4.7576">
        <ele>1240.2</ele>
        <time>2021-07-22 19:07:09</time>
      </trkpt>
      <trkpt lat="40.48327" lon="-4.75789">
        <ele>1238.8</ele>
        <time>2021-07-22 19:07:11</time>
      </trkpt>
      <trkpt lat="40.48325" lon="-4.75817">
        <ele>1237.6</ele>
        <time>2021-07-22 19:07:13</time>
      </trkpt>
      <trkpt lat="40.48325" lon="-4.75845">
        <ele>1236.2</ele>
        <time>2021-07-22 19:07:15</time>
      </trkpt>
      <trkpt lat="40.48328" lon="-4.75873">
        <ele>1234.8</ele>
        <time>2021-07-22 19:07:17</time>
      </trkpt>
      <trkpt lat="40.48337" lon="-4.75914">
        <ele>1233.4</ele>
        <time>2021-07-22 19:07:20</time>
      </trkpt>
      <trkpt lat="40.48344" lon="-4.75941">
        <ele>1231.8</ele>
        <time>2021-07-22 19:07:22</time>
      </trkpt>
      <trkpt lat="40.48352" lon="-4.75968">
        <ele>1230.8</ele>
        <time>2021-07-22 19:07:24</time>
      </trkpt>
      <trkpt lat="40.4836" lon="-4.75995">
        <ele>1229.4</ele>
        <time>2021-07-22 19:07:26</time>
      </trkpt>
      <trkpt lat="40.48376" lon="-4.7605">
        <ele>1228</ele>
        <time>2021-07-22 19:07:30</time>
      </trkpt>
      <trkpt lat="40.48384" lon="-4.76078">
        <ele>1226.8</ele>
        <time>2021-07-22 19:07:32</time>
      </trkpt>
      <trkpt lat="40.48388" lon="-4.76092">
        <ele>1226.2</ele>
        <time>2021-07-22 19:07:33</time>
      </trkpt>
      <trkpt lat="40.48392" lon="-4.76106">
        <ele>1225.2</ele>
        <time>2021-07-22 19:07:34</time>
      </trkpt>
      <trkpt lat="40.48399" lon="-4.76133">
        <ele>1224</ele>
        <time>2021-07-22 19:07:36</time>
      </trkpt>
      <trkpt lat="40.48405" lon="-4.76159">
        <ele>1223</ele>
        <time>2021-07-22 19:07:38</time>
      </trkpt>
      <trkpt lat="40.48405" lon="-4.76198">
        <ele>1222</ele>
        <time>2021-07-22 19:07:41</time>
      </trkpt>
      <trkpt lat="40.48403" lon="-4.7621">
        <ele>1221.8</ele>
        <time>2021-07-22 19:07:42</time>
      </trkpt>
      <trkpt lat="40.48394" lon="-4.76233">
        <ele>1221</ele>
        <time>2021-07-22 19:07:44</time>
      </trkpt>
      <trkpt lat="40.4839" lon="-4.76244">
        <ele>1220.6</ele>
        <time>2021-07-22 19:07:45</time>
      </trkpt>
      <trkpt lat="40.4838" lon="-4.76266">
        <ele>1219.2</ele>
        <time>2021-07-22 19:07:47</time>
      </trkpt>
      <trkpt lat="40.48371" lon="-4.76289">
        <ele>1218</ele>
        <time>2021-07-22 19:07:49</time>
      </trkpt>
      <trkpt lat="40.48352" lon="-4.76332">
        <ele>1216.8</ele>
        <time>2021-07-22 19:07:53</time>
      </trkpt>
      <trkpt lat="40.48347" lon="-4.76342">
        <ele>1216.2</ele>
        <time>2021-07-22 19:07:54</time>
      </trkpt>
      <trkpt lat="40.48341" lon="-4.76351">
        <ele>1215.6</ele>
        <time>2021-07-22 19:07:55</time>
      </trkpt>
      <trkpt lat="40.48319" lon="-4.76373">
        <ele>1214.2</ele>
        <time>2021-07-22 19:07:58</time>
      </trkpt>
      <trkpt lat="40.48292" lon="-4.76381">
        <ele>1213.4</ele>
        <time>2021-07-22 19:08:01</time>
      </trkpt>
      <trkpt lat="40.48282" lon="-4.76381">
        <ele>1213</ele>
        <time>2021-07-22 19:08:02</time>
      </trkpt>
      <trkpt lat="40.48272" lon="-4.76381">
        <ele>1212.6</ele>
        <time>2021-07-22 19:08:03</time>
      </trkpt>
      <trkpt lat="40.48234" lon="-4.7638">
        <ele>1212</ele>
        <time>2021-07-22 19:08:07</time>
      </trkpt>
      <trkpt lat="40.48215" lon="-4.76382">
        <ele>1210.8</ele>
        <time>2021-07-22 19:08:09</time>
      </trkpt>
      <trkpt lat="40.48198" lon="-4.76389">
        <ele>1210.2</ele>
        <time>2021-07-22 19:08:11</time>
      </trkpt>
      <trkpt lat="40.48182" lon="-4.76402">
        <ele>1209.6</ele>
        <time>2021-07-22 19:08:13</time>
      </trkpt>
      <trkpt lat="40.48174" lon="-4.7641">
        <ele>1209.4</ele>
        <time>2021-07-22 19:08:14</time>
      </trkpt>
      <trkpt lat="40.48166" lon="-4.76418">
        <ele>1209</ele>
        <time>2021-07-22 19:08:15</time>
      </trkpt>
      <trkpt lat="40.48144" lon="-4.76445">
        <ele>1208.6</ele>
        <time>2021-07-22 19:08:18</time>
      </trkpt>
      <trkpt lat="40.48129" lon="-4.76464">
        <ele>1207.8</ele>
        <time>2021-07-22 19:08:20</time>
      </trkpt>
      <trkpt lat="40.48122" lon="-4.76473">
        <ele>1206.8</ele>
        <time>2021-07-22 19:08:21</time>
      </trkpt>
      <trkpt lat="40.48114" lon="-4.76482">
        <ele>1205.6</ele>
        <time>2021-07-22 19:08:22</time>
      </trkpt>
      <trkpt lat="40.481" lon="-4.765">
        <ele>1204.4</ele>
        <time>2021-07-22 19:08:24</time>
      </trkpt>
      <trkpt lat="40.48085" lon="-4.76515">
        <ele>1203.4</ele>
        <time>2021-07-22 19:08:26</time>
      </trkpt>
      <trkpt lat="40.48069" lon="-4.76525">
        <ele>1202.2</ele>
        <time>2021-07-22 19:08:28</time>
      </trkpt>
      <trkpt lat="40.48059" lon="-4.76527">
        <ele>1201.6</ele>
        <time>2021-07-22 19:08:29</time>
      </trkpt>
      <trkpt lat="40.48049" lon="-4.76529">
        <ele>1201</ele>
        <time>2021-07-22 19:08:30</time>
      </trkpt>
      <trkpt lat="40.48028" lon="-4.7653">
        <ele>1198.6</ele>
        <time>2021-07-22 19:08:32</time>
      </trkpt>
      <trkpt lat="40.48017" lon="-4.76531">
        <ele>1198.2</ele>
        <time>2021-07-22 19:08:33</time>
      </trkpt>
      <trkpt lat="40.47995" lon="-4.76536">
        <ele>1197</ele>
        <time>2021-07-22 19:08:35</time>
      </trkpt>
      <trkpt lat="40.47984" lon="-4.76542">
        <ele>1196.2</ele>
        <time>2021-07-22 19:08:36</time>
      </trkpt>
      <trkpt lat="40.47973" lon="-4.76549">
        <ele>1195.4</ele>
        <time>2021-07-22 19:08:37</time>
      </trkpt>
      <trkpt lat="40.47954" lon="-4.76563">
        <ele>1193.6</ele>
        <time>2021-07-22 19:08:39</time>
      </trkpt>
      <trkpt lat="40.47945" lon="-4.76569">
        <ele>1192.8</ele>
        <time>2021-07-22 19:08:40</time>
      </trkpt>
      <trkpt lat="40.47936" lon="-4.76574">
        <ele>1192.2</ele>
        <time>2021-07-22 19:08:41</time>
      </trkpt>
      <trkpt lat="40.47917" lon="-4.76578">
        <ele>1191.6</ele>
        <time>2021-07-22 19:08:43</time>
      </trkpt>
      <trkpt lat="40.47907" lon="-4.76578">
        <ele>1190.8</ele>
        <time>2021-07-22 19:08:44</time>
      </trkpt>
      <trkpt lat="40.47889" lon="-4.76572">
        <ele>1190</ele>
        <time>2021-07-22 19:08:46</time>
      </trkpt>
      <trkpt lat="40.4788" lon="-4.76567">
        <ele>1189.2</ele>
        <time>2021-07-22 19:08:47</time>
      </trkpt>
      <trkpt lat="40.47865" lon="-4.7655">
        <ele>1188</ele>
        <time>2021-07-22 19:08:49</time>
      </trkpt>
      <trkpt lat="40.47854" lon="-4.76527">
        <ele>1186.8</ele>
        <time>2021-07-22 19:08:51</time>
      </trkpt>
      <trkpt lat="40.47851" lon="-4.76514">
        <ele>1186</ele>
        <time>2021-07-22 19:08:52</time>
      </trkpt>
      <trkpt lat="40.47848" lon="-4.76501">
        <ele>1185.2</ele>
        <time>2021-07-22 19:08:53</time>
      </trkpt>
      <trkpt lat="40.47844" lon="-4.76474">
        <ele>1184</ele>
        <time>2021-07-22 19:08:55</time>
      </trkpt>
      <trkpt lat="40.47842" lon="-4.7646">
        <ele>1183.6</ele>
        <time>2021-07-22 19:08:56</time>
      </trkpt>
      <trkpt lat="40.47837" lon="-4.76435">
        <ele>1182.8</ele>
        <time>2021-07-22 19:08:58</time>
      </trkpt>
      <trkpt lat="40.4783" lon="-4.76409">
        <ele>1182</ele>
        <time>2021-07-22 19:09:00</time>
      </trkpt>
      <trkpt lat="40.47825" lon="-4.76397">
        <ele>1181.6</ele>
        <time>2021-07-22 19:09:01</time>
      </trkpt>
      <trkpt lat="40.47812" lon="-4.76375">
        <ele>1180.2</ele>
        <time>2021-07-22 19:09:03</time>
      </trkpt>
      <trkpt lat="40.47799" lon="-4.76356">
        <ele>1178.8</ele>
        <time>2021-07-22 19:09:05</time>
      </trkpt>
      <trkpt lat="40.47789" lon="-4.76338">
        <ele>1177.2</ele>
        <time>2021-07-22 19:09:07</time>
      </trkpt>
      <trkpt lat="40.47776" lon="-4.76321">
        <ele>1175.8</ele>
        <time>2021-07-22 19:09:09</time>
      </trkpt>
      <trkpt lat="40.47769" lon="-4.76314">
        <ele>1175.2</ele>
        <time>2021-07-22 19:09:10</time>
      </trkpt>
      <trkpt lat="40.47761" lon="-4.76308">
        <ele>1174.6</ele>
        <time>2021-07-22 19:09:11</time>
      </trkpt>
      <trkpt lat="40.47744" lon="-4.76301">
        <ele>1172.6</ele>
        <time>2021-07-22 19:09:13</time>
      </trkpt>
      <trkpt lat="40.47725" lon="-4.76303">
        <ele>1171</ele>
        <time>2021-07-22 19:09:15</time>
      </trkpt>
      <trkpt lat="40.47715" lon="-4.76307">
        <ele>1170.4</ele>
        <time>2021-07-22 19:09:16</time>
      </trkpt>
      <trkpt lat="40.47706" lon="-4.76312">
        <ele>1169.6</ele>
        <time>2021-07-22 19:09:17</time>
      </trkpt>
      <trkpt lat="40.47697" lon="-4.76317">
        <ele>1169</ele>
        <time>2021-07-22 19:09:18</time>
      </trkpt>
      <trkpt lat="40.47688" lon="-4.76322">
        <ele>1168.6</ele>
        <time>2021-07-22 19:09:19</time>
      </trkpt>
      <trkpt lat="40.47679" lon="-4.76326">
        <ele>1168</ele>
        <time>2021-07-22 19:09:20</time>
      </trkpt>
      <trkpt lat="40.47662" lon="-4.76335">
        <ele>1167.2</ele>
        <time>2021-07-22 19:09:22</time>
      </trkpt>
      <trkpt lat="40.47645" lon="-4.76346">
        <ele>1165.8</ele>
        <time>2021-07-22 19:09:24</time>
      </trkpt>
      <trkpt lat="40.47637" lon="-4.76352">
        <ele>1165.4</ele>
        <time>2021-07-22 19:09:25</time>
      </trkpt>
      <trkpt lat="40.47621" lon="-4.76365">
        <ele>1164.4</ele>
        <time>2021-07-22 19:09:27</time>
      </trkpt>
      <trkpt lat="40.47593" lon="-4.76395">
        <ele>1163</ele>
        <time>2021-07-22 19:09:31</time>
      </trkpt>
      <trkpt lat="40.47586" lon="-4.76403">
        <ele>1161.4</ele>
        <time>2021-07-22 19:09:32</time>
      </trkpt>
      <trkpt lat="40.47574" lon="-4.7642">
        <ele>1160.2</ele>
        <time>2021-07-22 19:09:34</time>
      </trkpt>
      <trkpt lat="40.47563" lon="-4.76437">
        <ele>1158.8</ele>
        <time>2021-07-22 19:09:36</time>
      </trkpt>
      <trkpt lat="40.47558" lon="-4.76446">
        <ele>1158.2</ele>
        <time>2021-07-22 19:09:37</time>
      </trkpt>
      <trkpt lat="40.47552" lon="-4.76455">
        <ele>1157.8</ele>
        <time>2021-07-22 19:09:38</time>
      </trkpt>
      <trkpt lat="40.47546" lon="-4.76463">
        <ele>1157.4</ele>
        <time>2021-07-22 19:09:39</time>
      </trkpt>
      <trkpt lat="40.47532" lon="-4.76475">
        <ele>1156.6</ele>
        <time>2021-07-22 19:09:41</time>
      </trkpt>
      <trkpt lat="40.47508" lon="-4.76486">
        <ele>1155.6</ele>
        <time>2021-07-22 19:09:44</time>
      </trkpt>
      <trkpt lat="40.475" lon="-4.76488">
        <ele>1155.4</ele>
        <time>2021-07-22 19:09:45</time>
      </trkpt>
      <trkpt lat="40.47463" lon="-4.76484">
        <ele>1155</ele>
        <time>2021-07-22 19:09:49</time>
      </trkpt>
      <trkpt lat="40.47426" lon="-4.76477">
        <ele>1154.6</ele>
        <time>2021-07-22 19:09:53</time>
      </trkpt>
      <trkpt lat="40.47417" lon="-4.76473">
        <ele>1154.4</ele>
        <time>2021-07-22 19:09:54</time>
      </trkpt>
      <trkpt lat="40.47409" lon="-4.76468">
        <ele>1154</ele>
        <time>2021-07-22 19:09:55</time>
      </trkpt>
      <trkpt lat="40.47392" lon="-4.76456">
        <ele>1153.4</ele>
        <time>2021-07-22 19:09:57</time>
      </trkpt>
      <trkpt lat="40.47374" lon="-4.76445">
        <ele>1152.2</ele>
        <time>2021-07-22 19:09:59</time>
      </trkpt>
      <trkpt lat="40.47364" lon="-4.76441">
        <ele>1151.8</ele>
        <time>2021-07-22 19:10:00</time>
      </trkpt>
      <trkpt lat="40.47354" lon="-4.76438">
        <ele>1150.8</ele>
        <time>2021-07-22 19:10:01</time>
      </trkpt>
      <trkpt lat="40.47334" lon="-4.76438">
        <ele>1149.4</ele>
        <time>2021-07-22 19:10:03</time>
      </trkpt>
      <trkpt lat="40.47313" lon="-4.76441">
        <ele>1148</ele>
        <time>2021-07-22 19:10:05</time>
      </trkpt>
      <trkpt lat="40.47303" lon="-4.76444">
        <ele>1147.6</ele>
        <time>2021-07-22 19:10:06</time>
      </trkpt>
      <trkpt lat="40.47292" lon="-4.76447">
        <ele>1147</ele>
        <time>2021-07-22 19:10:07</time>
      </trkpt>
      <trkpt lat="40.47271" lon="-4.76456">
        <ele>1145.4</ele>
        <time>2021-07-22 19:10:09</time>
      </trkpt>
      <trkpt lat="40.47249" lon="-4.76465">
        <ele>1144</ele>
        <time>2021-07-22 19:10:11</time>
      </trkpt>
      <trkpt lat="40.47227" lon="-4.76471">
        <ele>1142.6</ele>
        <time>2021-07-22 19:10:13</time>
      </trkpt>
      <trkpt lat="40.47204" lon="-4.76473">
        <ele>1141.2</ele>
        <time>2021-07-22 19:10:15</time>
      </trkpt>
      <trkpt lat="40.47181" lon="-4.76476">
        <ele>1139.8</ele>
        <time>2021-07-22 19:10:17</time>
      </trkpt>
      <trkpt lat="40.47158" lon="-4.76483">
        <ele>1138.4</ele>
        <time>2021-07-22 19:10:19</time>
      </trkpt>
      <trkpt lat="40.47136" lon="-4.76493">
        <ele>1137.2</ele>
        <time>2021-07-22 19:10:21</time>
      </trkpt>
      <trkpt lat="40.47115" lon="-4.76504">
        <ele>1136.2</ele>
        <time>2021-07-22 19:10:23</time>
      </trkpt>
      <trkpt lat="40.47093" lon="-4.76516">
        <ele>1135.2</ele>
        <time>2021-07-22 19:10:25</time>
      </trkpt>
      <trkpt lat="40.47082" lon="-4.76522">
        <ele>1134.2</ele>
        <time>2021-07-22 19:10:26</time>
      </trkpt>
      <trkpt lat="40.47062" lon="-4.76535">
        <ele>1133</ele>
        <time>2021-07-22 19:10:28</time>
      </trkpt>
      <trkpt lat="40.47045" lon="-4.76547">
        <ele>1131.4</ele>
        <time>2021-07-22 19:10:30</time>
      </trkpt>
      <trkpt lat="40.47036" lon="-4.76553">
        <ele>1129.6</ele>
        <time>2021-07-22 19:10:31</time>
      </trkpt>
      <trkpt lat="40.47019" lon="-4.76563">
        <ele>1127.8</ele>
        <time>2021-07-22 19:10:33</time>
      </trkpt>
      <trkpt lat="40.46991" lon="-4.76579">
        <ele>1126.6</ele>
        <time>2021-07-22 19:10:36</time>
      </trkpt>
      <trkpt lat="40.46972" lon="-4.76588">
        <ele>1125.2</ele>
        <time>2021-07-22 19:10:38</time>
      </trkpt>
      <trkpt lat="40.46962" lon="-4.76591">
        <ele>1125</ele>
        <time>2021-07-22 19:10:39</time>
      </trkpt>
      <trkpt lat="40.46942" lon="-4.76596">
        <ele>1124.2</ele>
        <time>2021-07-22 19:10:41</time>
      </trkpt>
      <trkpt lat="40.4691" lon="-4.76601">
        <ele>1122.8</ele>
        <time>2021-07-22 19:10:44</time>
      </trkpt>
      <trkpt lat="40.46888" lon="-4.76604">
        <ele>1121.4</ele>
        <time>2021-07-22 19:10:46</time>
      </trkpt>
      <trkpt lat="40.46866" lon="-4.76604">
        <ele>1120.2</ele>
        <time>2021-07-22 19:10:48</time>
      </trkpt>
      <trkpt lat="40.46844" lon="-4.76604">
        <ele>1118.6</ele>
        <time>2021-07-22 19:10:50</time>
      </trkpt>
      <trkpt lat="40.46821" lon="-4.76603">
        <ele>1117.6</ele>
        <time>2021-07-22 19:10:52</time>
      </trkpt>
      <trkpt lat="40.46809" lon="-4.76603">
        <ele>1116.6</ele>
        <time>2021-07-22 19:10:53</time>
      </trkpt>
      <trkpt lat="40.46798" lon="-4.76603">
        <ele>1115.6</ele>
        <time>2021-07-22 19:10:54</time>
      </trkpt>
      <trkpt lat="40.46775" lon="-4.76602">
        <ele>1114.2</ele>
        <time>2021-07-22 19:10:56</time>
      </trkpt>
      <trkpt lat="40.46751" lon="-4.76603">
        <ele>1113</ele>
        <time>2021-07-22 19:10:58</time>
      </trkpt>
      <trkpt lat="40.46728" lon="-4.76606">
        <ele>1111</ele>
        <time>2021-07-22 19:11:00</time>
      </trkpt>
      <trkpt lat="40.46705" lon="-4.76612">
        <ele>1109.4</ele>
        <time>2021-07-22 19:11:02</time>
      </trkpt>
      <trkpt lat="40.4667" lon="-4.7662">
        <ele>1107.8</ele>
        <time>2021-07-22 19:11:05</time>
      </trkpt>
      <trkpt lat="40.46658" lon="-4.76621">
        <ele>1107</ele>
        <time>2021-07-22 19:11:06</time>
      </trkpt>
      <trkpt lat="40.46646" lon="-4.7662">
        <ele>1106.4</ele>
        <time>2021-07-22 19:11:07</time>
      </trkpt>
      <trkpt lat="40.46621" lon="-4.76616">
        <ele>1105</ele>
        <time>2021-07-22 19:11:09</time>
      </trkpt>
      <trkpt lat="40.46609" lon="-4.76615">
        <ele>1103.8</ele>
        <time>2021-07-22 19:11:10</time>
      </trkpt>
      <trkpt lat="40.46596" lon="-4.76614">
        <ele>1102.4</ele>
        <time>2021-07-22 19:11:11</time>
      </trkpt>
      <trkpt lat="40.46584" lon="-4.76614">
        <ele>1101</ele>
        <time>2021-07-22 19:11:12</time>
      </trkpt>
      <trkpt lat="40.46571" lon="-4.76616">
        <ele>1100</ele>
        <time>2021-07-22 19:11:13</time>
      </trkpt>
      <trkpt lat="40.46558" lon="-4.76618">
        <ele>1099</ele>
        <time>2021-07-22 19:11:14</time>
      </trkpt>
      <trkpt lat="40.46546" lon="-4.76622">
        <ele>1098.4</ele>
        <time>2021-07-22 19:11:15</time>
      </trkpt>
      <trkpt lat="40.46522" lon="-4.76631">
        <ele>1097</ele>
        <time>2021-07-22 19:11:17</time>
      </trkpt>
      <trkpt lat="40.46497" lon="-4.76639">
        <ele>1095.2</ele>
        <time>2021-07-22 19:11:19</time>
      </trkpt>
      <trkpt lat="40.46474" lon="-4.76649">
        <ele>1093.4</ele>
        <time>2021-07-22 19:11:21</time>
      </trkpt>
      <trkpt lat="40.4644" lon="-4.76667">
        <ele>1092.2</ele>
        <time>2021-07-22 19:11:24</time>
      </trkpt>
      <trkpt lat="40.46429" lon="-4.76676">
        <ele>1091.2</ele>
        <time>2021-07-22 19:11:25</time>
      </trkpt>
      <trkpt lat="40.4642" lon="-4.76686">
        <ele>1090</ele>
        <time>2021-07-22 19:11:26</time>
      </trkpt>
      <trkpt lat="40.46411" lon="-4.76697">
        <ele>1089</ele>
        <time>2021-07-22 19:11:27</time>
      </trkpt>
      <trkpt lat="40.46396" lon="-4.76721">
        <ele>1086.6</ele>
        <time>2021-07-22 19:11:29</time>
      </trkpt>
      <trkpt lat="40.46381" lon="-4.76745">
        <ele>1085.2</ele>
        <time>2021-07-22 19:11:31</time>
      </trkpt>
      <trkpt lat="40.46374" lon="-4.76756">
        <ele>1084.4</ele>
        <time>2021-07-22 19:11:32</time>
      </trkpt>
      <trkpt lat="40.46367" lon="-4.76767">
        <ele>1083.8</ele>
        <time>2021-07-22 19:11:33</time>
      </trkpt>
      <trkpt lat="40.46353" lon="-4.76786">
        <ele>1082.4</ele>
        <time>2021-07-22 19:11:35</time>
      </trkpt>
      <trkpt lat="40.46346" lon="-4.76795">
        <ele>1081.4</ele>
        <time>2021-07-22 19:11:36</time>
      </trkpt>
      <trkpt lat="40.46328" lon="-4.76808">
        <ele>1079.4</ele>
        <time>2021-07-22 19:11:38</time>
      </trkpt>
      <trkpt lat="40.46309" lon="-4.76817">
        <ele>1078</ele>
        <time>2021-07-22 19:11:40</time>
      </trkpt>
      <trkpt lat="40.46288" lon="-4.76823">
        <ele>1077.2</ele>
        <time>2021-07-22 19:11:42</time>
      </trkpt>
      <trkpt lat="40.46277" lon="-4.76825">
        <ele>1077</ele>
        <time>2021-07-22 19:11:43</time>
      </trkpt>
      <trkpt lat="40.46254" lon="-4.76832">
        <ele>1076.2</ele>
        <time>2021-07-22 19:11:45</time>
      </trkpt>
      <trkpt lat="40.46242" lon="-4.76835">
        <ele>1075.8</ele>
        <time>2021-07-22 19:11:46</time>
      </trkpt>
      <trkpt lat="40.46219" lon="-4.76843">
        <ele>1074.8</ele>
        <time>2021-07-22 19:11:48</time>
      </trkpt>
      <trkpt lat="40.46196" lon="-4.7685">
        <ele>1073.6</ele>
        <time>2021-07-22 19:11:50</time>
      </trkpt>
      <trkpt lat="40.46175" lon="-4.76857">
        <ele>1072.2</ele>
        <time>2021-07-22 19:11:52</time>
      </trkpt>
      <trkpt lat="40.46164" lon="-4.76859">
        <ele>1071.4</ele>
        <time>2021-07-22 19:11:53</time>
      </trkpt>
      <trkpt lat="40.46155" lon="-4.76861">
        <ele>1070.6</ele>
        <time>2021-07-22 19:11:54</time>
      </trkpt>
      <trkpt lat="40.4613" lon="-4.76867">
        <ele>1068.8</ele>
        <time>2021-07-22 19:11:57</time>
      </trkpt>
      <trkpt lat="40.46123" lon="-4.76869">
        <ele>1067</ele>
        <time>2021-07-22 19:11:58</time>
      </trkpt>
      <trkpt lat="40.46109" lon="-4.76873">
        <ele>1065.8</ele>
        <time>2021-07-22 19:12:00</time>
      </trkpt>
      <trkpt lat="40.46096" lon="-4.76877">
        <ele>1064.6</ele>
        <time>2021-07-22 19:12:02</time>
      </trkpt>
      <trkpt lat="40.4609" lon="-4.7688">
        <ele>1063.6</ele>
        <time>2021-07-22 19:12:03</time>
      </trkpt>
      <trkpt lat="40.46085" lon="-4.76882">
        <ele>1062.8</ele>
        <time>2021-07-22 19:12:04</time>
      </trkpt>
      <trkpt lat="40.4608" lon="-4.76884">
        <ele>1061.6</ele>
        <time>2021-07-22 19:12:05</time>
      </trkpt>
      <trkpt lat="40.46072" lon="-4.76887">
        <ele>1060.2</ele>
        <time>2021-07-22 19:12:07</time>
      </trkpt>
      <trkpt lat="40.46068" lon="-4.76889">
        <ele>1059.6</ele>
        <time>2021-07-22 19:12:08</time>
      </trkpt>
      <trkpt lat="40.46065" lon="-4.7689">
        <ele>1059</ele>
        <time>2021-07-22 19:12:09</time>
      </trkpt>
      <trkpt lat="40.46061" lon="-4.76893">
        <ele>1057.6</ele>
        <time>2021-07-22 19:12:11</time>
      </trkpt>
      <trkpt lat="40.46061" lon="-4.76893">
        <ele>1056.8</ele>
        <time>2021-07-22 19:12:12</time>
      </trkpt>
      <trkpt lat="40.46061" lon="-4.76894">
        <ele>1056.2</ele>
        <time>2021-07-22 19:12:13</time>
      </trkpt>
      <trkpt lat="40.46061" lon="-4.76894">
        <ele>1055.4</ele>
        <time>2021-07-22 19:12:14</time>
      </trkpt>
      <trkpt lat="40.4606" lon="-4.76898">
        <ele>1052.2</ele>
        <time>2021-07-22 19:13:02</time>
      </trkpt>
      <trkpt lat="40.46058" lon="-4.769">
        <ele>1052.2</ele>
        <time>2021-07-22 19:13:03</time>
      </trkpt>
      <trkpt lat="40.46049" lon="-4.76914">
        <ele>1052.2</ele>
        <time>2021-07-22 19:13:07</time>
      </trkpt>
      <trkpt lat="40.46041" lon="-4.76934">
        <ele>1052.2</ele>
        <time>2021-07-22 19:13:12</time>
      </trkpt>
      <trkpt lat="40.46028" lon="-4.76967">
        <ele>1052.6</ele>
        <time>2021-07-22 19:13:20</time>
      </trkpt>
      <trkpt lat="40.46014" lon="-4.77003">
        <ele>1053.6</ele>
        <time>2021-07-22 19:13:28</time>
      </trkpt>
      <trkpt lat="40.46012" lon="-4.77008">
        <ele>1053.8</ele>
        <time>2021-07-22 19:13:29</time>
      </trkpt>
      <trkpt lat="40.45998" lon="-4.77044">
        <ele>1054.2</ele>
        <time>2021-07-22 19:13:37</time>
      </trkpt>
      <trkpt lat="40.45994" lon="-4.77053">
        <ele>1054.6</ele>
        <time>2021-07-22 19:13:39</time>
      </trkpt>
      <trkpt lat="40.45984" lon="-4.7708">
        <ele>1055.6</ele>
        <time>2021-07-22 19:13:45</time>
      </trkpt>
      <trkpt lat="40.45982" lon="-4.77084">
        <ele>1055.6</ele>
        <time>2021-07-22 19:13:46</time>
      </trkpt>
      <trkpt lat="40.45971" lon="-4.77113">
        <ele>1056.6</ele>
        <time>2021-07-22 19:13:53</time>
      </trkpt>
      <trkpt lat="40.45969" lon="-4.77117">
        <ele>1056.8</ele>
        <time>2021-07-22 19:13:54</time>
      </trkpt>
      <trkpt lat="40.45957" lon="-4.77149">
        <ele>1057.4</ele>
        <time>2021-07-22 19:14:02</time>
      </trkpt>
      <trkpt lat="40.45949" lon="-4.77169">
        <ele>1058</ele>
        <time>2021-07-22 19:14:07</time>
      </trkpt>
      <trkpt lat="40.45947" lon="-4.77179">
        <ele>1058.2</ele>
        <time>2021-07-22 19:14:09</time>
      </trkpt>
      <trkpt lat="40.45945" lon="-4.77203">
        <ele>1059</ele>
        <time>2021-07-22 19:14:14</time>
      </trkpt>
      <trkpt lat="40.45945" lon="-4.77213">
        <ele>1059.4</ele>
        <time>2021-07-22 19:14:16</time>
      </trkpt>
      <trkpt lat="40.45946" lon="-4.77229">
        <ele>1060</ele>
        <time>2021-07-22 19:14:19</time>
      </trkpt>
      <trkpt lat="40.45947" lon="-4.77249">
        <ele>1061</ele>
        <time>2021-07-22 19:14:23</time>
      </trkpt>
      <trkpt lat="40.45949" lon="-4.77282">
        <ele>1062.4</ele>
        <time>2021-07-22 19:14:29</time>
      </trkpt>
      <trkpt lat="40.45949" lon="-4.77287">
        <ele>1062.6</ele>
        <time>2021-07-22 19:14:30</time>
      </trkpt>
      <trkpt lat="40.45952" lon="-4.77336">
        <ele>1062.8</ele>
        <time>2021-07-22 19:14:38</time>
      </trkpt>
      <trkpt lat="40.45951" lon="-4.77388">
        <ele>1063</ele>
        <time>2021-07-22 19:14:46</time>
      </trkpt>
      <trkpt lat="40.45948" lon="-4.77409">
        <ele>1063</ele>
        <time>2021-07-22 19:14:49</time>
      </trkpt>
      <trkpt lat="40.45942" lon="-4.77428">
        <ele>1063</ele>
        <time>2021-07-22 19:14:52</time>
      </trkpt>
      <trkpt lat="40.45924" lon="-4.7747">
        <ele>1063</ele>
        <time>2021-07-22 19:14:59</time>
      </trkpt>
      <trkpt lat="40.45905" lon="-4.77506">
        <ele>1063.4</ele>
        <time>2021-07-22 19:15:06</time>
      </trkpt>
      <trkpt lat="40.45888" lon="-4.77536">
        <ele>1063.4</ele>
        <time>2021-07-22 19:15:13</time>
      </trkpt>
      <trkpt lat="40.45884" lon="-4.77544">
        <ele>1063.6</ele>
        <time>2021-07-22 19:15:15</time>
      </trkpt>
      <trkpt lat="40.4587" lon="-4.77569">
        <ele>1064.2</ele>
        <time>2021-07-22 19:15:21</time>
      </trkpt>
      <trkpt lat="40.45863" lon="-4.77582">
        <ele>1064.8</ele>
        <time>2021-07-22 19:15:24</time>
      </trkpt>
      <trkpt lat="40.45849" lon="-4.77607">
        <ele>1065.8</ele>
        <time>2021-07-22 19:15:30</time>
      </trkpt>
      <trkpt lat="40.45839" lon="-4.77625">
        <ele>1066</ele>
        <time>2021-07-22 19:15:34</time>
      </trkpt>
      <trkpt lat="40.45827" lon="-4.77648">
        <ele>1066.8</ele>
        <time>2021-07-22 19:15:39</time>
      </trkpt>
      <trkpt lat="40.45824" lon="-4.77653">
        <ele>1067</ele>
        <time>2021-07-22 19:15:40</time>
      </trkpt>
      <trkpt lat="40.45809" lon="-4.77682">
        <ele>1067.4</ele>
        <time>2021-07-22 19:15:46</time>
      </trkpt>
      <trkpt lat="40.45799" lon="-4.77702">
        <ele>1068</ele>
        <time>2021-07-22 19:15:50</time>
      </trkpt>
      <trkpt lat="40.4579" lon="-4.77722">
        <ele>1068.8</ele>
        <time>2021-07-22 19:15:54</time>
      </trkpt>
      <trkpt lat="40.45778" lon="-4.77759">
        <ele>1069.2</ele>
        <time>2021-07-22 19:16:01</time>
      </trkpt>
      <trkpt lat="40.45777" lon="-4.77765">
        <ele>1069.4</ele>
        <time>2021-07-22 19:16:02</time>
      </trkpt>
      <trkpt lat="40.45769" lon="-4.77802">
        <ele>1069.4</ele>
        <time>2021-07-22 19:16:09</time>
      </trkpt>
      <trkpt lat="40.45764" lon="-4.77845">
        <ele>1069.8</ele>
        <time>2021-07-22 19:16:17</time>
      </trkpt>
      <trkpt lat="40.45761" lon="-4.77878">
        <ele>1070.2</ele>
        <time>2021-07-22 19:16:23</time>
      </trkpt>
      <trkpt lat="40.45759" lon="-4.77895">
        <ele>1070.4</ele>
        <time>2021-07-22 19:16:26</time>
      </trkpt>
      <trkpt lat="40.45756" lon="-4.77938">
        <ele>1071</ele>
        <time>2021-07-22 19:16:33</time>
      </trkpt>
      <trkpt lat="40.45751" lon="-4.77992">
        <ele>1071</ele>
        <time>2021-07-22 19:16:41</time>
      </trkpt>
      <trkpt lat="40.45745" lon="-4.78052">
        <ele>1070.8</ele>
        <time>2021-07-22 19:16:49</time>
      </trkpt>
      <trkpt lat="40.4574" lon="-4.78121">
        <ele>1070.8</ele>
        <time>2021-07-22 19:16:58</time>
      </trkpt>
      <trkpt lat="40.45736" lon="-4.7816">
        <ele>1070.8</ele>
        <time>2021-07-22 19:17:04</time>
      </trkpt>
      <trkpt lat="40.45733" lon="-4.78193">
        <ele>1071.8</ele>
        <time>2021-07-22 19:17:10</time>
      </trkpt>
      <trkpt lat="40.45732" lon="-4.78214">
        <ele>1072</ele>
        <time>2021-07-22 19:17:14</time>
      </trkpt>
      <trkpt lat="40.45729" lon="-4.78244">
        <ele>1073</ele>
        <time>2021-07-22 19:17:20</time>
      </trkpt>
      <trkpt lat="40.45729" lon="-4.78249">
        <ele>1073.4</ele>
        <time>2021-07-22 19:17:21</time>
      </trkpt>
      <trkpt lat="40.45728" lon="-4.78258">
        <ele>1074.2</ele>
        <time>2021-07-22 19:17:23</time>
      </trkpt>
      <trkpt lat="40.45726" lon="-4.78284">
        <ele>1075.2</ele>
        <time>2021-07-22 19:17:28</time>
      </trkpt>
      <trkpt lat="40.45725" lon="-4.78289">
        <ele>1075.4</ele>
        <time>2021-07-22 19:17:29</time>
      </trkpt>
      <trkpt lat="40.45721" lon="-4.78334">
        <ele>1076.2</ele>
        <time>2021-07-22 19:17:37</time>
      </trkpt>
      <trkpt lat="40.45718" lon="-4.78367">
        <ele>1076.4</ele>
        <time>2021-07-22 19:17:43</time>
      </trkpt>
      <trkpt lat="40.45717" lon="-4.78383">
        <ele>1076.8</ele>
        <time>2021-07-22 19:17:46</time>
      </trkpt>
      <trkpt lat="40.45714" lon="-4.78415">
        <ele>1077.6</ele>
        <time>2021-07-22 19:17:52</time>
      </trkpt>
      <trkpt lat="40.45713" lon="-4.78431">
        <ele>1078.2</ele>
        <time>2021-07-22 19:17:55</time>
      </trkpt>
      <trkpt lat="40.4571" lon="-4.78476">
        <ele>1078.4</ele>
        <time>2021-07-22 19:18:03</time>
      </trkpt>
      <trkpt lat="40.45709" lon="-4.78494">
        <ele>1078.8</ele>
        <time>2021-07-22 19:18:06</time>
      </trkpt>
      <trkpt lat="40.45708" lon="-4.78518">
        <ele>1079</ele>
        <time>2021-07-22 19:18:10</time>
      </trkpt>
      <trkpt lat="40.45708" lon="-4.78568">
        <ele>1079.8</ele>
        <time>2021-07-22 19:18:18</time>
      </trkpt>
      <trkpt lat="40.45708" lon="-4.78574">
        <ele>1079.8</ele>
        <time>2021-07-22 19:18:19</time>
      </trkpt>
      <trkpt lat="40.45707" lon="-4.78604">
        <ele>1080.6</ele>
        <time>2021-07-22 19:18:24</time>
      </trkpt>
      <trkpt lat="40.45708" lon="-4.78616">
        <ele>1080.8</ele>
        <time>2021-07-22 19:18:26</time>
      </trkpt>
      <trkpt lat="40.45708" lon="-4.78639">
        <ele>1081.2</ele>
        <time>2021-07-22 19:18:30</time>
      </trkpt>
      <trkpt lat="40.45708" lon="-4.78655">
        <ele>1081.4</ele>
        <time>2021-07-22 19:18:33</time>
      </trkpt>
      <trkpt lat="40.4571" lon="-4.78691">
        <ele>1082.2</ele>
        <time>2021-07-22 19:18:40</time>
      </trkpt>
      <trkpt lat="40.45711" lon="-4.78707">
        <ele>1082.2</ele>
        <time>2021-07-22 19:18:43</time>
      </trkpt>
      <trkpt lat="40.45713" lon="-4.78745">
        <ele>1083.2</ele>
        <time>2021-07-22 19:18:50</time>
      </trkpt>
      <trkpt lat="40.45713" lon="-4.7875">
        <ele>1083.4</ele>
        <time>2021-07-22 19:18:51</time>
      </trkpt>
      <trkpt lat="40.45715" lon="-4.78781">
        <ele>1084.4</ele>
        <time>2021-07-22 19:18:57</time>
      </trkpt>
      <trkpt lat="40.45715" lon="-4.78796">
        <ele>1084.6</ele>
        <time>2021-07-22 19:19:00</time>
      </trkpt>
      <trkpt lat="40.45716" lon="-4.78815">
        <ele>1085.4</ele>
        <time>2021-07-22 19:19:04</time>
      </trkpt>
      <trkpt lat="40.45717" lon="-4.78845">
        <ele>1086</ele>
        <time>2021-07-22 19:19:10</time>
      </trkpt>
      <trkpt lat="40.45718" lon="-4.78865">
        <ele>1086.6</ele>
        <time>2021-07-22 19:19:14</time>
      </trkpt>
      <trkpt lat="40.45719" lon="-4.78886">
        <ele>1087</ele>
        <time>2021-07-22 19:19:18</time>
      </trkpt>
      <trkpt lat="40.45721" lon="-4.78911">
        <ele>1087.8</ele>
        <time>2021-07-22 19:19:23</time>
      </trkpt>
      <trkpt lat="40.45722" lon="-4.78927">
        <ele>1088</ele>
        <time>2021-07-22 19:19:26</time>
      </trkpt>
      <trkpt lat="40.45723" lon="-4.78949">
        <ele>1089</ele>
        <time>2021-07-22 19:19:30</time>
      </trkpt>
      <trkpt lat="40.45725" lon="-4.78987">
        <ele>1089.6</ele>
        <time>2021-07-22 19:19:37</time>
      </trkpt>
      <trkpt lat="40.45726" lon="-4.7901">
        <ele>1090</ele>
        <time>2021-07-22 19:19:41</time>
      </trkpt>
      <trkpt lat="40.45728" lon="-4.79044">
        <ele>1090.6</ele>
        <time>2021-07-22 19:19:47</time>
      </trkpt>
      <trkpt lat="40.45729" lon="-4.79073">
        <ele>1091.2</ele>
        <time>2021-07-22 19:19:52</time>
      </trkpt>
      <trkpt lat="40.4573" lon="-4.79096">
        <ele>1091.4</ele>
        <time>2021-07-22 19:19:56</time>
      </trkpt>
      <trkpt lat="40.45732" lon="-4.79154">
        <ele>1092</ele>
        <time>2021-07-22 19:20:06</time>
      </trkpt>
      <trkpt lat="40.45736" lon="-4.79217">
        <ele>1091.8</ele>
        <time>2021-07-22 19:20:15</time>
      </trkpt>
      <trkpt lat="40.45738" lon="-4.79271">
        <ele>1091.8</ele>
        <time>2021-07-22 19:20:22</time>
      </trkpt>
      <trkpt lat="40.45742" lon="-4.79344">
        <ele>1091.2</ele>
        <time>2021-07-22 19:20:31</time>
      </trkpt>
      <trkpt lat="40.45743" lon="-4.7936">
        <ele>1090.8</ele>
        <time>2021-07-22 19:20:33</time>
      </trkpt>
      <trkpt lat="40.45744" lon="-4.79393">
        <ele>1090.4</ele>
        <time>2021-07-22 19:20:37</time>
      </trkpt>
      <trkpt lat="40.45746" lon="-4.79426">
        <ele>1090</ele>
        <time>2021-07-22 19:20:41</time>
      </trkpt>
      <trkpt lat="40.45748" lon="-4.79459">
        <ele>1089.2</ele>
        <time>2021-07-22 19:20:45</time>
      </trkpt>
      <trkpt lat="40.45749" lon="-4.79492">
        <ele>1088.6</ele>
        <time>2021-07-22 19:20:49</time>
      </trkpt>
      <trkpt lat="40.4575" lon="-4.79518">
        <ele>1088.2</ele>
        <time>2021-07-22 19:20:52</time>
      </trkpt>
      <trkpt lat="40.45753" lon="-4.79571">
        <ele>1087</ele>
        <time>2021-07-22 19:20:58</time>
      </trkpt>
      <trkpt lat="40.45756" lon="-4.79632">
        <ele>1086.2</ele>
        <time>2021-07-22 19:21:05</time>
      </trkpt>
      <trkpt lat="40.45757" lon="-4.79641">
        <ele>1086</ele>
        <time>2021-07-22 19:21:06</time>
      </trkpt>
      <trkpt lat="40.4576" lon="-4.7971">
        <ele>1085.4</ele>
        <time>2021-07-22 19:21:14</time>
      </trkpt>
      <trkpt lat="40.45763" lon="-4.7977">
        <ele>1085.4</ele>
        <time>2021-07-22 19:21:21</time>
      </trkpt>
      <trkpt lat="40.45764" lon="-4.79787">
        <ele>1085.4</ele>
        <time>2021-07-22 19:21:23</time>
      </trkpt>
      <trkpt lat="40.45768" lon="-4.79853">
        <ele>1085.4</ele>
        <time>2021-07-22 19:21:31</time>
      </trkpt>
      <trkpt lat="40.45772" lon="-4.79925">
        <ele>1085.6</ele>
        <time>2021-07-22 19:21:40</time>
      </trkpt>
      <trkpt lat="40.45774" lon="-4.7998">
        <ele>1085.8</ele>
        <time>2021-07-22 19:21:47</time>
      </trkpt>
      <trkpt lat="40.45775" lon="-4.80004">
        <ele>1086</ele>
        <time>2021-07-22 19:21:50</time>
      </trkpt>
      <trkpt lat="40.45779" lon="-4.80076">
        <ele>1086.4</ele>
        <time>2021-07-22 19:21:59</time>
      </trkpt>
      <trkpt lat="40.4578" lon="-4.80084">
        <ele>1086.4</ele>
        <time>2021-07-22 19:22:00</time>
      </trkpt>
      <trkpt lat="40.45783" lon="-4.80137">
        <ele>1086.6</ele>
        <time>2021-07-22 19:22:07</time>
      </trkpt>
      <trkpt lat="40.45786" lon="-4.80211">
        <ele>1087</ele>
        <time>2021-07-22 19:22:17</time>
      </trkpt>
      <trkpt lat="40.4579" lon="-4.80284">
        <ele>1087</ele>
        <time>2021-07-22 19:22:27</time>
      </trkpt>
      <trkpt lat="40.4579" lon="-4.803">
        <ele>1087.2</ele>
        <time>2021-07-22 19:22:29</time>
      </trkpt>
      <trkpt lat="40.45794" lon="-4.80367">
        <ele>1087.4</ele>
        <time>2021-07-22 19:22:38</time>
      </trkpt>
      <trkpt lat="40.45795" lon="-4.80381">
        <ele>1087.6</ele>
        <time>2021-07-22 19:22:40</time>
      </trkpt>
      <trkpt lat="40.45798" lon="-4.80447">
        <ele>1088</ele>
        <time>2021-07-22 19:22:49</time>
      </trkpt>
      <trkpt lat="40.45801" lon="-4.8052">
        <ele>1088.6</ele>
        <time>2021-07-22 19:22:59</time>
      </trkpt>
      <trkpt lat="40.45802" lon="-4.80548">
        <ele>1088.8</ele>
        <time>2021-07-22 19:23:03</time>
      </trkpt>
      <trkpt lat="40.45804" lon="-4.80591">
        <ele>1089.2</ele>
        <time>2021-07-22 19:23:09</time>
      </trkpt>
      <trkpt lat="40.45807" lon="-4.80656">
        <ele>1089.4</ele>
        <time>2021-07-22 19:23:18</time>
      </trkpt>
      <trkpt lat="40.4581" lon="-4.80715">
        <ele>1089.4</ele>
        <time>2021-07-22 19:23:26</time>
      </trkpt>
      <trkpt lat="40.45814" lon="-4.80775">
        <ele>1089.8</ele>
        <time>2021-07-22 19:23:34</time>
      </trkpt>
      <trkpt lat="40.45815" lon="-4.80798">
        <ele>1089.8</ele>
        <time>2021-07-22 19:23:37</time>
      </trkpt>
      <trkpt lat="40.45818" lon="-4.80844">
        <ele>1090.2</ele>
        <time>2021-07-22 19:23:43</time>
      </trkpt>
      <trkpt lat="40.4582" lon="-4.80905">
        <ele>1090.8</ele>
        <time>2021-07-22 19:23:51</time>
      </trkpt>
      <trkpt lat="40.45821" lon="-4.80922">
        <ele>1090.8</ele>
        <time>2021-07-22 19:23:53</time>
      </trkpt>
      <trkpt lat="40.45824" lon="-4.80977">
        <ele>1091.2</ele>
        <time>2021-07-22 19:24:00</time>
      </trkpt>
      <trkpt lat="40.45827" lon="-4.8104">
        <ele>1091.8</ele>
        <time>2021-07-22 19:24:08</time>
      </trkpt>
      <trkpt lat="40.4583" lon="-4.81093">
        <ele>1092</ele>
        <time>2021-07-22 19:24:15</time>
      </trkpt>
      <trkpt lat="40.4583" lon="-4.81108">
        <ele>1092.2</ele>
        <time>2021-07-22 19:24:17</time>
      </trkpt>
      <trkpt lat="40.45832" lon="-4.81145">
        <ele>1092.4</ele>
        <time>2021-07-22 19:24:22</time>
      </trkpt>
      <trkpt lat="40.45834" lon="-4.81179">
        <ele>1093</ele>
        <time>2021-07-22 19:24:28</time>
      </trkpt>
      <trkpt lat="40.45835" lon="-4.81183">
        <ele>1093.2</ele>
        <time>2021-07-22 19:24:29</time>
      </trkpt>
      <trkpt lat="40.45835" lon="-4.81209">
        <ele>1094.4</ele>
        <time>2021-07-22 19:24:35</time>
      </trkpt>
      <trkpt lat="40.45835" lon="-4.81213">
        <ele>1094.6</ele>
        <time>2021-07-22 19:24:36</time>
      </trkpt>
      <trkpt lat="40.45835" lon="-4.81221">
        <ele>1095.4</ele>
        <time>2021-07-22 19:24:38</time>
      </trkpt>
      <trkpt lat="40.45836" lon="-4.8124">
        <ele>1096.4</ele>
        <time>2021-07-22 19:24:43</time>
      </trkpt>
      <trkpt lat="40.45837" lon="-4.81248">
        <ele>1096.4</ele>
        <time>2021-07-22 19:24:45</time>
      </trkpt>
      <trkpt lat="40.45839" lon="-4.81272">
        <ele>1097.4</ele>
        <time>2021-07-22 19:24:51</time>
      </trkpt>
      <trkpt lat="40.45839" lon="-4.81276">
        <ele>1097.6</ele>
        <time>2021-07-22 19:24:52</time>
      </trkpt>
      <trkpt lat="40.4584" lon="-4.81296">
        <ele>1098.6</ele>
        <time>2021-07-22 19:24:57</time>
      </trkpt>
      <trkpt lat="40.4584" lon="-4.81307">
        <ele>1099.4</ele>
        <time>2021-07-22 19:25:00</time>
      </trkpt>
      <trkpt lat="40.45841" lon="-4.8131">
        <ele>1099.6</ele>
        <time>2021-07-22 19:25:01</time>
      </trkpt>
      <trkpt lat="40.45841" lon="-4.81321">
        <ele>1100.8</ele>
        <time>2021-07-22 19:25:04</time>
      </trkpt>
      <trkpt lat="40.45841" lon="-4.81332">
        <ele>1101.2</ele>
        <time>2021-07-22 19:25:07</time>
      </trkpt>
      <trkpt lat="40.45842" lon="-4.81362">
        <ele>1102</ele>
        <time>2021-07-22 19:25:15</time>
      </trkpt>
      <trkpt lat="40.45843" lon="-4.81369">
        <ele>1102.4</ele>
        <time>2021-07-22 19:25:17</time>
      </trkpt>
      <trkpt lat="40.45843" lon="-4.81391">
        <ele>1103</ele>
        <time>2021-07-22 19:25:23</time>
      </trkpt>
      <trkpt lat="40.45843" lon="-4.81399">
        <ele>1103.6</ele>
        <time>2021-07-22 19:25:25</time>
      </trkpt>
      <trkpt lat="40.45843" lon="-4.81407">
        <ele>1104</ele>
        <time>2021-07-22 19:25:27</time>
      </trkpt>
      <trkpt lat="40.45844" lon="-4.81425">
        <ele>1105.2</ele>
        <time>2021-07-22 19:25:32</time>
      </trkpt>
      <trkpt lat="40.45845" lon="-4.81433">
        <ele>1105.6</ele>
        <time>2021-07-22 19:25:34</time>
      </trkpt>
      <trkpt lat="40.45846" lon="-4.81444">
        <ele>1106.2</ele>
        <time>2021-07-22 19:25:37</time>
      </trkpt>
      <trkpt lat="40.45847" lon="-4.81463">
        <ele>1107.4</ele>
        <time>2021-07-22 19:25:42</time>
      </trkpt>
      <trkpt lat="40.45848" lon="-4.81483">
        <ele>1108.6</ele>
        <time>2021-07-22 19:25:47</time>
      </trkpt>
      <trkpt lat="40.45848" lon="-4.81494">
        <ele>1109</ele>
        <time>2021-07-22 19:25:50</time>
      </trkpt>
      <trkpt lat="40.45848" lon="-4.8151">
        <ele>1109.6</ele>
        <time>2021-07-22 19:25:54</time>
      </trkpt>
      <trkpt lat="40.45848" lon="-4.81523">
        <ele>1110.4</ele>
        <time>2021-07-22 19:25:57</time>
      </trkpt>
      <trkpt lat="40.45848" lon="-4.81527">
        <ele>1110.6</ele>
        <time>2021-07-22 19:25:58</time>
      </trkpt>
      <trkpt lat="40.45847" lon="-4.8155">
        <ele>1111.4</ele>
        <time>2021-07-22 19:26:03</time>
      </trkpt>
      <trkpt lat="40.45846" lon="-4.81558">
        <ele>1111.8</ele>
        <time>2021-07-22 19:26:05</time>
      </trkpt>
      <trkpt lat="40.45842" lon="-4.81585">
        <ele>1112.4</ele>
        <time>2021-07-22 19:26:11</time>
      </trkpt>
      <trkpt lat="40.45831" lon="-4.81628">
        <ele>1112.6</ele>
        <time>2021-07-22 19:26:20</time>
      </trkpt>
      <trkpt lat="40.45817" lon="-4.81665">
        <ele>1112.8</ele>
        <time>2021-07-22 19:26:27</time>
      </trkpt>
      <trkpt lat="40.45801" lon="-4.817">
        <ele>1112.8</ele>
        <time>2021-07-22 19:26:33</time>
      </trkpt>
      <trkpt lat="40.45779" lon="-4.81748">
        <ele>1113</ele>
        <time>2021-07-22 19:26:41</time>
      </trkpt>
      <trkpt lat="40.45769" lon="-4.81767">
        <ele>1113</ele>
        <time>2021-07-22 19:26:45</time>
      </trkpt>
      <trkpt lat="40.45761" lon="-4.81782">
        <ele>1113.4</ele>
        <time>2021-07-22 19:26:48</time>
      </trkpt>
      <trkpt lat="40.45749" lon="-4.81808">
        <ele>1114.2</ele>
        <time>2021-07-22 19:26:53</time>
      </trkpt>
      <trkpt lat="40.45744" lon="-4.81818">
        <ele>1114.4</ele>
        <time>2021-07-22 19:26:55</time>
      </trkpt>
      <trkpt lat="40.45726" lon="-4.81861">
        <ele>1115.2</ele>
        <time>2021-07-22 19:27:03</time>
      </trkpt>
      <trkpt lat="40.45704" lon="-4.81909">
        <ele>1116.4</ele>
        <time>2021-07-22 19:27:12</time>
      </trkpt>
      <trkpt lat="40.45694" lon="-4.81929">
        <ele>1117.4</ele>
        <time>2021-07-22 19:27:16</time>
      </trkpt>
      <trkpt lat="40.45686" lon="-4.81945">
        <ele>1117.8</ele>
        <time>2021-07-22 19:27:19</time>
      </trkpt>
      <trkpt lat="40.45671" lon="-4.81972">
        <ele>1118.4</ele>
        <time>2021-07-22 19:27:24</time>
      </trkpt>
      <trkpt lat="40.45665" lon="-4.81983">
        <ele>1118.4</ele>
        <time>2021-07-22 19:27:26</time>
      </trkpt>
      <trkpt lat="40.45636" lon="-4.82028">
        <ele>1119.2</ele>
        <time>2021-07-22 19:27:34</time>
      </trkpt>
      <trkpt lat="40.45604" lon="-4.82078">
        <ele>1119.2</ele>
        <time>2021-07-22 19:27:43</time>
      </trkpt>
      <trkpt lat="40.45578" lon="-4.82118">
        <ele>1118.6</ele>
        <time>2021-07-22 19:27:50</time>
      </trkpt>
      <trkpt lat="40.45542" lon="-4.82176">
        <ele>1118.4</ele>
        <time>2021-07-22 19:27:59</time>
      </trkpt>
      <trkpt lat="40.45529" lon="-4.82196">
        <ele>1118</ele>
        <time>2021-07-22 19:28:02</time>
      </trkpt>
      <trkpt lat="40.45516" lon="-4.82216">
        <ele>1117.6</ele>
        <time>2021-07-22 19:28:05</time>
      </trkpt>
      <trkpt lat="40.45503" lon="-4.82234">
        <ele>1116.8</ele>
        <time>2021-07-22 19:28:08</time>
      </trkpt>
      <trkpt lat="40.45494" lon="-4.82245">
        <ele>1116.4</ele>
        <time>2021-07-22 19:28:10</time>
      </trkpt>
      <trkpt lat="40.45489" lon="-4.8225">
        <ele>1116</ele>
        <time>2021-07-22 19:28:11</time>
      </trkpt>
      <trkpt lat="40.4548" lon="-4.82258">
        <ele>1115.6</ele>
        <time>2021-07-22 19:28:13</time>
      </trkpt>
      <trkpt lat="40.45475" lon="-4.82262">
        <ele>1115.4</ele>
        <time>2021-07-22 19:28:14</time>
      </trkpt>
      <trkpt lat="40.4547" lon="-4.82265">
        <ele>1115.4</ele>
        <time>2021-07-22 19:28:15</time>
      </trkpt>
      <trkpt lat="40.45452" lon="-4.82272">
        <ele>1115.2</ele>
        <time>2021-07-22 19:28:18</time>
      </trkpt>
      <trkpt lat="40.45414" lon="-4.82287">
        <ele>1114.8</ele>
        <time>2021-07-22 19:28:24</time>
      </trkpt>
      <trkpt lat="40.454" lon="-4.82293">
        <ele>1114.4</ele>
        <time>2021-07-22 19:28:26</time>
      </trkpt>
      <trkpt lat="40.45394" lon="-4.82296">
        <ele>1114.4</ele>
        <time>2021-07-22 19:28:27</time>
      </trkpt>
      <trkpt lat="40.45366" lon="-4.82309">
        <ele>1113.6</ele>
        <time>2021-07-22 19:28:31</time>
      </trkpt>
      <trkpt lat="40.45352" lon="-4.82315">
        <ele>1113</ele>
        <time>2021-07-22 19:28:33</time>
      </trkpt>
      <trkpt lat="40.45338" lon="-4.8232">
        <ele>1112.4</ele>
        <time>2021-07-22 19:28:35</time>
      </trkpt>
      <trkpt lat="40.45331" lon="-4.8232">
        <ele>1112</ele>
        <time>2021-07-22 19:28:36</time>
      </trkpt>
      <trkpt lat="40.45311" lon="-4.82311">
        <ele>1111</ele>
        <time>2021-07-22 19:28:39</time>
      </trkpt>
      <trkpt lat="40.45304" lon="-4.82307">
        <ele>1110.8</ele>
        <time>2021-07-22 19:28:40</time>
      </trkpt>
      <trkpt lat="40.45275" lon="-4.82286">
        <ele>1109.4</ele>
        <time>2021-07-22 19:28:44</time>
      </trkpt>
      <trkpt lat="40.45254" lon="-4.82257">
        <ele>1107.8</ele>
        <time>2021-07-22 19:28:48</time>
      </trkpt>
      <trkpt lat="40.45232" lon="-4.82227">
        <ele>1106.8</ele>
        <time>2021-07-22 19:28:52</time>
      </trkpt>
      <trkpt lat="40.4522" lon="-4.82214">
        <ele>1106.4</ele>
        <time>2021-07-22 19:28:54</time>
      </trkpt>
      <trkpt lat="40.45188" lon="-4.82185">
        <ele>1105.6</ele>
        <time>2021-07-22 19:28:59</time>
      </trkpt>
      <trkpt lat="40.45181" lon="-4.82179">
        <ele>1105.4</ele>
        <time>2021-07-22 19:29:00</time>
      </trkpt>
      <trkpt lat="40.45151" lon="-4.82162">
        <ele>1104.4</ele>
        <time>2021-07-22 19:29:04</time>
      </trkpt>
      <trkpt lat="40.45143" lon="-4.82159">
        <ele>1104.2</ele>
        <time>2021-07-22 19:29:05</time>
      </trkpt>
      <trkpt lat="40.4511" lon="-4.82158">
        <ele>1103.8</ele>
        <time>2021-07-22 19:29:09</time>
      </trkpt>
      <trkpt lat="40.45086" lon="-4.82168">
        <ele>1103.8</ele>
        <time>2021-07-22 19:29:12</time>
      </trkpt>
      <trkpt lat="40.45078" lon="-4.82172">
        <ele>1103.6</ele>
        <time>2021-07-22 19:29:13</time>
      </trkpt>
      <trkpt lat="40.45071" lon="-4.82178">
        <ele>1103.6</ele>
        <time>2021-07-22 19:29:14</time>
      </trkpt>
      <trkpt lat="40.45045" lon="-4.82202">
        <ele>1103.2</ele>
        <time>2021-07-22 19:29:18</time>
      </trkpt>
      <trkpt lat="40.45026" lon="-4.8222">
        <ele>1102.4</ele>
        <time>2021-07-22 19:29:21</time>
      </trkpt>
      <trkpt lat="40.45001" lon="-4.82245">
        <ele>1102.2</ele>
        <time>2021-07-22 19:29:25</time>
      </trkpt>
      <trkpt lat="40.44965" lon="-4.82284">
        <ele>1101.8</ele>
        <time>2021-07-22 19:29:31</time>
      </trkpt>
      <trkpt lat="40.44959" lon="-4.8229">
        <ele>1101.4</ele>
        <time>2021-07-22 19:29:32</time>
      </trkpt>
      <trkpt lat="40.44929" lon="-4.82321">
        <ele>1100.4</ele>
        <time>2021-07-22 19:29:37</time>
      </trkpt>
      <trkpt lat="40.44923" lon="-4.82327">
        <ele>1100.2</ele>
        <time>2021-07-22 19:29:38</time>
      </trkpt>
      <trkpt lat="40.44873" lon="-4.82374">
        <ele>1099.4</ele>
        <time>2021-07-22 19:29:46</time>
      </trkpt>
      <trkpt lat="40.44859" lon="-4.82385">
        <ele>1099.2</ele>
        <time>2021-07-22 19:29:48</time>
      </trkpt>
      <trkpt lat="40.4482" lon="-4.82412">
        <ele>1098.6</ele>
        <time>2021-07-22 19:29:54</time>
      </trkpt>
      <trkpt lat="40.44769" lon="-4.82446">
        <ele>1098.6</ele>
        <time>2021-07-22 19:30:02</time>
      </trkpt>
      <trkpt lat="40.44757" lon="-4.82454">
        <ele>1098.6</ele>
        <time>2021-07-22 19:30:04</time>
      </trkpt>
      <trkpt lat="40.44705" lon="-4.82491">
        <ele>1099</ele>
        <time>2021-07-22 19:30:13</time>
      </trkpt>
      <trkpt lat="40.44664" lon="-4.82532">
        <ele>1099</ele>
        <time>2021-07-22 19:30:21</time>
      </trkpt>
      <trkpt lat="40.44635" lon="-4.82574">
        <ele>1098.8</ele>
        <time>2021-07-22 19:30:27</time>
      </trkpt>
      <trkpt lat="40.44618" lon="-4.82599">
        <ele>1098.4</ele>
        <time>2021-07-22 19:30:30</time>
      </trkpt>
      <trkpt lat="40.44595" lon="-4.82635">
        <ele>1097.4</ele>
        <time>2021-07-22 19:30:34</time>
      </trkpt>
      <trkpt lat="40.44589" lon="-4.82644">
        <ele>1097.2</ele>
        <time>2021-07-22 19:30:35</time>
      </trkpt>
      <trkpt lat="40.44571" lon="-4.82673">
        <ele>1095.8</ele>
        <time>2021-07-22 19:30:38</time>
      </trkpt>
      <trkpt lat="40.44551" lon="-4.82703">
        <ele>1094.6</ele>
        <time>2021-07-22 19:30:41</time>
      </trkpt>
      <trkpt lat="40.44545" lon="-4.82714">
        <ele>1094</ele>
        <time>2021-07-22 19:30:42</time>
      </trkpt>
      <trkpt lat="40.44538" lon="-4.82724">
        <ele>1093.6</ele>
        <time>2021-07-22 19:30:43</time>
      </trkpt>
      <trkpt lat="40.44517" lon="-4.82755">
        <ele>1092.4</ele>
        <time>2021-07-22 19:30:46</time>
      </trkpt>
      <trkpt lat="40.44503" lon="-4.82777">
        <ele>1091.8</ele>
        <time>2021-07-22 19:30:48</time>
      </trkpt>
      <trkpt lat="40.44496" lon="-4.82788">
        <ele>1091.2</ele>
        <time>2021-07-22 19:30:49</time>
      </trkpt>
      <trkpt lat="40.44482" lon="-4.8281">
        <ele>1090.4</ele>
        <time>2021-07-22 19:30:51</time>
      </trkpt>
      <trkpt lat="40.44475" lon="-4.8282">
        <ele>1090</ele>
        <time>2021-07-22 19:30:52</time>
      </trkpt>
      <trkpt lat="40.44461" lon="-4.82842">
        <ele>1088.8</ele>
        <time>2021-07-22 19:30:54</time>
      </trkpt>
      <trkpt lat="40.44447" lon="-4.82864">
        <ele>1087.8</ele>
        <time>2021-07-22 19:30:56</time>
      </trkpt>
      <trkpt lat="40.4444" lon="-4.82875">
        <ele>1087.4</ele>
        <time>2021-07-22 19:30:58</time>
      </trkpt>
    </trkseg>
  </trk>
</gpx>
